<?xml version="1.0" encoding="UTF-8" standalone="no" ?>
<gpx xmlns="http://www.topografix.com/GPX/1/1" xmlns:xsi="http://www.w3.org/2001/XMLSchema-instance" xsi:schemaLocation="http://www.topografix.com/GPX/1/1 http://www.topografix.com/GPX/1/1/gpx.xsd" version="1.1" creator="VisuGPX - https://www.visugpx.com">
  <metadata>
    <name>2018-01-10 Bike ride VTT-Amberieux-Saone O Quincieux O</name>
    <desc><![CDATA[2018-01-10 Bike ride VTT-Amberieux-Saone O Quincieux O]]></desc>
  </metadata>
  <wpt lat="45.92993" lon="4.74179">
    <ele>169</ele>
    <name><![CDATA[2018-01-10 10:40 (Start)]]></name>
  </wpt>
  <wpt lat="45.9246" lon="4.7371">
    <ele>174</ele>
    <name><![CDATA[2018-01-10 10:40 (End)]]></name>
    <desc><![CDATA[Created by Google My Tracks on Android  Name: 2018-01-10 10:40 Activity type: biking Description: - Total distance: 21.42 km (13.3 mi) Total time: 2:03:22 Moving time: 1:42:21 Average speed: 10.42 km/h (6.5 mi/h) Average moving speed: 12.56 km/h (7.8 mi/h) Max speed: 31.90 km/h (19.8 mi/h) Average pace: 5:46 min/km (9:16 min/mi) Average moving pace: 4:47 min/km (7:41 min/mi) Fastest pace: 1:53 min/km (3:02 min/mi) Max elevation: 242 m (794 ft) Min elevation: 213 m (698 ft) Elevation gain: 215 m (706 ft) Max grade: 10 % Min grade: -12 % Recorded: 10/01/2018 10:40]]></desc>
  </wpt>
  <trk>
    <name><![CDATA[2018-01-10 10:40]]></name>
    <trkseg>
      <trkpt lat="45.92993" lon="4.74179">
        <ele>169</ele>
        <time>2018-01-10T09:40:29.579Z</time>
      </trkpt>
      <trkpt lat="45.92974" lon="4.74203">
        <ele>170</ele>
        <time>2018-01-10T09:40:32.398Z</time>
      </trkpt>
      <trkpt lat="45.92967" lon="4.74197">
        <ele>170</ele>
        <time>2018-01-10T09:40:34.386Z</time>
      </trkpt>
      <trkpt lat="45.92961" lon="4.74203">
        <ele>170</ele>
        <time>2018-01-10T09:40:35.388Z</time>
      </trkpt>
      <trkpt lat="45.92963" lon="4.74204">
        <ele>170</ele>
        <time>2018-01-10T09:40:36.388Z</time>
      </trkpt>
      <trkpt lat="45.92966" lon="4.74203">
        <ele>170</ele>
        <time>2018-01-10T09:40:39Z</time>
      </trkpt>
      <trkpt lat="45.92967" lon="4.74202">
        <ele>170</ele>
        <time>2018-01-10T09:40:40Z</time>
      </trkpt>
      <trkpt lat="45.92972" lon="4.74193">
        <ele>170</ele>
        <time>2018-01-10T09:40:44Z</time>
      </trkpt>
      <trkpt lat="45.92973" lon="4.74192">
        <ele>170</ele>
        <time>2018-01-10T09:40:45Z</time>
      </trkpt>
      <trkpt lat="45.92977" lon="4.74183">
        <ele>170</ele>
        <time>2018-01-10T09:41:01Z</time>
      </trkpt>
      <trkpt lat="45.92978" lon="4.74181">
        <ele>170</ele>
        <time>2018-01-10T09:41:02Z</time>
      </trkpt>
      <trkpt lat="45.92982" lon="4.7417">
        <ele>169</ele>
        <time>2018-01-10T09:41:05Z</time>
      </trkpt>
      <trkpt lat="45.92984" lon="4.74164">
        <ele>170</ele>
        <time>2018-01-10T09:41:06Z</time>
      </trkpt>
      <trkpt lat="45.92985" lon="4.74157">
        <ele>170</ele>
        <time>2018-01-10T09:41:07Z</time>
      </trkpt>
      <trkpt lat="45.92988" lon="4.7415">
        <ele>170</ele>
        <time>2018-01-10T09:41:08Z</time>
      </trkpt>
      <trkpt lat="45.9299" lon="4.74142">
        <ele>170</ele>
        <time>2018-01-10T09:41:09Z</time>
      </trkpt>
      <trkpt lat="45.92992" lon="4.74132">
        <ele>171</ele>
        <time>2018-01-10T09:41:10Z</time>
      </trkpt>
      <trkpt lat="45.92994" lon="4.74124">
        <ele>171</ele>
        <time>2018-01-10T09:41:11Z</time>
      </trkpt>
      <trkpt lat="45.92997" lon="4.74114">
        <ele>171</ele>
        <time>2018-01-10T09:41:12Z</time>
      </trkpt>
      <trkpt lat="45.92999" lon="4.74105">
        <ele>171</ele>
        <time>2018-01-10T09:41:13Z</time>
      </trkpt>
      <trkpt lat="45.93" lon="4.74094">
        <ele>171</ele>
        <time>2018-01-10T09:41:14Z</time>
      </trkpt>
      <trkpt lat="45.93001" lon="4.74085">
        <ele>171</ele>
        <time>2018-01-10T09:41:15Z</time>
      </trkpt>
      <trkpt lat="45.93002" lon="4.74075">
        <ele>171</ele>
        <time>2018-01-10T09:41:16Z</time>
      </trkpt>
      <trkpt lat="45.93001" lon="4.74064">
        <ele>170</ele>
        <time>2018-01-10T09:41:17Z</time>
      </trkpt>
      <trkpt lat="45.93001" lon="4.74055">
        <ele>170</ele>
        <time>2018-01-10T09:41:18Z</time>
      </trkpt>
      <trkpt lat="45.93001" lon="4.74045">
        <ele>170</ele>
        <time>2018-01-10T09:41:19Z</time>
      </trkpt>
      <trkpt lat="45.93002" lon="4.74035">
        <ele>170</ele>
        <time>2018-01-10T09:41:20Z</time>
      </trkpt>
      <trkpt lat="45.93005" lon="4.74026">
        <ele>170</ele>
        <time>2018-01-10T09:41:21Z</time>
      </trkpt>
      <trkpt lat="45.93007" lon="4.74018">
        <ele>170</ele>
        <time>2018-01-10T09:41:22Z</time>
      </trkpt>
      <trkpt lat="45.9301" lon="4.74011">
        <ele>170</ele>
        <time>2018-01-10T09:41:23Z</time>
      </trkpt>
      <trkpt lat="45.93014" lon="4.74005">
        <ele>170</ele>
        <time>2018-01-10T09:41:24Z</time>
      </trkpt>
      <trkpt lat="45.93018" lon="4.74">
        <ele>170</ele>
        <time>2018-01-10T09:41:25Z</time>
      </trkpt>
      <trkpt lat="45.93023" lon="4.73998">
        <ele>169</ele>
        <time>2018-01-10T09:41:26Z</time>
      </trkpt>
      <trkpt lat="45.93029" lon="4.73997">
        <ele>169</ele>
        <time>2018-01-10T09:41:27Z</time>
      </trkpt>
      <trkpt lat="45.93034" lon="4.73999">
        <ele>169</ele>
        <time>2018-01-10T09:41:28Z</time>
      </trkpt>
      <trkpt lat="45.93038" lon="4.74001">
        <ele>169</ele>
        <time>2018-01-10T09:41:29Z</time>
      </trkpt>
      <trkpt lat="45.93043" lon="4.74005">
        <ele>169</ele>
        <time>2018-01-10T09:41:30Z</time>
      </trkpt>
      <trkpt lat="45.93047" lon="4.74006">
        <ele>169</ele>
        <time>2018-01-10T09:41:31Z</time>
      </trkpt>
      <trkpt lat="45.93052" lon="4.74008">
        <ele>169</ele>
        <time>2018-01-10T09:41:32Z</time>
      </trkpt>
      <trkpt lat="45.93056" lon="4.7401">
        <ele>169</ele>
        <time>2018-01-10T09:41:33Z</time>
      </trkpt>
      <trkpt lat="45.93061" lon="4.74012">
        <ele>169</ele>
        <time>2018-01-10T09:41:34Z</time>
      </trkpt>
      <trkpt lat="45.93069" lon="4.74016">
        <ele>169</ele>
        <time>2018-01-10T09:41:36Z</time>
      </trkpt>
      <trkpt lat="45.93074" lon="4.74016">
        <ele>169</ele>
        <time>2018-01-10T09:41:37Z</time>
      </trkpt>
      <trkpt lat="45.93079" lon="4.74018">
        <ele>169</ele>
        <time>2018-01-10T09:41:38Z</time>
      </trkpt>
      <trkpt lat="45.93084" lon="4.74018">
        <ele>168</ele>
        <time>2018-01-10T09:41:39Z</time>
      </trkpt>
      <trkpt lat="45.93093" lon="4.74019">
        <ele>168</ele>
        <time>2018-01-10T09:41:41Z</time>
      </trkpt>
      <trkpt lat="45.93098" lon="4.7402">
        <ele>168</ele>
        <time>2018-01-10T09:41:42Z</time>
      </trkpt>
      <trkpt lat="45.93104" lon="4.74021">
        <ele>168</ele>
        <time>2018-01-10T09:41:43Z</time>
      </trkpt>
      <trkpt lat="45.93109" lon="4.74022">
        <ele>168</ele>
        <time>2018-01-10T09:41:44Z</time>
      </trkpt>
      <trkpt lat="45.93114" lon="4.74024">
        <ele>168</ele>
        <time>2018-01-10T09:41:45Z</time>
      </trkpt>
      <trkpt lat="45.93118" lon="4.74026">
        <ele>168</ele>
        <time>2018-01-10T09:41:46Z</time>
      </trkpt>
      <trkpt lat="45.93126" lon="4.74028">
        <ele>168</ele>
        <time>2018-01-10T09:41:48Z</time>
      </trkpt>
      <trkpt lat="45.9313" lon="4.7403">
        <ele>168</ele>
        <time>2018-01-10T09:41:49Z</time>
      </trkpt>
      <trkpt lat="45.93135" lon="4.74034">
        <ele>168</ele>
        <time>2018-01-10T09:41:50Z</time>
      </trkpt>
      <trkpt lat="45.93139" lon="4.74036">
        <ele>168</ele>
        <time>2018-01-10T09:41:51Z</time>
      </trkpt>
      <trkpt lat="45.93143" lon="4.74039">
        <ele>168</ele>
        <time>2018-01-10T09:41:52Z</time>
      </trkpt>
      <trkpt lat="45.93148" lon="4.74044">
        <ele>168</ele>
        <time>2018-01-10T09:41:53Z</time>
      </trkpt>
      <trkpt lat="45.93152" lon="4.74047">
        <ele>168</ele>
        <time>2018-01-10T09:41:54Z</time>
      </trkpt>
      <trkpt lat="45.93156" lon="4.74051">
        <ele>168</ele>
        <time>2018-01-10T09:41:55Z</time>
      </trkpt>
      <trkpt lat="45.93161" lon="4.74055">
        <ele>168</ele>
        <time>2018-01-10T09:41:56Z</time>
      </trkpt>
      <trkpt lat="45.93166" lon="4.7406">
        <ele>168</ele>
        <time>2018-01-10T09:41:57Z</time>
      </trkpt>
      <trkpt lat="45.9317" lon="4.74065">
        <ele>168</ele>
        <time>2018-01-10T09:41:58Z</time>
      </trkpt>
      <trkpt lat="45.93175" lon="4.7407">
        <ele>168</ele>
        <time>2018-01-10T09:41:59Z</time>
      </trkpt>
      <trkpt lat="45.9318" lon="4.74075">
        <ele>168</ele>
        <time>2018-01-10T09:42:00Z</time>
      </trkpt>
      <trkpt lat="45.93185" lon="4.7408">
        <ele>168</ele>
        <time>2018-01-10T09:42:01Z</time>
      </trkpt>
      <trkpt lat="45.9319" lon="4.74085">
        <ele>168</ele>
        <time>2018-01-10T09:42:02Z</time>
      </trkpt>
      <trkpt lat="45.93195" lon="4.74089">
        <ele>167</ele>
        <time>2018-01-10T09:42:03Z</time>
      </trkpt>
      <trkpt lat="45.93199" lon="4.74093">
        <ele>167</ele>
        <time>2018-01-10T09:42:04Z</time>
      </trkpt>
      <trkpt lat="45.93204" lon="4.74098">
        <ele>167</ele>
        <time>2018-01-10T09:42:05Z</time>
      </trkpt>
      <trkpt lat="45.93208" lon="4.74101">
        <ele>167</ele>
        <time>2018-01-10T09:42:06Z</time>
      </trkpt>
      <trkpt lat="45.93213" lon="4.74105">
        <ele>167</ele>
        <time>2018-01-10T09:42:07Z</time>
      </trkpt>
      <trkpt lat="45.93217" lon="4.74108">
        <ele>167</ele>
        <time>2018-01-10T09:42:08Z</time>
      </trkpt>
      <trkpt lat="45.93222" lon="4.74111">
        <ele>167</ele>
        <time>2018-01-10T09:42:09Z</time>
      </trkpt>
      <trkpt lat="45.93229" lon="4.74115">
        <ele>167</ele>
        <time>2018-01-10T09:42:11Z</time>
      </trkpt>
      <trkpt lat="45.93233" lon="4.74115">
        <ele>167</ele>
        <time>2018-01-10T09:42:12Z</time>
      </trkpt>
      <trkpt lat="45.93241" lon="4.74112">
        <ele>167</ele>
        <time>2018-01-10T09:42:14Z</time>
      </trkpt>
      <trkpt lat="45.93243" lon="4.74107">
        <ele>167</ele>
        <time>2018-01-10T09:42:15Z</time>
      </trkpt>
      <trkpt lat="45.93249" lon="4.74098">
        <ele>167</ele>
        <time>2018-01-10T09:42:17Z</time>
      </trkpt>
      <trkpt lat="45.93252" lon="4.74093">
        <ele>167</ele>
        <time>2018-01-10T09:42:18Z</time>
      </trkpt>
      <trkpt lat="45.93257" lon="4.74083">
        <ele>167</ele>
        <time>2018-01-10T09:42:20Z</time>
      </trkpt>
      <trkpt lat="45.9326" lon="4.74078">
        <ele>167</ele>
        <time>2018-01-10T09:42:21Z</time>
      </trkpt>
      <trkpt lat="45.93264" lon="4.74068">
        <ele>167</ele>
        <time>2018-01-10T09:42:23Z</time>
      </trkpt>
      <trkpt lat="45.93266" lon="4.74065">
        <ele>167</ele>
        <time>2018-01-10T09:42:24Z</time>
      </trkpt>
      <trkpt lat="45.9327" lon="4.74055">
        <ele>168</ele>
        <time>2018-01-10T09:42:26Z</time>
      </trkpt>
      <trkpt lat="45.93272" lon="4.74051">
        <ele>168</ele>
        <time>2018-01-10T09:42:27Z</time>
      </trkpt>
      <trkpt lat="45.93274" lon="4.74044">
        <ele>168</ele>
        <time>2018-01-10T09:42:28Z</time>
      </trkpt>
      <trkpt lat="45.93276" lon="4.74037">
        <ele>168</ele>
        <time>2018-01-10T09:42:29Z</time>
      </trkpt>
      <trkpt lat="45.9328" lon="4.74032">
        <ele>168</ele>
        <time>2018-01-10T09:42:30Z</time>
      </trkpt>
      <trkpt lat="45.93282" lon="4.74026">
        <ele>168</ele>
        <time>2018-01-10T09:42:31Z</time>
      </trkpt>
      <trkpt lat="45.93285" lon="4.7402">
        <ele>168</ele>
        <time>2018-01-10T09:42:32Z</time>
      </trkpt>
      <trkpt lat="45.93288" lon="4.74014">
        <ele>168</ele>
        <time>2018-01-10T09:42:33Z</time>
      </trkpt>
      <trkpt lat="45.93293" lon="4.74006">
        <ele>168</ele>
        <time>2018-01-10T09:42:35Z</time>
      </trkpt>
      <trkpt lat="45.93296" lon="4.74002">
        <ele>168</ele>
        <time>2018-01-10T09:42:36Z</time>
      </trkpt>
      <trkpt lat="45.93302" lon="4.73992">
        <ele>168</ele>
        <time>2018-01-10T09:42:38Z</time>
      </trkpt>
      <trkpt lat="45.93305" lon="4.73986">
        <ele>168</ele>
        <time>2018-01-10T09:42:39Z</time>
      </trkpt>
      <trkpt lat="45.93309" lon="4.73975">
        <ele>168</ele>
        <time>2018-01-10T09:42:41Z</time>
      </trkpt>
      <trkpt lat="45.93312" lon="4.73971">
        <ele>168</ele>
        <time>2018-01-10T09:42:42Z</time>
      </trkpt>
      <trkpt lat="45.93318" lon="4.73962">
        <ele>168</ele>
        <time>2018-01-10T09:42:44Z</time>
      </trkpt>
      <trkpt lat="45.9332" lon="4.73958">
        <ele>168</ele>
        <time>2018-01-10T09:42:45Z</time>
      </trkpt>
      <trkpt lat="45.93323" lon="4.73952">
        <ele>168</ele>
        <time>2018-01-10T09:42:46Z</time>
      </trkpt>
      <trkpt lat="45.93326" lon="4.73947">
        <ele>168</ele>
        <time>2018-01-10T09:42:47Z</time>
      </trkpt>
      <trkpt lat="45.93328" lon="4.73942">
        <ele>168</ele>
        <time>2018-01-10T09:42:48Z</time>
      </trkpt>
      <trkpt lat="45.93331" lon="4.73937">
        <ele>168</ele>
        <time>2018-01-10T09:42:49Z</time>
      </trkpt>
      <trkpt lat="45.93337" lon="4.73928">
        <ele>168</ele>
        <time>2018-01-10T09:42:51Z</time>
      </trkpt>
      <trkpt lat="45.93339" lon="4.73924">
        <ele>168</ele>
        <time>2018-01-10T09:42:52Z</time>
      </trkpt>
      <trkpt lat="45.93343" lon="4.73915">
        <ele>168</ele>
        <time>2018-01-10T09:42:54Z</time>
      </trkpt>
      <trkpt lat="45.93345" lon="4.73911">
        <ele>168</ele>
        <time>2018-01-10T09:42:55Z</time>
      </trkpt>
      <trkpt lat="45.93351" lon="4.73904">
        <ele>168</ele>
        <time>2018-01-10T09:42:57Z</time>
      </trkpt>
      <trkpt lat="45.93353" lon="4.73899">
        <ele>168</ele>
        <time>2018-01-10T09:42:58Z</time>
      </trkpt>
      <trkpt lat="45.93359" lon="4.73891">
        <ele>168</ele>
        <time>2018-01-10T09:43:00Z</time>
      </trkpt>
      <trkpt lat="45.93362" lon="4.73888">
        <ele>168</ele>
        <time>2018-01-10T09:43:01Z</time>
      </trkpt>
      <trkpt lat="45.93367" lon="4.73882">
        <ele>168</ele>
        <time>2018-01-10T09:43:03Z</time>
      </trkpt>
      <trkpt lat="45.9337" lon="4.73879">
        <ele>168</ele>
        <time>2018-01-10T09:43:04Z</time>
      </trkpt>
      <trkpt lat="45.93376" lon="4.73873">
        <ele>169</ele>
        <time>2018-01-10T09:43:06Z</time>
      </trkpt>
      <trkpt lat="45.9338" lon="4.7387">
        <ele>169</ele>
        <time>2018-01-10T09:43:07Z</time>
      </trkpt>
      <trkpt lat="45.93387" lon="4.73865">
        <ele>169</ele>
        <time>2018-01-10T09:43:09Z</time>
      </trkpt>
      <trkpt lat="45.93391" lon="4.73863">
        <ele>169</ele>
        <time>2018-01-10T09:43:10Z</time>
      </trkpt>
      <trkpt lat="45.93398" lon="4.73858">
        <ele>169</ele>
        <time>2018-01-10T09:43:12Z</time>
      </trkpt>
      <trkpt lat="45.93401" lon="4.73856">
        <ele>169</ele>
        <time>2018-01-10T09:43:13Z</time>
      </trkpt>
      <trkpt lat="45.93409" lon="4.7385">
        <ele>169</ele>
        <time>2018-01-10T09:43:15Z</time>
      </trkpt>
      <trkpt lat="45.93413" lon="4.73848">
        <ele>169</ele>
        <time>2018-01-10T09:43:16Z</time>
      </trkpt>
      <trkpt lat="45.93421" lon="4.73843">
        <ele>169</ele>
        <time>2018-01-10T09:43:18Z</time>
      </trkpt>
      <trkpt lat="45.93425" lon="4.73841">
        <ele>169</ele>
        <time>2018-01-10T09:43:19Z</time>
      </trkpt>
      <trkpt lat="45.93433" lon="4.73837">
        <ele>169</ele>
        <time>2018-01-10T09:43:21Z</time>
      </trkpt>
      <trkpt lat="45.93436" lon="4.73836">
        <ele>169</ele>
        <time>2018-01-10T09:43:22Z</time>
      </trkpt>
      <trkpt lat="45.93443" lon="4.73832">
        <ele>169</ele>
        <time>2018-01-10T09:43:24Z</time>
      </trkpt>
      <trkpt lat="45.93447" lon="4.73831">
        <ele>169</ele>
        <time>2018-01-10T09:43:25Z</time>
      </trkpt>
      <trkpt lat="45.93455" lon="4.73827">
        <ele>169</ele>
        <time>2018-01-10T09:43:27Z</time>
      </trkpt>
      <trkpt lat="45.93459" lon="4.73825">
        <ele>169</ele>
        <time>2018-01-10T09:43:28Z</time>
      </trkpt>
      <trkpt lat="45.93463" lon="4.73823">
        <ele>169</ele>
        <time>2018-01-10T09:43:29Z</time>
      </trkpt>
      <trkpt lat="45.93468" lon="4.73821">
        <ele>169</ele>
        <time>2018-01-10T09:43:30Z</time>
      </trkpt>
      <trkpt lat="45.93473" lon="4.73819">
        <ele>169</ele>
        <time>2018-01-10T09:43:31Z</time>
      </trkpt>
      <trkpt lat="45.93478" lon="4.73819">
        <ele>169</ele>
        <time>2018-01-10T09:43:32Z</time>
      </trkpt>
      <trkpt lat="45.93486" lon="4.73814">
        <ele>169</ele>
        <time>2018-01-10T09:43:34Z</time>
      </trkpt>
      <trkpt lat="45.93489" lon="4.73812">
        <ele>169</ele>
        <time>2018-01-10T09:43:35Z</time>
      </trkpt>
      <trkpt lat="45.93495" lon="4.73809">
        <ele>169</ele>
        <time>2018-01-10T09:43:37Z</time>
      </trkpt>
      <trkpt lat="45.93499" lon="4.73806">
        <ele>169</ele>
        <time>2018-01-10T09:43:38Z</time>
      </trkpt>
      <trkpt lat="45.93506" lon="4.738">
        <ele>169</ele>
        <time>2018-01-10T09:43:40Z</time>
      </trkpt>
      <trkpt lat="45.93509" lon="4.73795">
        <ele>169</ele>
        <time>2018-01-10T09:43:41Z</time>
      </trkpt>
      <trkpt lat="45.93515" lon="4.73789">
        <ele>169</ele>
        <time>2018-01-10T09:43:43Z</time>
      </trkpt>
      <trkpt lat="45.93519" lon="4.73786">
        <ele>169</ele>
        <time>2018-01-10T09:43:44Z</time>
      </trkpt>
      <trkpt lat="45.93525" lon="4.73779">
        <ele>169</ele>
        <time>2018-01-10T09:43:46Z</time>
      </trkpt>
      <trkpt lat="45.93528" lon="4.73776">
        <ele>169</ele>
        <time>2018-01-10T09:43:47Z</time>
      </trkpt>
      <trkpt lat="45.93535" lon="4.73769">
        <ele>169</ele>
        <time>2018-01-10T09:43:49Z</time>
      </trkpt>
      <trkpt lat="45.93537" lon="4.73764">
        <ele>169</ele>
        <time>2018-01-10T09:43:50Z</time>
      </trkpt>
      <trkpt lat="45.93541" lon="4.73761">
        <ele>169</ele>
        <time>2018-01-10T09:43:51Z</time>
      </trkpt>
      <trkpt lat="45.93546" lon="4.73759">
        <ele>169</ele>
        <time>2018-01-10T09:43:52Z</time>
      </trkpt>
      <trkpt lat="45.93552" lon="4.73753">
        <ele>169</ele>
        <time>2018-01-10T09:43:54Z</time>
      </trkpt>
      <trkpt lat="45.93555" lon="4.7375">
        <ele>169</ele>
        <time>2018-01-10T09:43:55Z</time>
      </trkpt>
      <trkpt lat="45.93561" lon="4.73744">
        <ele>169</ele>
        <time>2018-01-10T09:43:57Z</time>
      </trkpt>
      <trkpt lat="45.93563" lon="4.73741">
        <ele>169</ele>
        <time>2018-01-10T09:43:58Z</time>
      </trkpt>
      <trkpt lat="45.93569" lon="4.73737">
        <ele>169</ele>
        <time>2018-01-10T09:44:00Z</time>
      </trkpt>
      <trkpt lat="45.93572" lon="4.73735">
        <ele>169</ele>
        <time>2018-01-10T09:44:01Z</time>
      </trkpt>
      <trkpt lat="45.93577" lon="4.73729">
        <ele>169</ele>
        <time>2018-01-10T09:44:03Z</time>
      </trkpt>
      <trkpt lat="45.93579" lon="4.73726">
        <ele>169</ele>
        <time>2018-01-10T09:44:04Z</time>
      </trkpt>
      <trkpt lat="45.93584" lon="4.73717">
        <ele>169</ele>
        <time>2018-01-10T09:44:08Z</time>
      </trkpt>
      <trkpt lat="45.93585" lon="4.73716">
        <ele>169</ele>
        <time>2018-01-10T09:44:09Z</time>
      </trkpt>
      <trkpt lat="45.93587" lon="4.73705">
        <ele>169</ele>
        <time>2018-01-10T09:44:15Z</time>
      </trkpt>
      <trkpt lat="45.93588" lon="4.73702">
        <ele>169</ele>
        <time>2018-01-10T09:44:16Z</time>
      </trkpt>
      <trkpt lat="45.93589" lon="4.73689">
        <ele>169</ele>
        <time>2018-01-10T09:44:19Z</time>
      </trkpt>
      <trkpt lat="45.93589" lon="4.73684">
        <ele>169</ele>
        <time>2018-01-10T09:44:20Z</time>
      </trkpt>
      <trkpt lat="45.93588" lon="4.73674">
        <ele>168</ele>
        <time>2018-01-10T09:44:22Z</time>
      </trkpt>
      <trkpt lat="45.93588" lon="4.73669">
        <ele>168</ele>
        <time>2018-01-10T09:44:23Z</time>
      </trkpt>
      <trkpt lat="45.93586" lon="4.73658">
        <ele>168</ele>
        <time>2018-01-10T09:44:25Z</time>
      </trkpt>
      <trkpt lat="45.93585" lon="4.73652">
        <ele>168</ele>
        <time>2018-01-10T09:44:26Z</time>
      </trkpt>
      <trkpt lat="45.93584" lon="4.73641">
        <ele>168</ele>
        <time>2018-01-10T09:44:28Z</time>
      </trkpt>
      <trkpt lat="45.93583" lon="4.73636">
        <ele>168</ele>
        <time>2018-01-10T09:44:29Z</time>
      </trkpt>
      <trkpt lat="45.93582" lon="4.73627">
        <ele>168</ele>
        <time>2018-01-10T09:44:31Z</time>
      </trkpt>
      <trkpt lat="45.93582" lon="4.73622">
        <ele>168</ele>
        <time>2018-01-10T09:44:32Z</time>
      </trkpt>
      <trkpt lat="45.93581" lon="4.73612">
        <ele>168</ele>
        <time>2018-01-10T09:44:34Z</time>
      </trkpt>
      <trkpt lat="45.93581" lon="4.73606">
        <ele>168</ele>
        <time>2018-01-10T09:44:35Z</time>
      </trkpt>
      <trkpt lat="45.9358" lon="4.73593">
        <ele>168</ele>
        <time>2018-01-10T09:44:37Z</time>
      </trkpt>
      <trkpt lat="45.9358" lon="4.73587">
        <ele>168</ele>
        <time>2018-01-10T09:44:38Z</time>
      </trkpt>
      <trkpt lat="45.9358" lon="4.73576">
        <ele>168</ele>
        <time>2018-01-10T09:44:40Z</time>
      </trkpt>
      <trkpt lat="45.93579" lon="4.73571">
        <ele>168</ele>
        <time>2018-01-10T09:44:41Z</time>
      </trkpt>
      <trkpt lat="45.93579" lon="4.73561">
        <ele>168</ele>
        <time>2018-01-10T09:44:43Z</time>
      </trkpt>
      <trkpt lat="45.93578" lon="4.73556">
        <ele>168</ele>
        <time>2018-01-10T09:44:44Z</time>
      </trkpt>
      <trkpt lat="45.93576" lon="4.73545">
        <ele>168</ele>
        <time>2018-01-10T09:44:46Z</time>
      </trkpt>
      <trkpt lat="45.93575" lon="4.7354">
        <ele>169</ele>
        <time>2018-01-10T09:44:47Z</time>
      </trkpt>
      <trkpt lat="45.93572" lon="4.7353">
        <ele>169</ele>
        <time>2018-01-10T09:44:49Z</time>
      </trkpt>
      <trkpt lat="45.9357" lon="4.73525">
        <ele>168</ele>
        <time>2018-01-10T09:44:50Z</time>
      </trkpt>
      <trkpt lat="45.93567" lon="4.73514">
        <ele>168</ele>
        <time>2018-01-10T09:44:52Z</time>
      </trkpt>
      <trkpt lat="45.93566" lon="4.73508">
        <ele>168</ele>
        <time>2018-01-10T09:44:53Z</time>
      </trkpt>
      <trkpt lat="45.93562" lon="4.73496">
        <ele>169</ele>
        <time>2018-01-10T09:44:55Z</time>
      </trkpt>
      <trkpt lat="45.93561" lon="4.7349">
        <ele>169</ele>
        <time>2018-01-10T09:44:56Z</time>
      </trkpt>
      <trkpt lat="45.93558" lon="4.7348">
        <ele>169</ele>
        <time>2018-01-10T09:44:58Z</time>
      </trkpt>
      <trkpt lat="45.93557" lon="4.73475">
        <ele>169</ele>
        <time>2018-01-10T09:44:59Z</time>
      </trkpt>
      <trkpt lat="45.93554" lon="4.73464">
        <ele>169</ele>
        <time>2018-01-10T09:45:01Z</time>
      </trkpt>
      <trkpt lat="45.93552" lon="4.73458">
        <ele>169</ele>
        <time>2018-01-10T09:45:02Z</time>
      </trkpt>
      <trkpt lat="45.93548" lon="4.73447">
        <ele>169</ele>
        <time>2018-01-10T09:45:04Z</time>
      </trkpt>
      <trkpt lat="45.93546" lon="4.73442">
        <ele>169</ele>
        <time>2018-01-10T09:45:05Z</time>
      </trkpt>
      <trkpt lat="45.93543" lon="4.73433">
        <ele>169</ele>
        <time>2018-01-10T09:45:07Z</time>
      </trkpt>
      <trkpt lat="45.93541" lon="4.73427">
        <ele>169</ele>
        <time>2018-01-10T09:45:08Z</time>
      </trkpt>
      <trkpt lat="45.93539" lon="4.73415">
        <ele>169</ele>
        <time>2018-01-10T09:45:10Z</time>
      </trkpt>
      <trkpt lat="45.93538" lon="4.73409">
        <ele>169</ele>
        <time>2018-01-10T09:45:11Z</time>
      </trkpt>
      <trkpt lat="45.93537" lon="4.73403">
        <ele>169</ele>
        <time>2018-01-10T09:45:12Z</time>
      </trkpt>
      <trkpt lat="45.93536" lon="4.73396">
        <ele>169</ele>
        <time>2018-01-10T09:45:13Z</time>
      </trkpt>
      <trkpt lat="45.93533" lon="4.73385">
        <ele>169</ele>
        <time>2018-01-10T09:45:15Z</time>
      </trkpt>
      <trkpt lat="45.93532" lon="4.73379">
        <ele>169</ele>
        <time>2018-01-10T09:45:16Z</time>
      </trkpt>
      <trkpt lat="45.93531" lon="4.73368">
        <ele>169</ele>
        <time>2018-01-10T09:45:18Z</time>
      </trkpt>
      <trkpt lat="45.9353" lon="4.73363">
        <ele>169</ele>
        <time>2018-01-10T09:45:19Z</time>
      </trkpt>
      <trkpt lat="45.93528" lon="4.73353">
        <ele>169</ele>
        <time>2018-01-10T09:45:21Z</time>
      </trkpt>
      <trkpt lat="45.93527" lon="4.73348">
        <ele>169</ele>
        <time>2018-01-10T09:45:22Z</time>
      </trkpt>
      <trkpt lat="45.93525" lon="4.73336">
        <ele>169</ele>
        <time>2018-01-10T09:45:24Z</time>
      </trkpt>
      <trkpt lat="45.93524" lon="4.73329">
        <ele>169</ele>
        <time>2018-01-10T09:45:25Z</time>
      </trkpt>
      <trkpt lat="45.93522" lon="4.73323">
        <ele>169</ele>
        <time>2018-01-10T09:45:26Z</time>
      </trkpt>
      <trkpt lat="45.93521" lon="4.73316">
        <ele>169</ele>
        <time>2018-01-10T09:45:27Z</time>
      </trkpt>
      <trkpt lat="45.9352" lon="4.73308">
        <ele>169</ele>
        <time>2018-01-10T09:45:28Z</time>
      </trkpt>
      <trkpt lat="45.93519" lon="4.73303">
        <ele>169</ele>
        <time>2018-01-10T09:45:29Z</time>
      </trkpt>
      <trkpt lat="45.93518" lon="4.73296">
        <ele>169</ele>
        <time>2018-01-10T09:45:30Z</time>
      </trkpt>
      <trkpt lat="45.93517" lon="4.7329">
        <ele>169</ele>
        <time>2018-01-10T09:45:31Z</time>
      </trkpt>
      <trkpt lat="45.93515" lon="4.73278">
        <ele>169</ele>
        <time>2018-01-10T09:45:33Z</time>
      </trkpt>
      <trkpt lat="45.93513" lon="4.73272">
        <ele>169</ele>
        <time>2018-01-10T09:45:34Z</time>
      </trkpt>
      <trkpt lat="45.93513" lon="4.73265">
        <ele>169</ele>
        <time>2018-01-10T09:45:35Z</time>
      </trkpt>
      <trkpt lat="45.93512" lon="4.73259">
        <ele>169</ele>
        <time>2018-01-10T09:45:36Z</time>
      </trkpt>
      <trkpt lat="45.93509" lon="4.73252">
        <ele>169</ele>
        <time>2018-01-10T09:45:37Z</time>
      </trkpt>
      <trkpt lat="45.93508" lon="4.73245">
        <ele>169</ele>
        <time>2018-01-10T09:45:38Z</time>
      </trkpt>
      <trkpt lat="45.93507" lon="4.73239">
        <ele>169</ele>
        <time>2018-01-10T09:45:39Z</time>
      </trkpt>
      <trkpt lat="45.93506" lon="4.73232">
        <ele>169</ele>
        <time>2018-01-10T09:45:40Z</time>
      </trkpt>
      <trkpt lat="45.93505" lon="4.73226">
        <ele>169</ele>
        <time>2018-01-10T09:45:41Z</time>
      </trkpt>
      <trkpt lat="45.93503" lon="4.73219">
        <ele>169</ele>
        <time>2018-01-10T09:45:42Z</time>
      </trkpt>
      <trkpt lat="45.93502" lon="4.73213">
        <ele>169</ele>
        <time>2018-01-10T09:45:43Z</time>
      </trkpt>
      <trkpt lat="45.935" lon="4.73207">
        <ele>169</ele>
        <time>2018-01-10T09:45:44Z</time>
      </trkpt>
      <trkpt lat="45.93499" lon="4.73194">
        <ele>169</ele>
        <time>2018-01-10T09:45:47Z</time>
      </trkpt>
      <trkpt lat="45.93498" lon="4.73191">
        <ele>169</ele>
        <time>2018-01-10T09:45:48Z</time>
      </trkpt>
      <trkpt lat="45.93498" lon="4.7318">
        <ele>169</ele>
        <time>2018-01-10T09:45:59Z</time>
      </trkpt>
      <trkpt lat="45.93498" lon="4.73178">
        <ele>169</ele>
        <time>2018-01-10T09:46:00Z</time>
      </trkpt>
      <trkpt lat="45.93495" lon="4.73166">
        <ele>170</ele>
        <time>2018-01-10T09:46:05Z</time>
      </trkpt>
      <trkpt lat="45.93494" lon="4.73163">
        <ele>170</ele>
        <time>2018-01-10T09:46:06Z</time>
      </trkpt>
      <trkpt lat="45.9349" lon="4.73153">
        <ele>170</ele>
        <time>2018-01-10T09:46:09Z</time>
      </trkpt>
      <trkpt lat="45.9349" lon="4.7315">
        <ele>170</ele>
        <time>2018-01-10T09:46:10Z</time>
      </trkpt>
      <trkpt lat="45.93488" lon="4.73141">
        <ele>170</ele>
        <time>2018-01-10T09:46:13Z</time>
      </trkpt>
      <trkpt lat="45.93488" lon="4.73137">
        <ele>170</ele>
        <time>2018-01-10T09:46:14Z</time>
      </trkpt>
      <trkpt lat="45.93487" lon="4.73128">
        <ele>170</ele>
        <time>2018-01-10T09:46:16Z</time>
      </trkpt>
      <trkpt lat="45.93486" lon="4.73124">
        <ele>170</ele>
        <time>2018-01-10T09:46:17Z</time>
      </trkpt>
      <trkpt lat="45.93486" lon="4.73113">
        <ele>170</ele>
        <time>2018-01-10T09:46:19Z</time>
      </trkpt>
      <trkpt lat="45.93485" lon="4.73108">
        <ele>170</ele>
        <time>2018-01-10T09:46:20Z</time>
      </trkpt>
      <trkpt lat="45.93484" lon="4.73099">
        <ele>170</ele>
        <time>2018-01-10T09:46:22Z</time>
      </trkpt>
      <trkpt lat="45.93484" lon="4.73095">
        <ele>170</ele>
        <time>2018-01-10T09:46:23Z</time>
      </trkpt>
      <trkpt lat="45.93484" lon="4.73083">
        <ele>170</ele>
        <time>2018-01-10T09:46:26Z</time>
      </trkpt>
      <trkpt lat="45.93484" lon="4.73078">
        <ele>170</ele>
        <time>2018-01-10T09:46:27Z</time>
      </trkpt>
      <trkpt lat="45.93484" lon="4.73069">
        <ele>170</ele>
        <time>2018-01-10T09:46:29Z</time>
      </trkpt>
      <trkpt lat="45.93484" lon="4.73064">
        <ele>170</ele>
        <time>2018-01-10T09:46:30Z</time>
      </trkpt>
      <trkpt lat="45.93484" lon="4.73054">
        <ele>170</ele>
        <time>2018-01-10T09:46:32Z</time>
      </trkpt>
      <trkpt lat="45.93484" lon="4.73049">
        <ele>170</ele>
        <time>2018-01-10T09:46:33Z</time>
      </trkpt>
      <trkpt lat="45.93485" lon="4.73038">
        <ele>170</ele>
        <time>2018-01-10T09:46:35Z</time>
      </trkpt>
      <trkpt lat="45.93485" lon="4.73033">
        <ele>170</ele>
        <time>2018-01-10T09:46:36Z</time>
      </trkpt>
      <trkpt lat="45.93485" lon="4.73023">
        <ele>170</ele>
        <time>2018-01-10T09:46:38Z</time>
      </trkpt>
      <trkpt lat="45.93485" lon="4.73018">
        <ele>170</ele>
        <time>2018-01-10T09:46:39Z</time>
      </trkpt>
      <trkpt lat="45.93486" lon="4.73008">
        <ele>170</ele>
        <time>2018-01-10T09:46:41Z</time>
      </trkpt>
      <trkpt lat="45.93486" lon="4.73002">
        <ele>170</ele>
        <time>2018-01-10T09:46:42Z</time>
      </trkpt>
      <trkpt lat="45.93487" lon="4.72991">
        <ele>170</ele>
        <time>2018-01-10T09:46:44Z</time>
      </trkpt>
      <trkpt lat="45.93488" lon="4.72987">
        <ele>170</ele>
        <time>2018-01-10T09:46:45Z</time>
      </trkpt>
      <trkpt lat="45.93489" lon="4.72977">
        <ele>171</ele>
        <time>2018-01-10T09:46:47Z</time>
      </trkpt>
      <trkpt lat="45.9349" lon="4.72973">
        <ele>171</ele>
        <time>2018-01-10T09:46:48Z</time>
      </trkpt>
      <trkpt lat="45.93492" lon="4.72963">
        <ele>171</ele>
        <time>2018-01-10T09:46:50Z</time>
      </trkpt>
      <trkpt lat="45.93494" lon="4.72958">
        <ele>171</ele>
        <time>2018-01-10T09:46:51Z</time>
      </trkpt>
      <trkpt lat="45.93497" lon="4.72948">
        <ele>171</ele>
        <time>2018-01-10T09:46:53Z</time>
      </trkpt>
      <trkpt lat="45.93498" lon="4.72943">
        <ele>171</ele>
        <time>2018-01-10T09:46:54Z</time>
      </trkpt>
      <trkpt lat="45.93501" lon="4.72934">
        <ele>171</ele>
        <time>2018-01-10T09:46:56Z</time>
      </trkpt>
      <trkpt lat="45.93502" lon="4.7293">
        <ele>171</ele>
        <time>2018-01-10T09:46:57Z</time>
      </trkpt>
      <trkpt lat="45.93506" lon="4.72922">
        <ele>172</ele>
        <time>2018-01-10T09:46:59Z</time>
      </trkpt>
      <trkpt lat="45.93508" lon="4.72919">
        <ele>172</ele>
        <time>2018-01-10T09:47:00Z</time>
      </trkpt>
      <trkpt lat="45.93512" lon="4.72913">
        <ele>172</ele>
        <time>2018-01-10T09:47:02Z</time>
      </trkpt>
      <trkpt lat="45.93515" lon="4.7291">
        <ele>172</ele>
        <time>2018-01-10T09:47:03Z</time>
      </trkpt>
      <trkpt lat="45.9352" lon="4.72903">
        <ele>172</ele>
        <time>2018-01-10T09:47:05Z</time>
      </trkpt>
      <trkpt lat="45.93523" lon="4.729">
        <ele>172</ele>
        <time>2018-01-10T09:47:06Z</time>
      </trkpt>
      <trkpt lat="45.93528" lon="4.72893">
        <ele>172</ele>
        <time>2018-01-10T09:47:08Z</time>
      </trkpt>
      <trkpt lat="45.93531" lon="4.7289">
        <ele>172</ele>
        <time>2018-01-10T09:47:09Z</time>
      </trkpt>
      <trkpt lat="45.93536" lon="4.72882">
        <ele>172</ele>
        <time>2018-01-10T09:47:11Z</time>
      </trkpt>
      <trkpt lat="45.93539" lon="4.72878">
        <ele>172</ele>
        <time>2018-01-10T09:47:12Z</time>
      </trkpt>
      <trkpt lat="45.93545" lon="4.7287">
        <ele>173</ele>
        <time>2018-01-10T09:47:14Z</time>
      </trkpt>
      <trkpt lat="45.93548" lon="4.72866">
        <ele>173</ele>
        <time>2018-01-10T09:47:15Z</time>
      </trkpt>
      <trkpt lat="45.93552" lon="4.72863">
        <ele>172</ele>
        <time>2018-01-10T09:47:16Z</time>
      </trkpt>
      <trkpt lat="45.93556" lon="4.7286">
        <ele>172</ele>
        <time>2018-01-10T09:47:17Z</time>
      </trkpt>
      <trkpt lat="45.93563" lon="4.72853">
        <ele>172</ele>
        <time>2018-01-10T09:47:19Z</time>
      </trkpt>
      <trkpt lat="45.93567" lon="4.7285">
        <ele>172</ele>
        <time>2018-01-10T09:47:20Z</time>
      </trkpt>
      <trkpt lat="45.93574" lon="4.72842">
        <ele>172</ele>
        <time>2018-01-10T09:47:22Z</time>
      </trkpt>
      <trkpt lat="45.93578" lon="4.72839">
        <ele>172</ele>
        <time>2018-01-10T09:47:23Z</time>
      </trkpt>
      <trkpt lat="45.93585" lon="4.72832">
        <ele>172</ele>
        <time>2018-01-10T09:47:25Z</time>
      </trkpt>
      <trkpt lat="45.93589" lon="4.7283">
        <ele>172</ele>
        <time>2018-01-10T09:47:26Z</time>
      </trkpt>
      <trkpt lat="45.93595" lon="4.72825">
        <ele>173</ele>
        <time>2018-01-10T09:47:28Z</time>
      </trkpt>
      <trkpt lat="45.93599" lon="4.72822">
        <ele>173</ele>
        <time>2018-01-10T09:47:29Z</time>
      </trkpt>
      <trkpt lat="45.93603" lon="4.7282">
        <ele>173</ele>
        <time>2018-01-10T09:47:30Z</time>
      </trkpt>
      <trkpt lat="45.93607" lon="4.72816">
        <ele>173</ele>
        <time>2018-01-10T09:47:31Z</time>
      </trkpt>
      <trkpt lat="45.93614" lon="4.72808">
        <ele>173</ele>
        <time>2018-01-10T09:47:33Z</time>
      </trkpt>
      <trkpt lat="45.93618" lon="4.72806">
        <ele>173</ele>
        <time>2018-01-10T09:47:34Z</time>
      </trkpt>
      <trkpt lat="45.93625" lon="4.72799">
        <ele>173</ele>
        <time>2018-01-10T09:47:36Z</time>
      </trkpt>
      <trkpt lat="45.9363" lon="4.72798">
        <ele>173</ele>
        <time>2018-01-10T09:47:37Z</time>
      </trkpt>
      <trkpt lat="45.93635" lon="4.72794">
        <ele>173</ele>
        <time>2018-01-10T09:47:38Z</time>
      </trkpt>
      <trkpt lat="45.93639" lon="4.72791">
        <ele>173</ele>
        <time>2018-01-10T09:47:39Z</time>
      </trkpt>
      <trkpt lat="45.93643" lon="4.72788">
        <ele>173</ele>
        <time>2018-01-10T09:47:40Z</time>
      </trkpt>
      <trkpt lat="45.93647" lon="4.72785">
        <ele>173</ele>
        <time>2018-01-10T09:47:41Z</time>
      </trkpt>
      <trkpt lat="45.93653" lon="4.7278">
        <ele>174</ele>
        <time>2018-01-10T09:47:43Z</time>
      </trkpt>
      <trkpt lat="45.93656" lon="4.72777">
        <ele>174</ele>
        <time>2018-01-10T09:47:44Z</time>
      </trkpt>
      <trkpt lat="45.93663" lon="4.72772">
        <ele>174</ele>
        <time>2018-01-10T09:47:46Z</time>
      </trkpt>
      <trkpt lat="45.93667" lon="4.7277">
        <ele>174</ele>
        <time>2018-01-10T09:47:47Z</time>
      </trkpt>
      <trkpt lat="45.93673" lon="4.72765">
        <ele>173</ele>
        <time>2018-01-10T09:47:49Z</time>
      </trkpt>
      <trkpt lat="45.93676" lon="4.72761">
        <ele>173</ele>
        <time>2018-01-10T09:47:50Z</time>
      </trkpt>
      <trkpt lat="45.93681" lon="4.72757">
        <ele>173</ele>
        <time>2018-01-10T09:47:51Z</time>
      </trkpt>
      <trkpt lat="45.93686" lon="4.72752">
        <ele>173</ele>
        <time>2018-01-10T09:47:52Z</time>
      </trkpt>
      <trkpt lat="45.9369" lon="4.72748">
        <ele>173</ele>
        <time>2018-01-10T09:47:53Z</time>
      </trkpt>
      <trkpt lat="45.93695" lon="4.72744">
        <ele>173</ele>
        <time>2018-01-10T09:47:54Z</time>
      </trkpt>
      <trkpt lat="45.93699" lon="4.72739">
        <ele>173</ele>
        <time>2018-01-10T09:47:55Z</time>
      </trkpt>
      <trkpt lat="45.93704" lon="4.72735">
        <ele>173</ele>
        <time>2018-01-10T09:47:56Z</time>
      </trkpt>
      <trkpt lat="45.93708" lon="4.72731">
        <ele>173</ele>
        <time>2018-01-10T09:47:57Z</time>
      </trkpt>
      <trkpt lat="45.93712" lon="4.72727">
        <ele>173</ele>
        <time>2018-01-10T09:47:58Z</time>
      </trkpt>
      <trkpt lat="45.93718" lon="4.7272">
        <ele>173</ele>
        <time>2018-01-10T09:48:00Z</time>
      </trkpt>
      <trkpt lat="45.93722" lon="4.72716">
        <ele>173</ele>
        <time>2018-01-10T09:48:01Z</time>
      </trkpt>
      <trkpt lat="45.93727" lon="4.72712">
        <ele>173</ele>
        <time>2018-01-10T09:48:02Z</time>
      </trkpt>
      <trkpt lat="45.93731" lon="4.72707">
        <ele>173</ele>
        <time>2018-01-10T09:48:03Z</time>
      </trkpt>
      <trkpt lat="45.93735" lon="4.72703">
        <ele>173</ele>
        <time>2018-01-10T09:48:04Z</time>
      </trkpt>
      <trkpt lat="45.93738" lon="4.72698">
        <ele>173</ele>
        <time>2018-01-10T09:48:05Z</time>
      </trkpt>
      <trkpt lat="45.93742" lon="4.72695">
        <ele>173</ele>
        <time>2018-01-10T09:48:06Z</time>
      </trkpt>
      <trkpt lat="45.93746" lon="4.72691">
        <ele>173</ele>
        <time>2018-01-10T09:48:07Z</time>
      </trkpt>
      <trkpt lat="45.93753" lon="4.72684">
        <ele>173</ele>
        <time>2018-01-10T09:48:09Z</time>
      </trkpt>
      <trkpt lat="45.93756" lon="4.7268">
        <ele>173</ele>
        <time>2018-01-10T09:48:10Z</time>
      </trkpt>
      <trkpt lat="45.9376" lon="4.72675">
        <ele>173</ele>
        <time>2018-01-10T09:48:11Z</time>
      </trkpt>
      <trkpt lat="45.93764" lon="4.7267">
        <ele>173</ele>
        <time>2018-01-10T09:48:12Z</time>
      </trkpt>
      <trkpt lat="45.93767" lon="4.72665">
        <ele>173</ele>
        <time>2018-01-10T09:48:13Z</time>
      </trkpt>
      <trkpt lat="45.93771" lon="4.7266">
        <ele>173</ele>
        <time>2018-01-10T09:48:14Z</time>
      </trkpt>
      <trkpt lat="45.93775" lon="4.72655">
        <ele>173</ele>
        <time>2018-01-10T09:48:15Z</time>
      </trkpt>
      <trkpt lat="45.93779" lon="4.72649">
        <ele>173</ele>
        <time>2018-01-10T09:48:16Z</time>
      </trkpt>
      <trkpt lat="45.93783" lon="4.72645">
        <ele>173</ele>
        <time>2018-01-10T09:48:17Z</time>
      </trkpt>
      <trkpt lat="45.93787" lon="4.72639">
        <ele>173</ele>
        <time>2018-01-10T09:48:18Z</time>
      </trkpt>
      <trkpt lat="45.9379" lon="4.72634">
        <ele>173</ele>
        <time>2018-01-10T09:48:19Z</time>
      </trkpt>
      <trkpt lat="45.93793" lon="4.7263">
        <ele>173</ele>
        <time>2018-01-10T09:48:20Z</time>
      </trkpt>
      <trkpt lat="45.93796" lon="4.72625">
        <ele>173</ele>
        <time>2018-01-10T09:48:21Z</time>
      </trkpt>
      <trkpt lat="45.938" lon="4.72621">
        <ele>173</ele>
        <time>2018-01-10T09:48:22Z</time>
      </trkpt>
      <trkpt lat="45.93806" lon="4.72612">
        <ele>173</ele>
        <time>2018-01-10T09:48:24Z</time>
      </trkpt>
      <trkpt lat="45.93808" lon="4.72606">
        <ele>173</ele>
        <time>2018-01-10T09:48:25Z</time>
      </trkpt>
      <trkpt lat="45.93809" lon="4.726">
        <ele>173</ele>
        <time>2018-01-10T09:48:26Z</time>
      </trkpt>
      <trkpt lat="45.93808" lon="4.72593">
        <ele>174</ele>
        <time>2018-01-10T09:48:27Z</time>
      </trkpt>
      <trkpt lat="45.93804" lon="4.72583">
        <ele>174</ele>
        <time>2018-01-10T09:48:29Z</time>
      </trkpt>
      <trkpt lat="45.93799" lon="4.7258">
        <ele>174</ele>
        <time>2018-01-10T09:48:30Z</time>
      </trkpt>
      <trkpt lat="45.93791" lon="4.72574">
        <ele>174</ele>
        <time>2018-01-10T09:48:32Z</time>
      </trkpt>
      <trkpt lat="45.93789" lon="4.72571">
        <ele>174</ele>
        <time>2018-01-10T09:48:33Z</time>
      </trkpt>
      <trkpt lat="45.93783" lon="4.72568">
        <ele>174</ele>
        <time>2018-01-10T09:48:35Z</time>
      </trkpt>
      <trkpt lat="45.93779" lon="4.72568">
        <ele>174</ele>
        <time>2018-01-10T09:48:36Z</time>
      </trkpt>
      <trkpt lat="45.93778" lon="4.72555">
        <ele>173</ele>
        <time>2018-01-10T09:48:41Z</time>
      </trkpt>
      <trkpt lat="45.93773" lon="4.72548">
        <ele>173</ele>
        <time>2018-01-10T09:48:42Z</time>
      </trkpt>
      <trkpt lat="45.9377" lon="4.72542">
        <ele>173</ele>
        <time>2018-01-10T09:48:43Z</time>
      </trkpt>
      <trkpt lat="45.93766" lon="4.72538">
        <ele>173</ele>
        <time>2018-01-10T09:48:44Z</time>
      </trkpt>
      <trkpt lat="45.93759" lon="4.72533">
        <ele>173</ele>
        <time>2018-01-10T09:48:45Z</time>
      </trkpt>
      <trkpt lat="45.93754" lon="4.72529">
        <ele>172</ele>
        <time>2018-01-10T09:48:46Z</time>
      </trkpt>
      <trkpt lat="45.93749" lon="4.72524">
        <ele>172</ele>
        <time>2018-01-10T09:48:47Z</time>
      </trkpt>
      <trkpt lat="45.93745" lon="4.7252">
        <ele>171</ele>
        <time>2018-01-10T09:48:48Z</time>
      </trkpt>
      <trkpt lat="45.93741" lon="4.72516">
        <ele>171</ele>
        <time>2018-01-10T09:48:49Z</time>
      </trkpt>
      <trkpt lat="45.93736" lon="4.72512">
        <ele>171</ele>
        <time>2018-01-10T09:48:50Z</time>
      </trkpt>
      <trkpt lat="45.93731" lon="4.72507">
        <ele>171</ele>
        <time>2018-01-10T09:48:51Z</time>
      </trkpt>
      <trkpt lat="45.93726" lon="4.72503">
        <ele>171</ele>
        <time>2018-01-10T09:48:52Z</time>
      </trkpt>
      <trkpt lat="45.93721" lon="4.72499">
        <ele>171</ele>
        <time>2018-01-10T09:48:53Z</time>
      </trkpt>
      <trkpt lat="45.93718" lon="4.72496">
        <ele>171</ele>
        <time>2018-01-10T09:48:54Z</time>
      </trkpt>
      <trkpt lat="45.93711" lon="4.72489">
        <ele>171</ele>
        <time>2018-01-10T09:48:56Z</time>
      </trkpt>
      <trkpt lat="45.93707" lon="4.72485">
        <ele>171</ele>
        <time>2018-01-10T09:48:57Z</time>
      </trkpt>
      <trkpt lat="45.937" lon="4.72477">
        <ele>171</ele>
        <time>2018-01-10T09:48:59Z</time>
      </trkpt>
      <trkpt lat="45.93696" lon="4.72474">
        <ele>171</ele>
        <time>2018-01-10T09:49:00Z</time>
      </trkpt>
      <trkpt lat="45.93689" lon="4.72467">
        <ele>171</ele>
        <time>2018-01-10T09:49:02Z</time>
      </trkpt>
      <trkpt lat="45.93686" lon="4.72464">
        <ele>171</ele>
        <time>2018-01-10T09:49:03Z</time>
      </trkpt>
      <trkpt lat="45.9368" lon="4.72458">
        <ele>171</ele>
        <time>2018-01-10T09:49:05Z</time>
      </trkpt>
      <trkpt lat="45.93676" lon="4.72455">
        <ele>171</ele>
        <time>2018-01-10T09:49:06Z</time>
      </trkpt>
      <trkpt lat="45.93671" lon="4.72448">
        <ele>171</ele>
        <time>2018-01-10T09:49:08Z</time>
      </trkpt>
      <trkpt lat="45.93666" lon="4.72447">
        <ele>172</ele>
        <time>2018-01-10T09:49:09Z</time>
      </trkpt>
      <trkpt lat="45.93659" lon="4.72454">
        <ele>172</ele>
        <time>2018-01-10T09:49:11Z</time>
      </trkpt>
      <trkpt lat="45.93657" lon="4.72456">
        <ele>172</ele>
        <time>2018-01-10T09:49:12Z</time>
      </trkpt>
      <trkpt lat="45.93653" lon="4.72465">
        <ele>172</ele>
        <time>2018-01-10T09:49:14Z</time>
      </trkpt>
      <trkpt lat="45.9365" lon="4.72469">
        <ele>172</ele>
        <time>2018-01-10T09:49:15Z</time>
      </trkpt>
      <trkpt lat="45.93648" lon="4.72474">
        <ele>172</ele>
        <time>2018-01-10T09:49:16Z</time>
      </trkpt>
      <trkpt lat="45.93645" lon="4.7248">
        <ele>172</ele>
        <time>2018-01-10T09:49:17Z</time>
      </trkpt>
      <trkpt lat="45.9364" lon="4.7249">
        <ele>172</ele>
        <time>2018-01-10T09:49:19Z</time>
      </trkpt>
      <trkpt lat="45.93637" lon="4.72493">
        <ele>172</ele>
        <time>2018-01-10T09:49:20Z</time>
      </trkpt>
      <trkpt lat="45.93636" lon="4.72501">
        <ele>172</ele>
        <time>2018-01-10T09:49:21Z</time>
      </trkpt>
      <trkpt lat="45.93633" lon="4.72505">
        <ele>172</ele>
        <time>2018-01-10T09:49:22Z</time>
      </trkpt>
      <trkpt lat="45.93627" lon="4.72514">
        <ele>172</ele>
        <time>2018-01-10T09:49:24Z</time>
      </trkpt>
      <trkpt lat="45.93622" lon="4.72519">
        <ele>172</ele>
        <time>2018-01-10T09:49:25Z</time>
      </trkpt>
      <trkpt lat="45.9362" lon="4.72526">
        <ele>172</ele>
        <time>2018-01-10T09:49:26Z</time>
      </trkpt>
      <trkpt lat="45.93616" lon="4.72531">
        <ele>172</ele>
        <time>2018-01-10T09:49:27Z</time>
      </trkpt>
      <trkpt lat="45.93614" lon="4.72538">
        <ele>172</ele>
        <time>2018-01-10T09:49:28Z</time>
      </trkpt>
      <trkpt lat="45.93611" lon="4.72543">
        <ele>172</ele>
        <time>2018-01-10T09:49:29Z</time>
      </trkpt>
      <trkpt lat="45.93604" lon="4.7255">
        <ele>172</ele>
        <time>2018-01-10T09:49:31Z</time>
      </trkpt>
      <trkpt lat="45.936" lon="4.72554">
        <ele>172</ele>
        <time>2018-01-10T09:49:32Z</time>
      </trkpt>
      <trkpt lat="45.93592" lon="4.72555">
        <ele>172</ele>
        <time>2018-01-10T09:49:34Z</time>
      </trkpt>
      <trkpt lat="45.93589" lon="4.72551">
        <ele>172</ele>
        <time>2018-01-10T09:49:35Z</time>
      </trkpt>
      <trkpt lat="45.93583" lon="4.72545">
        <ele>173</ele>
        <time>2018-01-10T09:49:37Z</time>
      </trkpt>
      <trkpt lat="45.9358" lon="4.72541">
        <ele>172</ele>
        <time>2018-01-10T09:49:38Z</time>
      </trkpt>
      <trkpt lat="45.93577" lon="4.72536">
        <ele>172</ele>
        <time>2018-01-10T09:49:39Z</time>
      </trkpt>
      <trkpt lat="45.93575" lon="4.7253">
        <ele>172</ele>
        <time>2018-01-10T09:49:40Z</time>
      </trkpt>
      <trkpt lat="45.93573" lon="4.72523">
        <ele>172</ele>
        <time>2018-01-10T09:49:41Z</time>
      </trkpt>
      <trkpt lat="45.9357" lon="4.72517">
        <ele>172</ele>
        <time>2018-01-10T09:49:42Z</time>
      </trkpt>
      <trkpt lat="45.93567" lon="4.72511">
        <ele>172</ele>
        <time>2018-01-10T09:49:43Z</time>
      </trkpt>
      <trkpt lat="45.93564" lon="4.72507">
        <ele>172</ele>
        <time>2018-01-10T09:49:44Z</time>
      </trkpt>
      <trkpt lat="45.93559" lon="4.72496">
        <ele>172</ele>
        <time>2018-01-10T09:49:46Z</time>
      </trkpt>
      <trkpt lat="45.93557" lon="4.7249">
        <ele>172</ele>
        <time>2018-01-10T09:49:47Z</time>
      </trkpt>
      <trkpt lat="45.93555" lon="4.72485">
        <ele>172</ele>
        <time>2018-01-10T09:49:48Z</time>
      </trkpt>
      <trkpt lat="45.93552" lon="4.72478">
        <ele>172</ele>
        <time>2018-01-10T09:49:49Z</time>
      </trkpt>
      <trkpt lat="45.93548" lon="4.72468">
        <ele>172</ele>
        <time>2018-01-10T09:49:51Z</time>
      </trkpt>
      <trkpt lat="45.93546" lon="4.72463">
        <ele>172</ele>
        <time>2018-01-10T09:49:52Z</time>
      </trkpt>
      <trkpt lat="45.93543" lon="4.72452">
        <ele>172</ele>
        <time>2018-01-10T09:49:54Z</time>
      </trkpt>
      <trkpt lat="45.93543" lon="4.72446">
        <ele>172</ele>
        <time>2018-01-10T09:49:55Z</time>
      </trkpt>
      <trkpt lat="45.93544" lon="4.72434">
        <ele>172</ele>
        <time>2018-01-10T09:49:57Z</time>
      </trkpt>
      <trkpt lat="45.93543" lon="4.72429">
        <ele>172</ele>
        <time>2018-01-10T09:49:58Z</time>
      </trkpt>
      <trkpt lat="45.93544" lon="4.72417">
        <ele>172</ele>
        <time>2018-01-10T09:50:00Z</time>
      </trkpt>
      <trkpt lat="45.93542" lon="4.72411">
        <ele>173</ele>
        <time>2018-01-10T09:50:01Z</time>
      </trkpt>
      <trkpt lat="45.93541" lon="4.72405">
        <ele>173</ele>
        <time>2018-01-10T09:50:02Z</time>
      </trkpt>
      <trkpt lat="45.9354" lon="4.72398">
        <ele>173</ele>
        <time>2018-01-10T09:50:03Z</time>
      </trkpt>
      <trkpt lat="45.93537" lon="4.72386">
        <ele>173</ele>
        <time>2018-01-10T09:50:05Z</time>
      </trkpt>
      <trkpt lat="45.93535" lon="4.7238">
        <ele>173</ele>
        <time>2018-01-10T09:50:06Z</time>
      </trkpt>
      <trkpt lat="45.93531" lon="4.7237">
        <ele>173</ele>
        <time>2018-01-10T09:50:08Z</time>
      </trkpt>
      <trkpt lat="45.93529" lon="4.72365">
        <ele>173</ele>
        <time>2018-01-10T09:50:09Z</time>
      </trkpt>
      <trkpt lat="45.93526" lon="4.72354">
        <ele>173</ele>
        <time>2018-01-10T09:50:11Z</time>
      </trkpt>
      <trkpt lat="45.93523" lon="4.72349">
        <ele>173</ele>
        <time>2018-01-10T09:50:12Z</time>
      </trkpt>
      <trkpt lat="45.93519" lon="4.72341">
        <ele>173</ele>
        <time>2018-01-10T09:50:14Z</time>
      </trkpt>
      <trkpt lat="45.93517" lon="4.72336">
        <ele>173</ele>
        <time>2018-01-10T09:50:15Z</time>
      </trkpt>
      <trkpt lat="45.93514" lon="4.72328">
        <ele>173</ele>
        <time>2018-01-10T09:50:17Z</time>
      </trkpt>
      <trkpt lat="45.93514" lon="4.72323">
        <ele>173</ele>
        <time>2018-01-10T09:50:18Z</time>
      </trkpt>
      <trkpt lat="45.93518" lon="4.72314">
        <ele>173</ele>
        <time>2018-01-10T09:50:22Z</time>
      </trkpt>
      <trkpt lat="45.93519" lon="4.72311">
        <ele>173</ele>
        <time>2018-01-10T09:50:23Z</time>
      </trkpt>
      <trkpt lat="45.93523" lon="4.72301">
        <ele>172</ele>
        <time>2018-01-10T09:50:26Z</time>
      </trkpt>
      <trkpt lat="45.93524" lon="4.72297">
        <ele>172</ele>
        <time>2018-01-10T09:50:27Z</time>
      </trkpt>
      <trkpt lat="45.93528" lon="4.72289">
        <ele>172</ele>
        <time>2018-01-10T09:50:29Z</time>
      </trkpt>
      <trkpt lat="45.9353" lon="4.72284">
        <ele>172</ele>
        <time>2018-01-10T09:50:30Z</time>
      </trkpt>
      <trkpt lat="45.93534" lon="4.72276">
        <ele>172</ele>
        <time>2018-01-10T09:50:32Z</time>
      </trkpt>
      <trkpt lat="45.93535" lon="4.72271">
        <ele>172</ele>
        <time>2018-01-10T09:50:33Z</time>
      </trkpt>
      <trkpt lat="45.93539" lon="4.72264">
        <ele>172</ele>
        <time>2018-01-10T09:50:35Z</time>
      </trkpt>
      <trkpt lat="45.9354" lon="4.7226">
        <ele>172</ele>
        <time>2018-01-10T09:50:36Z</time>
      </trkpt>
      <trkpt lat="45.93544" lon="4.72248">
        <ele>172</ele>
        <time>2018-01-10T09:50:39Z</time>
      </trkpt>
      <trkpt lat="45.93545" lon="4.72245">
        <ele>172</ele>
        <time>2018-01-10T09:50:40Z</time>
      </trkpt>
      <trkpt lat="45.9355" lon="4.72234">
        <ele>172</ele>
        <time>2018-01-10T09:50:43Z</time>
      </trkpt>
      <trkpt lat="45.93553" lon="4.72233">
        <ele>173</ele>
        <time>2018-01-10T09:50:44Z</time>
      </trkpt>
      <trkpt lat="45.93561" lon="4.72234">
        <ele>173</ele>
        <time>2018-01-10T09:50:46Z</time>
      </trkpt>
      <trkpt lat="45.93564" lon="4.72236">
        <ele>173</ele>
        <time>2018-01-10T09:50:47Z</time>
      </trkpt>
      <trkpt lat="45.93571" lon="4.72244">
        <ele>173</ele>
        <time>2018-01-10T09:50:49Z</time>
      </trkpt>
      <trkpt lat="45.93573" lon="4.72247">
        <ele>173</ele>
        <time>2018-01-10T09:50:50Z</time>
      </trkpt>
      <trkpt lat="45.93579" lon="4.72254">
        <ele>173</ele>
        <time>2018-01-10T09:50:53Z</time>
      </trkpt>
      <trkpt lat="45.93582" lon="4.72256">
        <ele>173</ele>
        <time>2018-01-10T09:50:54Z</time>
      </trkpt>
      <trkpt lat="45.93587" lon="4.72261">
        <ele>173</ele>
        <time>2018-01-10T09:50:57Z</time>
      </trkpt>
      <trkpt lat="45.93589" lon="4.72263">
        <ele>173</ele>
        <time>2018-01-10T09:50:58Z</time>
      </trkpt>
      <trkpt lat="45.93595" lon="4.72268">
        <ele>173</ele>
        <time>2018-01-10T09:51:00Z</time>
      </trkpt>
      <trkpt lat="45.93597" lon="4.72271">
        <ele>173</ele>
        <time>2018-01-10T09:51:01Z</time>
      </trkpt>
      <trkpt lat="45.93604" lon="4.72278">
        <ele>172</ele>
        <time>2018-01-10T09:51:03Z</time>
      </trkpt>
      <trkpt lat="45.93607" lon="4.72281">
        <ele>172</ele>
        <time>2018-01-10T09:51:04Z</time>
      </trkpt>
      <trkpt lat="45.93613" lon="4.72288">
        <ele>172</ele>
        <time>2018-01-10T09:51:06Z</time>
      </trkpt>
      <trkpt lat="45.93617" lon="4.72292">
        <ele>172</ele>
        <time>2018-01-10T09:51:07Z</time>
      </trkpt>
      <trkpt lat="45.93623" lon="4.72298">
        <ele>172</ele>
        <time>2018-01-10T09:51:09Z</time>
      </trkpt>
      <trkpt lat="45.93627" lon="4.72301">
        <ele>172</ele>
        <time>2018-01-10T09:51:10Z</time>
      </trkpt>
      <trkpt lat="45.93632" lon="4.72306">
        <ele>172</ele>
        <time>2018-01-10T09:51:11Z</time>
      </trkpt>
      <trkpt lat="45.93636" lon="4.72309">
        <ele>172</ele>
        <time>2018-01-10T09:51:12Z</time>
      </trkpt>
      <trkpt lat="45.93642" lon="4.72314">
        <ele>172</ele>
        <time>2018-01-10T09:51:14Z</time>
      </trkpt>
      <trkpt lat="45.93645" lon="4.72314">
        <ele>172</ele>
        <time>2018-01-10T09:51:15Z</time>
      </trkpt>
      <trkpt lat="45.93651" lon="4.72314">
        <ele>172</ele>
        <time>2018-01-10T09:51:18Z</time>
      </trkpt>
      <trkpt lat="45.93654" lon="4.72317">
        <ele>172</ele>
        <time>2018-01-10T09:51:19Z</time>
      </trkpt>
      <trkpt lat="45.9366" lon="4.72325">
        <ele>171</ele>
        <time>2018-01-10T09:51:21Z</time>
      </trkpt>
      <trkpt lat="45.93664" lon="4.72328">
        <ele>171</ele>
        <time>2018-01-10T09:51:22Z</time>
      </trkpt>
      <trkpt lat="45.93671" lon="4.72335">
        <ele>171</ele>
        <time>2018-01-10T09:51:24Z</time>
      </trkpt>
      <trkpt lat="45.93676" lon="4.72338">
        <ele>171</ele>
        <time>2018-01-10T09:51:25Z</time>
      </trkpt>
      <trkpt lat="45.9368" lon="4.72342">
        <ele>171</ele>
        <time>2018-01-10T09:51:26Z</time>
      </trkpt>
      <trkpt lat="45.93685" lon="4.72346">
        <ele>171</ele>
        <time>2018-01-10T09:51:27Z</time>
      </trkpt>
      <trkpt lat="45.9369" lon="4.72353">
        <ele>171</ele>
        <time>2018-01-10T09:51:29Z</time>
      </trkpt>
      <trkpt lat="45.93695" lon="4.72357">
        <ele>171</ele>
        <time>2018-01-10T09:51:30Z</time>
      </trkpt>
      <trkpt lat="45.93698" lon="4.72361">
        <ele>171</ele>
        <time>2018-01-10T09:51:31Z</time>
      </trkpt>
      <trkpt lat="45.93703" lon="4.72364">
        <ele>171</ele>
        <time>2018-01-10T09:51:32Z</time>
      </trkpt>
      <trkpt lat="45.93707" lon="4.72368">
        <ele>171</ele>
        <time>2018-01-10T09:51:33Z</time>
      </trkpt>
      <trkpt lat="45.93711" lon="4.72371">
        <ele>172</ele>
        <time>2018-01-10T09:51:34Z</time>
      </trkpt>
      <trkpt lat="45.93715" lon="4.72374">
        <ele>172</ele>
        <time>2018-01-10T09:51:35Z</time>
      </trkpt>
      <trkpt lat="45.9372" lon="4.72379">
        <ele>171</ele>
        <time>2018-01-10T09:51:36Z</time>
      </trkpt>
      <trkpt lat="45.93723" lon="4.72382">
        <ele>171</ele>
        <time>2018-01-10T09:51:37Z</time>
      </trkpt>
      <trkpt lat="45.93728" lon="4.72386">
        <ele>171</ele>
        <time>2018-01-10T09:51:38Z</time>
      </trkpt>
      <trkpt lat="45.93732" lon="4.72391">
        <ele>171</ele>
        <time>2018-01-10T09:51:39Z</time>
      </trkpt>
      <trkpt lat="45.93736" lon="4.72394">
        <ele>171</ele>
        <time>2018-01-10T09:51:40Z</time>
      </trkpt>
      <trkpt lat="45.93739" lon="4.72398">
        <ele>171</ele>
        <time>2018-01-10T09:51:41Z</time>
      </trkpt>
      <trkpt lat="45.93743" lon="4.72401">
        <ele>171</ele>
        <time>2018-01-10T09:51:42Z</time>
      </trkpt>
      <trkpt lat="45.93749" lon="4.72408">
        <ele>171</ele>
        <time>2018-01-10T09:51:44Z</time>
      </trkpt>
      <trkpt lat="45.93753" lon="4.72412">
        <ele>171</ele>
        <time>2018-01-10T09:51:45Z</time>
      </trkpt>
      <trkpt lat="45.93757" lon="4.72416">
        <ele>171</ele>
        <time>2018-01-10T09:51:46Z</time>
      </trkpt>
      <trkpt lat="45.93761" lon="4.72419">
        <ele>171</ele>
        <time>2018-01-10T09:51:47Z</time>
      </trkpt>
      <trkpt lat="45.93765" lon="4.72424">
        <ele>171</ele>
        <time>2018-01-10T09:51:48Z</time>
      </trkpt>
      <trkpt lat="45.93768" lon="4.72428">
        <ele>171</ele>
        <time>2018-01-10T09:51:49Z</time>
      </trkpt>
      <trkpt lat="45.93772" lon="4.72432">
        <ele>171</ele>
        <time>2018-01-10T09:51:50Z</time>
      </trkpt>
      <trkpt lat="45.93776" lon="4.72435">
        <ele>171</ele>
        <time>2018-01-10T09:51:51Z</time>
      </trkpt>
      <trkpt lat="45.9378" lon="4.72439">
        <ele>172</ele>
        <time>2018-01-10T09:51:52Z</time>
      </trkpt>
      <trkpt lat="45.93783" lon="4.72443">
        <ele>172</ele>
        <time>2018-01-10T09:51:53Z</time>
      </trkpt>
      <trkpt lat="45.93791" lon="4.7245">
        <ele>172</ele>
        <time>2018-01-10T09:51:55Z</time>
      </trkpt>
      <trkpt lat="45.93794" lon="4.72453">
        <ele>172</ele>
        <time>2018-01-10T09:51:56Z</time>
      </trkpt>
      <trkpt lat="45.938" lon="4.7246">
        <ele>172</ele>
        <time>2018-01-10T09:51:58Z</time>
      </trkpt>
      <trkpt lat="45.93803" lon="4.72465">
        <ele>172</ele>
        <time>2018-01-10T09:51:59Z</time>
      </trkpt>
      <trkpt lat="45.93808" lon="4.72469">
        <ele>172</ele>
        <time>2018-01-10T09:52:00Z</time>
      </trkpt>
      <trkpt lat="45.93811" lon="4.72473">
        <ele>172</ele>
        <time>2018-01-10T09:52:01Z</time>
      </trkpt>
      <trkpt lat="45.93816" lon="4.72477">
        <ele>172</ele>
        <time>2018-01-10T09:52:02Z</time>
      </trkpt>
      <trkpt lat="45.93819" lon="4.7248">
        <ele>173</ele>
        <time>2018-01-10T09:52:03Z</time>
      </trkpt>
      <trkpt lat="45.93823" lon="4.72482">
        <ele>173</ele>
        <time>2018-01-10T09:52:07Z</time>
      </trkpt>
      <trkpt lat="45.93828" lon="4.7249">
        <ele>173</ele>
        <time>2018-01-10T09:52:08Z</time>
      </trkpt>
      <trkpt lat="45.93836" lon="4.72495">
        <ele>174</ele>
        <time>2018-01-10T09:52:09Z</time>
      </trkpt>
      <trkpt lat="45.93842" lon="4.72499">
        <ele>173</ele>
        <time>2018-01-10T09:52:10Z</time>
      </trkpt>
      <trkpt lat="45.93849" lon="4.72502">
        <ele>174</ele>
        <time>2018-01-10T09:52:11Z</time>
      </trkpt>
      <trkpt lat="45.93855" lon="4.72506">
        <ele>173</ele>
        <time>2018-01-10T09:52:12Z</time>
      </trkpt>
      <trkpt lat="45.9386" lon="4.72512">
        <ele>173</ele>
        <time>2018-01-10T09:52:13Z</time>
      </trkpt>
      <trkpt lat="45.93868" lon="4.72516">
        <ele>173</ele>
        <time>2018-01-10T09:52:15Z</time>
      </trkpt>
      <trkpt lat="45.93873" lon="4.72514">
        <ele>173</ele>
        <time>2018-01-10T09:52:16Z</time>
      </trkpt>
      <trkpt lat="45.93877" lon="4.72513">
        <ele>173</ele>
        <time>2018-01-10T09:52:17Z</time>
      </trkpt>
      <trkpt lat="45.93881" lon="4.72508">
        <ele>173</ele>
        <time>2018-01-10T09:52:18Z</time>
      </trkpt>
      <trkpt lat="45.93884" lon="4.72504">
        <ele>173</ele>
        <time>2018-01-10T09:52:19Z</time>
      </trkpt>
      <trkpt lat="45.93888" lon="4.72499">
        <ele>172</ele>
        <time>2018-01-10T09:52:20Z</time>
      </trkpt>
      <trkpt lat="45.93892" lon="4.72495">
        <ele>172</ele>
        <time>2018-01-10T09:52:21Z</time>
      </trkpt>
      <trkpt lat="45.93896" lon="4.7249">
        <ele>172</ele>
        <time>2018-01-10T09:52:22Z</time>
      </trkpt>
      <trkpt lat="45.93903" lon="4.72485">
        <ele>172</ele>
        <time>2018-01-10T09:52:23Z</time>
      </trkpt>
      <trkpt lat="45.93907" lon="4.72479">
        <ele>172</ele>
        <time>2018-01-10T09:52:24Z</time>
      </trkpt>
      <trkpt lat="45.93911" lon="4.72475">
        <ele>172</ele>
        <time>2018-01-10T09:52:25Z</time>
      </trkpt>
      <trkpt lat="45.93915" lon="4.7247">
        <ele>172</ele>
        <time>2018-01-10T09:52:26Z</time>
      </trkpt>
      <trkpt lat="45.9392" lon="4.72464">
        <ele>171</ele>
        <time>2018-01-10T09:52:27Z</time>
      </trkpt>
      <trkpt lat="45.93924" lon="4.72458">
        <ele>171</ele>
        <time>2018-01-10T09:52:28Z</time>
      </trkpt>
      <trkpt lat="45.93928" lon="4.72453">
        <ele>171</ele>
        <time>2018-01-10T09:52:29Z</time>
      </trkpt>
      <trkpt lat="45.93932" lon="4.72447">
        <ele>171</ele>
        <time>2018-01-10T09:52:30Z</time>
      </trkpt>
      <trkpt lat="45.93937" lon="4.72441">
        <ele>171</ele>
        <time>2018-01-10T09:52:31Z</time>
      </trkpt>
      <trkpt lat="45.93941" lon="4.72436">
        <ele>171</ele>
        <time>2018-01-10T09:52:32Z</time>
      </trkpt>
      <trkpt lat="45.93945" lon="4.72431">
        <ele>171</ele>
        <time>2018-01-10T09:52:33Z</time>
      </trkpt>
      <trkpt lat="45.9395" lon="4.72427">
        <ele>171</ele>
        <time>2018-01-10T09:52:34Z</time>
      </trkpt>
      <trkpt lat="45.93955" lon="4.72422">
        <ele>171</ele>
        <time>2018-01-10T09:52:35Z</time>
      </trkpt>
      <trkpt lat="45.93959" lon="4.72416">
        <ele>171</ele>
        <time>2018-01-10T09:52:36Z</time>
      </trkpt>
      <trkpt lat="45.93964" lon="4.72411">
        <ele>171</ele>
        <time>2018-01-10T09:52:37Z</time>
      </trkpt>
      <trkpt lat="45.93967" lon="4.72407">
        <ele>171</ele>
        <time>2018-01-10T09:52:38Z</time>
      </trkpt>
      <trkpt lat="45.93972" lon="4.72402">
        <ele>171</ele>
        <time>2018-01-10T09:52:39Z</time>
      </trkpt>
      <trkpt lat="45.93976" lon="4.72396">
        <ele>171</ele>
        <time>2018-01-10T09:52:40Z</time>
      </trkpt>
      <trkpt lat="45.93981" lon="4.7239">
        <ele>171</ele>
        <time>2018-01-10T09:52:41Z</time>
      </trkpt>
      <trkpt lat="45.93985" lon="4.72385">
        <ele>171</ele>
        <time>2018-01-10T09:52:42Z</time>
      </trkpt>
      <trkpt lat="45.9399" lon="4.72379">
        <ele>171</ele>
        <time>2018-01-10T09:52:43Z</time>
      </trkpt>
      <trkpt lat="45.93995" lon="4.72373">
        <ele>171</ele>
        <time>2018-01-10T09:52:44Z</time>
      </trkpt>
      <trkpt lat="45.93998" lon="4.72368">
        <ele>171</ele>
        <time>2018-01-10T09:52:45Z</time>
      </trkpt>
      <trkpt lat="45.94002" lon="4.72362">
        <ele>171</ele>
        <time>2018-01-10T09:52:46Z</time>
      </trkpt>
      <trkpt lat="45.94005" lon="4.72357">
        <ele>171</ele>
        <time>2018-01-10T09:52:47Z</time>
      </trkpt>
      <trkpt lat="45.9401" lon="4.72353">
        <ele>171</ele>
        <time>2018-01-10T09:52:48Z</time>
      </trkpt>
      <trkpt lat="45.94014" lon="4.72348">
        <ele>171</ele>
        <time>2018-01-10T09:52:49Z</time>
      </trkpt>
      <trkpt lat="45.94018" lon="4.72344">
        <ele>171</ele>
        <time>2018-01-10T09:52:50Z</time>
      </trkpt>
      <trkpt lat="45.94022" lon="4.72339">
        <ele>171</ele>
        <time>2018-01-10T09:52:51Z</time>
      </trkpt>
      <trkpt lat="45.94026" lon="4.72332">
        <ele>171</ele>
        <time>2018-01-10T09:52:52Z</time>
      </trkpt>
      <trkpt lat="45.9403" lon="4.72327">
        <ele>171</ele>
        <time>2018-01-10T09:52:53Z</time>
      </trkpt>
      <trkpt lat="45.94034" lon="4.72322">
        <ele>171</ele>
        <time>2018-01-10T09:52:54Z</time>
      </trkpt>
      <trkpt lat="45.94038" lon="4.72316">
        <ele>171</ele>
        <time>2018-01-10T09:52:55Z</time>
      </trkpt>
      <trkpt lat="45.94043" lon="4.72311">
        <ele>171</ele>
        <time>2018-01-10T09:52:56Z</time>
      </trkpt>
      <trkpt lat="45.94047" lon="4.72306">
        <ele>171</ele>
        <time>2018-01-10T09:52:57Z</time>
      </trkpt>
      <trkpt lat="45.94051" lon="4.72301">
        <ele>171</ele>
        <time>2018-01-10T09:52:58Z</time>
      </trkpt>
      <trkpt lat="45.94056" lon="4.72295">
        <ele>171</ele>
        <time>2018-01-10T09:52:59Z</time>
      </trkpt>
      <trkpt lat="45.9406" lon="4.72291">
        <ele>171</ele>
        <time>2018-01-10T09:53:00Z</time>
      </trkpt>
      <trkpt lat="45.94065" lon="4.72287">
        <ele>171</ele>
        <time>2018-01-10T09:53:01Z</time>
      </trkpt>
      <trkpt lat="45.94069" lon="4.72283">
        <ele>171</ele>
        <time>2018-01-10T09:53:02Z</time>
      </trkpt>
      <trkpt lat="45.94074" lon="4.7228">
        <ele>171</ele>
        <time>2018-01-10T09:53:03Z</time>
      </trkpt>
      <trkpt lat="45.94079" lon="4.72276">
        <ele>171</ele>
        <time>2018-01-10T09:53:04Z</time>
      </trkpt>
      <trkpt lat="45.94084" lon="4.72273">
        <ele>171</ele>
        <time>2018-01-10T09:53:05Z</time>
      </trkpt>
      <trkpt lat="45.94088" lon="4.72271">
        <ele>171</ele>
        <time>2018-01-10T09:53:06Z</time>
      </trkpt>
      <trkpt lat="45.94094" lon="4.7227">
        <ele>171</ele>
        <time>2018-01-10T09:53:07Z</time>
      </trkpt>
      <trkpt lat="45.941" lon="4.72269">
        <ele>171</ele>
        <time>2018-01-10T09:53:08Z</time>
      </trkpt>
      <trkpt lat="45.94105" lon="4.7227">
        <ele>171</ele>
        <time>2018-01-10T09:53:09Z</time>
      </trkpt>
      <trkpt lat="45.94109" lon="4.72271">
        <ele>171</ele>
        <time>2018-01-10T09:53:10Z</time>
      </trkpt>
      <trkpt lat="45.94115" lon="4.72272">
        <ele>171</ele>
        <time>2018-01-10T09:53:11Z</time>
      </trkpt>
      <trkpt lat="45.94119" lon="4.72275">
        <ele>171</ele>
        <time>2018-01-10T09:53:12Z</time>
      </trkpt>
      <trkpt lat="45.94123" lon="4.72277">
        <ele>171</ele>
        <time>2018-01-10T09:53:13Z</time>
      </trkpt>
      <trkpt lat="45.94128" lon="4.72279">
        <ele>171</ele>
        <time>2018-01-10T09:53:14Z</time>
      </trkpt>
      <trkpt lat="45.94133" lon="4.72282">
        <ele>171</ele>
        <time>2018-01-10T09:53:15Z</time>
      </trkpt>
      <trkpt lat="45.94138" lon="4.72285">
        <ele>171</ele>
        <time>2018-01-10T09:53:16Z</time>
      </trkpt>
      <trkpt lat="45.94142" lon="4.72288">
        <ele>171</ele>
        <time>2018-01-10T09:53:17Z</time>
      </trkpt>
      <trkpt lat="45.94148" lon="4.7229">
        <ele>171</ele>
        <time>2018-01-10T09:53:18Z</time>
      </trkpt>
      <trkpt lat="45.94154" lon="4.7229">
        <ele>171</ele>
        <time>2018-01-10T09:53:19Z</time>
      </trkpt>
      <trkpt lat="45.94159" lon="4.7229">
        <ele>171</ele>
        <time>2018-01-10T09:53:20Z</time>
      </trkpt>
      <trkpt lat="45.94165" lon="4.72291">
        <ele>171</ele>
        <time>2018-01-10T09:53:21Z</time>
      </trkpt>
      <trkpt lat="45.94171" lon="4.72292">
        <ele>171</ele>
        <time>2018-01-10T09:53:22Z</time>
      </trkpt>
      <trkpt lat="45.94176" lon="4.72293">
        <ele>171</ele>
        <time>2018-01-10T09:53:23Z</time>
      </trkpt>
      <trkpt lat="45.94182" lon="4.72294">
        <ele>171</ele>
        <time>2018-01-10T09:53:24Z</time>
      </trkpt>
      <trkpt lat="45.94187" lon="4.72294">
        <ele>171</ele>
        <time>2018-01-10T09:53:25Z</time>
      </trkpt>
      <trkpt lat="45.94192" lon="4.72295">
        <ele>171</ele>
        <time>2018-01-10T09:53:26Z</time>
      </trkpt>
      <trkpt lat="45.94196" lon="4.72295">
        <ele>171</ele>
        <time>2018-01-10T09:53:27Z</time>
      </trkpt>
      <trkpt lat="45.94201" lon="4.72294">
        <ele>171</ele>
        <time>2018-01-10T09:53:28Z</time>
      </trkpt>
      <trkpt lat="45.94207" lon="4.72293">
        <ele>171</ele>
        <time>2018-01-10T09:53:29Z</time>
      </trkpt>
      <trkpt lat="45.94213" lon="4.72291">
        <ele>171</ele>
        <time>2018-01-10T09:53:30Z</time>
      </trkpt>
      <trkpt lat="45.94218" lon="4.7229">
        <ele>171</ele>
        <time>2018-01-10T09:53:31Z</time>
      </trkpt>
      <trkpt lat="45.94223" lon="4.72291">
        <ele>171</ele>
        <time>2018-01-10T09:53:32Z</time>
      </trkpt>
      <trkpt lat="45.94231" lon="4.72288">
        <ele>171</ele>
        <time>2018-01-10T09:53:34Z</time>
      </trkpt>
      <trkpt lat="45.94235" lon="4.72286">
        <ele>171</ele>
        <time>2018-01-10T09:53:35Z</time>
      </trkpt>
      <trkpt lat="45.94242" lon="4.72284">
        <ele>171</ele>
        <time>2018-01-10T09:53:37Z</time>
      </trkpt>
      <trkpt lat="45.94246" lon="4.72283">
        <ele>171</ele>
        <time>2018-01-10T09:53:38Z</time>
      </trkpt>
      <trkpt lat="45.94253" lon="4.72279">
        <ele>171</ele>
        <time>2018-01-10T09:53:40Z</time>
      </trkpt>
      <trkpt lat="45.94255" lon="4.72277">
        <ele>171</ele>
        <time>2018-01-10T09:53:41Z</time>
      </trkpt>
      <trkpt lat="45.94263" lon="4.72276">
        <ele>171</ele>
        <time>2018-01-10T09:53:51Z</time>
      </trkpt>
      <trkpt lat="45.94264" lon="4.72276">
        <ele>171</ele>
        <time>2018-01-10T09:53:52Z</time>
      </trkpt>
      <trkpt lat="45.94273" lon="4.72279">
        <ele>171</ele>
        <time>2018-01-10T09:53:56Z</time>
      </trkpt>
      <trkpt lat="45.94275" lon="4.72283">
        <ele>171</ele>
        <time>2018-01-10T09:53:57Z</time>
      </trkpt>
      <trkpt lat="45.94278" lon="4.72292">
        <ele>171</ele>
        <time>2018-01-10T09:53:59Z</time>
      </trkpt>
      <trkpt lat="45.94281" lon="4.72297">
        <ele>171</ele>
        <time>2018-01-10T09:54:00Z</time>
      </trkpt>
      <trkpt lat="45.94285" lon="4.72306">
        <ele>171</ele>
        <time>2018-01-10T09:54:02Z</time>
      </trkpt>
      <trkpt lat="45.94287" lon="4.72311">
        <ele>171</ele>
        <time>2018-01-10T09:54:03Z</time>
      </trkpt>
      <trkpt lat="45.94292" lon="4.72321">
        <ele>171</ele>
        <time>2018-01-10T09:54:05Z</time>
      </trkpt>
      <trkpt lat="45.94295" lon="4.72327">
        <ele>171</ele>
        <time>2018-01-10T09:54:06Z</time>
      </trkpt>
      <trkpt lat="45.94298" lon="4.72332">
        <ele>171</ele>
        <time>2018-01-10T09:54:07Z</time>
      </trkpt>
      <trkpt lat="45.94301" lon="4.72338">
        <ele>172</ele>
        <time>2018-01-10T09:54:08Z</time>
      </trkpt>
      <trkpt lat="45.94304" lon="4.72344">
        <ele>172</ele>
        <time>2018-01-10T09:54:09Z</time>
      </trkpt>
      <trkpt lat="45.94307" lon="4.72351">
        <ele>172</ele>
        <time>2018-01-10T09:54:10Z</time>
      </trkpt>
      <trkpt lat="45.94309" lon="4.72356">
        <ele>172</ele>
        <time>2018-01-10T09:54:11Z</time>
      </trkpt>
      <trkpt lat="45.94312" lon="4.72363">
        <ele>172</ele>
        <time>2018-01-10T09:54:12Z</time>
      </trkpt>
      <trkpt lat="45.94315" lon="4.72369">
        <ele>172</ele>
        <time>2018-01-10T09:54:13Z</time>
      </trkpt>
      <trkpt lat="45.94317" lon="4.72375">
        <ele>172</ele>
        <time>2018-01-10T09:54:14Z</time>
      </trkpt>
      <trkpt lat="45.9432" lon="4.72381">
        <ele>172</ele>
        <time>2018-01-10T09:54:15Z</time>
      </trkpt>
      <trkpt lat="45.94323" lon="4.72387">
        <ele>172</ele>
        <time>2018-01-10T09:54:16Z</time>
      </trkpt>
      <trkpt lat="45.94326" lon="4.72393">
        <ele>172</ele>
        <time>2018-01-10T09:54:17Z</time>
      </trkpt>
      <trkpt lat="45.94329" lon="4.72399">
        <ele>172</ele>
        <time>2018-01-10T09:54:18Z</time>
      </trkpt>
      <trkpt lat="45.94332" lon="4.72405">
        <ele>173</ele>
        <time>2018-01-10T09:54:19Z</time>
      </trkpt>
      <trkpt lat="45.94335" lon="4.72412">
        <ele>173</ele>
        <time>2018-01-10T09:54:20Z</time>
      </trkpt>
      <trkpt lat="45.94337" lon="4.72418">
        <ele>173</ele>
        <time>2018-01-10T09:54:21Z</time>
      </trkpt>
      <trkpt lat="45.9434" lon="4.72424">
        <ele>173</ele>
        <time>2018-01-10T09:54:22Z</time>
      </trkpt>
      <trkpt lat="45.94344" lon="4.7243">
        <ele>173</ele>
        <time>2018-01-10T09:54:23Z</time>
      </trkpt>
      <trkpt lat="45.94347" lon="4.72437">
        <ele>173</ele>
        <time>2018-01-10T09:54:24Z</time>
      </trkpt>
      <trkpt lat="45.9435" lon="4.72444">
        <ele>173</ele>
        <time>2018-01-10T09:54:25Z</time>
      </trkpt>
      <trkpt lat="45.94353" lon="4.7245">
        <ele>173</ele>
        <time>2018-01-10T09:54:26Z</time>
      </trkpt>
      <trkpt lat="45.94357" lon="4.72462">
        <ele>173</ele>
        <time>2018-01-10T09:54:28Z</time>
      </trkpt>
      <trkpt lat="45.94359" lon="4.72468">
        <ele>173</ele>
        <time>2018-01-10T09:54:29Z</time>
      </trkpt>
      <trkpt lat="45.94361" lon="4.72474">
        <ele>173</ele>
        <time>2018-01-10T09:54:30Z</time>
      </trkpt>
      <trkpt lat="45.94363" lon="4.7248">
        <ele>173</ele>
        <time>2018-01-10T09:54:31Z</time>
      </trkpt>
      <trkpt lat="45.94367" lon="4.72486">
        <ele>173</ele>
        <time>2018-01-10T09:54:32Z</time>
      </trkpt>
      <trkpt lat="45.94369" lon="4.72492">
        <ele>173</ele>
        <time>2018-01-10T09:54:33Z</time>
      </trkpt>
      <trkpt lat="45.94373" lon="4.72498">
        <ele>173</ele>
        <time>2018-01-10T09:54:34Z</time>
      </trkpt>
      <trkpt lat="45.94375" lon="4.72505">
        <ele>173</ele>
        <time>2018-01-10T09:54:35Z</time>
      </trkpt>
      <trkpt lat="45.94377" lon="4.72512">
        <ele>174</ele>
        <time>2018-01-10T09:54:36Z</time>
      </trkpt>
      <trkpt lat="45.94381" lon="4.72517">
        <ele>174</ele>
        <time>2018-01-10T09:54:37Z</time>
      </trkpt>
      <trkpt lat="45.94383" lon="4.72524">
        <ele>174</ele>
        <time>2018-01-10T09:54:38Z</time>
      </trkpt>
      <trkpt lat="45.94385" lon="4.7253">
        <ele>174</ele>
        <time>2018-01-10T09:54:39Z</time>
      </trkpt>
      <trkpt lat="45.94386" lon="4.72538">
        <ele>174</ele>
        <time>2018-01-10T09:54:40Z</time>
      </trkpt>
      <trkpt lat="45.94388" lon="4.72544">
        <ele>173</ele>
        <time>2018-01-10T09:54:41Z</time>
      </trkpt>
      <trkpt lat="45.94389" lon="4.72552">
        <ele>173</ele>
        <time>2018-01-10T09:54:42Z</time>
      </trkpt>
      <trkpt lat="45.94391" lon="4.72559">
        <ele>173</ele>
        <time>2018-01-10T09:54:43Z</time>
      </trkpt>
      <trkpt lat="45.94393" lon="4.72571">
        <ele>173</ele>
        <time>2018-01-10T09:54:45Z</time>
      </trkpt>
      <trkpt lat="45.94394" lon="4.72577">
        <ele>173</ele>
        <time>2018-01-10T09:54:46Z</time>
      </trkpt>
      <trkpt lat="45.94395" lon="4.72584">
        <ele>173</ele>
        <time>2018-01-10T09:54:47Z</time>
      </trkpt>
      <trkpt lat="45.94396" lon="4.72591">
        <ele>173</ele>
        <time>2018-01-10T09:54:48Z</time>
      </trkpt>
      <trkpt lat="45.94395" lon="4.72601">
        <ele>173</ele>
        <time>2018-01-10T09:54:50Z</time>
      </trkpt>
      <trkpt lat="45.94395" lon="4.72607">
        <ele>173</ele>
        <time>2018-01-10T09:54:51Z</time>
      </trkpt>
      <trkpt lat="45.94395" lon="4.72614">
        <ele>173</ele>
        <time>2018-01-10T09:54:52Z</time>
      </trkpt>
      <trkpt lat="45.94397" lon="4.72621">
        <ele>173</ele>
        <time>2018-01-10T09:54:53Z</time>
      </trkpt>
      <trkpt lat="45.94398" lon="4.72628">
        <ele>174</ele>
        <time>2018-01-10T09:54:54Z</time>
      </trkpt>
      <trkpt lat="45.94398" lon="4.72634">
        <ele>174</ele>
        <time>2018-01-10T09:54:55Z</time>
      </trkpt>
      <trkpt lat="45.94399" lon="4.72645">
        <ele>174</ele>
        <time>2018-01-10T09:54:57Z</time>
      </trkpt>
      <trkpt lat="45.94399" lon="4.72651">
        <ele>174</ele>
        <time>2018-01-10T09:54:58Z</time>
      </trkpt>
      <trkpt lat="45.944" lon="4.72657">
        <ele>174</ele>
        <time>2018-01-10T09:54:59Z</time>
      </trkpt>
      <trkpt lat="45.94401" lon="4.72664">
        <ele>174</ele>
        <time>2018-01-10T09:55:00Z</time>
      </trkpt>
      <trkpt lat="45.944" lon="4.72676">
        <ele>173</ele>
        <time>2018-01-10T09:55:02Z</time>
      </trkpt>
      <trkpt lat="45.94401" lon="4.72683">
        <ele>173</ele>
        <time>2018-01-10T09:55:03Z</time>
      </trkpt>
      <trkpt lat="45.94403" lon="4.72689">
        <ele>173</ele>
        <time>2018-01-10T09:55:04Z</time>
      </trkpt>
      <trkpt lat="45.94404" lon="4.72696">
        <ele>172</ele>
        <time>2018-01-10T09:55:05Z</time>
      </trkpt>
      <trkpt lat="45.94406" lon="4.72708">
        <ele>172</ele>
        <time>2018-01-10T09:55:07Z</time>
      </trkpt>
      <trkpt lat="45.94407" lon="4.72714">
        <ele>172</ele>
        <time>2018-01-10T09:55:08Z</time>
      </trkpt>
      <trkpt lat="45.94408" lon="4.72721">
        <ele>172</ele>
        <time>2018-01-10T09:55:09Z</time>
      </trkpt>
      <trkpt lat="45.94409" lon="4.72728">
        <ele>172</ele>
        <time>2018-01-10T09:55:10Z</time>
      </trkpt>
      <trkpt lat="45.94411" lon="4.72734">
        <ele>172</ele>
        <time>2018-01-10T09:55:11Z</time>
      </trkpt>
      <trkpt lat="45.94412" lon="4.72741">
        <ele>171</ele>
        <time>2018-01-10T09:55:12Z</time>
      </trkpt>
      <trkpt lat="45.94413" lon="4.72748">
        <ele>171</ele>
        <time>2018-01-10T09:55:13Z</time>
      </trkpt>
      <trkpt lat="45.94413" lon="4.72754">
        <ele>170</ele>
        <time>2018-01-10T09:55:14Z</time>
      </trkpt>
      <trkpt lat="45.94414" lon="4.7276">
        <ele>170</ele>
        <time>2018-01-10T09:55:15Z</time>
      </trkpt>
      <trkpt lat="45.94416" lon="4.72767">
        <ele>170</ele>
        <time>2018-01-10T09:55:16Z</time>
      </trkpt>
      <trkpt lat="45.94417" lon="4.72777">
        <ele>168</ele>
        <time>2018-01-10T09:55:18Z</time>
      </trkpt>
      <trkpt lat="45.94418" lon="4.72782">
        <ele>168</ele>
        <time>2018-01-10T09:55:19Z</time>
      </trkpt>
      <trkpt lat="45.94419" lon="4.72792">
        <ele>168</ele>
        <time>2018-01-10T09:55:21Z</time>
      </trkpt>
      <trkpt lat="45.9442" lon="4.72797">
        <ele>168</ele>
        <time>2018-01-10T09:55:22Z</time>
      </trkpt>
      <trkpt lat="45.94422" lon="4.72807">
        <ele>167</ele>
        <time>2018-01-10T09:55:24Z</time>
      </trkpt>
      <trkpt lat="45.94422" lon="4.72812">
        <ele>167</ele>
        <time>2018-01-10T09:55:25Z</time>
      </trkpt>
      <trkpt lat="45.94423" lon="4.72823">
        <ele>167</ele>
        <time>2018-01-10T09:55:27Z</time>
      </trkpt>
      <trkpt lat="45.94424" lon="4.72829">
        <ele>166</ele>
        <time>2018-01-10T09:55:28Z</time>
      </trkpt>
      <trkpt lat="45.94425" lon="4.72839">
        <ele>166</ele>
        <time>2018-01-10T09:55:30Z</time>
      </trkpt>
      <trkpt lat="45.94426" lon="4.72844">
        <ele>166</ele>
        <time>2018-01-10T09:55:31Z</time>
      </trkpt>
      <trkpt lat="45.94427" lon="4.72854">
        <ele>166</ele>
        <time>2018-01-10T09:55:33Z</time>
      </trkpt>
      <trkpt lat="45.94428" lon="4.7286">
        <ele>166</ele>
        <time>2018-01-10T09:55:34Z</time>
      </trkpt>
      <trkpt lat="45.94429" lon="4.7287">
        <ele>166</ele>
        <time>2018-01-10T09:55:36Z</time>
      </trkpt>
      <trkpt lat="45.9443" lon="4.72875">
        <ele>166</ele>
        <time>2018-01-10T09:55:37Z</time>
      </trkpt>
      <trkpt lat="45.94431" lon="4.72886">
        <ele>166</ele>
        <time>2018-01-10T09:55:39Z</time>
      </trkpt>
      <trkpt lat="45.94431" lon="4.72891">
        <ele>166</ele>
        <time>2018-01-10T09:55:40Z</time>
      </trkpt>
      <trkpt lat="45.94433" lon="4.72901">
        <ele>166</ele>
        <time>2018-01-10T09:55:42Z</time>
      </trkpt>
      <trkpt lat="45.94433" lon="4.72907">
        <ele>166</ele>
        <time>2018-01-10T09:55:43Z</time>
      </trkpt>
      <trkpt lat="45.94435" lon="4.72919">
        <ele>167</ele>
        <time>2018-01-10T09:55:45Z</time>
      </trkpt>
      <trkpt lat="45.94436" lon="4.72925">
        <ele>167</ele>
        <time>2018-01-10T09:55:46Z</time>
      </trkpt>
      <trkpt lat="45.94437" lon="4.72931">
        <ele>167</ele>
        <time>2018-01-10T09:55:47Z</time>
      </trkpt>
      <trkpt lat="45.94438" lon="4.72937">
        <ele>167</ele>
        <time>2018-01-10T09:55:48Z</time>
      </trkpt>
      <trkpt lat="45.94439" lon="4.72944">
        <ele>167</ele>
        <time>2018-01-10T09:55:49Z</time>
      </trkpt>
      <trkpt lat="45.9444" lon="4.7295">
        <ele>167</ele>
        <time>2018-01-10T09:55:50Z</time>
      </trkpt>
      <trkpt lat="45.9444" lon="4.72957">
        <ele>167</ele>
        <time>2018-01-10T09:55:51Z</time>
      </trkpt>
      <trkpt lat="45.94442" lon="4.72964">
        <ele>167</ele>
        <time>2018-01-10T09:55:52Z</time>
      </trkpt>
      <trkpt lat="45.94443" lon="4.72972">
        <ele>167</ele>
        <time>2018-01-10T09:55:53Z</time>
      </trkpt>
      <trkpt lat="45.94444" lon="4.72979">
        <ele>167</ele>
        <time>2018-01-10T09:55:54Z</time>
      </trkpt>
      <trkpt lat="45.94446" lon="4.72986">
        <ele>167</ele>
        <time>2018-01-10T09:55:55Z</time>
      </trkpt>
      <trkpt lat="45.94447" lon="4.72994">
        <ele>167</ele>
        <time>2018-01-10T09:55:56Z</time>
      </trkpt>
      <trkpt lat="45.94447" lon="4.73">
        <ele>169</ele>
        <time>2018-01-10T09:55:57Z</time>
      </trkpt>
      <trkpt lat="45.94448" lon="4.73008">
        <ele>169</ele>
        <time>2018-01-10T09:55:58Z</time>
      </trkpt>
      <trkpt lat="45.9445" lon="4.73019">
        <ele>169</ele>
        <time>2018-01-10T09:56:00Z</time>
      </trkpt>
      <trkpt lat="45.94451" lon="4.73024">
        <ele>169</ele>
        <time>2018-01-10T09:56:01Z</time>
      </trkpt>
      <trkpt lat="45.94452" lon="4.73036">
        <ele>169</ele>
        <time>2018-01-10T09:56:03Z</time>
      </trkpt>
      <trkpt lat="45.94453" lon="4.73043">
        <ele>169</ele>
        <time>2018-01-10T09:56:04Z</time>
      </trkpt>
      <trkpt lat="45.94454" lon="4.73053">
        <ele>170</ele>
        <time>2018-01-10T09:56:06Z</time>
      </trkpt>
      <trkpt lat="45.94455" lon="4.73057">
        <ele>170</ele>
        <time>2018-01-10T09:56:07Z</time>
      </trkpt>
      <trkpt lat="45.94459" lon="4.73068">
        <ele>170</ele>
        <time>2018-01-10T09:56:10Z</time>
      </trkpt>
      <trkpt lat="45.94459" lon="4.73071">
        <ele>170</ele>
        <time>2018-01-10T09:56:11Z</time>
      </trkpt>
      <trkpt lat="45.94463" lon="4.73081">
        <ele>170</ele>
        <time>2018-01-10T09:56:15Z</time>
      </trkpt>
      <trkpt lat="45.94466" lon="4.73082">
        <ele>170</ele>
        <time>2018-01-10T09:56:16Z</time>
      </trkpt>
      <trkpt lat="45.94474" lon="4.73077">
        <ele>170</ele>
        <time>2018-01-10T09:56:18Z</time>
      </trkpt>
      <trkpt lat="45.94478" lon="4.73079">
        <ele>171</ele>
        <time>2018-01-10T09:56:19Z</time>
      </trkpt>
      <trkpt lat="45.94483" lon="4.73081">
        <ele>171</ele>
        <time>2018-01-10T09:56:20Z</time>
      </trkpt>
      <trkpt lat="45.94488" lon="4.73084">
        <ele>172</ele>
        <time>2018-01-10T09:56:21Z</time>
      </trkpt>
      <trkpt lat="45.94493" lon="4.73087">
        <ele>172</ele>
        <time>2018-01-10T09:56:22Z</time>
      </trkpt>
      <trkpt lat="45.94498" lon="4.7309">
        <ele>172</ele>
        <time>2018-01-10T09:56:23Z</time>
      </trkpt>
      <trkpt lat="45.94503" lon="4.73093">
        <ele>172</ele>
        <time>2018-01-10T09:56:24Z</time>
      </trkpt>
      <trkpt lat="45.94507" lon="4.73096">
        <ele>172</ele>
        <time>2018-01-10T09:56:25Z</time>
      </trkpt>
      <trkpt lat="45.94512" lon="4.73099">
        <ele>172</ele>
        <time>2018-01-10T09:56:26Z</time>
      </trkpt>
      <trkpt lat="45.94517" lon="4.731">
        <ele>172</ele>
        <time>2018-01-10T09:56:27Z</time>
      </trkpt>
      <trkpt lat="45.94522" lon="4.73103">
        <ele>173</ele>
        <time>2018-01-10T09:56:28Z</time>
      </trkpt>
      <trkpt lat="45.94527" lon="4.73104">
        <ele>173</ele>
        <time>2018-01-10T09:56:29Z</time>
      </trkpt>
      <trkpt lat="45.94535" lon="4.73108">
        <ele>173</ele>
        <time>2018-01-10T09:56:31Z</time>
      </trkpt>
      <trkpt lat="45.94538" lon="4.7311">
        <ele>173</ele>
        <time>2018-01-10T09:56:32Z</time>
      </trkpt>
      <trkpt lat="45.94545" lon="4.73112">
        <ele>173</ele>
        <time>2018-01-10T09:56:34Z</time>
      </trkpt>
      <trkpt lat="45.94549" lon="4.73112">
        <ele>173</ele>
        <time>2018-01-10T09:56:35Z</time>
      </trkpt>
      <trkpt lat="45.94553" lon="4.73105">
        <ele>173</ele>
        <time>2018-01-10T09:56:37Z</time>
      </trkpt>
      <trkpt lat="45.94553" lon="4.731">
        <ele>173</ele>
        <time>2018-01-10T09:56:38Z</time>
      </trkpt>
      <trkpt lat="45.9455" lon="4.73091">
        <ele>172</ele>
        <time>2018-01-10T09:56:40Z</time>
      </trkpt>
      <trkpt lat="45.9455" lon="4.73084">
        <ele>172</ele>
        <time>2018-01-10T09:56:41Z</time>
      </trkpt>
      <trkpt lat="45.94551" lon="4.73072">
        <ele>172</ele>
        <time>2018-01-10T09:56:43Z</time>
      </trkpt>
      <trkpt lat="45.94549" lon="4.73067">
        <ele>172</ele>
        <time>2018-01-10T09:56:44Z</time>
      </trkpt>
      <trkpt lat="45.94547" lon="4.73055">
        <ele>172</ele>
        <time>2018-01-10T09:56:46Z</time>
      </trkpt>
      <trkpt lat="45.94547" lon="4.7305">
        <ele>172</ele>
        <time>2018-01-10T09:56:47Z</time>
      </trkpt>
      <trkpt lat="45.94547" lon="4.73039">
        <ele>171</ele>
        <time>2018-01-10T09:56:49Z</time>
      </trkpt>
      <trkpt lat="45.94547" lon="4.73035">
        <ele>171</ele>
        <time>2018-01-10T09:56:50Z</time>
      </trkpt>
      <trkpt lat="45.94541" lon="4.73026">
        <ele>171</ele>
        <time>2018-01-10T09:56:53Z</time>
      </trkpt>
      <trkpt lat="45.94539" lon="4.73024">
        <ele>171</ele>
        <time>2018-01-10T09:56:54Z</time>
      </trkpt>
      <trkpt lat="45.94533" lon="4.73015">
        <ele>171</ele>
        <time>2018-01-10T09:56:57Z</time>
      </trkpt>
      <trkpt lat="45.9453" lon="4.73013">
        <ele>171</ele>
        <time>2018-01-10T09:56:58Z</time>
      </trkpt>
      <trkpt lat="45.94525" lon="4.73015">
        <ele>171</ele>
        <time>2018-01-10T09:56:59Z</time>
      </trkpt>
      <trkpt lat="45.94521" lon="4.73015">
        <ele>171</ele>
        <time>2018-01-10T09:57:00Z</time>
      </trkpt>
      <trkpt lat="45.94513" lon="4.73016">
        <ele>171</ele>
        <time>2018-01-10T09:57:02Z</time>
      </trkpt>
      <trkpt lat="45.9451" lon="4.73016">
        <ele>171</ele>
        <time>2018-01-10T09:57:03Z</time>
      </trkpt>
      <trkpt lat="45.94504" lon="4.73015">
        <ele>171</ele>
        <time>2018-01-10T09:57:05Z</time>
      </trkpt>
      <trkpt lat="45.945" lon="4.73015">
        <ele>171</ele>
        <time>2018-01-10T09:57:06Z</time>
      </trkpt>
      <trkpt lat="45.94493" lon="4.73016">
        <ele>170</ele>
        <time>2018-01-10T09:57:08Z</time>
      </trkpt>
      <trkpt lat="45.94489" lon="4.73016">
        <ele>170</ele>
        <time>2018-01-10T09:57:09Z</time>
      </trkpt>
      <trkpt lat="45.94484" lon="4.73017">
        <ele>170</ele>
        <time>2018-01-10T09:57:10Z</time>
      </trkpt>
      <trkpt lat="45.9448" lon="4.73017">
        <ele>170</ele>
        <time>2018-01-10T09:57:11Z</time>
      </trkpt>
      <trkpt lat="45.94473" lon="4.73018">
        <ele>170</ele>
        <time>2018-01-10T09:57:13Z</time>
      </trkpt>
      <trkpt lat="45.94468" lon="4.73018">
        <ele>170</ele>
        <time>2018-01-10T09:57:14Z</time>
      </trkpt>
      <trkpt lat="45.94461" lon="4.73019">
        <ele>169</ele>
        <time>2018-01-10T09:57:16Z</time>
      </trkpt>
      <trkpt lat="45.94458" lon="4.73018">
        <ele>169</ele>
        <time>2018-01-10T09:57:17Z</time>
      </trkpt>
      <trkpt lat="45.94451" lon="4.73019">
        <ele>169</ele>
        <time>2018-01-10T09:57:19Z</time>
      </trkpt>
      <trkpt lat="45.94446" lon="4.7302">
        <ele>169</ele>
        <time>2018-01-10T09:57:20Z</time>
      </trkpt>
      <trkpt lat="45.9444" lon="4.73028">
        <ele>169</ele>
        <time>2018-01-10T09:57:22Z</time>
      </trkpt>
      <trkpt lat="45.94437" lon="4.73032">
        <ele>169</ele>
        <time>2018-01-10T09:57:23Z</time>
      </trkpt>
      <trkpt lat="45.94431" lon="4.73039">
        <ele>169</ele>
        <time>2018-01-10T09:57:25Z</time>
      </trkpt>
      <trkpt lat="45.94429" lon="4.73043">
        <ele>169</ele>
        <time>2018-01-10T09:57:26Z</time>
      </trkpt>
      <trkpt lat="45.94423" lon="4.73052">
        <ele>169</ele>
        <time>2018-01-10T09:57:28Z</time>
      </trkpt>
      <trkpt lat="45.9442" lon="4.73055">
        <ele>169</ele>
        <time>2018-01-10T09:57:29Z</time>
      </trkpt>
      <trkpt lat="45.94417" lon="4.73059">
        <ele>168</ele>
        <time>2018-01-10T09:57:30Z</time>
      </trkpt>
      <trkpt lat="45.94412" lon="4.73062">
        <ele>168</ele>
        <time>2018-01-10T09:57:31Z</time>
      </trkpt>
      <trkpt lat="45.94405" lon="4.73067">
        <ele>168</ele>
        <time>2018-01-10T09:57:33Z</time>
      </trkpt>
      <trkpt lat="45.94402" lon="4.73071">
        <ele>168</ele>
        <time>2018-01-10T09:57:34Z</time>
      </trkpt>
      <trkpt lat="45.94394" lon="4.73076">
        <ele>168</ele>
        <time>2018-01-10T09:57:36Z</time>
      </trkpt>
      <trkpt lat="45.94391" lon="4.73078">
        <ele>167</ele>
        <time>2018-01-10T09:57:37Z</time>
      </trkpt>
      <trkpt lat="45.94385" lon="4.73083">
        <ele>167</ele>
        <time>2018-01-10T09:57:39Z</time>
      </trkpt>
      <trkpt lat="45.94381" lon="4.73084">
        <ele>169</ele>
        <time>2018-01-10T09:57:40Z</time>
      </trkpt>
      <trkpt lat="45.94374" lon="4.73089">
        <ele>169</ele>
        <time>2018-01-10T09:57:42Z</time>
      </trkpt>
      <trkpt lat="45.9437" lon="4.73091">
        <ele>169</ele>
        <time>2018-01-10T09:57:43Z</time>
      </trkpt>
      <trkpt lat="45.94365" lon="4.73097">
        <ele>169</ele>
        <time>2018-01-10T09:57:45Z</time>
      </trkpt>
      <trkpt lat="45.94363" lon="4.731">
        <ele>169</ele>
        <time>2018-01-10T09:57:46Z</time>
      </trkpt>
      <trkpt lat="45.94356" lon="4.73107">
        <ele>169</ele>
        <time>2018-01-10T09:57:48Z</time>
      </trkpt>
      <trkpt lat="45.94353" lon="4.7311">
        <ele>169</ele>
        <time>2018-01-10T09:57:49Z</time>
      </trkpt>
      <trkpt lat="45.94346" lon="4.73116">
        <ele>169</ele>
        <time>2018-01-10T09:57:51Z</time>
      </trkpt>
      <trkpt lat="45.94343" lon="4.73118">
        <ele>169</ele>
        <time>2018-01-10T09:57:52Z</time>
      </trkpt>
      <trkpt lat="45.94335" lon="4.73124">
        <ele>169</ele>
        <time>2018-01-10T09:57:54Z</time>
      </trkpt>
      <trkpt lat="45.94332" lon="4.73127">
        <ele>168</ele>
        <time>2018-01-10T09:57:55Z</time>
      </trkpt>
      <trkpt lat="45.94326" lon="4.73132">
        <ele>168</ele>
        <time>2018-01-10T09:57:57Z</time>
      </trkpt>
      <trkpt lat="45.94324" lon="4.73134">
        <ele>168</ele>
        <time>2018-01-10T09:57:58Z</time>
      </trkpt>
      <trkpt lat="45.94317" lon="4.73139">
        <ele>168</ele>
        <time>2018-01-10T09:58:00Z</time>
      </trkpt>
      <trkpt lat="45.94314" lon="4.73141">
        <ele>168</ele>
        <time>2018-01-10T09:58:01Z</time>
      </trkpt>
      <trkpt lat="45.94306" lon="4.73147">
        <ele>168</ele>
        <time>2018-01-10T09:58:03Z</time>
      </trkpt>
      <trkpt lat="45.94302" lon="4.7315">
        <ele>168</ele>
        <time>2018-01-10T09:58:04Z</time>
      </trkpt>
      <trkpt lat="45.94294" lon="4.73157">
        <ele>167</ele>
        <time>2018-01-10T09:58:06Z</time>
      </trkpt>
      <trkpt lat="45.94291" lon="4.7316">
        <ele>167</ele>
        <time>2018-01-10T09:58:07Z</time>
      </trkpt>
      <trkpt lat="45.94285" lon="4.73167">
        <ele>169</ele>
        <time>2018-01-10T09:58:09Z</time>
      </trkpt>
      <trkpt lat="45.94282" lon="4.7317">
        <ele>169</ele>
        <time>2018-01-10T09:58:10Z</time>
      </trkpt>
      <trkpt lat="45.94275" lon="4.73176">
        <ele>169</ele>
        <time>2018-01-10T09:58:12Z</time>
      </trkpt>
      <trkpt lat="45.94272" lon="4.73178">
        <ele>169</ele>
        <time>2018-01-10T09:58:13Z</time>
      </trkpt>
      <trkpt lat="45.94266" lon="4.73183">
        <ele>169</ele>
        <time>2018-01-10T09:58:15Z</time>
      </trkpt>
      <trkpt lat="45.94262" lon="4.73186">
        <ele>169</ele>
        <time>2018-01-10T09:58:16Z</time>
      </trkpt>
      <trkpt lat="45.94255" lon="4.73192">
        <ele>169</ele>
        <time>2018-01-10T09:58:18Z</time>
      </trkpt>
      <trkpt lat="45.94252" lon="4.73195">
        <ele>169</ele>
        <time>2018-01-10T09:58:19Z</time>
      </trkpt>
      <trkpt lat="45.94245" lon="4.73201">
        <ele>168</ele>
        <time>2018-01-10T09:58:21Z</time>
      </trkpt>
      <trkpt lat="45.94242" lon="4.73203">
        <ele>168</ele>
        <time>2018-01-10T09:58:22Z</time>
      </trkpt>
      <trkpt lat="45.94235" lon="4.73207">
        <ele>169</ele>
        <time>2018-01-10T09:58:24Z</time>
      </trkpt>
      <trkpt lat="45.94232" lon="4.73209">
        <ele>169</ele>
        <time>2018-01-10T09:58:25Z</time>
      </trkpt>
      <trkpt lat="45.94225" lon="4.73214">
        <ele>169</ele>
        <time>2018-01-10T09:58:27Z</time>
      </trkpt>
      <trkpt lat="45.94222" lon="4.73217">
        <ele>169</ele>
        <time>2018-01-10T09:58:28Z</time>
      </trkpt>
      <trkpt lat="45.94215" lon="4.73224">
        <ele>169</ele>
        <time>2018-01-10T09:58:30Z</time>
      </trkpt>
      <trkpt lat="45.94212" lon="4.73226">
        <ele>169</ele>
        <time>2018-01-10T09:58:31Z</time>
      </trkpt>
      <trkpt lat="45.94205" lon="4.73231">
        <ele>169</ele>
        <time>2018-01-10T09:58:33Z</time>
      </trkpt>
      <trkpt lat="45.94202" lon="4.73232">
        <ele>169</ele>
        <time>2018-01-10T09:58:34Z</time>
      </trkpt>
      <trkpt lat="45.94194" lon="4.73236">
        <ele>169</ele>
        <time>2018-01-10T09:58:36Z</time>
      </trkpt>
      <trkpt lat="45.94191" lon="4.73239">
        <ele>169</ele>
        <time>2018-01-10T09:58:37Z</time>
      </trkpt>
      <trkpt lat="45.94186" lon="4.73244">
        <ele>169</ele>
        <time>2018-01-10T09:58:39Z</time>
      </trkpt>
      <trkpt lat="45.94183" lon="4.73247">
        <ele>169</ele>
        <time>2018-01-10T09:58:40Z</time>
      </trkpt>
      <trkpt lat="45.94178" lon="4.73252">
        <ele>171</ele>
        <time>2018-01-10T09:58:42Z</time>
      </trkpt>
      <trkpt lat="45.94174" lon="4.73254">
        <ele>171</ele>
        <time>2018-01-10T09:58:43Z</time>
      </trkpt>
      <trkpt lat="45.94169" lon="4.73258">
        <ele>171</ele>
        <time>2018-01-10T09:58:45Z</time>
      </trkpt>
      <trkpt lat="45.94166" lon="4.73261">
        <ele>170</ele>
        <time>2018-01-10T09:58:46Z</time>
      </trkpt>
      <trkpt lat="45.94159" lon="4.73268">
        <ele>170</ele>
        <time>2018-01-10T09:58:48Z</time>
      </trkpt>
      <trkpt lat="45.94156" lon="4.73272">
        <ele>170</ele>
        <time>2018-01-10T09:58:49Z</time>
      </trkpt>
      <trkpt lat="45.94152" lon="4.73277">
        <ele>170</ele>
        <time>2018-01-10T09:58:50Z</time>
      </trkpt>
      <trkpt lat="45.94149" lon="4.73282">
        <ele>170</ele>
        <time>2018-01-10T09:58:51Z</time>
      </trkpt>
      <trkpt lat="45.94144" lon="4.7329">
        <ele>170</ele>
        <time>2018-01-10T09:58:53Z</time>
      </trkpt>
      <trkpt lat="45.94141" lon="4.73294">
        <ele>170</ele>
        <time>2018-01-10T09:58:54Z</time>
      </trkpt>
      <trkpt lat="45.94136" lon="4.73302">
        <ele>170</ele>
        <time>2018-01-10T09:58:56Z</time>
      </trkpt>
      <trkpt lat="45.94134" lon="4.73307">
        <ele>171</ele>
        <time>2018-01-10T09:58:57Z</time>
      </trkpt>
      <trkpt lat="45.94129" lon="4.73315">
        <ele>171</ele>
        <time>2018-01-10T09:58:59Z</time>
      </trkpt>
      <trkpt lat="45.94126" lon="4.7332">
        <ele>171</ele>
        <time>2018-01-10T09:59:00Z</time>
      </trkpt>
      <trkpt lat="45.94121" lon="4.73328">
        <ele>171</ele>
        <time>2018-01-10T09:59:02Z</time>
      </trkpt>
      <trkpt lat="45.94119" lon="4.73331">
        <ele>171</ele>
        <time>2018-01-10T09:59:03Z</time>
      </trkpt>
      <trkpt lat="45.94115" lon="4.73338">
        <ele>173</ele>
        <time>2018-01-10T09:59:05Z</time>
      </trkpt>
      <trkpt lat="45.94112" lon="4.73342">
        <ele>173</ele>
        <time>2018-01-10T09:59:06Z</time>
      </trkpt>
      <trkpt lat="45.94106" lon="4.73348">
        <ele>173</ele>
        <time>2018-01-10T09:59:08Z</time>
      </trkpt>
      <trkpt lat="45.94102" lon="4.73351">
        <ele>173</ele>
        <time>2018-01-10T09:59:09Z</time>
      </trkpt>
      <trkpt lat="45.94097" lon="4.73358">
        <ele>173</ele>
        <time>2018-01-10T09:59:11Z</time>
      </trkpt>
      <trkpt lat="45.94095" lon="4.73362">
        <ele>173</ele>
        <time>2018-01-10T09:59:12Z</time>
      </trkpt>
      <trkpt lat="45.9409" lon="4.7337">
        <ele>173</ele>
        <time>2018-01-10T09:59:14Z</time>
      </trkpt>
      <trkpt lat="45.94087" lon="4.73374">
        <ele>173</ele>
        <time>2018-01-10T09:59:15Z</time>
      </trkpt>
      <trkpt lat="45.94082" lon="4.73383">
        <ele>171</ele>
        <time>2018-01-10T09:59:17Z</time>
      </trkpt>
      <trkpt lat="45.9408" lon="4.73387">
        <ele>171</ele>
        <time>2018-01-10T09:59:18Z</time>
      </trkpt>
      <trkpt lat="45.94076" lon="4.73396">
        <ele>171</ele>
        <time>2018-01-10T09:59:20Z</time>
      </trkpt>
      <trkpt lat="45.94074" lon="4.73401">
        <ele>172</ele>
        <time>2018-01-10T09:59:21Z</time>
      </trkpt>
      <trkpt lat="45.94071" lon="4.73406">
        <ele>172</ele>
        <time>2018-01-10T09:59:22Z</time>
      </trkpt>
      <trkpt lat="45.94067" lon="4.73411">
        <ele>172</ele>
        <time>2018-01-10T09:59:23Z</time>
      </trkpt>
      <trkpt lat="45.94063" lon="4.73418">
        <ele>172</ele>
        <time>2018-01-10T09:59:24Z</time>
      </trkpt>
      <trkpt lat="45.94061" lon="4.73423">
        <ele>172</ele>
        <time>2018-01-10T09:59:25Z</time>
      </trkpt>
      <trkpt lat="45.94055" lon="4.73432">
        <ele>172</ele>
        <time>2018-01-10T09:59:27Z</time>
      </trkpt>
      <trkpt lat="45.94052" lon="4.73437">
        <ele>172</ele>
        <time>2018-01-10T09:59:28Z</time>
      </trkpt>
      <trkpt lat="45.94048" lon="4.73445">
        <ele>171</ele>
        <time>2018-01-10T09:59:30Z</time>
      </trkpt>
      <trkpt lat="45.94046" lon="4.73449">
        <ele>171</ele>
        <time>2018-01-10T09:59:31Z</time>
      </trkpt>
      <trkpt lat="45.94042" lon="4.7346">
        <ele>171</ele>
        <time>2018-01-10T09:59:33Z</time>
      </trkpt>
      <trkpt lat="45.9404" lon="4.73465">
        <ele>171</ele>
        <time>2018-01-10T09:59:34Z</time>
      </trkpt>
      <trkpt lat="45.94035" lon="4.73472">
        <ele>171</ele>
        <time>2018-01-10T09:59:36Z</time>
      </trkpt>
      <trkpt lat="45.94032" lon="4.73476">
        <ele>171</ele>
        <time>2018-01-10T09:59:37Z</time>
      </trkpt>
      <trkpt lat="45.94028" lon="4.73485">
        <ele>171</ele>
        <time>2018-01-10T09:59:39Z</time>
      </trkpt>
      <trkpt lat="45.94025" lon="4.7349">
        <ele>170</ele>
        <time>2018-01-10T09:59:40Z</time>
      </trkpt>
      <trkpt lat="45.9402" lon="4.73498">
        <ele>170</ele>
        <time>2018-01-10T09:59:42Z</time>
      </trkpt>
      <trkpt lat="45.94018" lon="4.73503">
        <ele>171</ele>
        <time>2018-01-10T09:59:43Z</time>
      </trkpt>
      <trkpt lat="45.94014" lon="4.73512">
        <ele>171</ele>
        <time>2018-01-10T09:59:45Z</time>
      </trkpt>
      <trkpt lat="45.94012" lon="4.73516">
        <ele>171</ele>
        <time>2018-01-10T09:59:46Z</time>
      </trkpt>
      <trkpt lat="45.94008" lon="4.73525">
        <ele>171</ele>
        <time>2018-01-10T09:59:48Z</time>
      </trkpt>
      <trkpt lat="45.94006" lon="4.73529">
        <ele>171</ele>
        <time>2018-01-10T09:59:49Z</time>
      </trkpt>
      <trkpt lat="45.94003" lon="4.73538">
        <ele>171</ele>
        <time>2018-01-10T09:59:51Z</time>
      </trkpt>
      <trkpt lat="45.94" lon="4.73543">
        <ele>171</ele>
        <time>2018-01-10T09:59:52Z</time>
      </trkpt>
      <trkpt lat="45.93996" lon="4.73554">
        <ele>168</ele>
        <time>2018-01-10T09:59:54Z</time>
      </trkpt>
      <trkpt lat="45.93994" lon="4.73559">
        <ele>168</ele>
        <time>2018-01-10T09:59:55Z</time>
      </trkpt>
      <trkpt lat="45.9399" lon="4.7357">
        <ele>168</ele>
        <time>2018-01-10T09:59:57Z</time>
      </trkpt>
      <trkpt lat="45.93988" lon="4.73576">
        <ele>168</ele>
        <time>2018-01-10T09:59:58Z</time>
      </trkpt>
      <trkpt lat="45.93984" lon="4.73587">
        <ele>169</ele>
        <time>2018-01-10T10:00:00Z</time>
      </trkpt>
      <trkpt lat="45.93982" lon="4.73592">
        <ele>169</ele>
        <time>2018-01-10T10:00:01Z</time>
      </trkpt>
      <trkpt lat="45.93979" lon="4.73602">
        <ele>169</ele>
        <time>2018-01-10T10:00:03Z</time>
      </trkpt>
      <trkpt lat="45.93978" lon="4.73608">
        <ele>170</ele>
        <time>2018-01-10T10:00:04Z</time>
      </trkpt>
      <trkpt lat="45.93975" lon="4.73619">
        <ele>170</ele>
        <time>2018-01-10T10:00:06Z</time>
      </trkpt>
      <trkpt lat="45.93974" lon="4.73625">
        <ele>170</ele>
        <time>2018-01-10T10:00:07Z</time>
      </trkpt>
      <trkpt lat="45.93972" lon="4.73636">
        <ele>170</ele>
        <time>2018-01-10T10:00:09Z</time>
      </trkpt>
      <trkpt lat="45.93971" lon="4.73641">
        <ele>170</ele>
        <time>2018-01-10T10:00:10Z</time>
      </trkpt>
      <trkpt lat="45.93969" lon="4.73651">
        <ele>170</ele>
        <time>2018-01-10T10:00:12Z</time>
      </trkpt>
      <trkpt lat="45.93968" lon="4.73657">
        <ele>171</ele>
        <time>2018-01-10T10:00:13Z</time>
      </trkpt>
      <trkpt lat="45.93966" lon="4.73667">
        <ele>172</ele>
        <time>2018-01-10T10:00:15Z</time>
      </trkpt>
      <trkpt lat="45.93965" lon="4.73673">
        <ele>172</ele>
        <time>2018-01-10T10:00:16Z</time>
      </trkpt>
      <trkpt lat="45.93963" lon="4.73684">
        <ele>172</ele>
        <time>2018-01-10T10:00:18Z</time>
      </trkpt>
      <trkpt lat="45.93961" lon="4.7369">
        <ele>172</ele>
        <time>2018-01-10T10:00:19Z</time>
      </trkpt>
      <trkpt lat="45.93959" lon="4.73702">
        <ele>172</ele>
        <time>2018-01-10T10:00:21Z</time>
      </trkpt>
      <trkpt lat="45.93958" lon="4.73707">
        <ele>172</ele>
        <time>2018-01-10T10:00:22Z</time>
      </trkpt>
      <trkpt lat="45.93957" lon="4.73717">
        <ele>172</ele>
        <time>2018-01-10T10:00:24Z</time>
      </trkpt>
      <trkpt lat="45.93957" lon="4.73722">
        <ele>172</ele>
        <time>2018-01-10T10:00:25Z</time>
      </trkpt>
      <trkpt lat="45.93956" lon="4.73732">
        <ele>172</ele>
        <time>2018-01-10T10:00:27Z</time>
      </trkpt>
      <trkpt lat="45.93956" lon="4.73737">
        <ele>172</ele>
        <time>2018-01-10T10:00:28Z</time>
      </trkpt>
      <trkpt lat="45.93955" lon="4.73746">
        <ele>172</ele>
        <time>2018-01-10T10:00:30Z</time>
      </trkpt>
      <trkpt lat="45.93955" lon="4.73751">
        <ele>172</ele>
        <time>2018-01-10T10:00:31Z</time>
      </trkpt>
      <trkpt lat="45.93954" lon="4.73762">
        <ele>172</ele>
        <time>2018-01-10T10:00:33Z</time>
      </trkpt>
      <trkpt lat="45.93953" lon="4.73768">
        <ele>172</ele>
        <time>2018-01-10T10:00:34Z</time>
      </trkpt>
      <trkpt lat="45.93952" lon="4.73779">
        <ele>172</ele>
        <time>2018-01-10T10:00:36Z</time>
      </trkpt>
      <trkpt lat="45.93952" lon="4.73784">
        <ele>172</ele>
        <time>2018-01-10T10:00:37Z</time>
      </trkpt>
      <trkpt lat="45.9395" lon="4.73794">
        <ele>172</ele>
        <time>2018-01-10T10:00:39Z</time>
      </trkpt>
      <trkpt lat="45.9395" lon="4.73801">
        <ele>172</ele>
        <time>2018-01-10T10:00:40Z</time>
      </trkpt>
      <trkpt lat="45.93949" lon="4.73814">
        <ele>172</ele>
        <time>2018-01-10T10:00:42Z</time>
      </trkpt>
      <trkpt lat="45.93948" lon="4.7382">
        <ele>172</ele>
        <time>2018-01-10T10:00:43Z</time>
      </trkpt>
      <trkpt lat="45.93947" lon="4.73827">
        <ele>172</ele>
        <time>2018-01-10T10:00:44Z</time>
      </trkpt>
      <trkpt lat="45.93947" lon="4.73833">
        <ele>172</ele>
        <time>2018-01-10T10:00:45Z</time>
      </trkpt>
      <trkpt lat="45.93945" lon="4.73845">
        <ele>172</ele>
        <time>2018-01-10T10:00:47Z</time>
      </trkpt>
      <trkpt lat="45.93944" lon="4.73851">
        <ele>172</ele>
        <time>2018-01-10T10:00:48Z</time>
      </trkpt>
      <trkpt lat="45.93943" lon="4.73862">
        <ele>172</ele>
        <time>2018-01-10T10:00:50Z</time>
      </trkpt>
      <trkpt lat="45.93942" lon="4.73869">
        <ele>172</ele>
        <time>2018-01-10T10:00:51Z</time>
      </trkpt>
      <trkpt lat="45.9394" lon="4.73881">
        <ele>172</ele>
        <time>2018-01-10T10:00:53Z</time>
      </trkpt>
      <trkpt lat="45.9394" lon="4.73887">
        <ele>172</ele>
        <time>2018-01-10T10:00:54Z</time>
      </trkpt>
      <trkpt lat="45.93939" lon="4.73892">
        <ele>172</ele>
        <time>2018-01-10T10:00:55Z</time>
      </trkpt>
      <trkpt lat="45.93938" lon="4.739">
        <ele>172</ele>
        <time>2018-01-10T10:00:56Z</time>
      </trkpt>
      <trkpt lat="45.93937" lon="4.73912">
        <ele>172</ele>
        <time>2018-01-10T10:00:58Z</time>
      </trkpt>
      <trkpt lat="45.93937" lon="4.73918">
        <ele>171</ele>
        <time>2018-01-10T10:00:59Z</time>
      </trkpt>
      <trkpt lat="45.93936" lon="4.73924">
        <ele>172</ele>
        <time>2018-01-10T10:01:00Z</time>
      </trkpt>
      <trkpt lat="45.93935" lon="4.73931">
        <ele>172</ele>
        <time>2018-01-10T10:01:01Z</time>
      </trkpt>
      <trkpt lat="45.93934" lon="4.73938">
        <ele>172</ele>
        <time>2018-01-10T10:01:02Z</time>
      </trkpt>
      <trkpt lat="45.93933" lon="4.73944">
        <ele>172</ele>
        <time>2018-01-10T10:01:03Z</time>
      </trkpt>
      <trkpt lat="45.93931" lon="4.73954">
        <ele>172</ele>
        <time>2018-01-10T10:01:05Z</time>
      </trkpt>
      <trkpt lat="45.9393" lon="4.7396">
        <ele>172</ele>
        <time>2018-01-10T10:01:06Z</time>
      </trkpt>
      <trkpt lat="45.93929" lon="4.73973">
        <ele>172</ele>
        <time>2018-01-10T10:01:08Z</time>
      </trkpt>
      <trkpt lat="45.93927" lon="4.73979">
        <ele>172</ele>
        <time>2018-01-10T10:01:09Z</time>
      </trkpt>
      <trkpt lat="45.93926" lon="4.73991">
        <ele>172</ele>
        <time>2018-01-10T10:01:11Z</time>
      </trkpt>
      <trkpt lat="45.93925" lon="4.73997">
        <ele>172</ele>
        <time>2018-01-10T10:01:12Z</time>
      </trkpt>
      <trkpt lat="45.93924" lon="4.7401">
        <ele>172</ele>
        <time>2018-01-10T10:01:14Z</time>
      </trkpt>
      <trkpt lat="45.93923" lon="4.74014">
        <ele>171</ele>
        <time>2018-01-10T10:01:15Z</time>
      </trkpt>
      <trkpt lat="45.93922" lon="4.7402">
        <ele>171</ele>
        <time>2018-01-10T10:01:16Z</time>
      </trkpt>
      <trkpt lat="45.93923" lon="4.74027">
        <ele>171</ele>
        <time>2018-01-10T10:01:17Z</time>
      </trkpt>
      <trkpt lat="45.93922" lon="4.74039">
        <ele>171</ele>
        <time>2018-01-10T10:01:19Z</time>
      </trkpt>
      <trkpt lat="45.93923" lon="4.74046">
        <ele>171</ele>
        <time>2018-01-10T10:01:20Z</time>
      </trkpt>
      <trkpt lat="45.93923" lon="4.74053">
        <ele>171</ele>
        <time>2018-01-10T10:01:21Z</time>
      </trkpt>
      <trkpt lat="45.93922" lon="4.74059">
        <ele>171</ele>
        <time>2018-01-10T10:01:22Z</time>
      </trkpt>
      <trkpt lat="45.93921" lon="4.74066">
        <ele>170</ele>
        <time>2018-01-10T10:01:23Z</time>
      </trkpt>
      <trkpt lat="45.9392" lon="4.74073">
        <ele>170</ele>
        <time>2018-01-10T10:01:24Z</time>
      </trkpt>
      <trkpt lat="45.93919" lon="4.74085">
        <ele>170</ele>
        <time>2018-01-10T10:01:26Z</time>
      </trkpt>
      <trkpt lat="45.93918" lon="4.74091">
        <ele>170</ele>
        <time>2018-01-10T10:01:27Z</time>
      </trkpt>
      <trkpt lat="45.93918" lon="4.74098">
        <ele>169</ele>
        <time>2018-01-10T10:01:28Z</time>
      </trkpt>
      <trkpt lat="45.93918" lon="4.74104">
        <ele>169</ele>
        <time>2018-01-10T10:01:29Z</time>
      </trkpt>
      <trkpt lat="45.93917" lon="4.74111">
        <ele>169</ele>
        <time>2018-01-10T10:01:30Z</time>
      </trkpt>
      <trkpt lat="45.93917" lon="4.74118">
        <ele>169</ele>
        <time>2018-01-10T10:01:31Z</time>
      </trkpt>
      <trkpt lat="45.93916" lon="4.74125">
        <ele>170</ele>
        <time>2018-01-10T10:01:32Z</time>
      </trkpt>
      <trkpt lat="45.93916" lon="4.74132">
        <ele>169</ele>
        <time>2018-01-10T10:01:33Z</time>
      </trkpt>
      <trkpt lat="45.93915" lon="4.7414">
        <ele>169</ele>
        <time>2018-01-10T10:01:34Z</time>
      </trkpt>
      <trkpt lat="45.93914" lon="4.74146">
        <ele>169</ele>
        <time>2018-01-10T10:01:35Z</time>
      </trkpt>
      <trkpt lat="45.93914" lon="4.74153">
        <ele>169</ele>
        <time>2018-01-10T10:01:36Z</time>
      </trkpt>
      <trkpt lat="45.93913" lon="4.7416">
        <ele>169</ele>
        <time>2018-01-10T10:01:37Z</time>
      </trkpt>
      <trkpt lat="45.93912" lon="4.74171">
        <ele>168</ele>
        <time>2018-01-10T10:01:39Z</time>
      </trkpt>
      <trkpt lat="45.93912" lon="4.74178">
        <ele>169</ele>
        <time>2018-01-10T10:01:40Z</time>
      </trkpt>
      <trkpt lat="45.93912" lon="4.74185">
        <ele>169</ele>
        <time>2018-01-10T10:01:41Z</time>
      </trkpt>
      <trkpt lat="45.93911" lon="4.74192">
        <ele>169</ele>
        <time>2018-01-10T10:01:42Z</time>
      </trkpt>
      <trkpt lat="45.93911" lon="4.742">
        <ele>169</ele>
        <time>2018-01-10T10:01:43Z</time>
      </trkpt>
      <trkpt lat="45.9391" lon="4.74207">
        <ele>169</ele>
        <time>2018-01-10T10:01:44Z</time>
      </trkpt>
      <trkpt lat="45.93909" lon="4.74219">
        <ele>169</ele>
        <time>2018-01-10T10:01:46Z</time>
      </trkpt>
      <trkpt lat="45.93909" lon="4.74223">
        <ele>170</ele>
        <time>2018-01-10T10:01:47Z</time>
      </trkpt>
      <trkpt lat="45.93908" lon="4.74234">
        <ele>170</ele>
        <time>2018-01-10T10:01:49Z</time>
      </trkpt>
      <trkpt lat="45.93908" lon="4.74241">
        <ele>170</ele>
        <time>2018-01-10T10:01:50Z</time>
      </trkpt>
      <trkpt lat="45.93906" lon="4.74252">
        <ele>170</ele>
        <time>2018-01-10T10:01:52Z</time>
      </trkpt>
      <trkpt lat="45.93906" lon="4.74258">
        <ele>170</ele>
        <time>2018-01-10T10:01:53Z</time>
      </trkpt>
      <trkpt lat="45.93905" lon="4.74265">
        <ele>170</ele>
        <time>2018-01-10T10:01:54Z</time>
      </trkpt>
      <trkpt lat="45.93905" lon="4.74272">
        <ele>170</ele>
        <time>2018-01-10T10:01:55Z</time>
      </trkpt>
      <trkpt lat="45.93904" lon="4.74279">
        <ele>170</ele>
        <time>2018-01-10T10:01:56Z</time>
      </trkpt>
      <trkpt lat="45.93904" lon="4.74285">
        <ele>170</ele>
        <time>2018-01-10T10:01:57Z</time>
      </trkpt>
      <trkpt lat="45.93904" lon="4.74292">
        <ele>170</ele>
        <time>2018-01-10T10:01:58Z</time>
      </trkpt>
      <trkpt lat="45.93904" lon="4.74299">
        <ele>170</ele>
        <time>2018-01-10T10:01:59Z</time>
      </trkpt>
      <trkpt lat="45.93903" lon="4.74312">
        <ele>170</ele>
        <time>2018-01-10T10:02:01Z</time>
      </trkpt>
      <trkpt lat="45.93903" lon="4.74319">
        <ele>170</ele>
        <time>2018-01-10T10:02:02Z</time>
      </trkpt>
      <trkpt lat="45.93903" lon="4.74326">
        <ele>170</ele>
        <time>2018-01-10T10:02:03Z</time>
      </trkpt>
      <trkpt lat="45.93903" lon="4.74333">
        <ele>170</ele>
        <time>2018-01-10T10:02:04Z</time>
      </trkpt>
      <trkpt lat="45.93903" lon="4.74339">
        <ele>170</ele>
        <time>2018-01-10T10:02:05Z</time>
      </trkpt>
      <trkpt lat="45.93904" lon="4.74346">
        <ele>171</ele>
        <time>2018-01-10T10:02:06Z</time>
      </trkpt>
      <trkpt lat="45.93904" lon="4.74353">
        <ele>171</ele>
        <time>2018-01-10T10:02:07Z</time>
      </trkpt>
      <trkpt lat="45.93905" lon="4.7436">
        <ele>171</ele>
        <time>2018-01-10T10:02:08Z</time>
      </trkpt>
      <trkpt lat="45.93904" lon="4.74367">
        <ele>171</ele>
        <time>2018-01-10T10:02:09Z</time>
      </trkpt>
      <trkpt lat="45.93903" lon="4.74372">
        <ele>171</ele>
        <time>2018-01-10T10:02:10Z</time>
      </trkpt>
      <trkpt lat="45.93904" lon="4.74383">
        <ele>171</ele>
        <time>2018-01-10T10:02:12Z</time>
      </trkpt>
      <trkpt lat="45.93904" lon="4.74388">
        <ele>171</ele>
        <time>2018-01-10T10:02:13Z</time>
      </trkpt>
      <trkpt lat="45.93905" lon="4.74395">
        <ele>171</ele>
        <time>2018-01-10T10:02:14Z</time>
      </trkpt>
      <trkpt lat="45.93906" lon="4.74402">
        <ele>171</ele>
        <time>2018-01-10T10:02:15Z</time>
      </trkpt>
      <trkpt lat="45.93907" lon="4.74408">
        <ele>171</ele>
        <time>2018-01-10T10:02:16Z</time>
      </trkpt>
      <trkpt lat="45.93907" lon="4.74415">
        <ele>171</ele>
        <time>2018-01-10T10:02:17Z</time>
      </trkpt>
      <trkpt lat="45.93908" lon="4.74426">
        <ele>171</ele>
        <time>2018-01-10T10:02:19Z</time>
      </trkpt>
      <trkpt lat="45.93908" lon="4.74432">
        <ele>171</ele>
        <time>2018-01-10T10:02:20Z</time>
      </trkpt>
      <trkpt lat="45.93908" lon="4.74444">
        <ele>171</ele>
        <time>2018-01-10T10:02:22Z</time>
      </trkpt>
      <trkpt lat="45.93908" lon="4.7445">
        <ele>171</ele>
        <time>2018-01-10T10:02:23Z</time>
      </trkpt>
      <trkpt lat="45.93909" lon="4.74457">
        <ele>171</ele>
        <time>2018-01-10T10:02:24Z</time>
      </trkpt>
      <trkpt lat="45.93909" lon="4.74464">
        <ele>171</ele>
        <time>2018-01-10T10:02:25Z</time>
      </trkpt>
      <trkpt lat="45.9391" lon="4.74476">
        <ele>171</ele>
        <time>2018-01-10T10:02:27Z</time>
      </trkpt>
      <trkpt lat="45.93911" lon="4.74484">
        <ele>171</ele>
        <time>2018-01-10T10:02:28Z</time>
      </trkpt>
      <trkpt lat="45.9391" lon="4.74494">
        <ele>170</ele>
        <time>2018-01-10T10:02:30Z</time>
      </trkpt>
      <trkpt lat="45.93909" lon="4.74501">
        <ele>170</ele>
        <time>2018-01-10T10:02:31Z</time>
      </trkpt>
      <trkpt lat="45.93909" lon="4.74513">
        <ele>170</ele>
        <time>2018-01-10T10:02:33Z</time>
      </trkpt>
      <trkpt lat="45.93908" lon="4.74519">
        <ele>170</ele>
        <time>2018-01-10T10:02:34Z</time>
      </trkpt>
      <trkpt lat="45.93908" lon="4.74531">
        <ele>170</ele>
        <time>2018-01-10T10:02:36Z</time>
      </trkpt>
      <trkpt lat="45.93907" lon="4.74537">
        <ele>170</ele>
        <time>2018-01-10T10:02:37Z</time>
      </trkpt>
      <trkpt lat="45.93905" lon="4.74548">
        <ele>170</ele>
        <time>2018-01-10T10:02:39Z</time>
      </trkpt>
      <trkpt lat="45.93904" lon="4.74555">
        <ele>170</ele>
        <time>2018-01-10T10:02:40Z</time>
      </trkpt>
      <trkpt lat="45.93903" lon="4.74561">
        <ele>170</ele>
        <time>2018-01-10T10:02:41Z</time>
      </trkpt>
      <trkpt lat="45.93901" lon="4.74567">
        <ele>170</ele>
        <time>2018-01-10T10:02:42Z</time>
      </trkpt>
      <trkpt lat="45.939" lon="4.74574">
        <ele>170</ele>
        <time>2018-01-10T10:02:43Z</time>
      </trkpt>
      <trkpt lat="45.93898" lon="4.74581">
        <ele>170</ele>
        <time>2018-01-10T10:02:44Z</time>
      </trkpt>
      <trkpt lat="45.93896" lon="4.74587">
        <ele>170</ele>
        <time>2018-01-10T10:02:45Z</time>
      </trkpt>
      <trkpt lat="45.93894" lon="4.74594">
        <ele>170</ele>
        <time>2018-01-10T10:02:46Z</time>
      </trkpt>
      <trkpt lat="45.93893" lon="4.74601">
        <ele>170</ele>
        <time>2018-01-10T10:02:47Z</time>
      </trkpt>
      <trkpt lat="45.93891" lon="4.74607">
        <ele>170</ele>
        <time>2018-01-10T10:02:48Z</time>
      </trkpt>
      <trkpt lat="45.9389" lon="4.74613">
        <ele>170</ele>
        <time>2018-01-10T10:02:49Z</time>
      </trkpt>
      <trkpt lat="45.93888" lon="4.74622">
        <ele>170</ele>
        <time>2018-01-10T10:02:50Z</time>
      </trkpt>
      <trkpt lat="45.93886" lon="4.74629">
        <ele>170</ele>
        <time>2018-01-10T10:02:51Z</time>
      </trkpt>
      <trkpt lat="45.93885" lon="4.74635">
        <ele>170</ele>
        <time>2018-01-10T10:02:52Z</time>
      </trkpt>
      <trkpt lat="45.93882" lon="4.74642">
        <ele>170</ele>
        <time>2018-01-10T10:02:53Z</time>
      </trkpt>
      <trkpt lat="45.9388" lon="4.74649">
        <ele>170</ele>
        <time>2018-01-10T10:02:54Z</time>
      </trkpt>
      <trkpt lat="45.93876" lon="4.74661">
        <ele>170</ele>
        <time>2018-01-10T10:02:56Z</time>
      </trkpt>
      <trkpt lat="45.93874" lon="4.74667">
        <ele>170</ele>
        <time>2018-01-10T10:02:57Z</time>
      </trkpt>
      <trkpt lat="45.93871" lon="4.74677">
        <ele>170</ele>
        <time>2018-01-10T10:02:59Z</time>
      </trkpt>
      <trkpt lat="45.93869" lon="4.74682">
        <ele>170</ele>
        <time>2018-01-10T10:03:00Z</time>
      </trkpt>
      <trkpt lat="45.93868" lon="4.74689">
        <ele>170</ele>
        <time>2018-01-10T10:03:01Z</time>
      </trkpt>
      <trkpt lat="45.93866" lon="4.74695">
        <ele>170</ele>
        <time>2018-01-10T10:03:02Z</time>
      </trkpt>
      <trkpt lat="45.93863" lon="4.747">
        <ele>169</ele>
        <time>2018-01-10T10:03:03Z</time>
      </trkpt>
      <trkpt lat="45.93861" lon="4.74706">
        <ele>169</ele>
        <time>2018-01-10T10:03:04Z</time>
      </trkpt>
      <trkpt lat="45.93859" lon="4.74713">
        <ele>169</ele>
        <time>2018-01-10T10:03:05Z</time>
      </trkpt>
      <trkpt lat="45.93857" lon="4.74718">
        <ele>169</ele>
        <time>2018-01-10T10:03:06Z</time>
      </trkpt>
      <trkpt lat="45.93852" lon="4.74727">
        <ele>169</ele>
        <time>2018-01-10T10:03:08Z</time>
      </trkpt>
      <trkpt lat="45.93851" lon="4.74733">
        <ele>169</ele>
        <time>2018-01-10T10:03:09Z</time>
      </trkpt>
      <trkpt lat="45.93847" lon="4.74744">
        <ele>169</ele>
        <time>2018-01-10T10:03:11Z</time>
      </trkpt>
      <trkpt lat="45.93845" lon="4.74749">
        <ele>168</ele>
        <time>2018-01-10T10:03:12Z</time>
      </trkpt>
      <trkpt lat="45.93841" lon="4.7476">
        <ele>168</ele>
        <time>2018-01-10T10:03:14Z</time>
      </trkpt>
      <trkpt lat="45.93839" lon="4.74766">
        <ele>168</ele>
        <time>2018-01-10T10:03:15Z</time>
      </trkpt>
      <trkpt lat="45.93835" lon="4.74777">
        <ele>168</ele>
        <time>2018-01-10T10:03:17Z</time>
      </trkpt>
      <trkpt lat="45.93832" lon="4.74783">
        <ele>167</ele>
        <time>2018-01-10T10:03:18Z</time>
      </trkpt>
      <trkpt lat="45.9383" lon="4.74788">
        <ele>167</ele>
        <time>2018-01-10T10:03:19Z</time>
      </trkpt>
      <trkpt lat="45.93826" lon="4.74793">
        <ele>167</ele>
        <time>2018-01-10T10:03:20Z</time>
      </trkpt>
      <trkpt lat="45.93824" lon="4.74799">
        <ele>167</ele>
        <time>2018-01-10T10:03:21Z</time>
      </trkpt>
      <trkpt lat="45.93821" lon="4.74806">
        <ele>167</ele>
        <time>2018-01-10T10:03:22Z</time>
      </trkpt>
      <trkpt lat="45.93818" lon="4.74812">
        <ele>167</ele>
        <time>2018-01-10T10:03:23Z</time>
      </trkpt>
      <trkpt lat="45.93815" lon="4.74818">
        <ele>167</ele>
        <time>2018-01-10T10:03:24Z</time>
      </trkpt>
      <trkpt lat="45.9381" lon="4.74827">
        <ele>167</ele>
        <time>2018-01-10T10:03:26Z</time>
      </trkpt>
      <trkpt lat="45.93807" lon="4.74831">
        <ele>167</ele>
        <time>2018-01-10T10:03:27Z</time>
      </trkpt>
      <trkpt lat="45.93801" lon="4.74839">
        <ele>168</ele>
        <time>2018-01-10T10:03:29Z</time>
      </trkpt>
      <trkpt lat="45.93798" lon="4.74843">
        <ele>168</ele>
        <time>2018-01-10T10:03:30Z</time>
      </trkpt>
      <trkpt lat="45.93794" lon="4.74851">
        <ele>168</ele>
        <time>2018-01-10T10:03:32Z</time>
      </trkpt>
      <trkpt lat="45.93791" lon="4.74855">
        <ele>168</ele>
        <time>2018-01-10T10:03:33Z</time>
      </trkpt>
      <trkpt lat="45.93786" lon="4.74865">
        <ele>168</ele>
        <time>2018-01-10T10:03:35Z</time>
      </trkpt>
      <trkpt lat="45.93784" lon="4.7487">
        <ele>168</ele>
        <time>2018-01-10T10:03:36Z</time>
      </trkpt>
      <trkpt lat="45.93778" lon="4.74879">
        <ele>169</ele>
        <time>2018-01-10T10:03:38Z</time>
      </trkpt>
      <trkpt lat="45.93775" lon="4.74884">
        <ele>169</ele>
        <time>2018-01-10T10:03:39Z</time>
      </trkpt>
      <trkpt lat="45.9377" lon="4.74894">
        <ele>169</ele>
        <time>2018-01-10T10:03:41Z</time>
      </trkpt>
      <trkpt lat="45.93767" lon="4.74898">
        <ele>169</ele>
        <time>2018-01-10T10:03:42Z</time>
      </trkpt>
      <trkpt lat="45.93761" lon="4.74907">
        <ele>170</ele>
        <time>2018-01-10T10:03:44Z</time>
      </trkpt>
      <trkpt lat="45.93758" lon="4.74911">
        <ele>170</ele>
        <time>2018-01-10T10:03:45Z</time>
      </trkpt>
      <trkpt lat="45.93755" lon="4.74917">
        <ele>171</ele>
        <time>2018-01-10T10:03:46Z</time>
      </trkpt>
      <trkpt lat="45.93752" lon="4.74922">
        <ele>171</ele>
        <time>2018-01-10T10:03:47Z</time>
      </trkpt>
      <trkpt lat="45.93748" lon="4.74932">
        <ele>170</ele>
        <time>2018-01-10T10:03:49Z</time>
      </trkpt>
      <trkpt lat="45.93745" lon="4.74936">
        <ele>169</ele>
        <time>2018-01-10T10:03:50Z</time>
      </trkpt>
      <trkpt lat="45.93741" lon="4.74945">
        <ele>169</ele>
        <time>2018-01-10T10:03:52Z</time>
      </trkpt>
      <trkpt lat="45.93739" lon="4.7495">
        <ele>169</ele>
        <time>2018-01-10T10:03:53Z</time>
      </trkpt>
      <trkpt lat="45.93734" lon="4.74959">
        <ele>169</ele>
        <time>2018-01-10T10:03:55Z</time>
      </trkpt>
      <trkpt lat="45.93732" lon="4.74964">
        <ele>168</ele>
        <time>2018-01-10T10:03:56Z</time>
      </trkpt>
      <trkpt lat="45.93727" lon="4.74974">
        <ele>168</ele>
        <time>2018-01-10T10:03:58Z</time>
      </trkpt>
      <trkpt lat="45.93724" lon="4.74979">
        <ele>168</ele>
        <time>2018-01-10T10:03:59Z</time>
      </trkpt>
      <trkpt lat="45.9372" lon="4.74989">
        <ele>168</ele>
        <time>2018-01-10T10:04:01Z</time>
      </trkpt>
      <trkpt lat="45.93717" lon="4.74994">
        <ele>168</ele>
        <time>2018-01-10T10:04:02Z</time>
      </trkpt>
      <trkpt lat="45.93713" lon="4.75004">
        <ele>167</ele>
        <time>2018-01-10T10:04:04Z</time>
      </trkpt>
      <trkpt lat="45.93711" lon="4.75009">
        <ele>167</ele>
        <time>2018-01-10T10:04:05Z</time>
      </trkpt>
      <trkpt lat="45.93707" lon="4.7502">
        <ele>167</ele>
        <time>2018-01-10T10:04:07Z</time>
      </trkpt>
      <trkpt lat="45.93704" lon="4.75025">
        <ele>167</ele>
        <time>2018-01-10T10:04:08Z</time>
      </trkpt>
      <trkpt lat="45.93701" lon="4.7503">
        <ele>167</ele>
        <time>2018-01-10T10:04:09Z</time>
      </trkpt>
      <trkpt lat="45.93698" lon="4.75036">
        <ele>167</ele>
        <time>2018-01-10T10:04:10Z</time>
      </trkpt>
      <trkpt lat="45.93692" lon="4.75045">
        <ele>167</ele>
        <time>2018-01-10T10:04:12Z</time>
      </trkpt>
      <trkpt lat="45.93689" lon="4.7505">
        <ele>167</ele>
        <time>2018-01-10T10:04:13Z</time>
      </trkpt>
      <trkpt lat="45.93687" lon="4.75056">
        <ele>167</ele>
        <time>2018-01-10T10:04:14Z</time>
      </trkpt>
      <trkpt lat="45.93684" lon="4.75062">
        <ele>167</ele>
        <time>2018-01-10T10:04:15Z</time>
      </trkpt>
      <trkpt lat="45.9368" lon="4.75071">
        <ele>167</ele>
        <time>2018-01-10T10:04:17Z</time>
      </trkpt>
      <trkpt lat="45.93679" lon="4.75075">
        <ele>167</ele>
        <time>2018-01-10T10:04:18Z</time>
      </trkpt>
      <trkpt lat="45.93676" lon="4.75082">
        <ele>167</ele>
        <time>2018-01-10T10:04:20Z</time>
      </trkpt>
      <trkpt lat="45.93673" lon="4.75086">
        <ele>167</ele>
        <time>2018-01-10T10:04:21Z</time>
      </trkpt>
      <trkpt lat="45.9367" lon="4.75097">
        <ele>168</ele>
        <time>2018-01-10T10:04:23Z</time>
      </trkpt>
      <trkpt lat="45.93667" lon="4.75102">
        <ele>168</ele>
        <time>2018-01-10T10:04:24Z</time>
      </trkpt>
      <trkpt lat="45.93663" lon="4.7511">
        <ele>167</ele>
        <time>2018-01-10T10:04:26Z</time>
      </trkpt>
      <trkpt lat="45.93661" lon="4.75116">
        <ele>168</ele>
        <time>2018-01-10T10:04:27Z</time>
      </trkpt>
      <trkpt lat="45.93659" lon="4.75124">
        <ele>168</ele>
        <time>2018-01-10T10:04:28Z</time>
      </trkpt>
      <trkpt lat="45.93657" lon="4.7513">
        <ele>168</ele>
        <time>2018-01-10T10:04:29Z</time>
      </trkpt>
      <trkpt lat="45.93652" lon="4.75139">
        <ele>168</ele>
        <time>2018-01-10T10:04:31Z</time>
      </trkpt>
      <trkpt lat="45.93651" lon="4.75145">
        <ele>168</ele>
        <time>2018-01-10T10:04:32Z</time>
      </trkpt>
      <trkpt lat="45.93646" lon="4.75155">
        <ele>168</ele>
        <time>2018-01-10T10:04:34Z</time>
      </trkpt>
      <trkpt lat="45.93645" lon="4.75157">
        <ele>168</ele>
        <time>2018-01-10T10:04:35Z</time>
      </trkpt>
      <trkpt lat="45.93644" lon="4.75166">
        <ele>168</ele>
        <time>2018-01-10T10:04:37Z</time>
      </trkpt>
      <trkpt lat="45.93642" lon="4.75171">
        <ele>168</ele>
        <time>2018-01-10T10:04:38Z</time>
      </trkpt>
      <trkpt lat="45.93638" lon="4.75178">
        <ele>168</ele>
        <time>2018-01-10T10:04:39Z</time>
      </trkpt>
      <trkpt lat="45.93634" lon="4.75183">
        <ele>168</ele>
        <time>2018-01-10T10:04:40Z</time>
      </trkpt>
      <trkpt lat="45.93632" lon="4.75191">
        <ele>168</ele>
        <time>2018-01-10T10:04:41Z</time>
      </trkpt>
      <trkpt lat="45.93629" lon="4.75196">
        <ele>168</ele>
        <time>2018-01-10T10:04:42Z</time>
      </trkpt>
      <trkpt lat="45.93629" lon="4.75203">
        <ele>168</ele>
        <time>2018-01-10T10:04:43Z</time>
      </trkpt>
      <trkpt lat="45.93628" lon="4.75209">
        <ele>168</ele>
        <time>2018-01-10T10:04:44Z</time>
      </trkpt>
      <trkpt lat="45.93624" lon="4.75221">
        <ele>167</ele>
        <time>2018-01-10T10:04:46Z</time>
      </trkpt>
      <trkpt lat="45.93622" lon="4.75227">
        <ele>167</ele>
        <time>2018-01-10T10:04:47Z</time>
      </trkpt>
      <trkpt lat="45.93621" lon="4.75233">
        <ele>167</ele>
        <time>2018-01-10T10:04:48Z</time>
      </trkpt>
      <trkpt lat="45.93619" lon="4.75239">
        <ele>167</ele>
        <time>2018-01-10T10:04:49Z</time>
      </trkpt>
      <trkpt lat="45.93616" lon="4.75249">
        <ele>167</ele>
        <time>2018-01-10T10:04:51Z</time>
      </trkpt>
      <trkpt lat="45.93615" lon="4.75256">
        <ele>168</ele>
        <time>2018-01-10T10:04:52Z</time>
      </trkpt>
      <trkpt lat="45.9361" lon="4.75265">
        <ele>168</ele>
        <time>2018-01-10T10:04:54Z</time>
      </trkpt>
      <trkpt lat="45.93608" lon="4.7527">
        <ele>168</ele>
        <time>2018-01-10T10:04:55Z</time>
      </trkpt>
      <trkpt lat="45.93606" lon="4.75276">
        <ele>168</ele>
        <time>2018-01-10T10:04:56Z</time>
      </trkpt>
      <trkpt lat="45.93606" lon="4.75283">
        <ele>168</ele>
        <time>2018-01-10T10:04:57Z</time>
      </trkpt>
      <trkpt lat="45.93604" lon="4.75294">
        <ele>168</ele>
        <time>2018-01-10T10:04:59Z</time>
      </trkpt>
      <trkpt lat="45.93603" lon="4.753">
        <ele>168</ele>
        <time>2018-01-10T10:05:00Z</time>
      </trkpt>
      <trkpt lat="45.93601" lon="4.75312">
        <ele>169</ele>
        <time>2018-01-10T10:05:02Z</time>
      </trkpt>
      <trkpt lat="45.936" lon="4.7532">
        <ele>169</ele>
        <time>2018-01-10T10:05:03Z</time>
      </trkpt>
      <trkpt lat="45.93599" lon="4.75327">
        <ele>169</ele>
        <time>2018-01-10T10:05:04Z</time>
      </trkpt>
      <trkpt lat="45.93598" lon="4.75333">
        <ele>169</ele>
        <time>2018-01-10T10:05:05Z</time>
      </trkpt>
      <trkpt lat="45.93597" lon="4.75342">
        <ele>170</ele>
        <time>2018-01-10T10:05:06Z</time>
      </trkpt>
      <trkpt lat="45.93596" lon="4.75349">
        <ele>169</ele>
        <time>2018-01-10T10:05:07Z</time>
      </trkpt>
      <trkpt lat="45.93594" lon="4.75355">
        <ele>169</ele>
        <time>2018-01-10T10:05:08Z</time>
      </trkpt>
      <trkpt lat="45.93593" lon="4.75363">
        <ele>169</ele>
        <time>2018-01-10T10:05:09Z</time>
      </trkpt>
      <trkpt lat="45.93592" lon="4.75371">
        <ele>169</ele>
        <time>2018-01-10T10:05:10Z</time>
      </trkpt>
      <trkpt lat="45.93593" lon="4.75382">
        <ele>169</ele>
        <time>2018-01-10T10:05:11Z</time>
      </trkpt>
      <trkpt lat="45.93591" lon="4.75389">
        <ele>169</ele>
        <time>2018-01-10T10:05:12Z</time>
      </trkpt>
      <trkpt lat="45.93591" lon="4.75398">
        <ele>169</ele>
        <time>2018-01-10T10:05:13Z</time>
      </trkpt>
      <trkpt lat="45.9359" lon="4.75405">
        <ele>168</ele>
        <time>2018-01-10T10:05:14Z</time>
      </trkpt>
      <trkpt lat="45.93589" lon="4.75413">
        <ele>168</ele>
        <time>2018-01-10T10:05:15Z</time>
      </trkpt>
      <trkpt lat="45.93587" lon="4.7542">
        <ele>168</ele>
        <time>2018-01-10T10:05:16Z</time>
      </trkpt>
      <trkpt lat="45.93585" lon="4.75427">
        <ele>168</ele>
        <time>2018-01-10T10:05:17Z</time>
      </trkpt>
      <trkpt lat="45.93584" lon="4.75436">
        <ele>169</ele>
        <time>2018-01-10T10:05:18Z</time>
      </trkpt>
      <trkpt lat="45.93584" lon="4.75445">
        <ele>169</ele>
        <time>2018-01-10T10:05:19Z</time>
      </trkpt>
      <trkpt lat="45.93586" lon="4.75455">
        <ele>169</ele>
        <time>2018-01-10T10:05:20Z</time>
      </trkpt>
      <trkpt lat="45.93584" lon="4.75461">
        <ele>169</ele>
        <time>2018-01-10T10:05:21Z</time>
      </trkpt>
      <trkpt lat="45.93581" lon="4.7547">
        <ele>168</ele>
        <time>2018-01-10T10:05:23Z</time>
      </trkpt>
      <trkpt lat="45.93578" lon="4.75474">
        <ele>168</ele>
        <time>2018-01-10T10:05:24Z</time>
      </trkpt>
      <trkpt lat="45.93577" lon="4.75486">
        <ele>169</ele>
        <time>2018-01-10T10:05:26Z</time>
      </trkpt>
      <trkpt lat="45.93576" lon="4.75492">
        <ele>169</ele>
        <time>2018-01-10T10:05:27Z</time>
      </trkpt>
      <trkpt lat="45.93575" lon="4.75498">
        <ele>169</ele>
        <time>2018-01-10T10:05:28Z</time>
      </trkpt>
      <trkpt lat="45.93574" lon="4.75505">
        <ele>170</ele>
        <time>2018-01-10T10:05:29Z</time>
      </trkpt>
      <trkpt lat="45.93574" lon="4.75515">
        <ele>169</ele>
        <time>2018-01-10T10:05:30Z</time>
      </trkpt>
      <trkpt lat="45.93573" lon="4.75521">
        <ele>169</ele>
        <time>2018-01-10T10:05:31Z</time>
      </trkpt>
      <trkpt lat="45.93572" lon="4.75527">
        <ele>169</ele>
        <time>2018-01-10T10:05:32Z</time>
      </trkpt>
      <trkpt lat="45.9357" lon="4.75534">
        <ele>169</ele>
        <time>2018-01-10T10:05:33Z</time>
      </trkpt>
      <trkpt lat="45.93567" lon="4.75544">
        <ele>169</ele>
        <time>2018-01-10T10:05:35Z</time>
      </trkpt>
      <trkpt lat="45.93566" lon="4.75551">
        <ele>169</ele>
        <time>2018-01-10T10:05:36Z</time>
      </trkpt>
      <trkpt lat="45.93564" lon="4.75563">
        <ele>170</ele>
        <time>2018-01-10T10:05:38Z</time>
      </trkpt>
      <trkpt lat="45.93563" lon="4.75569">
        <ele>170</ele>
        <time>2018-01-10T10:05:39Z</time>
      </trkpt>
      <trkpt lat="45.93562" lon="4.75575">
        <ele>170</ele>
        <time>2018-01-10T10:05:40Z</time>
      </trkpt>
      <trkpt lat="45.9356" lon="4.75582">
        <ele>170</ele>
        <time>2018-01-10T10:05:41Z</time>
      </trkpt>
      <trkpt lat="45.93559" lon="4.7559">
        <ele>170</ele>
        <time>2018-01-10T10:05:42Z</time>
      </trkpt>
      <trkpt lat="45.93559" lon="4.75599">
        <ele>170</ele>
        <time>2018-01-10T10:05:43Z</time>
      </trkpt>
      <trkpt lat="45.93556" lon="4.75606">
        <ele>170</ele>
        <time>2018-01-10T10:05:44Z</time>
      </trkpt>
      <trkpt lat="45.93555" lon="4.75612">
        <ele>170</ele>
        <time>2018-01-10T10:05:45Z</time>
      </trkpt>
      <trkpt lat="45.93554" lon="4.75619">
        <ele>170</ele>
        <time>2018-01-10T10:05:46Z</time>
      </trkpt>
      <trkpt lat="45.93552" lon="4.75626">
        <ele>170</ele>
        <time>2018-01-10T10:05:47Z</time>
      </trkpt>
      <trkpt lat="45.93552" lon="4.75634">
        <ele>170</ele>
        <time>2018-01-10T10:05:48Z</time>
      </trkpt>
      <trkpt lat="45.9355" lon="4.7564">
        <ele>170</ele>
        <time>2018-01-10T10:05:49Z</time>
      </trkpt>
      <trkpt lat="45.93547" lon="4.75651">
        <ele>170</ele>
        <time>2018-01-10T10:05:51Z</time>
      </trkpt>
      <trkpt lat="45.93546" lon="4.75657">
        <ele>170</ele>
        <time>2018-01-10T10:05:52Z</time>
      </trkpt>
      <trkpt lat="45.93545" lon="4.75664">
        <ele>170</ele>
        <time>2018-01-10T10:05:53Z</time>
      </trkpt>
      <trkpt lat="45.93544" lon="4.75672">
        <ele>170</ele>
        <time>2018-01-10T10:05:54Z</time>
      </trkpt>
      <trkpt lat="45.93544" lon="4.75678">
        <ele>170</ele>
        <time>2018-01-10T10:05:55Z</time>
      </trkpt>
      <trkpt lat="45.93542" lon="4.75686">
        <ele>170</ele>
        <time>2018-01-10T10:05:56Z</time>
      </trkpt>
      <trkpt lat="45.93541" lon="4.75693">
        <ele>170</ele>
        <time>2018-01-10T10:05:57Z</time>
      </trkpt>
      <trkpt lat="45.93542" lon="4.757">
        <ele>170</ele>
        <time>2018-01-10T10:05:58Z</time>
      </trkpt>
      <trkpt lat="45.9354" lon="4.75707">
        <ele>170</ele>
        <time>2018-01-10T10:05:59Z</time>
      </trkpt>
      <trkpt lat="45.93539" lon="4.75714">
        <ele>170</ele>
        <time>2018-01-10T10:06:00Z</time>
      </trkpt>
      <trkpt lat="45.93539" lon="4.75722">
        <ele>170</ele>
        <time>2018-01-10T10:06:01Z</time>
      </trkpt>
      <trkpt lat="45.93539" lon="4.7573">
        <ele>170</ele>
        <time>2018-01-10T10:06:02Z</time>
      </trkpt>
      <trkpt lat="45.93536" lon="4.75735">
        <ele>170</ele>
        <time>2018-01-10T10:06:03Z</time>
      </trkpt>
      <trkpt lat="45.93533" lon="4.75742">
        <ele>169</ele>
        <time>2018-01-10T10:06:04Z</time>
      </trkpt>
      <trkpt lat="45.93531" lon="4.75752">
        <ele>169</ele>
        <time>2018-01-10T10:06:06Z</time>
      </trkpt>
      <trkpt lat="45.93531" lon="4.75756">
        <ele>169</ele>
        <time>2018-01-10T10:06:07Z</time>
      </trkpt>
      <trkpt lat="45.93531" lon="4.75762">
        <ele>169</ele>
        <time>2018-01-10T10:06:09Z</time>
      </trkpt>
      <trkpt lat="45.93532" lon="4.75771">
        <ele>169</ele>
        <time>2018-01-10T10:06:10Z</time>
      </trkpt>
      <trkpt lat="45.93531" lon="4.75776">
        <ele>169</ele>
        <time>2018-01-10T10:06:11Z</time>
      </trkpt>
      <trkpt lat="45.93532" lon="4.75785">
        <ele>169</ele>
        <time>2018-01-10T10:06:12Z</time>
      </trkpt>
      <trkpt lat="45.93532" lon="4.75794">
        <ele>169</ele>
        <time>2018-01-10T10:06:13Z</time>
      </trkpt>
      <trkpt lat="45.93531" lon="4.758">
        <ele>169</ele>
        <time>2018-01-10T10:06:14Z</time>
      </trkpt>
      <trkpt lat="45.93534" lon="4.75813">
        <ele>169</ele>
        <time>2018-01-10T10:06:16Z</time>
      </trkpt>
      <trkpt lat="45.93534" lon="4.75818">
        <ele>169</ele>
        <time>2018-01-10T10:06:17Z</time>
      </trkpt>
      <trkpt lat="45.93535" lon="4.75824">
        <ele>169</ele>
        <time>2018-01-10T10:06:18Z</time>
      </trkpt>
      <trkpt lat="45.93535" lon="4.75832">
        <ele>169</ele>
        <time>2018-01-10T10:06:19Z</time>
      </trkpt>
      <trkpt lat="45.93536" lon="4.75839">
        <ele>169</ele>
        <time>2018-01-10T10:06:20Z</time>
      </trkpt>
      <trkpt lat="45.93536" lon="4.75844">
        <ele>169</ele>
        <time>2018-01-10T10:06:21Z</time>
      </trkpt>
      <trkpt lat="45.93537" lon="4.7585">
        <ele>169</ele>
        <time>2018-01-10T10:06:22Z</time>
      </trkpt>
      <trkpt lat="45.93537" lon="4.75858">
        <ele>169</ele>
        <time>2018-01-10T10:06:23Z</time>
      </trkpt>
      <trkpt lat="45.93539" lon="4.7587">
        <ele>169</ele>
        <time>2018-01-10T10:06:25Z</time>
      </trkpt>
      <trkpt lat="45.9354" lon="4.75876">
        <ele>169</ele>
        <time>2018-01-10T10:06:26Z</time>
      </trkpt>
      <trkpt lat="45.93543" lon="4.75887">
        <ele>169</ele>
        <time>2018-01-10T10:06:28Z</time>
      </trkpt>
      <trkpt lat="45.93544" lon="4.75892">
        <ele>169</ele>
        <time>2018-01-10T10:06:29Z</time>
      </trkpt>
      <trkpt lat="45.93545" lon="4.75904">
        <ele>169</ele>
        <time>2018-01-10T10:06:31Z</time>
      </trkpt>
      <trkpt lat="45.93546" lon="4.7591">
        <ele>169</ele>
        <time>2018-01-10T10:06:32Z</time>
      </trkpt>
      <trkpt lat="45.93548" lon="4.75916">
        <ele>169</ele>
        <time>2018-01-10T10:06:33Z</time>
      </trkpt>
      <trkpt lat="45.93551" lon="4.75923">
        <ele>169</ele>
        <time>2018-01-10T10:06:34Z</time>
      </trkpt>
      <trkpt lat="45.93554" lon="4.75934">
        <ele>169</ele>
        <time>2018-01-10T10:06:36Z</time>
      </trkpt>
      <trkpt lat="45.93556" lon="4.75941">
        <ele>169</ele>
        <time>2018-01-10T10:06:37Z</time>
      </trkpt>
      <trkpt lat="45.93559" lon="4.75946">
        <ele>169</ele>
        <time>2018-01-10T10:06:38Z</time>
      </trkpt>
      <trkpt lat="45.9356" lon="4.75953">
        <ele>169</ele>
        <time>2018-01-10T10:06:39Z</time>
      </trkpt>
      <trkpt lat="45.93563" lon="4.75965">
        <ele>169</ele>
        <time>2018-01-10T10:06:41Z</time>
      </trkpt>
      <trkpt lat="45.93565" lon="4.75971">
        <ele>169</ele>
        <time>2018-01-10T10:06:42Z</time>
      </trkpt>
      <trkpt lat="45.93566" lon="4.75978">
        <ele>170</ele>
        <time>2018-01-10T10:06:43Z</time>
      </trkpt>
      <trkpt lat="45.93568" lon="4.75983">
        <ele>170</ele>
        <time>2018-01-10T10:06:44Z</time>
      </trkpt>
      <trkpt lat="45.9357" lon="4.75989">
        <ele>170</ele>
        <time>2018-01-10T10:06:45Z</time>
      </trkpt>
      <trkpt lat="45.93572" lon="4.75996">
        <ele>171</ele>
        <time>2018-01-10T10:06:46Z</time>
      </trkpt>
      <trkpt lat="45.93576" lon="4.76005">
        <ele>171</ele>
        <time>2018-01-10T10:06:48Z</time>
      </trkpt>
      <trkpt lat="45.93579" lon="4.76011">
        <ele>171</ele>
        <time>2018-01-10T10:06:49Z</time>
      </trkpt>
      <trkpt lat="45.93583" lon="4.76022">
        <ele>170</ele>
        <time>2018-01-10T10:06:51Z</time>
      </trkpt>
      <trkpt lat="45.93585" lon="4.76027">
        <ele>170</ele>
        <time>2018-01-10T10:06:52Z</time>
      </trkpt>
      <trkpt lat="45.93588" lon="4.76038">
        <ele>170</ele>
        <time>2018-01-10T10:06:54Z</time>
      </trkpt>
      <trkpt lat="45.93591" lon="4.76044">
        <ele>170</ele>
        <time>2018-01-10T10:06:55Z</time>
      </trkpt>
      <trkpt lat="45.93594" lon="4.76055">
        <ele>170</ele>
        <time>2018-01-10T10:06:57Z</time>
      </trkpt>
      <trkpt lat="45.93596" lon="4.76061">
        <ele>170</ele>
        <time>2018-01-10T10:06:58Z</time>
      </trkpt>
      <trkpt lat="45.93601" lon="4.76071">
        <ele>170</ele>
        <time>2018-01-10T10:07:00Z</time>
      </trkpt>
      <trkpt lat="45.93603" lon="4.76078">
        <ele>170</ele>
        <time>2018-01-10T10:07:01Z</time>
      </trkpt>
      <trkpt lat="45.93605" lon="4.76084">
        <ele>170</ele>
        <time>2018-01-10T10:07:02Z</time>
      </trkpt>
      <trkpt lat="45.93607" lon="4.7609">
        <ele>170</ele>
        <time>2018-01-10T10:07:03Z</time>
      </trkpt>
      <trkpt lat="45.93609" lon="4.76096">
        <ele>170</ele>
        <time>2018-01-10T10:07:04Z</time>
      </trkpt>
      <trkpt lat="45.93611" lon="4.76102">
        <ele>170</ele>
        <time>2018-01-10T10:07:05Z</time>
      </trkpt>
      <trkpt lat="45.93615" lon="4.76111">
        <ele>169</ele>
        <time>2018-01-10T10:07:07Z</time>
      </trkpt>
      <trkpt lat="45.93617" lon="4.76117">
        <ele>169</ele>
        <time>2018-01-10T10:07:08Z</time>
      </trkpt>
      <trkpt lat="45.93619" lon="4.76122">
        <ele>169</ele>
        <time>2018-01-10T10:07:09Z</time>
      </trkpt>
      <trkpt lat="45.93622" lon="4.76128">
        <ele>169</ele>
        <time>2018-01-10T10:07:10Z</time>
      </trkpt>
      <trkpt lat="45.93624" lon="4.76134">
        <ele>169</ele>
        <time>2018-01-10T10:07:11Z</time>
      </trkpt>
      <trkpt lat="45.93626" lon="4.76139">
        <ele>169</ele>
        <time>2018-01-10T10:07:12Z</time>
      </trkpt>
      <trkpt lat="45.9363" lon="4.76151">
        <ele>170</ele>
        <time>2018-01-10T10:07:14Z</time>
      </trkpt>
      <trkpt lat="45.93632" lon="4.76155">
        <ele>170</ele>
        <time>2018-01-10T10:07:15Z</time>
      </trkpt>
      <trkpt lat="45.93635" lon="4.76166">
        <ele>170</ele>
        <time>2018-01-10T10:07:17Z</time>
      </trkpt>
      <trkpt lat="45.93637" lon="4.76173">
        <ele>169</ele>
        <time>2018-01-10T10:07:18Z</time>
      </trkpt>
      <trkpt lat="45.93639" lon="4.76183">
        <ele>169</ele>
        <time>2018-01-10T10:07:20Z</time>
      </trkpt>
      <trkpt lat="45.93641" lon="4.76189">
        <ele>169</ele>
        <time>2018-01-10T10:07:21Z</time>
      </trkpt>
      <trkpt lat="45.93642" lon="4.76195">
        <ele>169</ele>
        <time>2018-01-10T10:07:22Z</time>
      </trkpt>
      <trkpt lat="45.93644" lon="4.76201">
        <ele>169</ele>
        <time>2018-01-10T10:07:23Z</time>
      </trkpt>
      <trkpt lat="45.93648" lon="4.76213">
        <ele>169</ele>
        <time>2018-01-10T10:07:25Z</time>
      </trkpt>
      <trkpt lat="45.93651" lon="4.76218">
        <ele>169</ele>
        <time>2018-01-10T10:07:26Z</time>
      </trkpt>
      <trkpt lat="45.93656" lon="4.76229">
        <ele>169</ele>
        <time>2018-01-10T10:07:28Z</time>
      </trkpt>
      <trkpt lat="45.93658" lon="4.76233">
        <ele>169</ele>
        <time>2018-01-10T10:07:29Z</time>
      </trkpt>
      <trkpt lat="45.93659" lon="4.76245">
        <ele>170</ele>
        <time>2018-01-10T10:07:31Z</time>
      </trkpt>
      <trkpt lat="45.93661" lon="4.7625">
        <ele>170</ele>
        <time>2018-01-10T10:07:32Z</time>
      </trkpt>
      <trkpt lat="45.93664" lon="4.76255">
        <ele>170</ele>
        <time>2018-01-10T10:07:33Z</time>
      </trkpt>
      <trkpt lat="45.93666" lon="4.7626">
        <ele>169</ele>
        <time>2018-01-10T10:07:34Z</time>
      </trkpt>
      <trkpt lat="45.9367" lon="4.76271">
        <ele>170</ele>
        <time>2018-01-10T10:07:36Z</time>
      </trkpt>
      <trkpt lat="45.9367" lon="4.76275">
        <ele>170</ele>
        <time>2018-01-10T10:07:37Z</time>
      </trkpt>
      <trkpt lat="45.93674" lon="4.76286">
        <ele>170</ele>
        <time>2018-01-10T10:07:39Z</time>
      </trkpt>
      <trkpt lat="45.93675" lon="4.76291">
        <ele>170</ele>
        <time>2018-01-10T10:07:40Z</time>
      </trkpt>
      <trkpt lat="45.93677" lon="4.76302">
        <ele>170</ele>
        <time>2018-01-10T10:07:42Z</time>
      </trkpt>
      <trkpt lat="45.93677" lon="4.76307">
        <ele>170</ele>
        <time>2018-01-10T10:07:43Z</time>
      </trkpt>
      <trkpt lat="45.93679" lon="4.76315">
        <ele>170</ele>
        <time>2018-01-10T10:07:45Z</time>
      </trkpt>
      <trkpt lat="45.9368" lon="4.76319">
        <ele>170</ele>
        <time>2018-01-10T10:07:46Z</time>
      </trkpt>
      <trkpt lat="45.93683" lon="4.76327">
        <ele>170</ele>
        <time>2018-01-10T10:07:48Z</time>
      </trkpt>
      <trkpt lat="45.93686" lon="4.76331">
        <ele>170</ele>
        <time>2018-01-10T10:07:49Z</time>
      </trkpt>
      <trkpt lat="45.93692" lon="4.7634">
        <ele>169</ele>
        <time>2018-01-10T10:07:51Z</time>
      </trkpt>
      <trkpt lat="45.93694" lon="4.76345">
        <ele>169</ele>
        <time>2018-01-10T10:07:52Z</time>
      </trkpt>
      <trkpt lat="45.93696" lon="4.76356">
        <ele>169</ele>
        <time>2018-01-10T10:07:54Z</time>
      </trkpt>
      <trkpt lat="45.93698" lon="4.76361">
        <ele>169</ele>
        <time>2018-01-10T10:07:55Z</time>
      </trkpt>
      <trkpt lat="45.93701" lon="4.76371">
        <ele>169</ele>
        <time>2018-01-10T10:07:57Z</time>
      </trkpt>
      <trkpt lat="45.93703" lon="4.76376">
        <ele>169</ele>
        <time>2018-01-10T10:07:58Z</time>
      </trkpt>
      <trkpt lat="45.93707" lon="4.76387">
        <ele>169</ele>
        <time>2018-01-10T10:08:00Z</time>
      </trkpt>
      <trkpt lat="45.93709" lon="4.76392">
        <ele>169</ele>
        <time>2018-01-10T10:08:01Z</time>
      </trkpt>
      <trkpt lat="45.93711" lon="4.764">
        <ele>169</ele>
        <time>2018-01-10T10:08:02Z</time>
      </trkpt>
      <trkpt lat="45.93713" lon="4.76407">
        <ele>169</ele>
        <time>2018-01-10T10:08:03Z</time>
      </trkpt>
      <trkpt lat="45.93717" lon="4.76418">
        <ele>169</ele>
        <time>2018-01-10T10:08:05Z</time>
      </trkpt>
      <trkpt lat="45.93719" lon="4.76423">
        <ele>169</ele>
        <time>2018-01-10T10:08:06Z</time>
      </trkpt>
      <trkpt lat="45.93722" lon="4.76435">
        <ele>169</ele>
        <time>2018-01-10T10:08:08Z</time>
      </trkpt>
      <trkpt lat="45.93724" lon="4.7644">
        <ele>169</ele>
        <time>2018-01-10T10:08:09Z</time>
      </trkpt>
      <trkpt lat="45.93725" lon="4.76446">
        <ele>169</ele>
        <time>2018-01-10T10:08:10Z</time>
      </trkpt>
      <trkpt lat="45.93727" lon="4.76453">
        <ele>169</ele>
        <time>2018-01-10T10:08:11Z</time>
      </trkpt>
      <trkpt lat="45.93731" lon="4.76464">
        <ele>169</ele>
        <time>2018-01-10T10:08:13Z</time>
      </trkpt>
      <trkpt lat="45.93732" lon="4.76469">
        <ele>169</ele>
        <time>2018-01-10T10:08:14Z</time>
      </trkpt>
      <trkpt lat="45.93735" lon="4.76474">
        <ele>169</ele>
        <time>2018-01-10T10:08:15Z</time>
      </trkpt>
      <trkpt lat="45.93738" lon="4.7648">
        <ele>169</ele>
        <time>2018-01-10T10:08:16Z</time>
      </trkpt>
      <trkpt lat="45.9374" lon="4.76487">
        <ele>169</ele>
        <time>2018-01-10T10:08:17Z</time>
      </trkpt>
      <trkpt lat="45.93742" lon="4.76493">
        <ele>169</ele>
        <time>2018-01-10T10:08:18Z</time>
      </trkpt>
      <trkpt lat="45.93745" lon="4.76505">
        <ele>169</ele>
        <time>2018-01-10T10:08:20Z</time>
      </trkpt>
      <trkpt lat="45.93747" lon="4.7651">
        <ele>169</ele>
        <time>2018-01-10T10:08:21Z</time>
      </trkpt>
      <trkpt lat="45.9375" lon="4.76522">
        <ele>170</ele>
        <time>2018-01-10T10:08:23Z</time>
      </trkpt>
      <trkpt lat="45.93753" lon="4.76526">
        <ele>170</ele>
        <time>2018-01-10T10:08:24Z</time>
      </trkpt>
      <trkpt lat="45.93756" lon="4.76535">
        <ele>170</ele>
        <time>2018-01-10T10:08:26Z</time>
      </trkpt>
      <trkpt lat="45.93757" lon="4.76539">
        <ele>170</ele>
        <time>2018-01-10T10:08:27Z</time>
      </trkpt>
      <trkpt lat="45.93759" lon="4.76547">
        <ele>170</ele>
        <time>2018-01-10T10:08:29Z</time>
      </trkpt>
      <trkpt lat="45.93761" lon="4.76551">
        <ele>170</ele>
        <time>2018-01-10T10:08:30Z</time>
      </trkpt>
      <trkpt lat="45.93764" lon="4.76561">
        <ele>170</ele>
        <time>2018-01-10T10:08:32Z</time>
      </trkpt>
      <trkpt lat="45.93766" lon="4.76566">
        <ele>170</ele>
        <time>2018-01-10T10:08:33Z</time>
      </trkpt>
      <trkpt lat="45.93769" lon="4.76575">
        <ele>170</ele>
        <time>2018-01-10T10:08:35Z</time>
      </trkpt>
      <trkpt lat="45.93771" lon="4.76579">
        <ele>170</ele>
        <time>2018-01-10T10:08:36Z</time>
      </trkpt>
      <trkpt lat="45.93774" lon="4.76589">
        <ele>169</ele>
        <time>2018-01-10T10:08:38Z</time>
      </trkpt>
      <trkpt lat="45.93775" lon="4.76594">
        <ele>169</ele>
        <time>2018-01-10T10:08:39Z</time>
      </trkpt>
      <trkpt lat="45.93779" lon="4.76603">
        <ele>169</ele>
        <time>2018-01-10T10:08:41Z</time>
      </trkpt>
      <trkpt lat="45.93781" lon="4.76607">
        <ele>169</ele>
        <time>2018-01-10T10:08:42Z</time>
      </trkpt>
      <trkpt lat="45.93784" lon="4.76617">
        <ele>169</ele>
        <time>2018-01-10T10:08:44Z</time>
      </trkpt>
      <trkpt lat="45.93786" lon="4.76623">
        <ele>169</ele>
        <time>2018-01-10T10:08:45Z</time>
      </trkpt>
      <trkpt lat="45.9379" lon="4.76634">
        <ele>169</ele>
        <time>2018-01-10T10:08:47Z</time>
      </trkpt>
      <trkpt lat="45.93792" lon="4.7664">
        <ele>169</ele>
        <time>2018-01-10T10:08:48Z</time>
      </trkpt>
      <trkpt lat="45.93796" lon="4.7665">
        <ele>169</ele>
        <time>2018-01-10T10:08:50Z</time>
      </trkpt>
      <trkpt lat="45.93798" lon="4.76654">
        <ele>169</ele>
        <time>2018-01-10T10:08:51Z</time>
      </trkpt>
      <trkpt lat="45.93802" lon="4.76663">
        <ele>169</ele>
        <time>2018-01-10T10:08:53Z</time>
      </trkpt>
      <trkpt lat="45.93804" lon="4.76667">
        <ele>169</ele>
        <time>2018-01-10T10:08:54Z</time>
      </trkpt>
      <trkpt lat="45.93809" lon="4.76676">
        <ele>170</ele>
        <time>2018-01-10T10:08:56Z</time>
      </trkpt>
      <trkpt lat="45.93812" lon="4.7668">
        <ele>170</ele>
        <time>2018-01-10T10:08:57Z</time>
      </trkpt>
      <trkpt lat="45.93818" lon="4.7669">
        <ele>170</ele>
        <time>2018-01-10T10:08:59Z</time>
      </trkpt>
      <trkpt lat="45.9382" lon="4.76696">
        <ele>170</ele>
        <time>2018-01-10T10:09:00Z</time>
      </trkpt>
      <trkpt lat="45.93823" lon="4.767">
        <ele>170</ele>
        <time>2018-01-10T10:09:01Z</time>
      </trkpt>
      <trkpt lat="45.93826" lon="4.76706">
        <ele>170</ele>
        <time>2018-01-10T10:09:02Z</time>
      </trkpt>
      <trkpt lat="45.93829" lon="4.76711">
        <ele>170</ele>
        <time>2018-01-10T10:09:03Z</time>
      </trkpt>
      <trkpt lat="45.93832" lon="4.76716">
        <ele>170</ele>
        <time>2018-01-10T10:09:04Z</time>
      </trkpt>
      <trkpt lat="45.93835" lon="4.76721">
        <ele>172</ele>
        <time>2018-01-10T10:09:05Z</time>
      </trkpt>
      <trkpt lat="45.93839" lon="4.76726">
        <ele>172</ele>
        <time>2018-01-10T10:09:06Z</time>
      </trkpt>
      <trkpt lat="45.93842" lon="4.76732">
        <ele>172</ele>
        <time>2018-01-10T10:09:07Z</time>
      </trkpt>
      <trkpt lat="45.93846" lon="4.76737">
        <ele>173</ele>
        <time>2018-01-10T10:09:08Z</time>
      </trkpt>
      <trkpt lat="45.93849" lon="4.76742">
        <ele>173</ele>
        <time>2018-01-10T10:09:09Z</time>
      </trkpt>
      <trkpt lat="45.93853" lon="4.76748">
        <ele>173</ele>
        <time>2018-01-10T10:09:10Z</time>
      </trkpt>
      <trkpt lat="45.93856" lon="4.76753">
        <ele>172</ele>
        <time>2018-01-10T10:09:11Z</time>
      </trkpt>
      <trkpt lat="45.9386" lon="4.76758">
        <ele>172</ele>
        <time>2018-01-10T10:09:12Z</time>
      </trkpt>
      <trkpt lat="45.93863" lon="4.76764">
        <ele>171</ele>
        <time>2018-01-10T10:09:13Z</time>
      </trkpt>
      <trkpt lat="45.93866" lon="4.7677">
        <ele>171</ele>
        <time>2018-01-10T10:09:14Z</time>
      </trkpt>
      <trkpt lat="45.93872" lon="4.76779">
        <ele>171</ele>
        <time>2018-01-10T10:09:16Z</time>
      </trkpt>
      <trkpt lat="45.93874" lon="4.76783">
        <ele>171</ele>
        <time>2018-01-10T10:09:17Z</time>
      </trkpt>
      <trkpt lat="45.9388" lon="4.76792">
        <ele>171</ele>
        <time>2018-01-10T10:09:19Z</time>
      </trkpt>
      <trkpt lat="45.93883" lon="4.76797">
        <ele>171</ele>
        <time>2018-01-10T10:09:20Z</time>
      </trkpt>
      <trkpt lat="45.93888" lon="4.76803">
        <ele>171</ele>
        <time>2018-01-10T10:09:21Z</time>
      </trkpt>
      <trkpt lat="45.93891" lon="4.76809">
        <ele>171</ele>
        <time>2018-01-10T10:09:22Z</time>
      </trkpt>
      <trkpt lat="45.93895" lon="4.76814">
        <ele>171</ele>
        <time>2018-01-10T10:09:23Z</time>
      </trkpt>
      <trkpt lat="45.93899" lon="4.7682">
        <ele>172</ele>
        <time>2018-01-10T10:09:24Z</time>
      </trkpt>
      <trkpt lat="45.93903" lon="4.76824">
        <ele>172</ele>
        <time>2018-01-10T10:09:25Z</time>
      </trkpt>
      <trkpt lat="45.93906" lon="4.76828">
        <ele>172</ele>
        <time>2018-01-10T10:09:26Z</time>
      </trkpt>
      <trkpt lat="45.93911" lon="4.76837">
        <ele>172</ele>
        <time>2018-01-10T10:09:28Z</time>
      </trkpt>
      <trkpt lat="45.93914" lon="4.76842">
        <ele>172</ele>
        <time>2018-01-10T10:09:29Z</time>
      </trkpt>
      <trkpt lat="45.93917" lon="4.76848">
        <ele>173</ele>
        <time>2018-01-10T10:09:30Z</time>
      </trkpt>
      <trkpt lat="45.93919" lon="4.76853">
        <ele>172</ele>
        <time>2018-01-10T10:09:31Z</time>
      </trkpt>
      <trkpt lat="45.93923" lon="4.76861">
        <ele>172</ele>
        <time>2018-01-10T10:09:33Z</time>
      </trkpt>
      <trkpt lat="45.93925" lon="4.76865">
        <ele>172</ele>
        <time>2018-01-10T10:09:34Z</time>
      </trkpt>
      <trkpt lat="45.93931" lon="4.76874">
        <ele>172</ele>
        <time>2018-01-10T10:09:36Z</time>
      </trkpt>
      <trkpt lat="45.93933" lon="4.76878">
        <ele>172</ele>
        <time>2018-01-10T10:09:37Z</time>
      </trkpt>
      <trkpt lat="45.93939" lon="4.76888">
        <ele>172</ele>
        <time>2018-01-10T10:09:39Z</time>
      </trkpt>
      <trkpt lat="45.93941" lon="4.76891">
        <ele>172</ele>
        <time>2018-01-10T10:09:40Z</time>
      </trkpt>
      <trkpt lat="45.93945" lon="4.76899">
        <ele>172</ele>
        <time>2018-01-10T10:09:42Z</time>
      </trkpt>
      <trkpt lat="45.93947" lon="4.76902">
        <ele>172</ele>
        <time>2018-01-10T10:09:43Z</time>
      </trkpt>
      <trkpt lat="45.93954" lon="4.76909">
        <ele>172</ele>
        <time>2018-01-10T10:09:46Z</time>
      </trkpt>
      <trkpt lat="45.93956" lon="4.76911">
        <ele>172</ele>
        <time>2018-01-10T10:09:47Z</time>
      </trkpt>
      <trkpt lat="45.93962" lon="4.7692">
        <ele>171</ele>
        <time>2018-01-10T10:09:51Z</time>
      </trkpt>
      <trkpt lat="45.93963" lon="4.76921">
        <ele>171</ele>
        <time>2018-01-10T10:09:52Z</time>
      </trkpt>
      <trkpt lat="45.93959" lon="4.76931">
        <ele>171</ele>
        <time>2018-01-10T10:12:55Z</time>
      </trkpt>
      <trkpt lat="45.93958" lon="4.76932">
        <ele>171</ele>
        <time>2018-01-10T10:12:56Z</time>
      </trkpt>
      <trkpt lat="45.93966" lon="4.7693">
        <ele>171</ele>
        <time>2018-01-10T10:22:22Z</time>
      </trkpt>
      <trkpt lat="45.93968" lon="4.76931">
        <ele>171</ele>
        <time>2018-01-10T10:22:23Z</time>
      </trkpt>
      <trkpt lat="45.93974" lon="4.76939">
        <ele>171</ele>
        <time>2018-01-10T10:22:32Z</time>
      </trkpt>
      <trkpt lat="45.93975" lon="4.76939">
        <ele>171</ele>
        <time>2018-01-10T10:22:33Z</time>
      </trkpt>
      <trkpt lat="45.93975" lon="4.76937">
        <ele>171</ele>
        <time>2018-01-10T10:27:23Z</time>
      </trkpt>
      <trkpt lat="45.93975" lon="4.76937">
        <ele>171</ele>
        <time>2018-01-10T10:27:24Z</time>
      </trkpt>
      <trkpt lat="45.93976" lon="4.76937">
        <ele>171</ele>
        <time>2018-01-10T10:27:25Z</time>
      </trkpt>
      <trkpt lat="45.93976" lon="4.76937">
        <ele>171</ele>
        <time>2018-01-10T10:27:26Z</time>
      </trkpt>
      <trkpt lat="45.93976" lon="4.76939">
        <ele>171</ele>
        <time>2018-01-10T10:30:42Z</time>
      </trkpt>
      <trkpt lat="45.93976" lon="4.76939">
        <ele>171</ele>
        <time>2018-01-10T10:30:43Z</time>
      </trkpt>
      <trkpt lat="45.93969" lon="4.76933">
        <ele>171</ele>
        <time>2018-01-10T10:31:21Z</time>
      </trkpt>
      <trkpt lat="45.93969" lon="4.76933">
        <ele>171</ele>
        <time>2018-01-10T10:31:22Z</time>
      </trkpt>
      <trkpt lat="45.93969" lon="4.76932">
        <ele>171</ele>
        <time>2018-01-10T10:31:28Z</time>
      </trkpt>
      <trkpt lat="45.93969" lon="4.76932">
        <ele>171</ele>
        <time>2018-01-10T10:31:29Z</time>
      </trkpt>
      <trkpt lat="45.93972" lon="4.7693">
        <ele>171</ele>
        <time>2018-01-10T10:31:50Z</time>
      </trkpt>
      <trkpt lat="45.93972" lon="4.7693">
        <ele>171</ele>
        <time>2018-01-10T10:31:51Z</time>
      </trkpt>
      <trkpt lat="45.93971" lon="4.76929">
        <ele>171</ele>
        <time>2018-01-10T10:31:53Z</time>
      </trkpt>
      <trkpt lat="45.93971" lon="4.76929">
        <ele>171</ele>
        <time>2018-01-10T10:31:54Z</time>
      </trkpt>
      <trkpt lat="45.9397" lon="4.76929">
        <ele>171</ele>
        <time>2018-01-10T10:31:57Z</time>
      </trkpt>
      <trkpt lat="45.9397" lon="4.76928">
        <ele>171</ele>
        <time>2018-01-10T10:31:58Z</time>
      </trkpt>
      <trkpt lat="45.93971" lon="4.76929">
        <ele>171</ele>
        <time>2018-01-10T10:32:28Z</time>
      </trkpt>
      <trkpt lat="45.93971" lon="4.76929">
        <ele>171</ele>
        <time>2018-01-10T10:32:29Z</time>
      </trkpt>
      <trkpt lat="45.93962" lon="4.76927">
        <ele>171</ele>
        <time>2018-01-10T10:33:45Z</time>
      </trkpt>
      <trkpt lat="45.9396" lon="4.76927">
        <ele>171</ele>
        <time>2018-01-10T10:33:46Z</time>
      </trkpt>
      <trkpt lat="45.93963" lon="4.76939">
        <ele>171</ele>
        <time>2018-01-10T10:37:07Z</time>
      </trkpt>
      <trkpt lat="45.93962" lon="4.7694">
        <ele>171</ele>
        <time>2018-01-10T10:37:08Z</time>
      </trkpt>
      <trkpt lat="45.93963" lon="4.7695">
        <ele>170</ele>
        <time>2018-01-10T10:37:11Z</time>
      </trkpt>
      <trkpt lat="45.93965" lon="4.76953">
        <ele>170</ele>
        <time>2018-01-10T10:37:12Z</time>
      </trkpt>
      <trkpt lat="45.93971" lon="4.7696">
        <ele>170</ele>
        <time>2018-01-10T10:37:16Z</time>
      </trkpt>
      <trkpt lat="45.93972" lon="4.76962">
        <ele>170</ele>
        <time>2018-01-10T10:37:17Z</time>
      </trkpt>
      <trkpt lat="45.93973" lon="4.76974">
        <ele>170</ele>
        <time>2018-01-10T10:37:21Z</time>
      </trkpt>
      <trkpt lat="45.93973" lon="4.76978">
        <ele>170</ele>
        <time>2018-01-10T10:37:22Z</time>
      </trkpt>
      <trkpt lat="45.93974" lon="4.7699">
        <ele>170</ele>
        <time>2018-01-10T10:37:27Z</time>
      </trkpt>
      <trkpt lat="45.93974" lon="4.76993">
        <ele>170</ele>
        <time>2018-01-10T10:37:28Z</time>
      </trkpt>
      <trkpt lat="45.93977" lon="4.77003">
        <ele>169</ele>
        <time>2018-01-10T10:37:31Z</time>
      </trkpt>
      <trkpt lat="45.93978" lon="4.77005">
        <ele>170</ele>
        <time>2018-01-10T10:37:32Z</time>
      </trkpt>
      <trkpt lat="45.93983" lon="4.77015">
        <ele>170</ele>
        <time>2018-01-10T10:37:35Z</time>
      </trkpt>
      <trkpt lat="45.93984" lon="4.77018">
        <ele>170</ele>
        <time>2018-01-10T10:37:36Z</time>
      </trkpt>
      <trkpt lat="45.93989" lon="4.77027">
        <ele>170</ele>
        <time>2018-01-10T10:37:39Z</time>
      </trkpt>
      <trkpt lat="45.9399" lon="4.77029">
        <ele>170</ele>
        <time>2018-01-10T10:37:40Z</time>
      </trkpt>
      <trkpt lat="45.93994" lon="4.7704">
        <ele>170</ele>
        <time>2018-01-10T10:37:44Z</time>
      </trkpt>
      <trkpt lat="45.93996" lon="4.77043">
        <ele>170</ele>
        <time>2018-01-10T10:37:45Z</time>
      </trkpt>
      <trkpt lat="45.94001" lon="4.77052">
        <ele>173</ele>
        <time>2018-01-10T10:37:48Z</time>
      </trkpt>
      <trkpt lat="45.94002" lon="4.77054">
        <ele>173</ele>
        <time>2018-01-10T10:37:49Z</time>
      </trkpt>
      <trkpt lat="45.94007" lon="4.77063">
        <ele>173</ele>
        <time>2018-01-10T10:37:53Z</time>
      </trkpt>
      <trkpt lat="45.94008" lon="4.77064">
        <ele>173</ele>
        <time>2018-01-10T10:37:54Z</time>
      </trkpt>
      <trkpt lat="45.94009" lon="4.77075">
        <ele>173</ele>
        <time>2018-01-10T10:37:59Z</time>
      </trkpt>
      <trkpt lat="45.94009" lon="4.77079">
        <ele>173</ele>
        <time>2018-01-10T10:38:00Z</time>
      </trkpt>
      <trkpt lat="45.94008" lon="4.77087">
        <ele>173</ele>
        <time>2018-01-10T10:38:02Z</time>
      </trkpt>
      <trkpt lat="45.94008" lon="4.77092">
        <ele>173</ele>
        <time>2018-01-10T10:38:03Z</time>
      </trkpt>
      <trkpt lat="45.94007" lon="4.77102">
        <ele>173</ele>
        <time>2018-01-10T10:38:05Z</time>
      </trkpt>
      <trkpt lat="45.94006" lon="4.77107">
        <ele>174</ele>
        <time>2018-01-10T10:38:06Z</time>
      </trkpt>
      <trkpt lat="45.94005" lon="4.77117">
        <ele>174</ele>
        <time>2018-01-10T10:38:08Z</time>
      </trkpt>
      <trkpt lat="45.94004" lon="4.77123">
        <ele>174</ele>
        <time>2018-01-10T10:38:09Z</time>
      </trkpt>
      <trkpt lat="45.94003" lon="4.7713">
        <ele>174</ele>
        <time>2018-01-10T10:38:10Z</time>
      </trkpt>
      <trkpt lat="45.94002" lon="4.77139">
        <ele>174</ele>
        <time>2018-01-10T10:38:11Z</time>
      </trkpt>
      <trkpt lat="45.94002" lon="4.77151">
        <ele>173</ele>
        <time>2018-01-10T10:38:13Z</time>
      </trkpt>
      <trkpt lat="45.94001" lon="4.77156">
        <ele>173</ele>
        <time>2018-01-10T10:38:14Z</time>
      </trkpt>
      <trkpt lat="45.94" lon="4.77166">
        <ele>172</ele>
        <time>2018-01-10T10:38:16Z</time>
      </trkpt>
      <trkpt lat="45.93999" lon="4.77171">
        <ele>171</ele>
        <time>2018-01-10T10:38:17Z</time>
      </trkpt>
      <trkpt lat="45.93999" lon="4.77182">
        <ele>170</ele>
        <time>2018-01-10T10:38:19Z</time>
      </trkpt>
      <trkpt lat="45.93999" lon="4.7719">
        <ele>170</ele>
        <time>2018-01-10T10:38:20Z</time>
      </trkpt>
      <trkpt lat="45.93998" lon="4.77201">
        <ele>170</ele>
        <time>2018-01-10T10:38:22Z</time>
      </trkpt>
      <trkpt lat="45.93998" lon="4.77206">
        <ele>169</ele>
        <time>2018-01-10T10:38:23Z</time>
      </trkpt>
      <trkpt lat="45.93999" lon="4.77218">
        <ele>169</ele>
        <time>2018-01-10T10:38:26Z</time>
      </trkpt>
      <trkpt lat="45.93999" lon="4.77222">
        <ele>169</ele>
        <time>2018-01-10T10:38:27Z</time>
      </trkpt>
      <trkpt lat="45.94001" lon="4.77231">
        <ele>173</ele>
        <time>2018-01-10T10:38:30Z</time>
      </trkpt>
      <trkpt lat="45.94004" lon="4.77232">
        <ele>173</ele>
        <time>2018-01-10T10:38:31Z</time>
      </trkpt>
      <trkpt lat="45.9401" lon="4.77225">
        <ele>173</ele>
        <time>2018-01-10T10:38:34Z</time>
      </trkpt>
      <trkpt lat="45.9401" lon="4.77221">
        <ele>174</ele>
        <time>2018-01-10T10:38:35Z</time>
      </trkpt>
      <trkpt lat="45.94011" lon="4.77209">
        <ele>174</ele>
        <time>2018-01-10T10:38:38Z</time>
      </trkpt>
      <trkpt lat="45.94012" lon="4.77206">
        <ele>174</ele>
        <time>2018-01-10T10:38:39Z</time>
      </trkpt>
      <trkpt lat="45.94018" lon="4.77211">
        <ele>174</ele>
        <time>2018-01-10T10:38:44Z</time>
      </trkpt>
      <trkpt lat="45.94019" lon="4.77214">
        <ele>174</ele>
        <time>2018-01-10T10:38:45Z</time>
      </trkpt>
      <trkpt lat="45.94018" lon="4.77226">
        <ele>174</ele>
        <time>2018-01-10T10:38:49Z</time>
      </trkpt>
      <trkpt lat="45.94018" lon="4.77229">
        <ele>174</ele>
        <time>2018-01-10T10:38:50Z</time>
      </trkpt>
      <trkpt lat="45.94017" lon="4.77241">
        <ele>173</ele>
        <time>2018-01-10T10:38:54Z</time>
      </trkpt>
      <trkpt lat="45.94016" lon="4.77244">
        <ele>173</ele>
        <time>2018-01-10T10:38:55Z</time>
      </trkpt>
      <trkpt lat="45.9401" lon="4.7725">
        <ele>172</ele>
        <time>2018-01-10T10:39:00Z</time>
      </trkpt>
      <trkpt lat="45.94007" lon="4.7725">
        <ele>171</ele>
        <time>2018-01-10T10:39:01Z</time>
      </trkpt>
      <trkpt lat="45.93998" lon="4.77248">
        <ele>170</ele>
        <time>2018-01-10T10:39:04Z</time>
      </trkpt>
      <trkpt lat="45.93995" lon="4.77247">
        <ele>170</ele>
        <time>2018-01-10T10:39:05Z</time>
      </trkpt>
      <trkpt lat="45.93989" lon="4.77246">
        <ele>169</ele>
        <time>2018-01-10T10:39:07Z</time>
      </trkpt>
      <trkpt lat="45.93986" lon="4.77245">
        <ele>169</ele>
        <time>2018-01-10T10:39:08Z</time>
      </trkpt>
      <trkpt lat="45.93978" lon="4.77243">
        <ele>169</ele>
        <time>2018-01-10T10:39:11Z</time>
      </trkpt>
      <trkpt lat="45.93975" lon="4.77242">
        <ele>169</ele>
        <time>2018-01-10T10:39:12Z</time>
      </trkpt>
      <trkpt lat="45.93967" lon="4.77241">
        <ele>169</ele>
        <time>2018-01-10T10:39:15Z</time>
      </trkpt>
      <trkpt lat="45.93965" lon="4.77241">
        <ele>169</ele>
        <time>2018-01-10T10:39:16Z</time>
      </trkpt>
      <trkpt lat="45.93956" lon="4.77242">
        <ele>168</ele>
        <time>2018-01-10T10:39:18Z</time>
      </trkpt>
      <trkpt lat="45.93952" lon="4.77241">
        <ele>168</ele>
        <time>2018-01-10T10:39:19Z</time>
      </trkpt>
      <trkpt lat="45.93945" lon="4.77239">
        <ele>168</ele>
        <time>2018-01-10T10:39:21Z</time>
      </trkpt>
      <trkpt lat="45.93942" lon="4.77238">
        <ele>168</ele>
        <time>2018-01-10T10:39:22Z</time>
      </trkpt>
      <trkpt lat="45.93934" lon="4.77236">
        <ele>167</ele>
        <time>2018-01-10T10:39:25Z</time>
      </trkpt>
      <trkpt lat="45.93931" lon="4.77235">
        <ele>167</ele>
        <time>2018-01-10T10:39:26Z</time>
      </trkpt>
      <trkpt lat="45.93923" lon="4.77234">
        <ele>167</ele>
        <time>2018-01-10T10:39:29Z</time>
      </trkpt>
      <trkpt lat="45.9392" lon="4.77233">
        <ele>167</ele>
        <time>2018-01-10T10:39:30Z</time>
      </trkpt>
      <trkpt lat="45.93912" lon="4.77231">
        <ele>167</ele>
        <time>2018-01-10T10:39:32Z</time>
      </trkpt>
      <trkpt lat="45.93909" lon="4.7723">
        <ele>167</ele>
        <time>2018-01-10T10:39:33Z</time>
      </trkpt>
      <trkpt lat="45.93901" lon="4.77229">
        <ele>167</ele>
        <time>2018-01-10T10:39:35Z</time>
      </trkpt>
      <trkpt lat="45.93897" lon="4.77228">
        <ele>167</ele>
        <time>2018-01-10T10:39:36Z</time>
      </trkpt>
      <trkpt lat="45.93889" lon="4.77226">
        <ele>167</ele>
        <time>2018-01-10T10:39:38Z</time>
      </trkpt>
      <trkpt lat="45.93885" lon="4.77225">
        <ele>167</ele>
        <time>2018-01-10T10:39:39Z</time>
      </trkpt>
      <trkpt lat="45.93877" lon="4.77223">
        <ele>168</ele>
        <time>2018-01-10T10:39:41Z</time>
      </trkpt>
      <trkpt lat="45.93872" lon="4.77223">
        <ele>168</ele>
        <time>2018-01-10T10:39:42Z</time>
      </trkpt>
      <trkpt lat="45.93865" lon="4.77221">
        <ele>168</ele>
        <time>2018-01-10T10:39:44Z</time>
      </trkpt>
      <trkpt lat="45.93863" lon="4.7722">
        <ele>168</ele>
        <time>2018-01-10T10:39:45Z</time>
      </trkpt>
      <trkpt lat="45.93854" lon="4.77218">
        <ele>168</ele>
        <time>2018-01-10T10:39:49Z</time>
      </trkpt>
      <trkpt lat="45.93853" lon="4.77218">
        <ele>168</ele>
        <time>2018-01-10T10:39:50Z</time>
      </trkpt>
      <trkpt lat="45.93847" lon="4.77212">
        <ele>168</ele>
        <time>2018-01-10T10:39:53Z</time>
      </trkpt>
      <trkpt lat="45.93843" lon="4.77211">
        <ele>168</ele>
        <time>2018-01-10T10:39:54Z</time>
      </trkpt>
      <trkpt lat="45.93835" lon="4.7721">
        <ele>168</ele>
        <time>2018-01-10T10:39:56Z</time>
      </trkpt>
      <trkpt lat="45.93832" lon="4.7721">
        <ele>170</ele>
        <time>2018-01-10T10:39:57Z</time>
      </trkpt>
      <trkpt lat="45.93823" lon="4.77209">
        <ele>170</ele>
        <time>2018-01-10T10:40:00Z</time>
      </trkpt>
      <trkpt lat="45.9382" lon="4.77209">
        <ele>170</ele>
        <time>2018-01-10T10:40:01Z</time>
      </trkpt>
      <trkpt lat="45.93812" lon="4.77204">
        <ele>170</ele>
        <time>2018-01-10T10:40:04Z</time>
      </trkpt>
      <trkpt lat="45.93811" lon="4.772">
        <ele>170</ele>
        <time>2018-01-10T10:40:05Z</time>
      </trkpt>
      <trkpt lat="45.93811" lon="4.77187">
        <ele>169</ele>
        <time>2018-01-10T10:40:08Z</time>
      </trkpt>
      <trkpt lat="45.93811" lon="4.77183">
        <ele>169</ele>
        <time>2018-01-10T10:40:09Z</time>
      </trkpt>
      <trkpt lat="45.93811" lon="4.7717">
        <ele>169</ele>
        <time>2018-01-10T10:40:11Z</time>
      </trkpt>
      <trkpt lat="45.93811" lon="4.77163">
        <ele>168</ele>
        <time>2018-01-10T10:40:12Z</time>
      </trkpt>
      <trkpt lat="45.9381" lon="4.77157">
        <ele>168</ele>
        <time>2018-01-10T10:40:13Z</time>
      </trkpt>
      <trkpt lat="45.93809" lon="4.7715">
        <ele>168</ele>
        <time>2018-01-10T10:40:14Z</time>
      </trkpt>
      <trkpt lat="45.93806" lon="4.77138">
        <ele>168</ele>
        <time>2018-01-10T10:40:16Z</time>
      </trkpt>
      <trkpt lat="45.93805" lon="4.77132">
        <ele>169</ele>
        <time>2018-01-10T10:40:17Z</time>
      </trkpt>
      <trkpt lat="45.93803" lon="4.77122">
        <ele>169</ele>
        <time>2018-01-10T10:40:18Z</time>
      </trkpt>
      <trkpt lat="45.93804" lon="4.77117">
        <ele>169</ele>
        <time>2018-01-10T10:40:19Z</time>
      </trkpt>
      <trkpt lat="45.93803" lon="4.77109">
        <ele>169</ele>
        <time>2018-01-10T10:40:20Z</time>
      </trkpt>
      <trkpt lat="45.93803" lon="4.77101">
        <ele>168</ele>
        <time>2018-01-10T10:40:21Z</time>
      </trkpt>
      <trkpt lat="45.93802" lon="4.7709">
        <ele>168</ele>
        <time>2018-01-10T10:40:22Z</time>
      </trkpt>
      <trkpt lat="45.93797" lon="4.77083">
        <ele>168</ele>
        <time>2018-01-10T10:40:23Z</time>
      </trkpt>
      <trkpt lat="45.93796" lon="4.77075">
        <ele>168</ele>
        <time>2018-01-10T10:40:24Z</time>
      </trkpt>
      <trkpt lat="45.93791" lon="4.77069">
        <ele>168</ele>
        <time>2018-01-10T10:40:25Z</time>
      </trkpt>
      <trkpt lat="45.9379" lon="4.77061">
        <ele>168</ele>
        <time>2018-01-10T10:40:26Z</time>
      </trkpt>
      <trkpt lat="45.93788" lon="4.77054">
        <ele>168</ele>
        <time>2018-01-10T10:40:27Z</time>
      </trkpt>
      <trkpt lat="45.93784" lon="4.77047">
        <ele>169</ele>
        <time>2018-01-10T10:40:28Z</time>
      </trkpt>
      <trkpt lat="45.9378" lon="4.7704">
        <ele>169</ele>
        <time>2018-01-10T10:40:29Z</time>
      </trkpt>
      <trkpt lat="45.9378" lon="4.77033">
        <ele>168</ele>
        <time>2018-01-10T10:40:30Z</time>
      </trkpt>
      <trkpt lat="45.93777" lon="4.77028">
        <ele>168</ele>
        <time>2018-01-10T10:40:31Z</time>
      </trkpt>
      <trkpt lat="45.93774" lon="4.77022">
        <ele>169</ele>
        <time>2018-01-10T10:40:32Z</time>
      </trkpt>
      <trkpt lat="45.93771" lon="4.77017">
        <ele>169</ele>
        <time>2018-01-10T10:40:33Z</time>
      </trkpt>
      <trkpt lat="45.93768" lon="4.77008">
        <ele>169</ele>
        <time>2018-01-10T10:40:35Z</time>
      </trkpt>
      <trkpt lat="45.93766" lon="4.77005">
        <ele>169</ele>
        <time>2018-01-10T10:40:36Z</time>
      </trkpt>
      <trkpt lat="45.93764" lon="4.76996">
        <ele>168</ele>
        <time>2018-01-10T10:40:39Z</time>
      </trkpt>
      <trkpt lat="45.93765" lon="4.76988">
        <ele>168</ele>
        <time>2018-01-10T10:40:40Z</time>
      </trkpt>
      <trkpt lat="45.93761" lon="4.76978">
        <ele>168</ele>
        <time>2018-01-10T10:40:42Z</time>
      </trkpt>
      <trkpt lat="45.9376" lon="4.76973">
        <ele>168</ele>
        <time>2018-01-10T10:40:43Z</time>
      </trkpt>
      <trkpt lat="45.93756" lon="4.76964">
        <ele>168</ele>
        <time>2018-01-10T10:40:45Z</time>
      </trkpt>
      <trkpt lat="45.93754" lon="4.7696">
        <ele>168</ele>
        <time>2018-01-10T10:40:46Z</time>
      </trkpt>
      <trkpt lat="45.9375" lon="4.76952">
        <ele>169</ele>
        <time>2018-01-10T10:40:48Z</time>
      </trkpt>
      <trkpt lat="45.93748" lon="4.76948">
        <ele>169</ele>
        <time>2018-01-10T10:40:49Z</time>
      </trkpt>
      <trkpt lat="45.93744" lon="4.7694">
        <ele>169</ele>
        <time>2018-01-10T10:40:51Z</time>
      </trkpt>
      <trkpt lat="45.93743" lon="4.76935">
        <ele>169</ele>
        <time>2018-01-10T10:40:52Z</time>
      </trkpt>
      <trkpt lat="45.9374" lon="4.76925">
        <ele>169</ele>
        <time>2018-01-10T10:40:54Z</time>
      </trkpt>
      <trkpt lat="45.93738" lon="4.7692">
        <ele>169</ele>
        <time>2018-01-10T10:40:55Z</time>
      </trkpt>
      <trkpt lat="45.93733" lon="4.7691">
        <ele>168</ele>
        <time>2018-01-10T10:40:57Z</time>
      </trkpt>
      <trkpt lat="45.93731" lon="4.76905">
        <ele>168</ele>
        <time>2018-01-10T10:40:58Z</time>
      </trkpt>
      <trkpt lat="45.93725" lon="4.76899">
        <ele>168</ele>
        <time>2018-01-10T10:41:00Z</time>
      </trkpt>
      <trkpt lat="45.93722" lon="4.76897">
        <ele>168</ele>
        <time>2018-01-10T10:41:01Z</time>
      </trkpt>
      <trkpt lat="45.93716" lon="4.76891">
        <ele>168</ele>
        <time>2018-01-10T10:41:03Z</time>
      </trkpt>
      <trkpt lat="45.93713" lon="4.76887">
        <ele>167</ele>
        <time>2018-01-10T10:41:04Z</time>
      </trkpt>
      <trkpt lat="45.93708" lon="4.7688">
        <ele>167</ele>
        <time>2018-01-10T10:41:06Z</time>
      </trkpt>
      <trkpt lat="45.93706" lon="4.76877">
        <ele>167</ele>
        <time>2018-01-10T10:41:07Z</time>
      </trkpt>
      <trkpt lat="45.93703" lon="4.76865">
        <ele>167</ele>
        <time>2018-01-10T10:41:09Z</time>
      </trkpt>
      <trkpt lat="45.93702" lon="4.76858">
        <ele>167</ele>
        <time>2018-01-10T10:41:10Z</time>
      </trkpt>
      <trkpt lat="45.93699" lon="4.76847">
        <ele>167</ele>
        <time>2018-01-10T10:41:12Z</time>
      </trkpt>
      <trkpt lat="45.93696" lon="4.76842">
        <ele>167</ele>
        <time>2018-01-10T10:41:13Z</time>
      </trkpt>
      <trkpt lat="45.93691" lon="4.76833">
        <ele>166</ele>
        <time>2018-01-10T10:41:15Z</time>
      </trkpt>
      <trkpt lat="45.93688" lon="4.76829">
        <ele>166</ele>
        <time>2018-01-10T10:41:16Z</time>
      </trkpt>
      <trkpt lat="45.93682" lon="4.76821">
        <ele>166</ele>
        <time>2018-01-10T10:41:18Z</time>
      </trkpt>
      <trkpt lat="45.93679" lon="4.76816">
        <ele>166</ele>
        <time>2018-01-10T10:41:19Z</time>
      </trkpt>
      <trkpt lat="45.93673" lon="4.76812">
        <ele>166</ele>
        <time>2018-01-10T10:41:20Z</time>
      </trkpt>
      <trkpt lat="45.9367" lon="4.76808">
        <ele>166</ele>
        <time>2018-01-10T10:41:21Z</time>
      </trkpt>
      <trkpt lat="45.93667" lon="4.76801">
        <ele>167</ele>
        <time>2018-01-10T10:41:22Z</time>
      </trkpt>
      <trkpt lat="45.93663" lon="4.76794">
        <ele>167</ele>
        <time>2018-01-10T10:41:23Z</time>
      </trkpt>
      <trkpt lat="45.93659" lon="4.7679">
        <ele>167</ele>
        <time>2018-01-10T10:41:24Z</time>
      </trkpt>
      <trkpt lat="45.93656" lon="4.76783">
        <ele>167</ele>
        <time>2018-01-10T10:41:25Z</time>
      </trkpt>
      <trkpt lat="45.93652" lon="4.76776">
        <ele>167</ele>
        <time>2018-01-10T10:41:26Z</time>
      </trkpt>
      <trkpt lat="45.93649" lon="4.76771">
        <ele>167</ele>
        <time>2018-01-10T10:41:27Z</time>
      </trkpt>
      <trkpt lat="45.93643" lon="4.76762">
        <ele>167</ele>
        <time>2018-01-10T10:41:29Z</time>
      </trkpt>
      <trkpt lat="45.9364" lon="4.76757">
        <ele>168</ele>
        <time>2018-01-10T10:41:30Z</time>
      </trkpt>
      <trkpt lat="45.93635" lon="4.76749">
        <ele>168</ele>
        <time>2018-01-10T10:41:32Z</time>
      </trkpt>
      <trkpt lat="45.93633" lon="4.76745">
        <ele>168</ele>
        <time>2018-01-10T10:41:33Z</time>
      </trkpt>
      <trkpt lat="45.9363" lon="4.7674">
        <ele>168</ele>
        <time>2018-01-10T10:41:34Z</time>
      </trkpt>
      <trkpt lat="45.93626" lon="4.76735">
        <ele>168</ele>
        <time>2018-01-10T10:41:35Z</time>
      </trkpt>
      <trkpt lat="45.9362" lon="4.76727">
        <ele>169</ele>
        <time>2018-01-10T10:41:37Z</time>
      </trkpt>
      <trkpt lat="45.93616" lon="4.76723">
        <ele>169</ele>
        <time>2018-01-10T10:41:38Z</time>
      </trkpt>
      <trkpt lat="45.93613" lon="4.76717">
        <ele>169</ele>
        <time>2018-01-10T10:41:39Z</time>
      </trkpt>
      <trkpt lat="45.93609" lon="4.76713">
        <ele>169</ele>
        <time>2018-01-10T10:41:40Z</time>
      </trkpt>
      <trkpt lat="45.93604" lon="4.76705">
        <ele>169</ele>
        <time>2018-01-10T10:41:42Z</time>
      </trkpt>
      <trkpt lat="45.93602" lon="4.767">
        <ele>169</ele>
        <time>2018-01-10T10:41:43Z</time>
      </trkpt>
      <trkpt lat="45.936" lon="4.76693">
        <ele>169</ele>
        <time>2018-01-10T10:41:45Z</time>
      </trkpt>
      <trkpt lat="45.93596" lon="4.7669">
        <ele>169</ele>
        <time>2018-01-10T10:41:46Z</time>
      </trkpt>
      <trkpt lat="45.93593" lon="4.76683">
        <ele>170</ele>
        <time>2018-01-10T10:41:47Z</time>
      </trkpt>
      <trkpt lat="45.9359" lon="4.76678">
        <ele>170</ele>
        <time>2018-01-10T10:41:48Z</time>
      </trkpt>
      <trkpt lat="45.93584" lon="4.7667">
        <ele>171</ele>
        <time>2018-01-10T10:41:50Z</time>
      </trkpt>
      <trkpt lat="45.93582" lon="4.76666">
        <ele>171</ele>
        <time>2018-01-10T10:41:51Z</time>
      </trkpt>
      <trkpt lat="45.93578" lon="4.76656">
        <ele>170</ele>
        <time>2018-01-10T10:41:53Z</time>
      </trkpt>
      <trkpt lat="45.93577" lon="4.76651">
        <ele>170</ele>
        <time>2018-01-10T10:41:54Z</time>
      </trkpt>
      <trkpt lat="45.93572" lon="4.76642">
        <ele>170</ele>
        <time>2018-01-10T10:41:56Z</time>
      </trkpt>
      <trkpt lat="45.9357" lon="4.76637">
        <ele>170</ele>
        <time>2018-01-10T10:41:57Z</time>
      </trkpt>
      <trkpt lat="45.93565" lon="4.76628">
        <ele>169</ele>
        <time>2018-01-10T10:41:59Z</time>
      </trkpt>
      <trkpt lat="45.93563" lon="4.76625">
        <ele>169</ele>
        <time>2018-01-10T10:42:00Z</time>
      </trkpt>
      <trkpt lat="45.9356" lon="4.76618">
        <ele>169</ele>
        <time>2018-01-10T10:42:02Z</time>
      </trkpt>
      <trkpt lat="45.93557" lon="4.76615">
        <ele>169</ele>
        <time>2018-01-10T10:42:03Z</time>
      </trkpt>
      <trkpt lat="45.9355" lon="4.76608">
        <ele>169</ele>
        <time>2018-01-10T10:42:05Z</time>
      </trkpt>
      <trkpt lat="45.93545" lon="4.76601">
        <ele>169</ele>
        <time>2018-01-10T10:42:06Z</time>
      </trkpt>
      <trkpt lat="45.93542" lon="4.76596">
        <ele>169</ele>
        <time>2018-01-10T10:42:07Z</time>
      </trkpt>
      <trkpt lat="45.93539" lon="4.76591">
        <ele>169</ele>
        <time>2018-01-10T10:42:08Z</time>
      </trkpt>
      <trkpt lat="45.93531" lon="4.76586">
        <ele>169</ele>
        <time>2018-01-10T10:42:11Z</time>
      </trkpt>
      <trkpt lat="45.93528" lon="4.76582">
        <ele>168</ele>
        <time>2018-01-10T10:42:12Z</time>
      </trkpt>
      <trkpt lat="45.93526" lon="4.76573">
        <ele>168</ele>
        <time>2018-01-10T10:42:14Z</time>
      </trkpt>
      <trkpt lat="45.93525" lon="4.76568">
        <ele>168</ele>
        <time>2018-01-10T10:42:15Z</time>
      </trkpt>
      <trkpt lat="45.9352" lon="4.76562">
        <ele>168</ele>
        <time>2018-01-10T10:42:17Z</time>
      </trkpt>
      <trkpt lat="45.93517" lon="4.7656">
        <ele>168</ele>
        <time>2018-01-10T10:42:18Z</time>
      </trkpt>
      <trkpt lat="45.93511" lon="4.76552">
        <ele>168</ele>
        <time>2018-01-10T10:42:20Z</time>
      </trkpt>
      <trkpt lat="45.93508" lon="4.76548">
        <ele>168</ele>
        <time>2018-01-10T10:42:21Z</time>
      </trkpt>
      <trkpt lat="45.93504" lon="4.7654">
        <ele>167</ele>
        <time>2018-01-10T10:42:22Z</time>
      </trkpt>
      <trkpt lat="45.93504" lon="4.76533">
        <ele>167</ele>
        <time>2018-01-10T10:42:23Z</time>
      </trkpt>
      <trkpt lat="45.935" lon="4.76522">
        <ele>167</ele>
        <time>2018-01-10T10:42:26Z</time>
      </trkpt>
      <trkpt lat="45.935" lon="4.76519">
        <ele>167</ele>
        <time>2018-01-10T10:42:27Z</time>
      </trkpt>
      <trkpt lat="45.93492" lon="4.7652">
        <ele>168</ele>
        <time>2018-01-10T10:42:28Z</time>
      </trkpt>
      <trkpt lat="45.93489" lon="4.76517">
        <ele>167</ele>
        <time>2018-01-10T10:42:29Z</time>
      </trkpt>
      <trkpt lat="45.93482" lon="4.76512">
        <ele>168</ele>
        <time>2018-01-10T10:42:32Z</time>
      </trkpt>
      <trkpt lat="45.93481" lon="4.7651">
        <ele>168</ele>
        <time>2018-01-10T10:42:33Z</time>
      </trkpt>
      <trkpt lat="45.93473" lon="4.76504">
        <ele>168</ele>
        <time>2018-01-10T10:42:36Z</time>
      </trkpt>
      <trkpt lat="45.93473" lon="4.76504">
        <ele>168</ele>
        <time>2018-01-10T10:42:37Z</time>
      </trkpt>
      <trkpt lat="45.93478" lon="4.7651">
        <ele>168</ele>
        <time>2018-01-10T10:42:57Z</time>
      </trkpt>
      <trkpt lat="45.9348" lon="4.76512">
        <ele>168</ele>
        <time>2018-01-10T10:42:58Z</time>
      </trkpt>
      <trkpt lat="45.93487" lon="4.7652">
        <ele>168</ele>
        <time>2018-01-10T10:43:01Z</time>
      </trkpt>
      <trkpt lat="45.93489" lon="4.76524">
        <ele>168</ele>
        <time>2018-01-10T10:43:02Z</time>
      </trkpt>
      <trkpt lat="45.93494" lon="4.76532">
        <ele>168</ele>
        <time>2018-01-10T10:43:04Z</time>
      </trkpt>
      <trkpt lat="45.93497" lon="4.76536">
        <ele>168</ele>
        <time>2018-01-10T10:43:05Z</time>
      </trkpt>
      <trkpt lat="45.93502" lon="4.76542">
        <ele>167</ele>
        <time>2018-01-10T10:43:07Z</time>
      </trkpt>
      <trkpt lat="45.93505" lon="4.76546">
        <ele>167</ele>
        <time>2018-01-10T10:43:08Z</time>
      </trkpt>
      <trkpt lat="45.93511" lon="4.76553">
        <ele>168</ele>
        <time>2018-01-10T10:43:10Z</time>
      </trkpt>
      <trkpt lat="45.93513" lon="4.76556">
        <ele>168</ele>
        <time>2018-01-10T10:43:11Z</time>
      </trkpt>
      <trkpt lat="45.93518" lon="4.76562">
        <ele>168</ele>
        <time>2018-01-10T10:43:13Z</time>
      </trkpt>
      <trkpt lat="45.93521" lon="4.76566">
        <ele>168</ele>
        <time>2018-01-10T10:43:14Z</time>
      </trkpt>
      <trkpt lat="45.93524" lon="4.7657">
        <ele>168</ele>
        <time>2018-01-10T10:43:15Z</time>
      </trkpt>
      <trkpt lat="45.93528" lon="4.76574">
        <ele>168</ele>
        <time>2018-01-10T10:43:16Z</time>
      </trkpt>
      <trkpt lat="45.93534" lon="4.76583">
        <ele>168</ele>
        <time>2018-01-10T10:43:18Z</time>
      </trkpt>
      <trkpt lat="45.93538" lon="4.76587">
        <ele>169</ele>
        <time>2018-01-10T10:43:19Z</time>
      </trkpt>
      <trkpt lat="45.93543" lon="4.76597">
        <ele>169</ele>
        <time>2018-01-10T10:43:21Z</time>
      </trkpt>
      <trkpt lat="45.93546" lon="4.76601">
        <ele>169</ele>
        <time>2018-01-10T10:43:22Z</time>
      </trkpt>
      <trkpt lat="45.93549" lon="4.76608">
        <ele>169</ele>
        <time>2018-01-10T10:43:23Z</time>
      </trkpt>
      <trkpt lat="45.93553" lon="4.76613">
        <ele>169</ele>
        <time>2018-01-10T10:43:24Z</time>
      </trkpt>
      <trkpt lat="45.93559" lon="4.7662">
        <ele>169</ele>
        <time>2018-01-10T10:43:26Z</time>
      </trkpt>
      <trkpt lat="45.93561" lon="4.76624">
        <ele>169</ele>
        <time>2018-01-10T10:43:27Z</time>
      </trkpt>
      <trkpt lat="45.93566" lon="4.76634">
        <ele>170</ele>
        <time>2018-01-10T10:43:29Z</time>
      </trkpt>
      <trkpt lat="45.93569" lon="4.7664">
        <ele>170</ele>
        <time>2018-01-10T10:43:30Z</time>
      </trkpt>
      <trkpt lat="45.93572" lon="4.76645">
        <ele>170</ele>
        <time>2018-01-10T10:43:31Z</time>
      </trkpt>
      <trkpt lat="45.93575" lon="4.76651">
        <ele>170</ele>
        <time>2018-01-10T10:43:32Z</time>
      </trkpt>
      <trkpt lat="45.93582" lon="4.76658">
        <ele>170</ele>
        <time>2018-01-10T10:43:34Z</time>
      </trkpt>
      <trkpt lat="45.93585" lon="4.76663">
        <ele>170</ele>
        <time>2018-01-10T10:43:35Z</time>
      </trkpt>
      <trkpt lat="45.93591" lon="4.76671">
        <ele>170</ele>
        <time>2018-01-10T10:43:37Z</time>
      </trkpt>
      <trkpt lat="45.93594" lon="4.76676">
        <ele>170</ele>
        <time>2018-01-10T10:43:38Z</time>
      </trkpt>
      <trkpt lat="45.93597" lon="4.76682">
        <ele>170</ele>
        <time>2018-01-10T10:43:39Z</time>
      </trkpt>
      <trkpt lat="45.93599" lon="4.76686">
        <ele>169</ele>
        <time>2018-01-10T10:43:40Z</time>
      </trkpt>
      <trkpt lat="45.93602" lon="4.76691">
        <ele>169</ele>
        <time>2018-01-10T10:43:41Z</time>
      </trkpt>
      <trkpt lat="45.93606" lon="4.76698">
        <ele>169</ele>
        <time>2018-01-10T10:43:42Z</time>
      </trkpt>
      <trkpt lat="45.93609" lon="4.76704">
        <ele>169</ele>
        <time>2018-01-10T10:43:43Z</time>
      </trkpt>
      <trkpt lat="45.93613" lon="4.76708">
        <ele>169</ele>
        <time>2018-01-10T10:43:44Z</time>
      </trkpt>
      <trkpt lat="45.93617" lon="4.76715">
        <ele>169</ele>
        <time>2018-01-10T10:43:45Z</time>
      </trkpt>
      <trkpt lat="45.9362" lon="4.76722">
        <ele>169</ele>
        <time>2018-01-10T10:43:46Z</time>
      </trkpt>
      <trkpt lat="45.93624" lon="4.76727">
        <ele>169</ele>
        <time>2018-01-10T10:43:47Z</time>
      </trkpt>
      <trkpt lat="45.93627" lon="4.76734">
        <ele>168</ele>
        <time>2018-01-10T10:43:48Z</time>
      </trkpt>
      <trkpt lat="45.93631" lon="4.7674">
        <ele>168</ele>
        <time>2018-01-10T10:43:49Z</time>
      </trkpt>
      <trkpt lat="45.93634" lon="4.76746">
        <ele>168</ele>
        <time>2018-01-10T10:43:50Z</time>
      </trkpt>
      <trkpt lat="45.93639" lon="4.76754">
        <ele>168</ele>
        <time>2018-01-10T10:43:52Z</time>
      </trkpt>
      <trkpt lat="45.93643" lon="4.76756">
        <ele>167</ele>
        <time>2018-01-10T10:43:53Z</time>
      </trkpt>
      <trkpt lat="45.93647" lon="4.76763">
        <ele>167</ele>
        <time>2018-01-10T10:43:55Z</time>
      </trkpt>
      <trkpt lat="45.9365" lon="4.76769">
        <ele>167</ele>
        <time>2018-01-10T10:43:56Z</time>
      </trkpt>
      <trkpt lat="45.93655" lon="4.76778">
        <ele>167</ele>
        <time>2018-01-10T10:43:58Z</time>
      </trkpt>
      <trkpt lat="45.93657" lon="4.76782">
        <ele>167</ele>
        <time>2018-01-10T10:43:59Z</time>
      </trkpt>
      <trkpt lat="45.93661" lon="4.76789">
        <ele>167</ele>
        <time>2018-01-10T10:44:01Z</time>
      </trkpt>
      <trkpt lat="45.93663" lon="4.76793">
        <ele>167</ele>
        <time>2018-01-10T10:44:02Z</time>
      </trkpt>
      <trkpt lat="45.93666" lon="4.768">
        <ele>167</ele>
        <time>2018-01-10T10:44:04Z</time>
      </trkpt>
      <trkpt lat="45.93668" lon="4.76804">
        <ele>166</ele>
        <time>2018-01-10T10:44:05Z</time>
      </trkpt>
      <trkpt lat="45.93671" lon="4.7681">
        <ele>166</ele>
        <time>2018-01-10T10:44:06Z</time>
      </trkpt>
      <trkpt lat="45.93674" lon="4.76815">
        <ele>166</ele>
        <time>2018-01-10T10:44:07Z</time>
      </trkpt>
      <trkpt lat="45.93679" lon="4.76825">
        <ele>166</ele>
        <time>2018-01-10T10:44:08Z</time>
      </trkpt>
      <trkpt lat="45.93683" lon="4.76831">
        <ele>166</ele>
        <time>2018-01-10T10:44:09Z</time>
      </trkpt>
      <trkpt lat="45.93688" lon="4.7684">
        <ele>167</ele>
        <time>2018-01-10T10:44:11Z</time>
      </trkpt>
      <trkpt lat="45.93691" lon="4.76843">
        <ele>167</ele>
        <time>2018-01-10T10:44:12Z</time>
      </trkpt>
      <trkpt lat="45.93695" lon="4.76852">
        <ele>167</ele>
        <time>2018-01-10T10:44:14Z</time>
      </trkpt>
      <trkpt lat="45.93698" lon="4.76858">
        <ele>167</ele>
        <time>2018-01-10T10:44:15Z</time>
      </trkpt>
      <trkpt lat="45.93702" lon="4.76866">
        <ele>167</ele>
        <time>2018-01-10T10:44:17Z</time>
      </trkpt>
      <trkpt lat="45.93704" lon="4.7687">
        <ele>167</ele>
        <time>2018-01-10T10:44:18Z</time>
      </trkpt>
      <trkpt lat="45.93708" lon="4.7688">
        <ele>167</ele>
        <time>2018-01-10T10:44:21Z</time>
      </trkpt>
      <trkpt lat="45.9371" lon="4.76884">
        <ele>167</ele>
        <time>2018-01-10T10:44:22Z</time>
      </trkpt>
      <trkpt lat="45.93714" lon="4.76893">
        <ele>168</ele>
        <time>2018-01-10T10:44:24Z</time>
      </trkpt>
      <trkpt lat="45.93717" lon="4.76897">
        <ele>168</ele>
        <time>2018-01-10T10:44:25Z</time>
      </trkpt>
      <trkpt lat="45.93721" lon="4.76905">
        <ele>168</ele>
        <time>2018-01-10T10:44:27Z</time>
      </trkpt>
      <trkpt lat="45.93724" lon="4.76909">
        <ele>168</ele>
        <time>2018-01-10T10:44:28Z</time>
      </trkpt>
      <trkpt lat="45.93729" lon="4.76919">
        <ele>169</ele>
        <time>2018-01-10T10:44:30Z</time>
      </trkpt>
      <trkpt lat="45.93731" lon="4.76923">
        <ele>169</ele>
        <time>2018-01-10T10:44:31Z</time>
      </trkpt>
      <trkpt lat="45.93733" lon="4.76929">
        <ele>169</ele>
        <time>2018-01-10T10:44:32Z</time>
      </trkpt>
      <trkpt lat="45.93736" lon="4.76935">
        <ele>169</ele>
        <time>2018-01-10T10:44:33Z</time>
      </trkpt>
      <trkpt lat="45.9374" lon="4.76944">
        <ele>169</ele>
        <time>2018-01-10T10:44:35Z</time>
      </trkpt>
      <trkpt lat="45.93743" lon="4.76949">
        <ele>169</ele>
        <time>2018-01-10T10:44:36Z</time>
      </trkpt>
      <trkpt lat="45.93748" lon="4.76958">
        <ele>169</ele>
        <time>2018-01-10T10:44:38Z</time>
      </trkpt>
      <trkpt lat="45.9375" lon="4.76962">
        <ele>169</ele>
        <time>2018-01-10T10:44:39Z</time>
      </trkpt>
      <trkpt lat="45.93753" lon="4.7697">
        <ele>168</ele>
        <time>2018-01-10T10:44:41Z</time>
      </trkpt>
      <trkpt lat="45.93754" lon="4.76975">
        <ele>168</ele>
        <time>2018-01-10T10:44:42Z</time>
      </trkpt>
      <trkpt lat="45.93757" lon="4.76984">
        <ele>168</ele>
        <time>2018-01-10T10:44:44Z</time>
      </trkpt>
      <trkpt lat="45.93759" lon="4.76988">
        <ele>168</ele>
        <time>2018-01-10T10:44:45Z</time>
      </trkpt>
      <trkpt lat="45.93764" lon="4.76997">
        <ele>168</ele>
        <time>2018-01-10T10:44:47Z</time>
      </trkpt>
      <trkpt lat="45.93766" lon="4.77002">
        <ele>169</ele>
        <time>2018-01-10T10:44:48Z</time>
      </trkpt>
      <trkpt lat="45.93771" lon="4.77012">
        <ele>169</ele>
        <time>2018-01-10T10:44:50Z</time>
      </trkpt>
      <trkpt lat="45.93773" lon="4.77017">
        <ele>169</ele>
        <time>2018-01-10T10:44:51Z</time>
      </trkpt>
      <trkpt lat="45.93775" lon="4.77022">
        <ele>168</ele>
        <time>2018-01-10T10:44:52Z</time>
      </trkpt>
      <trkpt lat="45.93778" lon="4.77029">
        <ele>168</ele>
        <time>2018-01-10T10:44:53Z</time>
      </trkpt>
      <trkpt lat="45.9378" lon="4.77035">
        <ele>168</ele>
        <time>2018-01-10T10:44:54Z</time>
      </trkpt>
      <trkpt lat="45.93783" lon="4.77041">
        <ele>168</ele>
        <time>2018-01-10T10:44:55Z</time>
      </trkpt>
      <trkpt lat="45.93785" lon="4.77045">
        <ele>168</ele>
        <time>2018-01-10T10:44:56Z</time>
      </trkpt>
      <trkpt lat="45.93788" lon="4.77052">
        <ele>168</ele>
        <time>2018-01-10T10:44:57Z</time>
      </trkpt>
      <trkpt lat="45.93791" lon="4.77058">
        <ele>168</ele>
        <time>2018-01-10T10:44:58Z</time>
      </trkpt>
      <trkpt lat="45.93793" lon="4.77065">
        <ele>168</ele>
        <time>2018-01-10T10:44:59Z</time>
      </trkpt>
      <trkpt lat="45.93796" lon="4.77075">
        <ele>168</ele>
        <time>2018-01-10T10:45:01Z</time>
      </trkpt>
      <trkpt lat="45.93798" lon="4.77079">
        <ele>168</ele>
        <time>2018-01-10T10:45:02Z</time>
      </trkpt>
      <trkpt lat="45.93799" lon="4.77084">
        <ele>169</ele>
        <time>2018-01-10T10:45:03Z</time>
      </trkpt>
      <trkpt lat="45.93801" lon="4.77092">
        <ele>169</ele>
        <time>2018-01-10T10:45:04Z</time>
      </trkpt>
      <trkpt lat="45.93802" lon="4.77102">
        <ele>169</ele>
        <time>2018-01-10T10:45:06Z</time>
      </trkpt>
      <trkpt lat="45.93804" lon="4.77104">
        <ele>168</ele>
        <time>2018-01-10T10:45:07Z</time>
      </trkpt>
      <trkpt lat="45.93808" lon="4.77116">
        <ele>168</ele>
        <time>2018-01-10T10:45:10Z</time>
      </trkpt>
      <trkpt lat="45.93809" lon="4.77121">
        <ele>168</ele>
        <time>2018-01-10T10:45:11Z</time>
      </trkpt>
      <trkpt lat="45.9381" lon="4.77133">
        <ele>168</ele>
        <time>2018-01-10T10:45:13Z</time>
      </trkpt>
      <trkpt lat="45.93811" lon="4.77139">
        <ele>168</ele>
        <time>2018-01-10T10:45:14Z</time>
      </trkpt>
      <trkpt lat="45.93811" lon="4.77145">
        <ele>168</ele>
        <time>2018-01-10T10:45:15Z</time>
      </trkpt>
      <trkpt lat="45.9381" lon="4.77153">
        <ele>168</ele>
        <time>2018-01-10T10:45:16Z</time>
      </trkpt>
      <trkpt lat="45.9381" lon="4.77163">
        <ele>168</ele>
        <time>2018-01-10T10:45:18Z</time>
      </trkpt>
      <trkpt lat="45.9381" lon="4.77168">
        <ele>169</ele>
        <time>2018-01-10T10:45:19Z</time>
      </trkpt>
      <trkpt lat="45.93806" lon="4.77176">
        <ele>169</ele>
        <time>2018-01-10T10:45:22Z</time>
      </trkpt>
      <trkpt lat="45.93804" lon="4.77182">
        <ele>169</ele>
        <time>2018-01-10T10:45:23Z</time>
      </trkpt>
      <trkpt lat="45.93797" lon="4.77178">
        <ele>169</ele>
        <time>2018-01-10T10:45:26Z</time>
      </trkpt>
      <trkpt lat="45.93793" lon="4.77176">
        <ele>170</ele>
        <time>2018-01-10T10:45:27Z</time>
      </trkpt>
      <trkpt lat="45.93786" lon="4.77176">
        <ele>170</ele>
        <time>2018-01-10T10:45:28Z</time>
      </trkpt>
      <trkpt lat="45.93782" lon="4.77171">
        <ele>170</ele>
        <time>2018-01-10T10:45:29Z</time>
      </trkpt>
      <trkpt lat="45.93776" lon="4.77164">
        <ele>170</ele>
        <time>2018-01-10T10:45:31Z</time>
      </trkpt>
      <trkpt lat="45.93773" lon="4.7716">
        <ele>170</ele>
        <time>2018-01-10T10:45:32Z</time>
      </trkpt>
      <trkpt lat="45.93766" lon="4.77153">
        <ele>170</ele>
        <time>2018-01-10T10:45:35Z</time>
      </trkpt>
      <trkpt lat="45.93762" lon="4.77152">
        <ele>170</ele>
        <time>2018-01-10T10:45:36Z</time>
      </trkpt>
      <trkpt lat="45.93754" lon="4.77146">
        <ele>170</ele>
        <time>2018-01-10T10:45:38Z</time>
      </trkpt>
      <trkpt lat="45.9375" lon="4.77142">
        <ele>172</ele>
        <time>2018-01-10T10:45:39Z</time>
      </trkpt>
      <trkpt lat="45.93746" lon="4.77137">
        <ele>172</ele>
        <time>2018-01-10T10:45:40Z</time>
      </trkpt>
      <trkpt lat="45.93741" lon="4.77133">
        <ele>172</ele>
        <time>2018-01-10T10:45:41Z</time>
      </trkpt>
      <trkpt lat="45.93735" lon="4.77128">
        <ele>171</ele>
        <time>2018-01-10T10:45:42Z</time>
      </trkpt>
      <trkpt lat="45.93731" lon="4.77123">
        <ele>171</ele>
        <time>2018-01-10T10:45:43Z</time>
      </trkpt>
      <trkpt lat="45.93724" lon="4.77116">
        <ele>171</ele>
        <time>2018-01-10T10:45:45Z</time>
      </trkpt>
      <trkpt lat="45.9372" lon="4.77114">
        <ele>171</ele>
        <time>2018-01-10T10:45:46Z</time>
      </trkpt>
      <trkpt lat="45.93714" lon="4.77111">
        <ele>171</ele>
        <time>2018-01-10T10:45:47Z</time>
      </trkpt>
      <trkpt lat="45.93711" lon="4.77108">
        <ele>171</ele>
        <time>2018-01-10T10:45:48Z</time>
      </trkpt>
      <trkpt lat="45.93708" lon="4.77103">
        <ele>171</ele>
        <time>2018-01-10T10:45:49Z</time>
      </trkpt>
      <trkpt lat="45.93704" lon="4.77098">
        <ele>171</ele>
        <time>2018-01-10T10:45:50Z</time>
      </trkpt>
      <trkpt lat="45.93699" lon="4.77095">
        <ele>171</ele>
        <time>2018-01-10T10:45:51Z</time>
      </trkpt>
      <trkpt lat="45.93694" lon="4.77091">
        <ele>171</ele>
        <time>2018-01-10T10:45:52Z</time>
      </trkpt>
      <trkpt lat="45.9369" lon="4.77087">
        <ele>171</ele>
        <time>2018-01-10T10:45:53Z</time>
      </trkpt>
      <trkpt lat="45.93686" lon="4.77083">
        <ele>170</ele>
        <time>2018-01-10T10:45:54Z</time>
      </trkpt>
      <trkpt lat="45.93682" lon="4.77078">
        <ele>170</ele>
        <time>2018-01-10T10:45:55Z</time>
      </trkpt>
      <trkpt lat="45.93677" lon="4.77074">
        <ele>170</ele>
        <time>2018-01-10T10:45:56Z</time>
      </trkpt>
      <trkpt lat="45.93673" lon="4.77068">
        <ele>170</ele>
        <time>2018-01-10T10:45:57Z</time>
      </trkpt>
      <trkpt lat="45.93668" lon="4.77063">
        <ele>170</ele>
        <time>2018-01-10T10:45:58Z</time>
      </trkpt>
      <trkpt lat="45.93664" lon="4.77059">
        <ele>170</ele>
        <time>2018-01-10T10:45:59Z</time>
      </trkpt>
      <trkpt lat="45.93659" lon="4.77056">
        <ele>170</ele>
        <time>2018-01-10T10:46:00Z</time>
      </trkpt>
      <trkpt lat="45.93655" lon="4.77051">
        <ele>169</ele>
        <time>2018-01-10T10:46:01Z</time>
      </trkpt>
      <trkpt lat="45.93651" lon="4.77048">
        <ele>169</ele>
        <time>2018-01-10T10:46:02Z</time>
      </trkpt>
      <trkpt lat="45.93644" lon="4.77041">
        <ele>169</ele>
        <time>2018-01-10T10:46:04Z</time>
      </trkpt>
      <trkpt lat="45.9364" lon="4.77037">
        <ele>169</ele>
        <time>2018-01-10T10:46:05Z</time>
      </trkpt>
      <trkpt lat="45.93633" lon="4.77031">
        <ele>169</ele>
        <time>2018-01-10T10:46:07Z</time>
      </trkpt>
      <trkpt lat="45.93629" lon="4.77027">
        <ele>169</ele>
        <time>2018-01-10T10:46:08Z</time>
      </trkpt>
      <trkpt lat="45.93622" lon="4.7702">
        <ele>170</ele>
        <time>2018-01-10T10:46:10Z</time>
      </trkpt>
      <trkpt lat="45.93619" lon="4.77015">
        <ele>170</ele>
        <time>2018-01-10T10:46:11Z</time>
      </trkpt>
      <trkpt lat="45.93615" lon="4.77012">
        <ele>170</ele>
        <time>2018-01-10T10:46:12Z</time>
      </trkpt>
      <trkpt lat="45.93611" lon="4.77008">
        <ele>170</ele>
        <time>2018-01-10T10:46:13Z</time>
      </trkpt>
      <trkpt lat="45.93604" lon="4.77001">
        <ele>170</ele>
        <time>2018-01-10T10:46:15Z</time>
      </trkpt>
      <trkpt lat="45.936" lon="4.76997">
        <ele>170</ele>
        <time>2018-01-10T10:46:16Z</time>
      </trkpt>
      <trkpt lat="45.93596" lon="4.76993">
        <ele>170</ele>
        <time>2018-01-10T10:46:17Z</time>
      </trkpt>
      <trkpt lat="45.93592" lon="4.76989">
        <ele>170</ele>
        <time>2018-01-10T10:46:18Z</time>
      </trkpt>
      <trkpt lat="45.93589" lon="4.76985">
        <ele>170</ele>
        <time>2018-01-10T10:46:19Z</time>
      </trkpt>
      <trkpt lat="45.93584" lon="4.7698">
        <ele>170</ele>
        <time>2018-01-10T10:46:20Z</time>
      </trkpt>
      <trkpt lat="45.9358" lon="4.76975">
        <ele>170</ele>
        <time>2018-01-10T10:46:21Z</time>
      </trkpt>
      <trkpt lat="45.93574" lon="4.76972">
        <ele>170</ele>
        <time>2018-01-10T10:46:22Z</time>
      </trkpt>
      <trkpt lat="45.93569" lon="4.76968">
        <ele>170</ele>
        <time>2018-01-10T10:46:23Z</time>
      </trkpt>
      <trkpt lat="45.93564" lon="4.76964">
        <ele>170</ele>
        <time>2018-01-10T10:46:24Z</time>
      </trkpt>
      <trkpt lat="45.93559" lon="4.7696">
        <ele>170</ele>
        <time>2018-01-10T10:46:25Z</time>
      </trkpt>
      <trkpt lat="45.93554" lon="4.76956">
        <ele>170</ele>
        <time>2018-01-10T10:46:26Z</time>
      </trkpt>
      <trkpt lat="45.93549" lon="4.76953">
        <ele>170</ele>
        <time>2018-01-10T10:46:27Z</time>
      </trkpt>
      <trkpt lat="45.93545" lon="4.76948">
        <ele>170</ele>
        <time>2018-01-10T10:46:28Z</time>
      </trkpt>
      <trkpt lat="45.93542" lon="4.76943">
        <ele>170</ele>
        <time>2018-01-10T10:46:29Z</time>
      </trkpt>
      <trkpt lat="45.93537" lon="4.76938">
        <ele>170</ele>
        <time>2018-01-10T10:46:30Z</time>
      </trkpt>
      <trkpt lat="45.93532" lon="4.76935">
        <ele>170</ele>
        <time>2018-01-10T10:46:31Z</time>
      </trkpt>
      <trkpt lat="45.93527" lon="4.7693">
        <ele>170</ele>
        <time>2018-01-10T10:46:32Z</time>
      </trkpt>
      <trkpt lat="45.93521" lon="4.76926">
        <ele>170</ele>
        <time>2018-01-10T10:46:33Z</time>
      </trkpt>
      <trkpt lat="45.93516" lon="4.7692">
        <ele>169</ele>
        <time>2018-01-10T10:46:34Z</time>
      </trkpt>
      <trkpt lat="45.93511" lon="4.76916">
        <ele>169</ele>
        <time>2018-01-10T10:46:35Z</time>
      </trkpt>
      <trkpt lat="45.93507" lon="4.76911">
        <ele>169</ele>
        <time>2018-01-10T10:46:36Z</time>
      </trkpt>
      <trkpt lat="45.93501" lon="4.76906">
        <ele>169</ele>
        <time>2018-01-10T10:46:37Z</time>
      </trkpt>
      <trkpt lat="45.93496" lon="4.76902">
        <ele>170</ele>
        <time>2018-01-10T10:46:38Z</time>
      </trkpt>
      <trkpt lat="45.93492" lon="4.76898">
        <ele>170</ele>
        <time>2018-01-10T10:46:39Z</time>
      </trkpt>
      <trkpt lat="45.93488" lon="4.76894">
        <ele>170</ele>
        <time>2018-01-10T10:46:40Z</time>
      </trkpt>
      <trkpt lat="45.93484" lon="4.7689">
        <ele>170</ele>
        <time>2018-01-10T10:46:41Z</time>
      </trkpt>
      <trkpt lat="45.93481" lon="4.76885">
        <ele>170</ele>
        <time>2018-01-10T10:46:42Z</time>
      </trkpt>
      <trkpt lat="45.93477" lon="4.76876">
        <ele>170</ele>
        <time>2018-01-10T10:46:44Z</time>
      </trkpt>
      <trkpt lat="45.93474" lon="4.76874">
        <ele>170</ele>
        <time>2018-01-10T10:46:45Z</time>
      </trkpt>
      <trkpt lat="45.93471" lon="4.76871">
        <ele>170</ele>
        <time>2018-01-10T10:46:46Z</time>
      </trkpt>
      <trkpt lat="45.93466" lon="4.76869">
        <ele>170</ele>
        <time>2018-01-10T10:46:47Z</time>
      </trkpt>
      <trkpt lat="45.93458" lon="4.76862">
        <ele>170</ele>
        <time>2018-01-10T10:46:49Z</time>
      </trkpt>
      <trkpt lat="45.93453" lon="4.7686">
        <ele>170</ele>
        <time>2018-01-10T10:46:50Z</time>
      </trkpt>
      <trkpt lat="45.93449" lon="4.76858">
        <ele>170</ele>
        <time>2018-01-10T10:46:51Z</time>
      </trkpt>
      <trkpt lat="45.93444" lon="4.76857">
        <ele>171</ele>
        <time>2018-01-10T10:46:52Z</time>
      </trkpt>
      <trkpt lat="45.93436" lon="4.76854">
        <ele>171</ele>
        <time>2018-01-10T10:46:54Z</time>
      </trkpt>
      <trkpt lat="45.93434" lon="4.76852">
        <ele>171</ele>
        <time>2018-01-10T10:46:55Z</time>
      </trkpt>
      <trkpt lat="45.93429" lon="4.76847">
        <ele>171</ele>
        <time>2018-01-10T10:46:57Z</time>
      </trkpt>
      <trkpt lat="45.93426" lon="4.76844">
        <ele>171</ele>
        <time>2018-01-10T10:46:58Z</time>
      </trkpt>
      <trkpt lat="45.9342" lon="4.76838">
        <ele>172</ele>
        <time>2018-01-10T10:47:00Z</time>
      </trkpt>
      <trkpt lat="45.93418" lon="4.76835">
        <ele>172</ele>
        <time>2018-01-10T10:47:01Z</time>
      </trkpt>
      <trkpt lat="45.93414" lon="4.76829">
        <ele>172</ele>
        <time>2018-01-10T10:47:03Z</time>
      </trkpt>
      <trkpt lat="45.93411" lon="4.76825">
        <ele>172</ele>
        <time>2018-01-10T10:47:04Z</time>
      </trkpt>
      <trkpt lat="45.93406" lon="4.76816">
        <ele>172</ele>
        <time>2018-01-10T10:47:06Z</time>
      </trkpt>
      <trkpt lat="45.93403" lon="4.76811">
        <ele>172</ele>
        <time>2018-01-10T10:47:07Z</time>
      </trkpt>
      <trkpt lat="45.934" lon="4.76807">
        <ele>172</ele>
        <time>2018-01-10T10:47:08Z</time>
      </trkpt>
      <trkpt lat="45.93397" lon="4.76801">
        <ele>172</ele>
        <time>2018-01-10T10:47:09Z</time>
      </trkpt>
      <trkpt lat="45.93393" lon="4.76797">
        <ele>172</ele>
        <time>2018-01-10T10:47:10Z</time>
      </trkpt>
      <trkpt lat="45.93389" lon="4.76792">
        <ele>172</ele>
        <time>2018-01-10T10:47:11Z</time>
      </trkpt>
      <trkpt lat="45.93385" lon="4.76788">
        <ele>172</ele>
        <time>2018-01-10T10:47:12Z</time>
      </trkpt>
      <trkpt lat="45.9338" lon="4.76783">
        <ele>172</ele>
        <time>2018-01-10T10:47:13Z</time>
      </trkpt>
      <trkpt lat="45.93376" lon="4.76778">
        <ele>172</ele>
        <time>2018-01-10T10:47:14Z</time>
      </trkpt>
      <trkpt lat="45.93371" lon="4.76774">
        <ele>172</ele>
        <time>2018-01-10T10:47:15Z</time>
      </trkpt>
      <trkpt lat="45.93367" lon="4.76771">
        <ele>172</ele>
        <time>2018-01-10T10:47:16Z</time>
      </trkpt>
      <trkpt lat="45.93364" lon="4.76767">
        <ele>172</ele>
        <time>2018-01-10T10:47:17Z</time>
      </trkpt>
      <trkpt lat="45.9336" lon="4.76763">
        <ele>172</ele>
        <time>2018-01-10T10:47:18Z</time>
      </trkpt>
      <trkpt lat="45.93357" lon="4.76757">
        <ele>172</ele>
        <time>2018-01-10T10:47:19Z</time>
      </trkpt>
      <trkpt lat="45.93349" lon="4.7675">
        <ele>173</ele>
        <time>2018-01-10T10:47:21Z</time>
      </trkpt>
      <trkpt lat="45.93345" lon="4.76746">
        <ele>172</ele>
        <time>2018-01-10T10:47:22Z</time>
      </trkpt>
      <trkpt lat="45.93341" lon="4.76743">
        <ele>173</ele>
        <time>2018-01-10T10:47:23Z</time>
      </trkpt>
      <trkpt lat="45.93337" lon="4.76739">
        <ele>172</ele>
        <time>2018-01-10T10:47:24Z</time>
      </trkpt>
      <trkpt lat="45.93333" lon="4.76735">
        <ele>172</ele>
        <time>2018-01-10T10:47:25Z</time>
      </trkpt>
      <trkpt lat="45.93329" lon="4.76731">
        <ele>172</ele>
        <time>2018-01-10T10:47:26Z</time>
      </trkpt>
      <trkpt lat="45.93325" lon="4.76726">
        <ele>172</ele>
        <time>2018-01-10T10:47:27Z</time>
      </trkpt>
      <trkpt lat="45.93321" lon="4.76722">
        <ele>172</ele>
        <time>2018-01-10T10:47:28Z</time>
      </trkpt>
      <trkpt lat="45.93317" lon="4.76718">
        <ele>172</ele>
        <time>2018-01-10T10:47:29Z</time>
      </trkpt>
      <trkpt lat="45.93313" lon="4.76715">
        <ele>172</ele>
        <time>2018-01-10T10:47:30Z</time>
      </trkpt>
      <trkpt lat="45.93309" lon="4.76711">
        <ele>172</ele>
        <time>2018-01-10T10:47:31Z</time>
      </trkpt>
      <trkpt lat="45.93305" lon="4.76707">
        <ele>172</ele>
        <time>2018-01-10T10:47:32Z</time>
      </trkpt>
      <trkpt lat="45.93301" lon="4.76703">
        <ele>172</ele>
        <time>2018-01-10T10:47:33Z</time>
      </trkpt>
      <trkpt lat="45.93296" lon="4.767">
        <ele>172</ele>
        <time>2018-01-10T10:47:34Z</time>
      </trkpt>
      <trkpt lat="45.93292" lon="4.76696">
        <ele>172</ele>
        <time>2018-01-10T10:47:35Z</time>
      </trkpt>
      <trkpt lat="45.93289" lon="4.76691">
        <ele>172</ele>
        <time>2018-01-10T10:47:36Z</time>
      </trkpt>
      <trkpt lat="45.93285" lon="4.76686">
        <ele>172</ele>
        <time>2018-01-10T10:47:37Z</time>
      </trkpt>
      <trkpt lat="45.9328" lon="4.7668">
        <ele>172</ele>
        <time>2018-01-10T10:47:38Z</time>
      </trkpt>
      <trkpt lat="45.93275" lon="4.76676">
        <ele>172</ele>
        <time>2018-01-10T10:47:39Z</time>
      </trkpt>
      <trkpt lat="45.9327" lon="4.76671">
        <ele>172</ele>
        <time>2018-01-10T10:47:40Z</time>
      </trkpt>
      <trkpt lat="45.93266" lon="4.76665">
        <ele>171</ele>
        <time>2018-01-10T10:47:41Z</time>
      </trkpt>
      <trkpt lat="45.93262" lon="4.7666">
        <ele>171</ele>
        <time>2018-01-10T10:47:42Z</time>
      </trkpt>
      <trkpt lat="45.93258" lon="4.76656">
        <ele>171</ele>
        <time>2018-01-10T10:47:43Z</time>
      </trkpt>
      <trkpt lat="45.93253" lon="4.76653">
        <ele>171</ele>
        <time>2018-01-10T10:47:44Z</time>
      </trkpt>
      <trkpt lat="45.9325" lon="4.76647">
        <ele>171</ele>
        <time>2018-01-10T10:47:45Z</time>
      </trkpt>
      <trkpt lat="45.93246" lon="4.76644">
        <ele>171</ele>
        <time>2018-01-10T10:47:46Z</time>
      </trkpt>
      <trkpt lat="45.93241" lon="4.7664">
        <ele>171</ele>
        <time>2018-01-10T10:47:47Z</time>
      </trkpt>
      <trkpt lat="45.93238" lon="4.76633">
        <ele>170</ele>
        <time>2018-01-10T10:47:48Z</time>
      </trkpt>
      <trkpt lat="45.93234" lon="4.76627">
        <ele>170</ele>
        <time>2018-01-10T10:47:49Z</time>
      </trkpt>
      <trkpt lat="45.93229" lon="4.76622">
        <ele>170</ele>
        <time>2018-01-10T10:47:50Z</time>
      </trkpt>
      <trkpt lat="45.93224" lon="4.76617">
        <ele>170</ele>
        <time>2018-01-10T10:47:51Z</time>
      </trkpt>
      <trkpt lat="45.93219" lon="4.76614">
        <ele>170</ele>
        <time>2018-01-10T10:47:52Z</time>
      </trkpt>
      <trkpt lat="45.93213" lon="4.7661">
        <ele>170</ele>
        <time>2018-01-10T10:47:53Z</time>
      </trkpt>
      <trkpt lat="45.93209" lon="4.76607">
        <ele>170</ele>
        <time>2018-01-10T10:47:54Z</time>
      </trkpt>
      <trkpt lat="45.93205" lon="4.76602">
        <ele>170</ele>
        <time>2018-01-10T10:47:55Z</time>
      </trkpt>
      <trkpt lat="45.932" lon="4.76599">
        <ele>170</ele>
        <time>2018-01-10T10:47:56Z</time>
      </trkpt>
      <trkpt lat="45.93194" lon="4.76596">
        <ele>170</ele>
        <time>2018-01-10T10:47:57Z</time>
      </trkpt>
      <trkpt lat="45.9319" lon="4.76593">
        <ele>170</ele>
        <time>2018-01-10T10:47:58Z</time>
      </trkpt>
      <trkpt lat="45.93186" lon="4.76588">
        <ele>171</ele>
        <time>2018-01-10T10:47:59Z</time>
      </trkpt>
      <trkpt lat="45.93182" lon="4.76583">
        <ele>170</ele>
        <time>2018-01-10T10:48:00Z</time>
      </trkpt>
      <trkpt lat="45.93178" lon="4.76578">
        <ele>170</ele>
        <time>2018-01-10T10:48:01Z</time>
      </trkpt>
      <trkpt lat="45.93173" lon="4.76574">
        <ele>170</ele>
        <time>2018-01-10T10:48:02Z</time>
      </trkpt>
      <trkpt lat="45.93169" lon="4.7657">
        <ele>170</ele>
        <time>2018-01-10T10:48:03Z</time>
      </trkpt>
      <trkpt lat="45.93161" lon="4.76568">
        <ele>170</ele>
        <time>2018-01-10T10:48:04Z</time>
      </trkpt>
      <trkpt lat="45.93156" lon="4.76564">
        <ele>170</ele>
        <time>2018-01-10T10:48:05Z</time>
      </trkpt>
      <trkpt lat="45.93153" lon="4.76557">
        <ele>170</ele>
        <time>2018-01-10T10:48:06Z</time>
      </trkpt>
      <trkpt lat="45.93149" lon="4.76552">
        <ele>170</ele>
        <time>2018-01-10T10:48:07Z</time>
      </trkpt>
      <trkpt lat="45.93145" lon="4.76547">
        <ele>170</ele>
        <time>2018-01-10T10:48:08Z</time>
      </trkpt>
      <trkpt lat="45.93139" lon="4.76545">
        <ele>170</ele>
        <time>2018-01-10T10:48:09Z</time>
      </trkpt>
      <trkpt lat="45.93135" lon="4.76541">
        <ele>170</ele>
        <time>2018-01-10T10:48:10Z</time>
      </trkpt>
      <trkpt lat="45.93132" lon="4.76536">
        <ele>170</ele>
        <time>2018-01-10T10:48:11Z</time>
      </trkpt>
      <trkpt lat="45.9313" lon="4.76529">
        <ele>170</ele>
        <time>2018-01-10T10:48:12Z</time>
      </trkpt>
      <trkpt lat="45.93125" lon="4.76525">
        <ele>170</ele>
        <time>2018-01-10T10:48:13Z</time>
      </trkpt>
      <trkpt lat="45.93119" lon="4.7652">
        <ele>170</ele>
        <time>2018-01-10T10:48:14Z</time>
      </trkpt>
      <trkpt lat="45.93114" lon="4.76514">
        <ele>170</ele>
        <time>2018-01-10T10:48:15Z</time>
      </trkpt>
      <trkpt lat="45.93109" lon="4.76508">
        <ele>170</ele>
        <time>2018-01-10T10:48:16Z</time>
      </trkpt>
      <trkpt lat="45.93105" lon="4.76502">
        <ele>170</ele>
        <time>2018-01-10T10:48:17Z</time>
      </trkpt>
      <trkpt lat="45.931" lon="4.76498">
        <ele>170</ele>
        <time>2018-01-10T10:48:18Z</time>
      </trkpt>
      <trkpt lat="45.93094" lon="4.76489">
        <ele>170</ele>
        <time>2018-01-10T10:48:20Z</time>
      </trkpt>
      <trkpt lat="45.9309" lon="4.76484">
        <ele>170</ele>
        <time>2018-01-10T10:48:21Z</time>
      </trkpt>
      <trkpt lat="45.93085" lon="4.7648">
        <ele>169</ele>
        <time>2018-01-10T10:48:22Z</time>
      </trkpt>
      <trkpt lat="45.9308" lon="4.76477">
        <ele>169</ele>
        <time>2018-01-10T10:48:23Z</time>
      </trkpt>
      <trkpt lat="45.93076" lon="4.76472">
        <ele>169</ele>
        <time>2018-01-10T10:48:24Z</time>
      </trkpt>
      <trkpt lat="45.93072" lon="4.76467">
        <ele>169</ele>
        <time>2018-01-10T10:48:25Z</time>
      </trkpt>
      <trkpt lat="45.93067" lon="4.76462">
        <ele>169</ele>
        <time>2018-01-10T10:48:26Z</time>
      </trkpt>
      <trkpt lat="45.93062" lon="4.76458">
        <ele>169</ele>
        <time>2018-01-10T10:48:27Z</time>
      </trkpt>
      <trkpt lat="45.93056" lon="4.76453">
        <ele>169</ele>
        <time>2018-01-10T10:48:28Z</time>
      </trkpt>
      <trkpt lat="45.93051" lon="4.76449">
        <ele>169</ele>
        <time>2018-01-10T10:48:29Z</time>
      </trkpt>
      <trkpt lat="45.93046" lon="4.76444">
        <ele>169</ele>
        <time>2018-01-10T10:48:30Z</time>
      </trkpt>
      <trkpt lat="45.93041" lon="4.7644">
        <ele>169</ele>
        <time>2018-01-10T10:48:31Z</time>
      </trkpt>
      <trkpt lat="45.93037" lon="4.76436">
        <ele>169</ele>
        <time>2018-01-10T10:48:32Z</time>
      </trkpt>
      <trkpt lat="45.93032" lon="4.76432">
        <ele>169</ele>
        <time>2018-01-10T10:48:33Z</time>
      </trkpt>
      <trkpt lat="45.93028" lon="4.76428">
        <ele>169</ele>
        <time>2018-01-10T10:48:34Z</time>
      </trkpt>
      <trkpt lat="45.93024" lon="4.76425">
        <ele>169</ele>
        <time>2018-01-10T10:48:35Z</time>
      </trkpt>
      <trkpt lat="45.93016" lon="4.76418">
        <ele>169</ele>
        <time>2018-01-10T10:48:37Z</time>
      </trkpt>
      <trkpt lat="45.93012" lon="4.76415">
        <ele>169</ele>
        <time>2018-01-10T10:48:38Z</time>
      </trkpt>
      <trkpt lat="45.93007" lon="4.76411">
        <ele>169</ele>
        <time>2018-01-10T10:48:39Z</time>
      </trkpt>
      <trkpt lat="45.93004" lon="4.76407">
        <ele>169</ele>
        <time>2018-01-10T10:48:40Z</time>
      </trkpt>
      <trkpt lat="45.92999" lon="4.76403">
        <ele>169</ele>
        <time>2018-01-10T10:48:41Z</time>
      </trkpt>
      <trkpt lat="45.92995" lon="4.76398">
        <ele>169</ele>
        <time>2018-01-10T10:48:42Z</time>
      </trkpt>
      <trkpt lat="45.92991" lon="4.76394">
        <ele>169</ele>
        <time>2018-01-10T10:48:43Z</time>
      </trkpt>
      <trkpt lat="45.92986" lon="4.7639">
        <ele>169</ele>
        <time>2018-01-10T10:48:44Z</time>
      </trkpt>
      <trkpt lat="45.92982" lon="4.76387">
        <ele>169</ele>
        <time>2018-01-10T10:48:45Z</time>
      </trkpt>
      <trkpt lat="45.92978" lon="4.76383">
        <ele>169</ele>
        <time>2018-01-10T10:48:46Z</time>
      </trkpt>
      <trkpt lat="45.92973" lon="4.76376">
        <ele>169</ele>
        <time>2018-01-10T10:48:48Z</time>
      </trkpt>
      <trkpt lat="45.92968" lon="4.76373">
        <ele>169</ele>
        <time>2018-01-10T10:48:49Z</time>
      </trkpt>
      <trkpt lat="45.92964" lon="4.76368">
        <ele>169</ele>
        <time>2018-01-10T10:48:50Z</time>
      </trkpt>
      <trkpt lat="45.9296" lon="4.76365">
        <ele>169</ele>
        <time>2018-01-10T10:48:51Z</time>
      </trkpt>
      <trkpt lat="45.92956" lon="4.76362">
        <ele>169</ele>
        <time>2018-01-10T10:48:52Z</time>
      </trkpt>
      <trkpt lat="45.92951" lon="4.76357">
        <ele>169</ele>
        <time>2018-01-10T10:48:53Z</time>
      </trkpt>
      <trkpt lat="45.92948" lon="4.76353">
        <ele>169</ele>
        <time>2018-01-10T10:48:54Z</time>
      </trkpt>
      <trkpt lat="45.92943" lon="4.76348">
        <ele>169</ele>
        <time>2018-01-10T10:48:55Z</time>
      </trkpt>
      <trkpt lat="45.92938" lon="4.76345">
        <ele>169</ele>
        <time>2018-01-10T10:48:56Z</time>
      </trkpt>
      <trkpt lat="45.92933" lon="4.76341">
        <ele>169</ele>
        <time>2018-01-10T10:48:57Z</time>
      </trkpt>
      <trkpt lat="45.92929" lon="4.76336">
        <ele>169</ele>
        <time>2018-01-10T10:48:58Z</time>
      </trkpt>
      <trkpt lat="45.92925" lon="4.76333">
        <ele>169</ele>
        <time>2018-01-10T10:48:59Z</time>
      </trkpt>
      <trkpt lat="45.92919" lon="4.76326">
        <ele>169</ele>
        <time>2018-01-10T10:49:01Z</time>
      </trkpt>
      <trkpt lat="45.92915" lon="4.76323">
        <ele>169</ele>
        <time>2018-01-10T10:49:02Z</time>
      </trkpt>
      <trkpt lat="45.92909" lon="4.76315">
        <ele>169</ele>
        <time>2018-01-10T10:49:04Z</time>
      </trkpt>
      <trkpt lat="45.92905" lon="4.76312">
        <ele>169</ele>
        <time>2018-01-10T10:49:05Z</time>
      </trkpt>
      <trkpt lat="45.92899" lon="4.76308">
        <ele>169</ele>
        <time>2018-01-10T10:49:06Z</time>
      </trkpt>
      <trkpt lat="45.92894" lon="4.76306">
        <ele>169</ele>
        <time>2018-01-10T10:49:07Z</time>
      </trkpt>
      <trkpt lat="45.92889" lon="4.76303">
        <ele>169</ele>
        <time>2018-01-10T10:49:08Z</time>
      </trkpt>
      <trkpt lat="45.92884" lon="4.76299">
        <ele>169</ele>
        <time>2018-01-10T10:49:09Z</time>
      </trkpt>
      <trkpt lat="45.92877" lon="4.76297">
        <ele>169</ele>
        <time>2018-01-10T10:49:11Z</time>
      </trkpt>
      <trkpt lat="45.92872" lon="4.763">
        <ele>169</ele>
        <time>2018-01-10T10:49:12Z</time>
      </trkpt>
      <trkpt lat="45.9287" lon="4.76304">
        <ele>169</ele>
        <time>2018-01-10T10:49:13Z</time>
      </trkpt>
      <trkpt lat="45.92865" lon="4.7631">
        <ele>169</ele>
        <time>2018-01-10T10:49:14Z</time>
      </trkpt>
      <trkpt lat="45.9286" lon="4.76315">
        <ele>169</ele>
        <time>2018-01-10T10:49:15Z</time>
      </trkpt>
      <trkpt lat="45.92856" lon="4.7632">
        <ele>169</ele>
        <time>2018-01-10T10:49:16Z</time>
      </trkpt>
      <trkpt lat="45.92852" lon="4.76326">
        <ele>169</ele>
        <time>2018-01-10T10:49:17Z</time>
      </trkpt>
      <trkpt lat="45.92849" lon="4.7633">
        <ele>170</ele>
        <time>2018-01-10T10:49:18Z</time>
      </trkpt>
      <trkpt lat="45.92844" lon="4.76335">
        <ele>170</ele>
        <time>2018-01-10T10:49:19Z</time>
      </trkpt>
      <trkpt lat="45.9284" lon="4.7634">
        <ele>170</ele>
        <time>2018-01-10T10:49:20Z</time>
      </trkpt>
      <trkpt lat="45.92834" lon="4.76348">
        <ele>170</ele>
        <time>2018-01-10T10:49:22Z</time>
      </trkpt>
      <trkpt lat="45.92831" lon="4.76351">
        <ele>170</ele>
        <time>2018-01-10T10:49:23Z</time>
      </trkpt>
      <trkpt lat="45.92826" lon="4.76359">
        <ele>169</ele>
        <time>2018-01-10T10:49:25Z</time>
      </trkpt>
      <trkpt lat="45.92823" lon="4.76364">
        <ele>169</ele>
        <time>2018-01-10T10:49:26Z</time>
      </trkpt>
      <trkpt lat="45.92818" lon="4.76369">
        <ele>169</ele>
        <time>2018-01-10T10:49:27Z</time>
      </trkpt>
      <trkpt lat="45.92813" lon="4.76373">
        <ele>169</ele>
        <time>2018-01-10T10:49:28Z</time>
      </trkpt>
      <trkpt lat="45.92806" lon="4.76379">
        <ele>169</ele>
        <time>2018-01-10T10:49:30Z</time>
      </trkpt>
      <trkpt lat="45.92802" lon="4.76381">
        <ele>169</ele>
        <time>2018-01-10T10:49:31Z</time>
      </trkpt>
      <trkpt lat="45.92793" lon="4.7638">
        <ele>169</ele>
        <time>2018-01-10T10:49:33Z</time>
      </trkpt>
      <trkpt lat="45.9279" lon="4.7638">
        <ele>169</ele>
        <time>2018-01-10T10:49:34Z</time>
      </trkpt>
      <trkpt lat="45.92782" lon="4.76377">
        <ele>169</ele>
        <time>2018-01-10T10:49:36Z</time>
      </trkpt>
      <trkpt lat="45.92777" lon="4.76375">
        <ele>169</ele>
        <time>2018-01-10T10:49:37Z</time>
      </trkpt>
      <trkpt lat="45.92772" lon="4.76373">
        <ele>169</ele>
        <time>2018-01-10T10:49:38Z</time>
      </trkpt>
      <trkpt lat="45.92767" lon="4.76371">
        <ele>169</ele>
        <time>2018-01-10T10:49:39Z</time>
      </trkpt>
      <trkpt lat="45.92763" lon="4.76369">
        <ele>169</ele>
        <time>2018-01-10T10:49:40Z</time>
      </trkpt>
      <trkpt lat="45.92758" lon="4.76367">
        <ele>169</ele>
        <time>2018-01-10T10:49:41Z</time>
      </trkpt>
      <trkpt lat="45.9275" lon="4.76364">
        <ele>169</ele>
        <time>2018-01-10T10:49:43Z</time>
      </trkpt>
      <trkpt lat="45.92746" lon="4.76362">
        <ele>169</ele>
        <time>2018-01-10T10:49:44Z</time>
      </trkpt>
      <trkpt lat="45.92737" lon="4.76359">
        <ele>169</ele>
        <time>2018-01-10T10:49:46Z</time>
      </trkpt>
      <trkpt lat="45.92733" lon="4.76356">
        <ele>169</ele>
        <time>2018-01-10T10:49:47Z</time>
      </trkpt>
      <trkpt lat="45.92728" lon="4.76353">
        <ele>169</ele>
        <time>2018-01-10T10:49:48Z</time>
      </trkpt>
      <trkpt lat="45.92722" lon="4.76352">
        <ele>169</ele>
        <time>2018-01-10T10:49:49Z</time>
      </trkpt>
      <trkpt lat="45.92718" lon="4.7635">
        <ele>169</ele>
        <time>2018-01-10T10:49:50Z</time>
      </trkpt>
      <trkpt lat="45.92713" lon="4.76349">
        <ele>169</ele>
        <time>2018-01-10T10:49:51Z</time>
      </trkpt>
      <trkpt lat="45.92707" lon="4.76347">
        <ele>168</ele>
        <time>2018-01-10T10:49:52Z</time>
      </trkpt>
      <trkpt lat="45.92702" lon="4.76346">
        <ele>168</ele>
        <time>2018-01-10T10:49:53Z</time>
      </trkpt>
      <trkpt lat="45.92696" lon="4.76343">
        <ele>168</ele>
        <time>2018-01-10T10:49:54Z</time>
      </trkpt>
      <trkpt lat="45.92692" lon="4.76341">
        <ele>168</ele>
        <time>2018-01-10T10:49:55Z</time>
      </trkpt>
      <trkpt lat="45.92686" lon="4.76338">
        <ele>168</ele>
        <time>2018-01-10T10:49:56Z</time>
      </trkpt>
      <trkpt lat="45.92681" lon="4.76336">
        <ele>168</ele>
        <time>2018-01-10T10:49:57Z</time>
      </trkpt>
      <trkpt lat="45.92674" lon="4.76334">
        <ele>168</ele>
        <time>2018-01-10T10:49:58Z</time>
      </trkpt>
      <trkpt lat="45.92669" lon="4.76331">
        <ele>168</ele>
        <time>2018-01-10T10:49:59Z</time>
      </trkpt>
      <trkpt lat="45.92663" lon="4.76329">
        <ele>168</ele>
        <time>2018-01-10T10:50:00Z</time>
      </trkpt>
      <trkpt lat="45.92658" lon="4.76326">
        <ele>168</ele>
        <time>2018-01-10T10:50:01Z</time>
      </trkpt>
      <trkpt lat="45.92652" lon="4.76323">
        <ele>168</ele>
        <time>2018-01-10T10:50:02Z</time>
      </trkpt>
      <trkpt lat="45.92647" lon="4.76321">
        <ele>168</ele>
        <time>2018-01-10T10:50:03Z</time>
      </trkpt>
      <trkpt lat="45.92643" lon="4.76319">
        <ele>168</ele>
        <time>2018-01-10T10:50:04Z</time>
      </trkpt>
      <trkpt lat="45.92638" lon="4.76317">
        <ele>168</ele>
        <time>2018-01-10T10:50:05Z</time>
      </trkpt>
      <trkpt lat="45.92633" lon="4.76315">
        <ele>168</ele>
        <time>2018-01-10T10:50:06Z</time>
      </trkpt>
      <trkpt lat="45.92628" lon="4.76312">
        <ele>168</ele>
        <time>2018-01-10T10:50:07Z</time>
      </trkpt>
      <trkpt lat="45.92624" lon="4.76308">
        <ele>167</ele>
        <time>2018-01-10T10:50:08Z</time>
      </trkpt>
      <trkpt lat="45.92619" lon="4.76306">
        <ele>167</ele>
        <time>2018-01-10T10:50:09Z</time>
      </trkpt>
      <trkpt lat="45.92614" lon="4.76303">
        <ele>167</ele>
        <time>2018-01-10T10:50:10Z</time>
      </trkpt>
      <trkpt lat="45.9261" lon="4.763">
        <ele>167</ele>
        <time>2018-01-10T10:50:11Z</time>
      </trkpt>
      <trkpt lat="45.92605" lon="4.76297">
        <ele>167</ele>
        <time>2018-01-10T10:50:12Z</time>
      </trkpt>
      <trkpt lat="45.92601" lon="4.76295">
        <ele>167</ele>
        <time>2018-01-10T10:50:13Z</time>
      </trkpt>
      <trkpt lat="45.92595" lon="4.76292">
        <ele>167</ele>
        <time>2018-01-10T10:50:14Z</time>
      </trkpt>
      <trkpt lat="45.92591" lon="4.7629">
        <ele>168</ele>
        <time>2018-01-10T10:50:15Z</time>
      </trkpt>
      <trkpt lat="45.92583" lon="4.76285">
        <ele>168</ele>
        <time>2018-01-10T10:50:17Z</time>
      </trkpt>
      <trkpt lat="45.92579" lon="4.76283">
        <ele>168</ele>
        <time>2018-01-10T10:50:18Z</time>
      </trkpt>
      <trkpt lat="45.92574" lon="4.7628">
        <ele>168</ele>
        <time>2018-01-10T10:50:19Z</time>
      </trkpt>
      <trkpt lat="45.92569" lon="4.76278">
        <ele>168</ele>
        <time>2018-01-10T10:50:20Z</time>
      </trkpt>
      <trkpt lat="45.92563" lon="4.76276">
        <ele>168</ele>
        <time>2018-01-10T10:50:21Z</time>
      </trkpt>
      <trkpt lat="45.9256" lon="4.76273">
        <ele>168</ele>
        <time>2018-01-10T10:50:22Z</time>
      </trkpt>
      <trkpt lat="45.92554" lon="4.76269">
        <ele>168</ele>
        <time>2018-01-10T10:50:23Z</time>
      </trkpt>
      <trkpt lat="45.9255" lon="4.76267">
        <ele>168</ele>
        <time>2018-01-10T10:50:24Z</time>
      </trkpt>
      <trkpt lat="45.92545" lon="4.76264">
        <ele>168</ele>
        <time>2018-01-10T10:50:25Z</time>
      </trkpt>
      <trkpt lat="45.9254" lon="4.76261">
        <ele>168</ele>
        <time>2018-01-10T10:50:26Z</time>
      </trkpt>
      <trkpt lat="45.92535" lon="4.76259">
        <ele>168</ele>
        <time>2018-01-10T10:50:27Z</time>
      </trkpt>
      <trkpt lat="45.9253" lon="4.76257">
        <ele>168</ele>
        <time>2018-01-10T10:50:28Z</time>
      </trkpt>
      <trkpt lat="45.92522" lon="4.76252">
        <ele>168</ele>
        <time>2018-01-10T10:50:30Z</time>
      </trkpt>
      <trkpt lat="45.92518" lon="4.76251">
        <ele>168</ele>
        <time>2018-01-10T10:50:31Z</time>
      </trkpt>
      <trkpt lat="45.92512" lon="4.7625">
        <ele>168</ele>
        <time>2018-01-10T10:50:32Z</time>
      </trkpt>
      <trkpt lat="45.92508" lon="4.76252">
        <ele>168</ele>
        <time>2018-01-10T10:50:33Z</time>
      </trkpt>
      <trkpt lat="45.92503" lon="4.76253">
        <ele>168</ele>
        <time>2018-01-10T10:50:34Z</time>
      </trkpt>
      <trkpt lat="45.92497" lon="4.76253">
        <ele>168</ele>
        <time>2018-01-10T10:50:35Z</time>
      </trkpt>
      <trkpt lat="45.92493" lon="4.76255">
        <ele>168</ele>
        <time>2018-01-10T10:50:36Z</time>
      </trkpt>
      <trkpt lat="45.92488" lon="4.76258">
        <ele>169</ele>
        <time>2018-01-10T10:50:37Z</time>
      </trkpt>
      <trkpt lat="45.92484" lon="4.7626">
        <ele>169</ele>
        <time>2018-01-10T10:50:38Z</time>
      </trkpt>
      <trkpt lat="45.9248" lon="4.76263">
        <ele>169</ele>
        <time>2018-01-10T10:50:39Z</time>
      </trkpt>
      <trkpt lat="45.92472" lon="4.76269">
        <ele>169</ele>
        <time>2018-01-10T10:50:41Z</time>
      </trkpt>
      <trkpt lat="45.92468" lon="4.76272">
        <ele>169</ele>
        <time>2018-01-10T10:50:42Z</time>
      </trkpt>
      <trkpt lat="45.92462" lon="4.76279">
        <ele>169</ele>
        <time>2018-01-10T10:50:44Z</time>
      </trkpt>
      <trkpt lat="45.92457" lon="4.76284">
        <ele>169</ele>
        <time>2018-01-10T10:50:45Z</time>
      </trkpt>
      <trkpt lat="45.92453" lon="4.76293">
        <ele>169</ele>
        <time>2018-01-10T10:50:47Z</time>
      </trkpt>
      <trkpt lat="45.9245" lon="4.76299">
        <ele>169</ele>
        <time>2018-01-10T10:50:48Z</time>
      </trkpt>
      <trkpt lat="45.92447" lon="4.76305">
        <ele>169</ele>
        <time>2018-01-10T10:50:49Z</time>
      </trkpt>
      <trkpt lat="45.92444" lon="4.76313">
        <ele>169</ele>
        <time>2018-01-10T10:50:50Z</time>
      </trkpt>
      <trkpt lat="45.92442" lon="4.76319">
        <ele>170</ele>
        <time>2018-01-10T10:50:51Z</time>
      </trkpt>
      <trkpt lat="45.92439" lon="4.76326">
        <ele>170</ele>
        <time>2018-01-10T10:50:52Z</time>
      </trkpt>
      <trkpt lat="45.92436" lon="4.76332">
        <ele>170</ele>
        <time>2018-01-10T10:50:53Z</time>
      </trkpt>
      <trkpt lat="45.92433" lon="4.76337">
        <ele>170</ele>
        <time>2018-01-10T10:50:54Z</time>
      </trkpt>
      <trkpt lat="45.9243" lon="4.76347">
        <ele>170</ele>
        <time>2018-01-10T10:50:56Z</time>
      </trkpt>
      <trkpt lat="45.92427" lon="4.76352">
        <ele>170</ele>
        <time>2018-01-10T10:50:57Z</time>
      </trkpt>
      <trkpt lat="45.92422" lon="4.76362">
        <ele>170</ele>
        <time>2018-01-10T10:50:59Z</time>
      </trkpt>
      <trkpt lat="45.9242" lon="4.76367">
        <ele>170</ele>
        <time>2018-01-10T10:51:00Z</time>
      </trkpt>
      <trkpt lat="45.92416" lon="4.76374">
        <ele>169</ele>
        <time>2018-01-10T10:51:02Z</time>
      </trkpt>
      <trkpt lat="45.92415" lon="4.7638">
        <ele>169</ele>
        <time>2018-01-10T10:51:03Z</time>
      </trkpt>
      <trkpt lat="45.92407" lon="4.7638">
        <ele>169</ele>
        <time>2018-01-10T10:51:08Z</time>
      </trkpt>
      <trkpt lat="45.92406" lon="4.76379">
        <ele>169</ele>
        <time>2018-01-10T10:51:09Z</time>
      </trkpt>
      <trkpt lat="45.92398" lon="4.76373">
        <ele>169</ele>
        <time>2018-01-10T10:51:14Z</time>
      </trkpt>
      <trkpt lat="45.92397" lon="4.76372">
        <ele>169</ele>
        <time>2018-01-10T10:51:15Z</time>
      </trkpt>
      <trkpt lat="45.92392" lon="4.76364">
        <ele>169</ele>
        <time>2018-01-10T10:51:21Z</time>
      </trkpt>
      <trkpt lat="45.92391" lon="4.76363">
        <ele>169</ele>
        <time>2018-01-10T10:51:22Z</time>
      </trkpt>
      <trkpt lat="45.92385" lon="4.76357">
        <ele>168</ele>
        <time>2018-01-10T10:51:27Z</time>
      </trkpt>
      <trkpt lat="45.92382" lon="4.76354">
        <ele>168</ele>
        <time>2018-01-10T10:51:28Z</time>
      </trkpt>
      <trkpt lat="45.92376" lon="4.76348">
        <ele>168</ele>
        <time>2018-01-10T10:51:31Z</time>
      </trkpt>
      <trkpt lat="45.92374" lon="4.76347">
        <ele>168</ele>
        <time>2018-01-10T10:51:32Z</time>
      </trkpt>
      <trkpt lat="45.92367" lon="4.76347">
        <ele>168</ele>
        <time>2018-01-10T10:52:00Z</time>
      </trkpt>
      <trkpt lat="45.92365" lon="4.76346">
        <ele>168</ele>
        <time>2018-01-10T10:52:01Z</time>
      </trkpt>
      <trkpt lat="45.92357" lon="4.76346">
        <ele>168</ele>
        <time>2018-01-10T10:52:04Z</time>
      </trkpt>
      <trkpt lat="45.92354" lon="4.76345">
        <ele>168</ele>
        <time>2018-01-10T10:52:05Z</time>
      </trkpt>
      <trkpt lat="45.92347" lon="4.76347">
        <ele>168</ele>
        <time>2018-01-10T10:52:07Z</time>
      </trkpt>
      <trkpt lat="45.92344" lon="4.76349">
        <ele>168</ele>
        <time>2018-01-10T10:52:08Z</time>
      </trkpt>
      <trkpt lat="45.92338" lon="4.76353">
        <ele>168</ele>
        <time>2018-01-10T10:52:10Z</time>
      </trkpt>
      <trkpt lat="45.92334" lon="4.76355">
        <ele>168</ele>
        <time>2018-01-10T10:52:11Z</time>
      </trkpt>
      <trkpt lat="45.92327" lon="4.7636">
        <ele>167</ele>
        <time>2018-01-10T10:52:13Z</time>
      </trkpt>
      <trkpt lat="45.92323" lon="4.76362">
        <ele>167</ele>
        <time>2018-01-10T10:52:14Z</time>
      </trkpt>
      <trkpt lat="45.92316" lon="4.76364">
        <ele>167</ele>
        <time>2018-01-10T10:52:16Z</time>
      </trkpt>
      <trkpt lat="45.92313" lon="4.76365">
        <ele>167</ele>
        <time>2018-01-10T10:52:17Z</time>
      </trkpt>
      <trkpt lat="45.92306" lon="4.76367">
        <ele>167</ele>
        <time>2018-01-10T10:52:19Z</time>
      </trkpt>
      <trkpt lat="45.92303" lon="4.76368">
        <ele>167</ele>
        <time>2018-01-10T10:52:20Z</time>
      </trkpt>
      <trkpt lat="45.92295" lon="4.7637">
        <ele>167</ele>
        <time>2018-01-10T10:52:22Z</time>
      </trkpt>
      <trkpt lat="45.92292" lon="4.76372">
        <ele>167</ele>
        <time>2018-01-10T10:52:23Z</time>
      </trkpt>
      <trkpt lat="45.92287" lon="4.76374">
        <ele>167</ele>
        <time>2018-01-10T10:52:24Z</time>
      </trkpt>
      <trkpt lat="45.92283" lon="4.76375">
        <ele>167</ele>
        <time>2018-01-10T10:52:25Z</time>
      </trkpt>
      <trkpt lat="45.92274" lon="4.76378">
        <ele>167</ele>
        <time>2018-01-10T10:52:27Z</time>
      </trkpt>
      <trkpt lat="45.9227" lon="4.7638">
        <ele>167</ele>
        <time>2018-01-10T10:52:28Z</time>
      </trkpt>
      <trkpt lat="45.92262" lon="4.76381">
        <ele>167</ele>
        <time>2018-01-10T10:52:30Z</time>
      </trkpt>
      <trkpt lat="45.92258" lon="4.76383">
        <ele>167</ele>
        <time>2018-01-10T10:52:31Z</time>
      </trkpt>
      <trkpt lat="45.9225" lon="4.76385">
        <ele>168</ele>
        <time>2018-01-10T10:52:33Z</time>
      </trkpt>
      <trkpt lat="45.92246" lon="4.76385">
        <ele>168</ele>
        <time>2018-01-10T10:52:34Z</time>
      </trkpt>
      <trkpt lat="45.92237" lon="4.76384">
        <ele>168</ele>
        <time>2018-01-10T10:52:36Z</time>
      </trkpt>
      <trkpt lat="45.92233" lon="4.76383">
        <ele>168</ele>
        <time>2018-01-10T10:52:37Z</time>
      </trkpt>
      <trkpt lat="45.92226" lon="4.7638">
        <ele>168</ele>
        <time>2018-01-10T10:52:39Z</time>
      </trkpt>
      <trkpt lat="45.92222" lon="4.76377">
        <ele>168</ele>
        <time>2018-01-10T10:52:40Z</time>
      </trkpt>
      <trkpt lat="45.92217" lon="4.76374">
        <ele>168</ele>
        <time>2018-01-10T10:52:41Z</time>
      </trkpt>
      <trkpt lat="45.92213" lon="4.76372">
        <ele>168</ele>
        <time>2018-01-10T10:52:42Z</time>
      </trkpt>
      <trkpt lat="45.92205" lon="4.76367">
        <ele>168</ele>
        <time>2018-01-10T10:52:44Z</time>
      </trkpt>
      <trkpt lat="45.92202" lon="4.76365">
        <ele>168</ele>
        <time>2018-01-10T10:52:45Z</time>
      </trkpt>
      <trkpt lat="45.92195" lon="4.76361">
        <ele>168</ele>
        <time>2018-01-10T10:52:47Z</time>
      </trkpt>
      <trkpt lat="45.92192" lon="4.76359">
        <ele>168</ele>
        <time>2018-01-10T10:52:48Z</time>
      </trkpt>
      <trkpt lat="45.92185" lon="4.76354">
        <ele>168</ele>
        <time>2018-01-10T10:52:50Z</time>
      </trkpt>
      <trkpt lat="45.92181" lon="4.76351">
        <ele>168</ele>
        <time>2018-01-10T10:52:51Z</time>
      </trkpt>
      <trkpt lat="45.92174" lon="4.76346">
        <ele>169</ele>
        <time>2018-01-10T10:52:53Z</time>
      </trkpt>
      <trkpt lat="45.9217" lon="4.76344">
        <ele>169</ele>
        <time>2018-01-10T10:52:54Z</time>
      </trkpt>
      <trkpt lat="45.92163" lon="4.7634">
        <ele>169</ele>
        <time>2018-01-10T10:52:56Z</time>
      </trkpt>
      <trkpt lat="45.92157" lon="4.76337">
        <ele>169</ele>
        <time>2018-01-10T10:52:57Z</time>
      </trkpt>
      <trkpt lat="45.92149" lon="4.76333">
        <ele>169</ele>
        <time>2018-01-10T10:52:59Z</time>
      </trkpt>
      <trkpt lat="45.92144" lon="4.7633">
        <ele>169</ele>
        <time>2018-01-10T10:53:00Z</time>
      </trkpt>
      <trkpt lat="45.92137" lon="4.76325">
        <ele>169</ele>
        <time>2018-01-10T10:53:02Z</time>
      </trkpt>
      <trkpt lat="45.92133" lon="4.76322">
        <ele>169</ele>
        <time>2018-01-10T10:53:03Z</time>
      </trkpt>
      <trkpt lat="45.92125" lon="4.76318">
        <ele>169</ele>
        <time>2018-01-10T10:53:05Z</time>
      </trkpt>
      <trkpt lat="45.92121" lon="4.76314">
        <ele>169</ele>
        <time>2018-01-10T10:53:06Z</time>
      </trkpt>
      <trkpt lat="45.92114" lon="4.7631">
        <ele>169</ele>
        <time>2018-01-10T10:53:08Z</time>
      </trkpt>
      <trkpt lat="45.92111" lon="4.76307">
        <ele>169</ele>
        <time>2018-01-10T10:53:09Z</time>
      </trkpt>
      <trkpt lat="45.92104" lon="4.76303">
        <ele>169</ele>
        <time>2018-01-10T10:53:11Z</time>
      </trkpt>
      <trkpt lat="45.921" lon="4.76301">
        <ele>169</ele>
        <time>2018-01-10T10:53:12Z</time>
      </trkpt>
      <trkpt lat="45.92096" lon="4.76298">
        <ele>169</ele>
        <time>2018-01-10T10:53:13Z</time>
      </trkpt>
      <trkpt lat="45.92091" lon="4.76295">
        <ele>169</ele>
        <time>2018-01-10T10:53:14Z</time>
      </trkpt>
      <trkpt lat="45.92083" lon="4.76291">
        <ele>169</ele>
        <time>2018-01-10T10:53:16Z</time>
      </trkpt>
      <trkpt lat="45.9208" lon="4.76288">
        <ele>169</ele>
        <time>2018-01-10T10:53:17Z</time>
      </trkpt>
      <trkpt lat="45.92073" lon="4.76283">
        <ele>169</ele>
        <time>2018-01-10T10:53:19Z</time>
      </trkpt>
      <trkpt lat="45.92069" lon="4.76281">
        <ele>169</ele>
        <time>2018-01-10T10:53:20Z</time>
      </trkpt>
      <trkpt lat="45.92065" lon="4.76279">
        <ele>169</ele>
        <time>2018-01-10T10:53:21Z</time>
      </trkpt>
      <trkpt lat="45.9206" lon="4.76276">
        <ele>169</ele>
        <time>2018-01-10T10:53:22Z</time>
      </trkpt>
      <trkpt lat="45.92055" lon="4.76273">
        <ele>169</ele>
        <time>2018-01-10T10:53:23Z</time>
      </trkpt>
      <trkpt lat="45.92051" lon="4.76271">
        <ele>169</ele>
        <time>2018-01-10T10:53:24Z</time>
      </trkpt>
      <trkpt lat="45.92045" lon="4.76268">
        <ele>169</ele>
        <time>2018-01-10T10:53:25Z</time>
      </trkpt>
      <trkpt lat="45.92041" lon="4.76266">
        <ele>169</ele>
        <time>2018-01-10T10:53:26Z</time>
      </trkpt>
      <trkpt lat="45.92036" lon="4.76263">
        <ele>169</ele>
        <time>2018-01-10T10:53:27Z</time>
      </trkpt>
      <trkpt lat="45.92031" lon="4.76261">
        <ele>169</ele>
        <time>2018-01-10T10:53:28Z</time>
      </trkpt>
      <trkpt lat="45.92026" lon="4.76258">
        <ele>169</ele>
        <time>2018-01-10T10:53:29Z</time>
      </trkpt>
      <trkpt lat="45.92022" lon="4.76256">
        <ele>169</ele>
        <time>2018-01-10T10:53:30Z</time>
      </trkpt>
      <trkpt lat="45.92017" lon="4.76252">
        <ele>169</ele>
        <time>2018-01-10T10:53:31Z</time>
      </trkpt>
      <trkpt lat="45.92012" lon="4.76249">
        <ele>170</ele>
        <time>2018-01-10T10:53:32Z</time>
      </trkpt>
      <trkpt lat="45.92007" lon="4.76246">
        <ele>170</ele>
        <time>2018-01-10T10:53:33Z</time>
      </trkpt>
      <trkpt lat="45.92003" lon="4.76244">
        <ele>170</ele>
        <time>2018-01-10T10:53:34Z</time>
      </trkpt>
      <trkpt lat="45.91995" lon="4.76239">
        <ele>170</ele>
        <time>2018-01-10T10:53:36Z</time>
      </trkpt>
      <trkpt lat="45.91991" lon="4.76237">
        <ele>170</ele>
        <time>2018-01-10T10:53:37Z</time>
      </trkpt>
      <trkpt lat="45.91987" lon="4.76234">
        <ele>170</ele>
        <time>2018-01-10T10:53:38Z</time>
      </trkpt>
      <trkpt lat="45.91982" lon="4.76232">
        <ele>171</ele>
        <time>2018-01-10T10:53:39Z</time>
      </trkpt>
      <trkpt lat="45.91974" lon="4.76228">
        <ele>171</ele>
        <time>2018-01-10T10:53:41Z</time>
      </trkpt>
      <trkpt lat="45.9197" lon="4.76225">
        <ele>171</ele>
        <time>2018-01-10T10:53:42Z</time>
      </trkpt>
      <trkpt lat="45.91963" lon="4.76223">
        <ele>171</ele>
        <time>2018-01-10T10:53:44Z</time>
      </trkpt>
      <trkpt lat="45.9196" lon="4.76221">
        <ele>171</ele>
        <time>2018-01-10T10:53:45Z</time>
      </trkpt>
      <trkpt lat="45.91954" lon="4.76217">
        <ele>171</ele>
        <time>2018-01-10T10:53:47Z</time>
      </trkpt>
      <trkpt lat="45.9195" lon="4.76215">
        <ele>171</ele>
        <time>2018-01-10T10:53:48Z</time>
      </trkpt>
      <trkpt lat="45.91944" lon="4.7621">
        <ele>171</ele>
        <time>2018-01-10T10:53:50Z</time>
      </trkpt>
      <trkpt lat="45.91941" lon="4.76208">
        <ele>171</ele>
        <time>2018-01-10T10:53:51Z</time>
      </trkpt>
      <trkpt lat="45.91934" lon="4.76204">
        <ele>171</ele>
        <time>2018-01-10T10:53:53Z</time>
      </trkpt>
      <trkpt lat="45.9193" lon="4.76202">
        <ele>171</ele>
        <time>2018-01-10T10:53:54Z</time>
      </trkpt>
      <trkpt lat="45.91924" lon="4.76199">
        <ele>171</ele>
        <time>2018-01-10T10:53:56Z</time>
      </trkpt>
      <trkpt lat="45.91921" lon="4.76197">
        <ele>171</ele>
        <time>2018-01-10T10:53:57Z</time>
      </trkpt>
      <trkpt lat="45.91914" lon="4.76193">
        <ele>172</ele>
        <time>2018-01-10T10:53:59Z</time>
      </trkpt>
      <trkpt lat="45.9191" lon="4.76191">
        <ele>172</ele>
        <time>2018-01-10T10:54:00Z</time>
      </trkpt>
      <trkpt lat="45.91904" lon="4.76187">
        <ele>172</ele>
        <time>2018-01-10T10:54:02Z</time>
      </trkpt>
      <trkpt lat="45.91901" lon="4.76185">
        <ele>172</ele>
        <time>2018-01-10T10:54:03Z</time>
      </trkpt>
      <trkpt lat="45.91895" lon="4.76182">
        <ele>172</ele>
        <time>2018-01-10T10:54:05Z</time>
      </trkpt>
      <trkpt lat="45.91891" lon="4.7618">
        <ele>172</ele>
        <time>2018-01-10T10:54:06Z</time>
      </trkpt>
      <trkpt lat="45.91885" lon="4.76177">
        <ele>172</ele>
        <time>2018-01-10T10:54:08Z</time>
      </trkpt>
      <trkpt lat="45.91882" lon="4.76175">
        <ele>172</ele>
        <time>2018-01-10T10:54:09Z</time>
      </trkpt>
      <trkpt lat="45.91875" lon="4.76171">
        <ele>172</ele>
        <time>2018-01-10T10:54:12Z</time>
      </trkpt>
      <trkpt lat="45.91873" lon="4.7617">
        <ele>172</ele>
        <time>2018-01-10T10:54:13Z</time>
      </trkpt>
      <trkpt lat="45.91865" lon="4.7617">
        <ele>172</ele>
        <time>2018-01-10T10:54:17Z</time>
      </trkpt>
      <trkpt lat="45.91863" lon="4.76172">
        <ele>172</ele>
        <time>2018-01-10T10:54:18Z</time>
      </trkpt>
      <trkpt lat="45.91858" lon="4.76182">
        <ele>172</ele>
        <time>2018-01-10T10:54:21Z</time>
      </trkpt>
      <trkpt lat="45.91857" lon="4.76186">
        <ele>172</ele>
        <time>2018-01-10T10:54:22Z</time>
      </trkpt>
      <trkpt lat="45.91852" lon="4.76195">
        <ele>172</ele>
        <time>2018-01-10T10:54:24Z</time>
      </trkpt>
      <trkpt lat="45.91849" lon="4.76199">
        <ele>172</ele>
        <time>2018-01-10T10:54:25Z</time>
      </trkpt>
      <trkpt lat="45.91844" lon="4.76209">
        <ele>172</ele>
        <time>2018-01-10T10:54:27Z</time>
      </trkpt>
      <trkpt lat="45.91842" lon="4.76214">
        <ele>172</ele>
        <time>2018-01-10T10:54:28Z</time>
      </trkpt>
      <trkpt lat="45.91839" lon="4.76225">
        <ele>172</ele>
        <time>2018-01-10T10:54:30Z</time>
      </trkpt>
      <trkpt lat="45.91838" lon="4.76231">
        <ele>172</ele>
        <time>2018-01-10T10:54:31Z</time>
      </trkpt>
      <trkpt lat="45.91836" lon="4.76242">
        <ele>173</ele>
        <time>2018-01-10T10:54:33Z</time>
      </trkpt>
      <trkpt lat="45.91835" lon="4.76249">
        <ele>173</ele>
        <time>2018-01-10T10:54:34Z</time>
      </trkpt>
      <trkpt lat="45.91833" lon="4.76255">
        <ele>173</ele>
        <time>2018-01-10T10:54:35Z</time>
      </trkpt>
      <trkpt lat="45.91831" lon="4.76262">
        <ele>174</ele>
        <time>2018-01-10T10:54:36Z</time>
      </trkpt>
      <trkpt lat="45.91829" lon="4.76268">
        <ele>174</ele>
        <time>2018-01-10T10:54:37Z</time>
      </trkpt>
      <trkpt lat="45.91827" lon="4.76274">
        <ele>174</ele>
        <time>2018-01-10T10:54:38Z</time>
      </trkpt>
      <trkpt lat="45.91825" lon="4.7628">
        <ele>174</ele>
        <time>2018-01-10T10:54:39Z</time>
      </trkpt>
      <trkpt lat="45.91824" lon="4.76287">
        <ele>174</ele>
        <time>2018-01-10T10:54:40Z</time>
      </trkpt>
      <trkpt lat="45.91821" lon="4.76298">
        <ele>174</ele>
        <time>2018-01-10T10:54:42Z</time>
      </trkpt>
      <trkpt lat="45.91819" lon="4.76303">
        <ele>174</ele>
        <time>2018-01-10T10:54:43Z</time>
      </trkpt>
      <trkpt lat="45.91817" lon="4.76312">
        <ele>174</ele>
        <time>2018-01-10T10:54:45Z</time>
      </trkpt>
      <trkpt lat="45.91817" lon="4.76317">
        <ele>174</ele>
        <time>2018-01-10T10:54:46Z</time>
      </trkpt>
      <trkpt lat="45.91812" lon="4.76328">
        <ele>174</ele>
        <time>2018-01-10T10:54:49Z</time>
      </trkpt>
      <trkpt lat="45.9181" lon="4.7633">
        <ele>174</ele>
        <time>2018-01-10T10:54:50Z</time>
      </trkpt>
      <trkpt lat="45.91802" lon="4.76329">
        <ele>174</ele>
        <time>2018-01-10T10:54:53Z</time>
      </trkpt>
      <trkpt lat="45.918" lon="4.76328">
        <ele>174</ele>
        <time>2018-01-10T10:54:54Z</time>
      </trkpt>
      <trkpt lat="45.91792" lon="4.76325">
        <ele>175</ele>
        <time>2018-01-10T10:54:58Z</time>
      </trkpt>
      <trkpt lat="45.91791" lon="4.76323">
        <ele>175</ele>
        <time>2018-01-10T10:54:59Z</time>
      </trkpt>
      <trkpt lat="45.91783" lon="4.7632">
        <ele>175</ele>
        <time>2018-01-10T10:55:03Z</time>
      </trkpt>
      <trkpt lat="45.91782" lon="4.76319">
        <ele>175</ele>
        <time>2018-01-10T10:55:04Z</time>
      </trkpt>
      <trkpt lat="45.91773" lon="4.76318">
        <ele>175</ele>
        <time>2018-01-10T10:55:09Z</time>
      </trkpt>
      <trkpt lat="45.91771" lon="4.76317">
        <ele>175</ele>
        <time>2018-01-10T10:55:10Z</time>
      </trkpt>
      <trkpt lat="45.91762" lon="4.76314">
        <ele>175</ele>
        <time>2018-01-10T10:55:14Z</time>
      </trkpt>
      <trkpt lat="45.9176" lon="4.76313">
        <ele>175</ele>
        <time>2018-01-10T10:55:15Z</time>
      </trkpt>
      <trkpt lat="45.91753" lon="4.76315">
        <ele>175</ele>
        <time>2018-01-10T10:55:18Z</time>
      </trkpt>
      <trkpt lat="45.91751" lon="4.76316">
        <ele>175</ele>
        <time>2018-01-10T10:55:19Z</time>
      </trkpt>
      <trkpt lat="45.91745" lon="4.7632">
        <ele>177</ele>
        <time>2018-01-10T10:55:22Z</time>
      </trkpt>
      <trkpt lat="45.91743" lon="4.76322">
        <ele>177</ele>
        <time>2018-01-10T10:55:23Z</time>
      </trkpt>
      <trkpt lat="45.91735" lon="4.76326">
        <ele>177</ele>
        <time>2018-01-10T10:55:27Z</time>
      </trkpt>
      <trkpt lat="45.91733" lon="4.76327">
        <ele>177</ele>
        <time>2018-01-10T10:55:28Z</time>
      </trkpt>
      <trkpt lat="45.91725" lon="4.76332">
        <ele>177</ele>
        <time>2018-01-10T10:55:32Z</time>
      </trkpt>
      <trkpt lat="45.91723" lon="4.76334">
        <ele>176</ele>
        <time>2018-01-10T10:55:33Z</time>
      </trkpt>
      <trkpt lat="45.91714" lon="4.76338">
        <ele>176</ele>
        <time>2018-01-10T10:55:37Z</time>
      </trkpt>
      <trkpt lat="45.91713" lon="4.7634">
        <ele>176</ele>
        <time>2018-01-10T10:55:38Z</time>
      </trkpt>
      <trkpt lat="45.91706" lon="4.76344">
        <ele>177</ele>
        <time>2018-01-10T10:55:42Z</time>
      </trkpt>
      <trkpt lat="45.91704" lon="4.76345">
        <ele>177</ele>
        <time>2018-01-10T10:55:43Z</time>
      </trkpt>
      <trkpt lat="45.91697" lon="4.76351">
        <ele>177</ele>
        <time>2018-01-10T10:55:49Z</time>
      </trkpt>
      <trkpt lat="45.91695" lon="4.76351">
        <ele>177</ele>
        <time>2018-01-10T10:55:50Z</time>
      </trkpt>
      <trkpt lat="45.91686" lon="4.76349">
        <ele>177</ele>
        <time>2018-01-10T10:55:54Z</time>
      </trkpt>
      <trkpt lat="45.91684" lon="4.76349">
        <ele>177</ele>
        <time>2018-01-10T10:55:55Z</time>
      </trkpt>
      <trkpt lat="45.91677" lon="4.76347">
        <ele>177</ele>
        <time>2018-01-10T10:55:58Z</time>
      </trkpt>
      <trkpt lat="45.91675" lon="4.76346">
        <ele>177</ele>
        <time>2018-01-10T10:55:59Z</time>
      </trkpt>
      <trkpt lat="45.91667" lon="4.76345">
        <ele>177</ele>
        <time>2018-01-10T10:56:03Z</time>
      </trkpt>
      <trkpt lat="45.91665" lon="4.76344">
        <ele>177</ele>
        <time>2018-01-10T10:56:04Z</time>
      </trkpt>
      <trkpt lat="45.91658" lon="4.76342">
        <ele>177</ele>
        <time>2018-01-10T10:56:08Z</time>
      </trkpt>
      <trkpt lat="45.91656" lon="4.76341">
        <ele>177</ele>
        <time>2018-01-10T10:56:09Z</time>
      </trkpt>
      <trkpt lat="45.91648" lon="4.7634">
        <ele>177</ele>
        <time>2018-01-10T10:56:14Z</time>
      </trkpt>
      <trkpt lat="45.91646" lon="4.76339">
        <ele>177</ele>
        <time>2018-01-10T10:56:15Z</time>
      </trkpt>
      <trkpt lat="45.91637" lon="4.76336">
        <ele>177</ele>
        <time>2018-01-10T10:56:19Z</time>
      </trkpt>
      <trkpt lat="45.91635" lon="4.76336">
        <ele>176</ele>
        <time>2018-01-10T10:56:20Z</time>
      </trkpt>
      <trkpt lat="45.91628" lon="4.76333">
        <ele>176</ele>
        <time>2018-01-10T10:56:23Z</time>
      </trkpt>
      <trkpt lat="45.91626" lon="4.76333">
        <ele>177</ele>
        <time>2018-01-10T10:56:24Z</time>
      </trkpt>
      <trkpt lat="45.91619" lon="4.7633">
        <ele>177</ele>
        <time>2018-01-10T10:56:27Z</time>
      </trkpt>
      <trkpt lat="45.91616" lon="4.7633">
        <ele>177</ele>
        <time>2018-01-10T10:56:28Z</time>
      </trkpt>
      <trkpt lat="45.91609" lon="4.76328">
        <ele>176</ele>
        <time>2018-01-10T10:56:31Z</time>
      </trkpt>
      <trkpt lat="45.91607" lon="4.76327">
        <ele>176</ele>
        <time>2018-01-10T10:56:32Z</time>
      </trkpt>
      <trkpt lat="45.916" lon="4.76325">
        <ele>176</ele>
        <time>2018-01-10T10:56:35Z</time>
      </trkpt>
      <trkpt lat="45.91597" lon="4.76325">
        <ele>176</ele>
        <time>2018-01-10T10:56:36Z</time>
      </trkpt>
      <trkpt lat="45.91589" lon="4.76322">
        <ele>176</ele>
        <time>2018-01-10T10:56:40Z</time>
      </trkpt>
      <trkpt lat="45.91587" lon="4.76321">
        <ele>176</ele>
        <time>2018-01-10T10:56:41Z</time>
      </trkpt>
      <trkpt lat="45.91579" lon="4.76319">
        <ele>176</ele>
        <time>2018-01-10T10:56:45Z</time>
      </trkpt>
      <trkpt lat="45.91577" lon="4.76318">
        <ele>176</ele>
        <time>2018-01-10T10:56:46Z</time>
      </trkpt>
      <trkpt lat="45.9157" lon="4.76316">
        <ele>176</ele>
        <time>2018-01-10T10:56:49Z</time>
      </trkpt>
      <trkpt lat="45.91567" lon="4.76316">
        <ele>176</ele>
        <time>2018-01-10T10:56:50Z</time>
      </trkpt>
      <trkpt lat="45.91559" lon="4.76314">
        <ele>176</ele>
        <time>2018-01-10T10:56:54Z</time>
      </trkpt>
      <trkpt lat="45.91558" lon="4.76314">
        <ele>176</ele>
        <time>2018-01-10T10:56:55Z</time>
      </trkpt>
      <trkpt lat="45.9155" lon="4.76314">
        <ele>177</ele>
        <time>2018-01-10T10:57:01Z</time>
      </trkpt>
      <trkpt lat="45.91548" lon="4.76314">
        <ele>177</ele>
        <time>2018-01-10T10:57:02Z</time>
      </trkpt>
      <trkpt lat="45.9154" lon="4.76317">
        <ele>177</ele>
        <time>2018-01-10T10:57:07Z</time>
      </trkpt>
      <trkpt lat="45.91538" lon="4.7632">
        <ele>177</ele>
        <time>2018-01-10T10:57:08Z</time>
      </trkpt>
      <trkpt lat="45.91533" lon="4.76329">
        <ele>177</ele>
        <time>2018-01-10T10:57:11Z</time>
      </trkpt>
      <trkpt lat="45.91532" lon="4.76332">
        <ele>177</ele>
        <time>2018-01-10T10:57:12Z</time>
      </trkpt>
      <trkpt lat="45.91528" lon="4.7634">
        <ele>176</ele>
        <time>2018-01-10T10:57:15Z</time>
      </trkpt>
      <trkpt lat="45.91526" lon="4.76343">
        <ele>176</ele>
        <time>2018-01-10T10:57:16Z</time>
      </trkpt>
      <trkpt lat="45.91523" lon="4.76351">
        <ele>176</ele>
        <time>2018-01-10T10:57:18Z</time>
      </trkpt>
      <trkpt lat="45.91521" lon="4.76355">
        <ele>176</ele>
        <time>2018-01-10T10:57:19Z</time>
      </trkpt>
      <trkpt lat="45.91515" lon="4.76365">
        <ele>176</ele>
        <time>2018-01-10T10:57:22Z</time>
      </trkpt>
      <trkpt lat="45.91513" lon="4.76367">
        <ele>176</ele>
        <time>2018-01-10T10:57:23Z</time>
      </trkpt>
      <trkpt lat="45.91507" lon="4.76377">
        <ele>176</ele>
        <time>2018-01-10T10:57:26Z</time>
      </trkpt>
      <trkpt lat="45.91505" lon="4.76381">
        <ele>176</ele>
        <time>2018-01-10T10:57:27Z</time>
      </trkpt>
      <trkpt lat="45.91502" lon="4.76388">
        <ele>175</ele>
        <time>2018-01-10T10:57:29Z</time>
      </trkpt>
      <trkpt lat="45.915" lon="4.76391">
        <ele>176</ele>
        <time>2018-01-10T10:57:30Z</time>
      </trkpt>
      <trkpt lat="45.91496" lon="4.76399">
        <ele>176</ele>
        <time>2018-01-10T10:57:32Z</time>
      </trkpt>
      <trkpt lat="45.91494" lon="4.76403">
        <ele>176</ele>
        <time>2018-01-10T10:57:33Z</time>
      </trkpt>
      <trkpt lat="45.91489" lon="4.76411">
        <ele>176</ele>
        <time>2018-01-10T10:57:35Z</time>
      </trkpt>
      <trkpt lat="45.91487" lon="4.76415">
        <ele>176</ele>
        <time>2018-01-10T10:57:36Z</time>
      </trkpt>
      <trkpt lat="45.91482" lon="4.76422">
        <ele>176</ele>
        <time>2018-01-10T10:57:38Z</time>
      </trkpt>
      <trkpt lat="45.9148" lon="4.76425">
        <ele>176</ele>
        <time>2018-01-10T10:57:39Z</time>
      </trkpt>
      <trkpt lat="45.91476" lon="4.76432">
        <ele>176</ele>
        <time>2018-01-10T10:57:41Z</time>
      </trkpt>
      <trkpt lat="45.91474" lon="4.76436">
        <ele>176</ele>
        <time>2018-01-10T10:57:42Z</time>
      </trkpt>
      <trkpt lat="45.91468" lon="4.76445">
        <ele>177</ele>
        <time>2018-01-10T10:57:44Z</time>
      </trkpt>
      <trkpt lat="45.91466" lon="4.76449">
        <ele>177</ele>
        <time>2018-01-10T10:57:45Z</time>
      </trkpt>
      <trkpt lat="45.9146" lon="4.76459">
        <ele>177</ele>
        <time>2018-01-10T10:57:47Z</time>
      </trkpt>
      <trkpt lat="45.91458" lon="4.76463">
        <ele>177</ele>
        <time>2018-01-10T10:57:48Z</time>
      </trkpt>
      <trkpt lat="45.91453" lon="4.76472">
        <ele>177</ele>
        <time>2018-01-10T10:57:50Z</time>
      </trkpt>
      <trkpt lat="45.91451" lon="4.76476">
        <ele>177</ele>
        <time>2018-01-10T10:57:51Z</time>
      </trkpt>
      <trkpt lat="45.91446" lon="4.76483">
        <ele>177</ele>
        <time>2018-01-10T10:57:53Z</time>
      </trkpt>
      <trkpt lat="45.91444" lon="4.76487">
        <ele>177</ele>
        <time>2018-01-10T10:57:54Z</time>
      </trkpt>
      <trkpt lat="45.9144" lon="4.76494">
        <ele>177</ele>
        <time>2018-01-10T10:57:56Z</time>
      </trkpt>
      <trkpt lat="45.91438" lon="4.76498">
        <ele>177</ele>
        <time>2018-01-10T10:57:57Z</time>
      </trkpt>
      <trkpt lat="45.91433" lon="4.76507">
        <ele>177</ele>
        <time>2018-01-10T10:57:59Z</time>
      </trkpt>
      <trkpt lat="45.9143" lon="4.76513">
        <ele>177</ele>
        <time>2018-01-10T10:58:00Z</time>
      </trkpt>
      <trkpt lat="45.91425" lon="4.76523">
        <ele>177</ele>
        <time>2018-01-10T10:58:02Z</time>
      </trkpt>
      <trkpt lat="45.91423" lon="4.76527">
        <ele>177</ele>
        <time>2018-01-10T10:58:03Z</time>
      </trkpt>
      <trkpt lat="45.91418" lon="4.76536">
        <ele>177</ele>
        <time>2018-01-10T10:58:05Z</time>
      </trkpt>
      <trkpt lat="45.91415" lon="4.7654">
        <ele>177</ele>
        <time>2018-01-10T10:58:06Z</time>
      </trkpt>
      <trkpt lat="45.91411" lon="4.76547">
        <ele>177</ele>
        <time>2018-01-10T10:58:08Z</time>
      </trkpt>
      <trkpt lat="45.91408" lon="4.76551">
        <ele>177</ele>
        <time>2018-01-10T10:58:09Z</time>
      </trkpt>
      <trkpt lat="45.91403" lon="4.7656">
        <ele>177</ele>
        <time>2018-01-10T10:58:11Z</time>
      </trkpt>
      <trkpt lat="45.914" lon="4.76566">
        <ele>177</ele>
        <time>2018-01-10T10:58:12Z</time>
      </trkpt>
      <trkpt lat="45.91395" lon="4.76577">
        <ele>177</ele>
        <time>2018-01-10T10:58:14Z</time>
      </trkpt>
      <trkpt lat="45.91392" lon="4.76582">
        <ele>177</ele>
        <time>2018-01-10T10:58:15Z</time>
      </trkpt>
      <trkpt lat="45.91387" lon="4.76591">
        <ele>176</ele>
        <time>2018-01-10T10:58:17Z</time>
      </trkpt>
      <trkpt lat="45.91385" lon="4.76596">
        <ele>176</ele>
        <time>2018-01-10T10:58:18Z</time>
      </trkpt>
      <trkpt lat="45.91379" lon="4.76605">
        <ele>176</ele>
        <time>2018-01-10T10:58:20Z</time>
      </trkpt>
      <trkpt lat="45.91377" lon="4.7661">
        <ele>176</ele>
        <time>2018-01-10T10:58:21Z</time>
      </trkpt>
      <trkpt lat="45.91372" lon="4.76619">
        <ele>176</ele>
        <time>2018-01-10T10:58:23Z</time>
      </trkpt>
      <trkpt lat="45.9137" lon="4.76622">
        <ele>176</ele>
        <time>2018-01-10T10:58:24Z</time>
      </trkpt>
      <trkpt lat="45.91365" lon="4.76631">
        <ele>176</ele>
        <time>2018-01-10T10:58:26Z</time>
      </trkpt>
      <trkpt lat="45.91362" lon="4.76636">
        <ele>176</ele>
        <time>2018-01-10T10:58:27Z</time>
      </trkpt>
      <trkpt lat="45.91358" lon="4.76641">
        <ele>176</ele>
        <time>2018-01-10T10:58:28Z</time>
      </trkpt>
      <trkpt lat="45.91356" lon="4.76647">
        <ele>176</ele>
        <time>2018-01-10T10:58:29Z</time>
      </trkpt>
      <trkpt lat="45.91353" lon="4.76653">
        <ele>176</ele>
        <time>2018-01-10T10:58:30Z</time>
      </trkpt>
      <trkpt lat="45.9135" lon="4.76658">
        <ele>176</ele>
        <time>2018-01-10T10:58:31Z</time>
      </trkpt>
      <trkpt lat="45.91346" lon="4.76668">
        <ele>176</ele>
        <time>2018-01-10T10:58:33Z</time>
      </trkpt>
      <trkpt lat="45.91343" lon="4.76672">
        <ele>176</ele>
        <time>2018-01-10T10:58:34Z</time>
      </trkpt>
      <trkpt lat="45.91338" lon="4.76683">
        <ele>176</ele>
        <time>2018-01-10T10:58:36Z</time>
      </trkpt>
      <trkpt lat="45.91336" lon="4.76688">
        <ele>176</ele>
        <time>2018-01-10T10:58:37Z</time>
      </trkpt>
      <trkpt lat="45.91332" lon="4.76699">
        <ele>176</ele>
        <time>2018-01-10T10:58:39Z</time>
      </trkpt>
      <trkpt lat="45.91329" lon="4.76705">
        <ele>176</ele>
        <time>2018-01-10T10:58:40Z</time>
      </trkpt>
      <trkpt lat="45.91328" lon="4.76716">
        <ele>176</ele>
        <time>2018-01-10T10:58:42Z</time>
      </trkpt>
      <trkpt lat="45.91327" lon="4.76722">
        <ele>176</ele>
        <time>2018-01-10T10:58:43Z</time>
      </trkpt>
      <trkpt lat="45.91326" lon="4.76733">
        <ele>176</ele>
        <time>2018-01-10T10:58:44Z</time>
      </trkpt>
      <trkpt lat="45.91326" lon="4.7674">
        <ele>176</ele>
        <time>2018-01-10T10:58:45Z</time>
      </trkpt>
      <trkpt lat="45.91327" lon="4.76747">
        <ele>176</ele>
        <time>2018-01-10T10:58:46Z</time>
      </trkpt>
      <trkpt lat="45.91326" lon="4.76755">
        <ele>176</ele>
        <time>2018-01-10T10:58:47Z</time>
      </trkpt>
      <trkpt lat="45.91326" lon="4.76763">
        <ele>176</ele>
        <time>2018-01-10T10:58:48Z</time>
      </trkpt>
      <trkpt lat="45.91326" lon="4.76771">
        <ele>176</ele>
        <time>2018-01-10T10:58:49Z</time>
      </trkpt>
      <trkpt lat="45.91326" lon="4.76778">
        <ele>176</ele>
        <time>2018-01-10T10:58:50Z</time>
      </trkpt>
      <trkpt lat="45.91326" lon="4.76786">
        <ele>175</ele>
        <time>2018-01-10T10:58:51Z</time>
      </trkpt>
      <trkpt lat="45.91325" lon="4.76793">
        <ele>175</ele>
        <time>2018-01-10T10:58:52Z</time>
      </trkpt>
      <trkpt lat="45.91325" lon="4.76799">
        <ele>175</ele>
        <time>2018-01-10T10:58:53Z</time>
      </trkpt>
      <trkpt lat="45.91324" lon="4.76807">
        <ele>175</ele>
        <time>2018-01-10T10:58:54Z</time>
      </trkpt>
      <trkpt lat="45.91324" lon="4.76813">
        <ele>175</ele>
        <time>2018-01-10T10:58:55Z</time>
      </trkpt>
      <trkpt lat="45.91324" lon="4.7682">
        <ele>175</ele>
        <time>2018-01-10T10:58:56Z</time>
      </trkpt>
      <trkpt lat="45.91323" lon="4.76828">
        <ele>175</ele>
        <time>2018-01-10T10:58:57Z</time>
      </trkpt>
      <trkpt lat="45.91323" lon="4.76836">
        <ele>174</ele>
        <time>2018-01-10T10:58:58Z</time>
      </trkpt>
      <trkpt lat="45.91323" lon="4.76844">
        <ele>174</ele>
        <time>2018-01-10T10:58:59Z</time>
      </trkpt>
      <trkpt lat="45.91323" lon="4.76853">
        <ele>175</ele>
        <time>2018-01-10T10:59:00Z</time>
      </trkpt>
      <trkpt lat="45.91323" lon="4.7686">
        <ele>175</ele>
        <time>2018-01-10T10:59:01Z</time>
      </trkpt>
      <trkpt lat="45.91323" lon="4.76869">
        <ele>175</ele>
        <time>2018-01-10T10:59:02Z</time>
      </trkpt>
      <trkpt lat="45.91322" lon="4.76876">
        <ele>175</ele>
        <time>2018-01-10T10:59:03Z</time>
      </trkpt>
      <trkpt lat="45.91322" lon="4.76884">
        <ele>175</ele>
        <time>2018-01-10T10:59:04Z</time>
      </trkpt>
      <trkpt lat="45.91321" lon="4.76892">
        <ele>175</ele>
        <time>2018-01-10T10:59:05Z</time>
      </trkpt>
      <trkpt lat="45.91321" lon="4.769">
        <ele>175</ele>
        <time>2018-01-10T10:59:06Z</time>
      </trkpt>
      <trkpt lat="45.91321" lon="4.76908">
        <ele>175</ele>
        <time>2018-01-10T10:59:07Z</time>
      </trkpt>
      <trkpt lat="45.91321" lon="4.76916">
        <ele>175</ele>
        <time>2018-01-10T10:59:08Z</time>
      </trkpt>
      <trkpt lat="45.91321" lon="4.76924">
        <ele>175</ele>
        <time>2018-01-10T10:59:09Z</time>
      </trkpt>
      <trkpt lat="45.91321" lon="4.76931">
        <ele>175</ele>
        <time>2018-01-10T10:59:10Z</time>
      </trkpt>
      <trkpt lat="45.91322" lon="4.76938">
        <ele>175</ele>
        <time>2018-01-10T10:59:11Z</time>
      </trkpt>
      <trkpt lat="45.9132" lon="4.76944">
        <ele>175</ele>
        <time>2018-01-10T10:59:12Z</time>
      </trkpt>
      <trkpt lat="45.91319" lon="4.7695">
        <ele>175</ele>
        <time>2018-01-10T10:59:13Z</time>
      </trkpt>
      <trkpt lat="45.91319" lon="4.76957">
        <ele>175</ele>
        <time>2018-01-10T10:59:14Z</time>
      </trkpt>
      <trkpt lat="45.91319" lon="4.76965">
        <ele>175</ele>
        <time>2018-01-10T10:59:15Z</time>
      </trkpt>
      <trkpt lat="45.9132" lon="4.76973">
        <ele>175</ele>
        <time>2018-01-10T10:59:16Z</time>
      </trkpt>
      <trkpt lat="45.91322" lon="4.7698">
        <ele>175</ele>
        <time>2018-01-10T10:59:17Z</time>
      </trkpt>
      <trkpt lat="45.91323" lon="4.76988">
        <ele>175</ele>
        <time>2018-01-10T10:59:18Z</time>
      </trkpt>
      <trkpt lat="45.91324" lon="4.76995">
        <ele>176</ele>
        <time>2018-01-10T10:59:19Z</time>
      </trkpt>
      <trkpt lat="45.91326" lon="4.77002">
        <ele>176</ele>
        <time>2018-01-10T10:59:20Z</time>
      </trkpt>
      <trkpt lat="45.91328" lon="4.7701">
        <ele>176</ele>
        <time>2018-01-10T10:59:21Z</time>
      </trkpt>
      <trkpt lat="45.9133" lon="4.77022">
        <ele>176</ele>
        <time>2018-01-10T10:59:23Z</time>
      </trkpt>
      <trkpt lat="45.91333" lon="4.77028">
        <ele>176</ele>
        <time>2018-01-10T10:59:24Z</time>
      </trkpt>
      <trkpt lat="45.91333" lon="4.77035">
        <ele>176</ele>
        <time>2018-01-10T10:59:25Z</time>
      </trkpt>
      <trkpt lat="45.91335" lon="4.77042">
        <ele>176</ele>
        <time>2018-01-10T10:59:26Z</time>
      </trkpt>
      <trkpt lat="45.91337" lon="4.77051">
        <ele>176</ele>
        <time>2018-01-10T10:59:27Z</time>
      </trkpt>
      <trkpt lat="45.9134" lon="4.77059">
        <ele>176</ele>
        <time>2018-01-10T10:59:28Z</time>
      </trkpt>
      <trkpt lat="45.91341" lon="4.77065">
        <ele>176</ele>
        <time>2018-01-10T10:59:29Z</time>
      </trkpt>
      <trkpt lat="45.91342" lon="4.77074">
        <ele>177</ele>
        <time>2018-01-10T10:59:30Z</time>
      </trkpt>
      <trkpt lat="45.91344" lon="4.77081">
        <ele>177</ele>
        <time>2018-01-10T10:59:31Z</time>
      </trkpt>
      <trkpt lat="45.91345" lon="4.7709">
        <ele>177</ele>
        <time>2018-01-10T10:59:32Z</time>
      </trkpt>
      <trkpt lat="45.91346" lon="4.77098">
        <ele>177</ele>
        <time>2018-01-10T10:59:33Z</time>
      </trkpt>
      <trkpt lat="45.91348" lon="4.77106">
        <ele>177</ele>
        <time>2018-01-10T10:59:34Z</time>
      </trkpt>
      <trkpt lat="45.9135" lon="4.77113">
        <ele>177</ele>
        <time>2018-01-10T10:59:35Z</time>
      </trkpt>
      <trkpt lat="45.91351" lon="4.77121">
        <ele>177</ele>
        <time>2018-01-10T10:59:36Z</time>
      </trkpt>
      <trkpt lat="45.91353" lon="4.77128">
        <ele>177</ele>
        <time>2018-01-10T10:59:37Z</time>
      </trkpt>
      <trkpt lat="45.91355" lon="4.77134">
        <ele>177</ele>
        <time>2018-01-10T10:59:38Z</time>
      </trkpt>
      <trkpt lat="45.91356" lon="4.77142">
        <ele>177</ele>
        <time>2018-01-10T10:59:39Z</time>
      </trkpt>
      <trkpt lat="45.91357" lon="4.77149">
        <ele>177</ele>
        <time>2018-01-10T10:59:40Z</time>
      </trkpt>
      <trkpt lat="45.91359" lon="4.77157">
        <ele>177</ele>
        <time>2018-01-10T10:59:41Z</time>
      </trkpt>
      <trkpt lat="45.9136" lon="4.77166">
        <ele>177</ele>
        <time>2018-01-10T10:59:42Z</time>
      </trkpt>
      <trkpt lat="45.91363" lon="4.77173">
        <ele>176</ele>
        <time>2018-01-10T10:59:43Z</time>
      </trkpt>
      <trkpt lat="45.91364" lon="4.77182">
        <ele>176</ele>
        <time>2018-01-10T10:59:44Z</time>
      </trkpt>
      <trkpt lat="45.91366" lon="4.77191">
        <ele>176</ele>
        <time>2018-01-10T10:59:45Z</time>
      </trkpt>
      <trkpt lat="45.91369" lon="4.77201">
        <ele>176</ele>
        <time>2018-01-10T10:59:46Z</time>
      </trkpt>
      <trkpt lat="45.91371" lon="4.7721">
        <ele>176</ele>
        <time>2018-01-10T10:59:47Z</time>
      </trkpt>
      <trkpt lat="45.91372" lon="4.77218">
        <ele>176</ele>
        <time>2018-01-10T10:59:48Z</time>
      </trkpt>
      <trkpt lat="45.91374" lon="4.77227">
        <ele>176</ele>
        <time>2018-01-10T10:59:49Z</time>
      </trkpt>
      <trkpt lat="45.91374" lon="4.77236">
        <ele>176</ele>
        <time>2018-01-10T10:59:50Z</time>
      </trkpt>
      <trkpt lat="45.91376" lon="4.77245">
        <ele>176</ele>
        <time>2018-01-10T10:59:51Z</time>
      </trkpt>
      <trkpt lat="45.91378" lon="4.77254">
        <ele>175</ele>
        <time>2018-01-10T10:59:52Z</time>
      </trkpt>
      <trkpt lat="45.9138" lon="4.77263">
        <ele>175</ele>
        <time>2018-01-10T10:59:53Z</time>
      </trkpt>
      <trkpt lat="45.9138" lon="4.77272">
        <ele>175</ele>
        <time>2018-01-10T10:59:54Z</time>
      </trkpt>
      <trkpt lat="45.91381" lon="4.7728">
        <ele>175</ele>
        <time>2018-01-10T10:59:55Z</time>
      </trkpt>
      <trkpt lat="45.91381" lon="4.77287">
        <ele>175</ele>
        <time>2018-01-10T10:59:56Z</time>
      </trkpt>
      <trkpt lat="45.91381" lon="4.77296">
        <ele>175</ele>
        <time>2018-01-10T10:59:57Z</time>
      </trkpt>
      <trkpt lat="45.91382" lon="4.77304">
        <ele>175</ele>
        <time>2018-01-10T10:59:58Z</time>
      </trkpt>
      <trkpt lat="45.91382" lon="4.77313">
        <ele>175</ele>
        <time>2018-01-10T10:59:59Z</time>
      </trkpt>
      <trkpt lat="45.91383" lon="4.77335">
        <ele>175</ele>
        <time>2018-01-10T11:00:02Z</time>
      </trkpt>
      <trkpt lat="45.91384" lon="4.77348">
        <ele>175</ele>
        <time>2018-01-10T11:00:04Z</time>
      </trkpt>
      <trkpt lat="45.91384" lon="4.77355">
        <ele>174</ele>
        <time>2018-01-10T11:00:05Z</time>
      </trkpt>
      <trkpt lat="45.91384" lon="4.77363">
        <ele>174</ele>
        <time>2018-01-10T11:00:06Z</time>
      </trkpt>
      <trkpt lat="45.91384" lon="4.7737">
        <ele>174</ele>
        <time>2018-01-10T11:00:07Z</time>
      </trkpt>
      <trkpt lat="45.91384" lon="4.77379">
        <ele>174</ele>
        <time>2018-01-10T11:00:08Z</time>
      </trkpt>
      <trkpt lat="45.91385" lon="4.77388">
        <ele>174</ele>
        <time>2018-01-10T11:00:09Z</time>
      </trkpt>
      <trkpt lat="45.91385" lon="4.77397">
        <ele>174</ele>
        <time>2018-01-10T11:00:10Z</time>
      </trkpt>
      <trkpt lat="45.91384" lon="4.77405">
        <ele>174</ele>
        <time>2018-01-10T11:00:11Z</time>
      </trkpt>
      <trkpt lat="45.91384" lon="4.77413">
        <ele>174</ele>
        <time>2018-01-10T11:00:12Z</time>
      </trkpt>
      <trkpt lat="45.91383" lon="4.7742">
        <ele>174</ele>
        <time>2018-01-10T11:00:13Z</time>
      </trkpt>
      <trkpt lat="45.91383" lon="4.77429">
        <ele>174</ele>
        <time>2018-01-10T11:00:14Z</time>
      </trkpt>
      <trkpt lat="45.91385" lon="4.77435">
        <ele>174</ele>
        <time>2018-01-10T11:00:15Z</time>
      </trkpt>
      <trkpt lat="45.91385" lon="4.77444">
        <ele>174</ele>
        <time>2018-01-10T11:00:16Z</time>
      </trkpt>
      <trkpt lat="45.91385" lon="4.77451">
        <ele>174</ele>
        <time>2018-01-10T11:00:17Z</time>
      </trkpt>
      <trkpt lat="45.91386" lon="4.7746">
        <ele>174</ele>
        <time>2018-01-10T11:00:18Z</time>
      </trkpt>
      <trkpt lat="45.91387" lon="4.77469">
        <ele>174</ele>
        <time>2018-01-10T11:00:19Z</time>
      </trkpt>
      <trkpt lat="45.91387" lon="4.77477">
        <ele>174</ele>
        <time>2018-01-10T11:00:20Z</time>
      </trkpt>
      <trkpt lat="45.91388" lon="4.77487">
        <ele>174</ele>
        <time>2018-01-10T11:00:21Z</time>
      </trkpt>
      <trkpt lat="45.91388" lon="4.77494">
        <ele>174</ele>
        <time>2018-01-10T11:00:22Z</time>
      </trkpt>
      <trkpt lat="45.91389" lon="4.77502">
        <ele>174</ele>
        <time>2018-01-10T11:00:23Z</time>
      </trkpt>
      <trkpt lat="45.9139" lon="4.7751">
        <ele>174</ele>
        <time>2018-01-10T11:00:24Z</time>
      </trkpt>
      <trkpt lat="45.9139" lon="4.77516">
        <ele>174</ele>
        <time>2018-01-10T11:00:25Z</time>
      </trkpt>
      <trkpt lat="45.91391" lon="4.77529">
        <ele>174</ele>
        <time>2018-01-10T11:00:27Z</time>
      </trkpt>
      <trkpt lat="45.91392" lon="4.77538">
        <ele>174</ele>
        <time>2018-01-10T11:00:28Z</time>
      </trkpt>
      <trkpt lat="45.91393" lon="4.77547">
        <ele>174</ele>
        <time>2018-01-10T11:00:29Z</time>
      </trkpt>
      <trkpt lat="45.91395" lon="4.77556">
        <ele>174</ele>
        <time>2018-01-10T11:00:30Z</time>
      </trkpt>
      <trkpt lat="45.91394" lon="4.77569">
        <ele>174</ele>
        <time>2018-01-10T11:00:31Z</time>
      </trkpt>
      <trkpt lat="45.91391" lon="4.77574">
        <ele>174</ele>
        <time>2018-01-10T11:00:32Z</time>
      </trkpt>
      <trkpt lat="45.91395" lon="4.77585">
        <ele>174</ele>
        <time>2018-01-10T11:00:34Z</time>
      </trkpt>
      <trkpt lat="45.91395" lon="4.7759">
        <ele>174</ele>
        <time>2018-01-10T11:00:35Z</time>
      </trkpt>
      <trkpt lat="45.91396" lon="4.77601">
        <ele>174</ele>
        <time>2018-01-10T11:00:37Z</time>
      </trkpt>
      <trkpt lat="45.91396" lon="4.77608">
        <ele>174</ele>
        <time>2018-01-10T11:00:38Z</time>
      </trkpt>
      <trkpt lat="45.91398" lon="4.77614">
        <ele>175</ele>
        <time>2018-01-10T11:00:39Z</time>
      </trkpt>
      <trkpt lat="45.91399" lon="4.77621">
        <ele>175</ele>
        <time>2018-01-10T11:00:40Z</time>
      </trkpt>
      <trkpt lat="45.91402" lon="4.77632">
        <ele>175</ele>
        <time>2018-01-10T11:00:42Z</time>
      </trkpt>
      <trkpt lat="45.91401" lon="4.77637">
        <ele>175</ele>
        <time>2018-01-10T11:00:43Z</time>
      </trkpt>
      <trkpt lat="45.91404" lon="4.77646">
        <ele>175</ele>
        <time>2018-01-10T11:00:45Z</time>
      </trkpt>
      <trkpt lat="45.91406" lon="4.77652">
        <ele>175</ele>
        <time>2018-01-10T11:00:46Z</time>
      </trkpt>
      <trkpt lat="45.91407" lon="4.77661">
        <ele>175</ele>
        <time>2018-01-10T11:00:48Z</time>
      </trkpt>
      <trkpt lat="45.91406" lon="4.77666">
        <ele>175</ele>
        <time>2018-01-10T11:00:49Z</time>
      </trkpt>
      <trkpt lat="45.91403" lon="4.77673">
        <ele>176</ele>
        <time>2018-01-10T11:00:51Z</time>
      </trkpt>
      <trkpt lat="45.91403" lon="4.77678">
        <ele>176</ele>
        <time>2018-01-10T11:00:52Z</time>
      </trkpt>
      <trkpt lat="45.91404" lon="4.77688">
        <ele>176</ele>
        <time>2018-01-10T11:00:54Z</time>
      </trkpt>
      <trkpt lat="45.91406" lon="4.77693">
        <ele>176</ele>
        <time>2018-01-10T11:00:55Z</time>
      </trkpt>
      <trkpt lat="45.91408" lon="4.77701">
        <ele>176</ele>
        <time>2018-01-10T11:00:57Z</time>
      </trkpt>
      <trkpt lat="45.91409" lon="4.77706">
        <ele>176</ele>
        <time>2018-01-10T11:00:58Z</time>
      </trkpt>
      <trkpt lat="45.91406" lon="4.77715">
        <ele>177</ele>
        <time>2018-01-10T11:01:01Z</time>
      </trkpt>
      <trkpt lat="45.91402" lon="4.77716">
        <ele>177</ele>
        <time>2018-01-10T11:01:02Z</time>
      </trkpt>
      <trkpt lat="45.91395" lon="4.77715">
        <ele>177</ele>
        <time>2018-01-10T11:01:04Z</time>
      </trkpt>
      <trkpt lat="45.9139" lon="4.77715">
        <ele>176</ele>
        <time>2018-01-10T11:01:05Z</time>
      </trkpt>
      <trkpt lat="45.91382" lon="4.77715">
        <ele>176</ele>
        <time>2018-01-10T11:01:07Z</time>
      </trkpt>
      <trkpt lat="45.91379" lon="4.77716">
        <ele>176</ele>
        <time>2018-01-10T11:01:08Z</time>
      </trkpt>
      <trkpt lat="45.91371" lon="4.77715">
        <ele>176</ele>
        <time>2018-01-10T11:01:10Z</time>
      </trkpt>
      <trkpt lat="45.91367" lon="4.77716">
        <ele>176</ele>
        <time>2018-01-10T11:01:11Z</time>
      </trkpt>
      <trkpt lat="45.91359" lon="4.77716">
        <ele>176</ele>
        <time>2018-01-10T11:01:13Z</time>
      </trkpt>
      <trkpt lat="45.91354" lon="4.77717">
        <ele>176</ele>
        <time>2018-01-10T11:01:14Z</time>
      </trkpt>
      <trkpt lat="45.91346" lon="4.77717">
        <ele>176</ele>
        <time>2018-01-10T11:01:16Z</time>
      </trkpt>
      <trkpt lat="45.91342" lon="4.77715">
        <ele>176</ele>
        <time>2018-01-10T11:01:17Z</time>
      </trkpt>
      <trkpt lat="45.91338" lon="4.77714">
        <ele>176</ele>
        <time>2018-01-10T11:01:18Z</time>
      </trkpt>
      <trkpt lat="45.91332" lon="4.77714">
        <ele>176</ele>
        <time>2018-01-10T11:01:19Z</time>
      </trkpt>
      <trkpt lat="45.91328" lon="4.77714">
        <ele>176</ele>
        <time>2018-01-10T11:01:20Z</time>
      </trkpt>
      <trkpt lat="45.91323" lon="4.77714">
        <ele>176</ele>
        <time>2018-01-10T11:01:21Z</time>
      </trkpt>
      <trkpt lat="45.91317" lon="4.77709">
        <ele>176</ele>
        <time>2018-01-10T11:01:23Z</time>
      </trkpt>
      <trkpt lat="45.91312" lon="4.77707">
        <ele>176</ele>
        <time>2018-01-10T11:01:24Z</time>
      </trkpt>
      <trkpt lat="45.91307" lon="4.77704">
        <ele>176</ele>
        <time>2018-01-10T11:01:25Z</time>
      </trkpt>
      <trkpt lat="45.91303" lon="4.777">
        <ele>176</ele>
        <time>2018-01-10T11:01:26Z</time>
      </trkpt>
      <trkpt lat="45.91295" lon="4.77693">
        <ele>176</ele>
        <time>2018-01-10T11:01:28Z</time>
      </trkpt>
      <trkpt lat="45.91291" lon="4.77691">
        <ele>176</ele>
        <time>2018-01-10T11:01:29Z</time>
      </trkpt>
      <trkpt lat="45.91286" lon="4.7769">
        <ele>176</ele>
        <time>2018-01-10T11:01:30Z</time>
      </trkpt>
      <trkpt lat="45.91282" lon="4.77688">
        <ele>176</ele>
        <time>2018-01-10T11:01:31Z</time>
      </trkpt>
      <trkpt lat="45.91278" lon="4.77686">
        <ele>176</ele>
        <time>2018-01-10T11:01:32Z</time>
      </trkpt>
      <trkpt lat="45.91273" lon="4.77685">
        <ele>176</ele>
        <time>2018-01-10T11:01:33Z</time>
      </trkpt>
      <trkpt lat="45.91269" lon="4.77682">
        <ele>176</ele>
        <time>2018-01-10T11:01:34Z</time>
      </trkpt>
      <trkpt lat="45.91265" lon="4.77679">
        <ele>176</ele>
        <time>2018-01-10T11:01:35Z</time>
      </trkpt>
      <trkpt lat="45.91259" lon="4.77678">
        <ele>175</ele>
        <time>2018-01-10T11:01:36Z</time>
      </trkpt>
      <trkpt lat="45.91253" lon="4.77677">
        <ele>175</ele>
        <time>2018-01-10T11:01:37Z</time>
      </trkpt>
      <trkpt lat="45.91248" lon="4.77678">
        <ele>176</ele>
        <time>2018-01-10T11:01:38Z</time>
      </trkpt>
      <trkpt lat="45.91243" lon="4.77679">
        <ele>176</ele>
        <time>2018-01-10T11:01:39Z</time>
      </trkpt>
      <trkpt lat="45.91234" lon="4.77681">
        <ele>176</ele>
        <time>2018-01-10T11:01:41Z</time>
      </trkpt>
      <trkpt lat="45.9123" lon="4.77682">
        <ele>176</ele>
        <time>2018-01-10T11:01:42Z</time>
      </trkpt>
      <trkpt lat="45.91226" lon="4.77683">
        <ele>176</ele>
        <time>2018-01-10T11:01:43Z</time>
      </trkpt>
      <trkpt lat="45.91219" lon="4.77685">
        <ele>176</ele>
        <time>2018-01-10T11:01:44Z</time>
      </trkpt>
      <trkpt lat="45.91212" lon="4.77687">
        <ele>176</ele>
        <time>2018-01-10T11:01:46Z</time>
      </trkpt>
      <trkpt lat="45.91207" lon="4.77689">
        <ele>176</ele>
        <time>2018-01-10T11:01:47Z</time>
      </trkpt>
      <trkpt lat="45.91203" lon="4.77691">
        <ele>176</ele>
        <time>2018-01-10T11:01:48Z</time>
      </trkpt>
      <trkpt lat="45.91197" lon="4.77692">
        <ele>176</ele>
        <time>2018-01-10T11:01:49Z</time>
      </trkpt>
      <trkpt lat="45.91192" lon="4.77693">
        <ele>176</ele>
        <time>2018-01-10T11:01:50Z</time>
      </trkpt>
      <trkpt lat="45.91187" lon="4.77695">
        <ele>176</ele>
        <time>2018-01-10T11:01:51Z</time>
      </trkpt>
      <trkpt lat="45.91179" lon="4.77698">
        <ele>176</ele>
        <time>2018-01-10T11:01:53Z</time>
      </trkpt>
      <trkpt lat="45.91173" lon="4.777">
        <ele>176</ele>
        <time>2018-01-10T11:01:54Z</time>
      </trkpt>
      <trkpt lat="45.91165" lon="4.77702">
        <ele>177</ele>
        <time>2018-01-10T11:01:56Z</time>
      </trkpt>
      <trkpt lat="45.9116" lon="4.77703">
        <ele>177</ele>
        <time>2018-01-10T11:01:57Z</time>
      </trkpt>
      <trkpt lat="45.91155" lon="4.77707">
        <ele>177</ele>
        <time>2018-01-10T11:01:58Z</time>
      </trkpt>
      <trkpt lat="45.91149" lon="4.7771">
        <ele>177</ele>
        <time>2018-01-10T11:01:59Z</time>
      </trkpt>
      <trkpt lat="45.91144" lon="4.77712">
        <ele>177</ele>
        <time>2018-01-10T11:02:00Z</time>
      </trkpt>
      <trkpt lat="45.91139" lon="4.77713">
        <ele>177</ele>
        <time>2018-01-10T11:02:01Z</time>
      </trkpt>
      <trkpt lat="45.91135" lon="4.77714">
        <ele>177</ele>
        <time>2018-01-10T11:02:02Z</time>
      </trkpt>
      <trkpt lat="45.9113" lon="4.77716">
        <ele>177</ele>
        <time>2018-01-10T11:02:03Z</time>
      </trkpt>
      <trkpt lat="45.91125" lon="4.77718">
        <ele>177</ele>
        <time>2018-01-10T11:02:04Z</time>
      </trkpt>
      <trkpt lat="45.91121" lon="4.7772">
        <ele>177</ele>
        <time>2018-01-10T11:02:05Z</time>
      </trkpt>
      <trkpt lat="45.91117" lon="4.77724">
        <ele>178</ele>
        <time>2018-01-10T11:02:06Z</time>
      </trkpt>
      <trkpt lat="45.91112" lon="4.77726">
        <ele>178</ele>
        <time>2018-01-10T11:02:07Z</time>
      </trkpt>
      <trkpt lat="45.91108" lon="4.77729">
        <ele>178</ele>
        <time>2018-01-10T11:02:08Z</time>
      </trkpt>
      <trkpt lat="45.91104" lon="4.77732">
        <ele>178</ele>
        <time>2018-01-10T11:02:09Z</time>
      </trkpt>
      <trkpt lat="45.911" lon="4.77734">
        <ele>178</ele>
        <time>2018-01-10T11:02:10Z</time>
      </trkpt>
      <trkpt lat="45.91095" lon="4.77737">
        <ele>178</ele>
        <time>2018-01-10T11:02:11Z</time>
      </trkpt>
      <trkpt lat="45.9109" lon="4.77739">
        <ele>178</ele>
        <time>2018-01-10T11:02:12Z</time>
      </trkpt>
      <trkpt lat="45.91086" lon="4.7774">
        <ele>178</ele>
        <time>2018-01-10T11:02:13Z</time>
      </trkpt>
      <trkpt lat="45.91081" lon="4.77744">
        <ele>179</ele>
        <time>2018-01-10T11:02:14Z</time>
      </trkpt>
      <trkpt lat="45.91076" lon="4.77746">
        <ele>179</ele>
        <time>2018-01-10T11:02:15Z</time>
      </trkpt>
      <trkpt lat="45.91071" lon="4.77749">
        <ele>179</ele>
        <time>2018-01-10T11:02:16Z</time>
      </trkpt>
      <trkpt lat="45.91066" lon="4.77751">
        <ele>179</ele>
        <time>2018-01-10T11:02:17Z</time>
      </trkpt>
      <trkpt lat="45.91059" lon="4.77758">
        <ele>178</ele>
        <time>2018-01-10T11:02:19Z</time>
      </trkpt>
      <trkpt lat="45.91055" lon="4.77762">
        <ele>178</ele>
        <time>2018-01-10T11:02:20Z</time>
      </trkpt>
      <trkpt lat="45.9105" lon="4.77764">
        <ele>178</ele>
        <time>2018-01-10T11:02:21Z</time>
      </trkpt>
      <trkpt lat="45.91045" lon="4.77767">
        <ele>178</ele>
        <time>2018-01-10T11:02:22Z</time>
      </trkpt>
      <trkpt lat="45.9104" lon="4.77769">
        <ele>178</ele>
        <time>2018-01-10T11:02:23Z</time>
      </trkpt>
      <trkpt lat="45.91035" lon="4.77771">
        <ele>178</ele>
        <time>2018-01-10T11:02:24Z</time>
      </trkpt>
      <trkpt lat="45.9103" lon="4.77773">
        <ele>178</ele>
        <time>2018-01-10T11:02:25Z</time>
      </trkpt>
      <trkpt lat="45.91025" lon="4.77775">
        <ele>178</ele>
        <time>2018-01-10T11:02:26Z</time>
      </trkpt>
      <trkpt lat="45.9102" lon="4.77777">
        <ele>178</ele>
        <time>2018-01-10T11:02:27Z</time>
      </trkpt>
      <trkpt lat="45.91014" lon="4.77779">
        <ele>178</ele>
        <time>2018-01-10T11:02:28Z</time>
      </trkpt>
      <trkpt lat="45.91006" lon="4.7778">
        <ele>178</ele>
        <time>2018-01-10T11:02:30Z</time>
      </trkpt>
      <trkpt lat="45.91001" lon="4.77782">
        <ele>178</ele>
        <time>2018-01-10T11:02:31Z</time>
      </trkpt>
      <trkpt lat="45.90993" lon="4.77784">
        <ele>177</ele>
        <time>2018-01-10T11:02:33Z</time>
      </trkpt>
      <trkpt lat="45.90988" lon="4.77785">
        <ele>177</ele>
        <time>2018-01-10T11:02:34Z</time>
      </trkpt>
      <trkpt lat="45.90979" lon="4.77785">
        <ele>177</ele>
        <time>2018-01-10T11:02:36Z</time>
      </trkpt>
      <trkpt lat="45.90974" lon="4.77785">
        <ele>177</ele>
        <time>2018-01-10T11:02:37Z</time>
      </trkpt>
      <trkpt lat="45.90965" lon="4.77785">
        <ele>177</ele>
        <time>2018-01-10T11:02:39Z</time>
      </trkpt>
      <trkpt lat="45.90962" lon="4.77783">
        <ele>177</ele>
        <time>2018-01-10T11:02:40Z</time>
      </trkpt>
      <trkpt lat="45.90956" lon="4.77778">
        <ele>177</ele>
        <time>2018-01-10T11:02:42Z</time>
      </trkpt>
      <trkpt lat="45.90953" lon="4.77774">
        <ele>177</ele>
        <time>2018-01-10T11:02:43Z</time>
      </trkpt>
      <trkpt lat="45.90946" lon="4.77769">
        <ele>177</ele>
        <time>2018-01-10T11:02:45Z</time>
      </trkpt>
      <trkpt lat="45.90942" lon="4.77768">
        <ele>177</ele>
        <time>2018-01-10T11:02:46Z</time>
      </trkpt>
      <trkpt lat="45.90935" lon="4.77768">
        <ele>177</ele>
        <time>2018-01-10T11:02:48Z</time>
      </trkpt>
      <trkpt lat="45.90931" lon="4.77767">
        <ele>177</ele>
        <time>2018-01-10T11:02:49Z</time>
      </trkpt>
      <trkpt lat="45.90923" lon="4.77762">
        <ele>176</ele>
        <time>2018-01-10T11:02:51Z</time>
      </trkpt>
      <trkpt lat="45.9092" lon="4.77758">
        <ele>176</ele>
        <time>2018-01-10T11:02:52Z</time>
      </trkpt>
      <trkpt lat="45.90914" lon="4.7775">
        <ele>176</ele>
        <time>2018-01-10T11:02:54Z</time>
      </trkpt>
      <trkpt lat="45.90912" lon="4.77745">
        <ele>176</ele>
        <time>2018-01-10T11:02:55Z</time>
      </trkpt>
      <trkpt lat="45.90905" lon="4.77737">
        <ele>177</ele>
        <time>2018-01-10T11:02:57Z</time>
      </trkpt>
      <trkpt lat="45.90901" lon="4.77733">
        <ele>177</ele>
        <time>2018-01-10T11:02:58Z</time>
      </trkpt>
      <trkpt lat="45.90895" lon="4.77724">
        <ele>177</ele>
        <time>2018-01-10T11:03:00Z</time>
      </trkpt>
      <trkpt lat="45.90892" lon="4.7772">
        <ele>177</ele>
        <time>2018-01-10T11:03:01Z</time>
      </trkpt>
      <trkpt lat="45.90885" lon="4.77713">
        <ele>177</ele>
        <time>2018-01-10T11:03:03Z</time>
      </trkpt>
      <trkpt lat="45.90882" lon="4.77709">
        <ele>177</ele>
        <time>2018-01-10T11:03:04Z</time>
      </trkpt>
      <trkpt lat="45.90875" lon="4.77704">
        <ele>178</ele>
        <time>2018-01-10T11:03:06Z</time>
      </trkpt>
      <trkpt lat="45.90872" lon="4.77702">
        <ele>178</ele>
        <time>2018-01-10T11:03:07Z</time>
      </trkpt>
      <trkpt lat="45.90866" lon="4.77696">
        <ele>178</ele>
        <time>2018-01-10T11:03:09Z</time>
      </trkpt>
      <trkpt lat="45.90863" lon="4.77693">
        <ele>178</ele>
        <time>2018-01-10T11:03:10Z</time>
      </trkpt>
      <trkpt lat="45.90857" lon="4.77689">
        <ele>178</ele>
        <time>2018-01-10T11:03:12Z</time>
      </trkpt>
      <trkpt lat="45.90854" lon="4.77687">
        <ele>178</ele>
        <time>2018-01-10T11:03:13Z</time>
      </trkpt>
      <trkpt lat="45.90848" lon="4.77683">
        <ele>178</ele>
        <time>2018-01-10T11:03:15Z</time>
      </trkpt>
      <trkpt lat="45.90846" lon="4.77681">
        <ele>178</ele>
        <time>2018-01-10T11:03:16Z</time>
      </trkpt>
      <trkpt lat="45.90837" lon="4.77676">
        <ele>179</ele>
        <time>2018-01-10T11:03:19Z</time>
      </trkpt>
      <trkpt lat="45.90834" lon="4.77675">
        <ele>179</ele>
        <time>2018-01-10T11:03:20Z</time>
      </trkpt>
      <trkpt lat="45.90827" lon="4.77672">
        <ele>179</ele>
        <time>2018-01-10T11:03:22Z</time>
      </trkpt>
      <trkpt lat="45.90825" lon="4.77671">
        <ele>179</ele>
        <time>2018-01-10T11:03:23Z</time>
      </trkpt>
      <trkpt lat="45.90818" lon="4.7767">
        <ele>179</ele>
        <time>2018-01-10T11:03:25Z</time>
      </trkpt>
      <trkpt lat="45.90814" lon="4.77669">
        <ele>179</ele>
        <time>2018-01-10T11:03:26Z</time>
      </trkpt>
      <trkpt lat="45.90808" lon="4.77668">
        <ele>179</ele>
        <time>2018-01-10T11:03:28Z</time>
      </trkpt>
      <trkpt lat="45.90804" lon="4.77668">
        <ele>179</ele>
        <time>2018-01-10T11:03:29Z</time>
      </trkpt>
      <trkpt lat="45.90797" lon="4.77667">
        <ele>179</ele>
        <time>2018-01-10T11:03:31Z</time>
      </trkpt>
      <trkpt lat="45.90795" lon="4.77666">
        <ele>179</ele>
        <time>2018-01-10T11:03:32Z</time>
      </trkpt>
      <trkpt lat="45.90789" lon="4.77664">
        <ele>179</ele>
        <time>2018-01-10T11:03:34Z</time>
      </trkpt>
      <trkpt lat="45.90786" lon="4.77663">
        <ele>179</ele>
        <time>2018-01-10T11:03:35Z</time>
      </trkpt>
      <trkpt lat="45.90779" lon="4.7766">
        <ele>180</ele>
        <time>2018-01-10T11:03:37Z</time>
      </trkpt>
      <trkpt lat="45.90776" lon="4.7766">
        <ele>180</ele>
        <time>2018-01-10T11:03:38Z</time>
      </trkpt>
      <trkpt lat="45.90768" lon="4.77656">
        <ele>180</ele>
        <time>2018-01-10T11:03:41Z</time>
      </trkpt>
      <trkpt lat="45.90765" lon="4.77655">
        <ele>180</ele>
        <time>2018-01-10T11:03:42Z</time>
      </trkpt>
      <trkpt lat="45.9076" lon="4.77649">
        <ele>180</ele>
        <time>2018-01-10T11:03:44Z</time>
      </trkpt>
      <trkpt lat="45.90758" lon="4.77645">
        <ele>180</ele>
        <time>2018-01-10T11:03:45Z</time>
      </trkpt>
      <trkpt lat="45.9076" lon="4.77634">
        <ele>179</ele>
        <time>2018-01-10T11:03:48Z</time>
      </trkpt>
      <trkpt lat="45.90762" lon="4.7763">
        <ele>179</ele>
        <time>2018-01-10T11:03:49Z</time>
      </trkpt>
      <trkpt lat="45.90767" lon="4.77623">
        <ele>179</ele>
        <time>2018-01-10T11:03:51Z</time>
      </trkpt>
      <trkpt lat="45.9077" lon="4.77619">
        <ele>179</ele>
        <time>2018-01-10T11:03:52Z</time>
      </trkpt>
      <trkpt lat="45.90775" lon="4.77611">
        <ele>179</ele>
        <time>2018-01-10T11:03:54Z</time>
      </trkpt>
      <trkpt lat="45.90776" lon="4.77607">
        <ele>179</ele>
        <time>2018-01-10T11:03:55Z</time>
      </trkpt>
      <trkpt lat="45.90783" lon="4.77601">
        <ele>179</ele>
        <time>2018-01-10T11:04:03Z</time>
      </trkpt>
      <trkpt lat="45.90785" lon="4.77598">
        <ele>179</ele>
        <time>2018-01-10T11:04:04Z</time>
      </trkpt>
      <trkpt lat="45.9079" lon="4.7759">
        <ele>179</ele>
        <time>2018-01-10T11:04:07Z</time>
      </trkpt>
      <trkpt lat="45.90792" lon="4.77587">
        <ele>179</ele>
        <time>2018-01-10T11:04:08Z</time>
      </trkpt>
      <trkpt lat="45.90798" lon="4.77579">
        <ele>178</ele>
        <time>2018-01-10T11:04:10Z</time>
      </trkpt>
      <trkpt lat="45.90801" lon="4.77575">
        <ele>178</ele>
        <time>2018-01-10T11:04:11Z</time>
      </trkpt>
      <trkpt lat="45.90805" lon="4.7757">
        <ele>178</ele>
        <time>2018-01-10T11:04:12Z</time>
      </trkpt>
      <trkpt lat="45.90808" lon="4.77565">
        <ele>178</ele>
        <time>2018-01-10T11:04:13Z</time>
      </trkpt>
      <trkpt lat="45.90811" lon="4.77559">
        <ele>178</ele>
        <time>2018-01-10T11:04:14Z</time>
      </trkpt>
      <trkpt lat="45.90815" lon="4.77554">
        <ele>178</ele>
        <time>2018-01-10T11:04:15Z</time>
      </trkpt>
      <trkpt lat="45.90818" lon="4.77549">
        <ele>178</ele>
        <time>2018-01-10T11:04:16Z</time>
      </trkpt>
      <trkpt lat="45.90822" lon="4.77545">
        <ele>178</ele>
        <time>2018-01-10T11:04:17Z</time>
      </trkpt>
      <trkpt lat="45.90825" lon="4.77538">
        <ele>178</ele>
        <time>2018-01-10T11:04:18Z</time>
      </trkpt>
      <trkpt lat="45.90828" lon="4.77532">
        <ele>178</ele>
        <time>2018-01-10T11:04:19Z</time>
      </trkpt>
      <trkpt lat="45.90831" lon="4.77526">
        <ele>178</ele>
        <time>2018-01-10T11:04:20Z</time>
      </trkpt>
      <trkpt lat="45.90835" lon="4.77521">
        <ele>178</ele>
        <time>2018-01-10T11:04:21Z</time>
      </trkpt>
      <trkpt lat="45.90838" lon="4.77516">
        <ele>179</ele>
        <time>2018-01-10T11:04:22Z</time>
      </trkpt>
      <trkpt lat="45.90842" lon="4.77511">
        <ele>179</ele>
        <time>2018-01-10T11:04:23Z</time>
      </trkpt>
      <trkpt lat="45.90846" lon="4.77505">
        <ele>179</ele>
        <time>2018-01-10T11:04:24Z</time>
      </trkpt>
      <trkpt lat="45.90849" lon="4.775">
        <ele>178</ele>
        <time>2018-01-10T11:04:25Z</time>
      </trkpt>
      <trkpt lat="45.90854" lon="4.77493">
        <ele>178</ele>
        <time>2018-01-10T11:04:26Z</time>
      </trkpt>
      <trkpt lat="45.90857" lon="4.77487">
        <ele>178</ele>
        <time>2018-01-10T11:04:27Z</time>
      </trkpt>
      <trkpt lat="45.90861" lon="4.77482">
        <ele>178</ele>
        <time>2018-01-10T11:04:28Z</time>
      </trkpt>
      <trkpt lat="45.90864" lon="4.77476">
        <ele>178</ele>
        <time>2018-01-10T11:04:29Z</time>
      </trkpt>
      <trkpt lat="45.90868" lon="4.7747">
        <ele>178</ele>
        <time>2018-01-10T11:04:30Z</time>
      </trkpt>
      <trkpt lat="45.90871" lon="4.77464">
        <ele>178</ele>
        <time>2018-01-10T11:04:31Z</time>
      </trkpt>
      <trkpt lat="45.90874" lon="4.77459">
        <ele>178</ele>
        <time>2018-01-10T11:04:32Z</time>
      </trkpt>
      <trkpt lat="45.90878" lon="4.77454">
        <ele>178</ele>
        <time>2018-01-10T11:04:33Z</time>
      </trkpt>
      <trkpt lat="45.90881" lon="4.77446">
        <ele>178</ele>
        <time>2018-01-10T11:04:34Z</time>
      </trkpt>
      <trkpt lat="45.90885" lon="4.77439">
        <ele>177</ele>
        <time>2018-01-10T11:04:35Z</time>
      </trkpt>
      <trkpt lat="45.90888" lon="4.77433">
        <ele>177</ele>
        <time>2018-01-10T11:04:36Z</time>
      </trkpt>
      <trkpt lat="45.90891" lon="4.77426">
        <ele>177</ele>
        <time>2018-01-10T11:04:37Z</time>
      </trkpt>
      <trkpt lat="45.90894" lon="4.77421">
        <ele>177</ele>
        <time>2018-01-10T11:04:38Z</time>
      </trkpt>
      <trkpt lat="45.90897" lon="4.77416">
        <ele>177</ele>
        <time>2018-01-10T11:04:39Z</time>
      </trkpt>
      <trkpt lat="45.90903" lon="4.77406">
        <ele>177</ele>
        <time>2018-01-10T11:04:41Z</time>
      </trkpt>
      <trkpt lat="45.90907" lon="4.774">
        <ele>177</ele>
        <time>2018-01-10T11:04:42Z</time>
      </trkpt>
      <trkpt lat="45.90909" lon="4.77394">
        <ele>177</ele>
        <time>2018-01-10T11:04:43Z</time>
      </trkpt>
      <trkpt lat="45.90913" lon="4.7739">
        <ele>177</ele>
        <time>2018-01-10T11:04:44Z</time>
      </trkpt>
      <trkpt lat="45.90918" lon="4.7738">
        <ele>176</ele>
        <time>2018-01-10T11:04:46Z</time>
      </trkpt>
      <trkpt lat="45.90921" lon="4.77374">
        <ele>177</ele>
        <time>2018-01-10T11:04:47Z</time>
      </trkpt>
      <trkpt lat="45.90926" lon="4.77364">
        <ele>177</ele>
        <time>2018-01-10T11:04:49Z</time>
      </trkpt>
      <trkpt lat="45.90929" lon="4.77359">
        <ele>177</ele>
        <time>2018-01-10T11:04:50Z</time>
      </trkpt>
      <trkpt lat="45.90933" lon="4.77352">
        <ele>177</ele>
        <time>2018-01-10T11:04:51Z</time>
      </trkpt>
      <trkpt lat="45.90936" lon="4.77346">
        <ele>177</ele>
        <time>2018-01-10T11:04:52Z</time>
      </trkpt>
      <trkpt lat="45.90939" lon="4.77341">
        <ele>177</ele>
        <time>2018-01-10T11:04:53Z</time>
      </trkpt>
      <trkpt lat="45.90942" lon="4.77335">
        <ele>177</ele>
        <time>2018-01-10T11:04:54Z</time>
      </trkpt>
      <trkpt lat="45.90945" lon="4.77329">
        <ele>178</ele>
        <time>2018-01-10T11:04:55Z</time>
      </trkpt>
      <trkpt lat="45.90948" lon="4.77322">
        <ele>178</ele>
        <time>2018-01-10T11:04:56Z</time>
      </trkpt>
      <trkpt lat="45.90951" lon="4.77316">
        <ele>178</ele>
        <time>2018-01-10T11:04:57Z</time>
      </trkpt>
      <trkpt lat="45.90954" lon="4.77311">
        <ele>178</ele>
        <time>2018-01-10T11:04:58Z</time>
      </trkpt>
      <trkpt lat="45.90957" lon="4.77306">
        <ele>178</ele>
        <time>2018-01-10T11:04:59Z</time>
      </trkpt>
      <trkpt lat="45.90961" lon="4.773">
        <ele>178</ele>
        <time>2018-01-10T11:05:00Z</time>
      </trkpt>
      <trkpt lat="45.90966" lon="4.77291">
        <ele>178</ele>
        <time>2018-01-10T11:05:02Z</time>
      </trkpt>
      <trkpt lat="45.90969" lon="4.77285">
        <ele>178</ele>
        <time>2018-01-10T11:05:03Z</time>
      </trkpt>
      <trkpt lat="45.9097" lon="4.77278">
        <ele>178</ele>
        <time>2018-01-10T11:05:04Z</time>
      </trkpt>
      <trkpt lat="45.90973" lon="4.77272">
        <ele>178</ele>
        <time>2018-01-10T11:05:05Z</time>
      </trkpt>
      <trkpt lat="45.90974" lon="4.77265">
        <ele>178</ele>
        <time>2018-01-10T11:05:06Z</time>
      </trkpt>
      <trkpt lat="45.90975" lon="4.77257">
        <ele>178</ele>
        <time>2018-01-10T11:05:07Z</time>
      </trkpt>
      <trkpt lat="45.90975" lon="4.7725">
        <ele>178</ele>
        <time>2018-01-10T11:05:08Z</time>
      </trkpt>
      <trkpt lat="45.90973" lon="4.77244">
        <ele>178</ele>
        <time>2018-01-10T11:05:09Z</time>
      </trkpt>
      <trkpt lat="45.90969" lon="4.77233">
        <ele>177</ele>
        <time>2018-01-10T11:05:11Z</time>
      </trkpt>
      <trkpt lat="45.90966" lon="4.77226">
        <ele>177</ele>
        <time>2018-01-10T11:05:12Z</time>
      </trkpt>
      <trkpt lat="45.90963" lon="4.7722">
        <ele>177</ele>
        <time>2018-01-10T11:05:13Z</time>
      </trkpt>
      <trkpt lat="45.9096" lon="4.77214">
        <ele>177</ele>
        <time>2018-01-10T11:05:14Z</time>
      </trkpt>
      <trkpt lat="45.90957" lon="4.77208">
        <ele>177</ele>
        <time>2018-01-10T11:05:15Z</time>
      </trkpt>
      <trkpt lat="45.90953" lon="4.77201">
        <ele>177</ele>
        <time>2018-01-10T11:05:16Z</time>
      </trkpt>
      <trkpt lat="45.9095" lon="4.77194">
        <ele>176</ele>
        <time>2018-01-10T11:05:17Z</time>
      </trkpt>
      <trkpt lat="45.90945" lon="4.77187">
        <ele>176</ele>
        <time>2018-01-10T11:05:18Z</time>
      </trkpt>
      <trkpt lat="45.90941" lon="4.77181">
        <ele>176</ele>
        <time>2018-01-10T11:05:19Z</time>
      </trkpt>
      <trkpt lat="45.90936" lon="4.77173">
        <ele>176</ele>
        <time>2018-01-10T11:05:20Z</time>
      </trkpt>
      <trkpt lat="45.90932" lon="4.77167">
        <ele>176</ele>
        <time>2018-01-10T11:05:21Z</time>
      </trkpt>
      <trkpt lat="45.90926" lon="4.77161">
        <ele>175</ele>
        <time>2018-01-10T11:05:22Z</time>
      </trkpt>
      <trkpt lat="45.90921" lon="4.77155">
        <ele>176</ele>
        <time>2018-01-10T11:05:23Z</time>
      </trkpt>
      <trkpt lat="45.90916" lon="4.77149">
        <ele>176</ele>
        <time>2018-01-10T11:05:24Z</time>
      </trkpt>
      <trkpt lat="45.90913" lon="4.77143">
        <ele>176</ele>
        <time>2018-01-10T11:05:25Z</time>
      </trkpt>
      <trkpt lat="45.90909" lon="4.77138">
        <ele>176</ele>
        <time>2018-01-10T11:05:26Z</time>
      </trkpt>
      <trkpt lat="45.90906" lon="4.77133">
        <ele>176</ele>
        <time>2018-01-10T11:05:27Z</time>
      </trkpt>
      <trkpt lat="45.90901" lon="4.77127">
        <ele>176</ele>
        <time>2018-01-10T11:05:28Z</time>
      </trkpt>
      <trkpt lat="45.90898" lon="4.7712">
        <ele>176</ele>
        <time>2018-01-10T11:05:29Z</time>
      </trkpt>
      <trkpt lat="45.90893" lon="4.77115">
        <ele>176</ele>
        <time>2018-01-10T11:05:30Z</time>
      </trkpt>
      <trkpt lat="45.90888" lon="4.7711">
        <ele>176</ele>
        <time>2018-01-10T11:05:31Z</time>
      </trkpt>
      <trkpt lat="45.90883" lon="4.77104">
        <ele>176</ele>
        <time>2018-01-10T11:05:32Z</time>
      </trkpt>
      <trkpt lat="45.90878" lon="4.77099">
        <ele>176</ele>
        <time>2018-01-10T11:05:33Z</time>
      </trkpt>
      <trkpt lat="45.90874" lon="4.77094">
        <ele>176</ele>
        <time>2018-01-10T11:05:34Z</time>
      </trkpt>
      <trkpt lat="45.9087" lon="4.77088">
        <ele>176</ele>
        <time>2018-01-10T11:05:35Z</time>
      </trkpt>
      <trkpt lat="45.90866" lon="4.77083">
        <ele>177</ele>
        <time>2018-01-10T11:05:36Z</time>
      </trkpt>
      <trkpt lat="45.90862" lon="4.77079">
        <ele>177</ele>
        <time>2018-01-10T11:05:37Z</time>
      </trkpt>
      <trkpt lat="45.90857" lon="4.77073">
        <ele>177</ele>
        <time>2018-01-10T11:05:38Z</time>
      </trkpt>
      <trkpt lat="45.90854" lon="4.77068">
        <ele>177</ele>
        <time>2018-01-10T11:05:39Z</time>
      </trkpt>
      <trkpt lat="45.9085" lon="4.77064">
        <ele>177</ele>
        <time>2018-01-10T11:05:40Z</time>
      </trkpt>
      <trkpt lat="45.90846" lon="4.77059">
        <ele>177</ele>
        <time>2018-01-10T11:05:41Z</time>
      </trkpt>
      <trkpt lat="45.90844" lon="4.77052">
        <ele>177</ele>
        <time>2018-01-10T11:05:42Z</time>
      </trkpt>
      <trkpt lat="45.90838" lon="4.77048">
        <ele>177</ele>
        <time>2018-01-10T11:05:43Z</time>
      </trkpt>
      <trkpt lat="45.90834" lon="4.77043">
        <ele>177</ele>
        <time>2018-01-10T11:05:44Z</time>
      </trkpt>
      <trkpt lat="45.90828" lon="4.77038">
        <ele>177</ele>
        <time>2018-01-10T11:05:45Z</time>
      </trkpt>
      <trkpt lat="45.90824" lon="4.77034">
        <ele>177</ele>
        <time>2018-01-10T11:05:46Z</time>
      </trkpt>
      <trkpt lat="45.9082" lon="4.7703">
        <ele>177</ele>
        <time>2018-01-10T11:05:47Z</time>
      </trkpt>
      <trkpt lat="45.90816" lon="4.77027">
        <ele>177</ele>
        <time>2018-01-10T11:05:48Z</time>
      </trkpt>
      <trkpt lat="45.90812" lon="4.77023">
        <ele>177</ele>
        <time>2018-01-10T11:05:49Z</time>
      </trkpt>
      <trkpt lat="45.90808" lon="4.77019">
        <ele>177</ele>
        <time>2018-01-10T11:05:50Z</time>
      </trkpt>
      <trkpt lat="45.90804" lon="4.77016">
        <ele>177</ele>
        <time>2018-01-10T11:05:51Z</time>
      </trkpt>
      <trkpt lat="45.908" lon="4.77012">
        <ele>177</ele>
        <time>2018-01-10T11:05:52Z</time>
      </trkpt>
      <trkpt lat="45.90797" lon="4.77008">
        <ele>177</ele>
        <time>2018-01-10T11:05:53Z</time>
      </trkpt>
      <trkpt lat="45.90792" lon="4.77004">
        <ele>178</ele>
        <time>2018-01-10T11:05:54Z</time>
      </trkpt>
      <trkpt lat="45.90788" lon="4.77">
        <ele>178</ele>
        <time>2018-01-10T11:05:55Z</time>
      </trkpt>
      <trkpt lat="45.90784" lon="4.76998">
        <ele>178</ele>
        <time>2018-01-10T11:05:56Z</time>
      </trkpt>
      <trkpt lat="45.9078" lon="4.76995">
        <ele>178</ele>
        <time>2018-01-10T11:05:57Z</time>
      </trkpt>
      <trkpt lat="45.90775" lon="4.76992">
        <ele>178</ele>
        <time>2018-01-10T11:05:58Z</time>
      </trkpt>
      <trkpt lat="45.90768" lon="4.76986">
        <ele>178</ele>
        <time>2018-01-10T11:06:00Z</time>
      </trkpt>
      <trkpt lat="45.90765" lon="4.76982">
        <ele>178</ele>
        <time>2018-01-10T11:06:01Z</time>
      </trkpt>
      <trkpt lat="45.90758" lon="4.76976">
        <ele>178</ele>
        <time>2018-01-10T11:06:03Z</time>
      </trkpt>
      <trkpt lat="45.90754" lon="4.76974">
        <ele>178</ele>
        <time>2018-01-10T11:06:04Z</time>
      </trkpt>
      <trkpt lat="45.90747" lon="4.76972">
        <ele>179</ele>
        <time>2018-01-10T11:06:06Z</time>
      </trkpt>
      <trkpt lat="45.90742" lon="4.76971">
        <ele>179</ele>
        <time>2018-01-10T11:06:07Z</time>
      </trkpt>
      <trkpt lat="45.90736" lon="4.76968">
        <ele>179</ele>
        <time>2018-01-10T11:06:08Z</time>
      </trkpt>
      <trkpt lat="45.90733" lon="4.76966">
        <ele>179</ele>
        <time>2018-01-10T11:06:09Z</time>
      </trkpt>
      <trkpt lat="45.90726" lon="4.76961">
        <ele>179</ele>
        <time>2018-01-10T11:06:11Z</time>
      </trkpt>
      <trkpt lat="45.90722" lon="4.76959">
        <ele>179</ele>
        <time>2018-01-10T11:06:12Z</time>
      </trkpt>
      <trkpt lat="45.90717" lon="4.76955">
        <ele>179</ele>
        <time>2018-01-10T11:06:14Z</time>
      </trkpt>
      <trkpt lat="45.90713" lon="4.76953">
        <ele>179</ele>
        <time>2018-01-10T11:06:15Z</time>
      </trkpt>
      <trkpt lat="45.90709" lon="4.76951">
        <ele>179</ele>
        <time>2018-01-10T11:06:16Z</time>
      </trkpt>
      <trkpt lat="45.90704" lon="4.76949">
        <ele>179</ele>
        <time>2018-01-10T11:06:17Z</time>
      </trkpt>
      <trkpt lat="45.90697" lon="4.76946">
        <ele>179</ele>
        <time>2018-01-10T11:06:19Z</time>
      </trkpt>
      <trkpt lat="45.90694" lon="4.76944">
        <ele>179</ele>
        <time>2018-01-10T11:06:20Z</time>
      </trkpt>
      <trkpt lat="45.90687" lon="4.7694">
        <ele>179</ele>
        <time>2018-01-10T11:06:22Z</time>
      </trkpt>
      <trkpt lat="45.90683" lon="4.76939">
        <ele>179</ele>
        <time>2018-01-10T11:06:23Z</time>
      </trkpt>
      <trkpt lat="45.90676" lon="4.76936">
        <ele>179</ele>
        <time>2018-01-10T11:06:25Z</time>
      </trkpt>
      <trkpt lat="45.90672" lon="4.76934">
        <ele>179</ele>
        <time>2018-01-10T11:06:26Z</time>
      </trkpt>
      <trkpt lat="45.90664" lon="4.76931">
        <ele>179</ele>
        <time>2018-01-10T11:06:29Z</time>
      </trkpt>
      <trkpt lat="45.90661" lon="4.7693">
        <ele>179</ele>
        <time>2018-01-10T11:06:30Z</time>
      </trkpt>
      <trkpt lat="45.90655" lon="4.76926">
        <ele>179</ele>
        <time>2018-01-10T11:06:33Z</time>
      </trkpt>
      <trkpt lat="45.90652" lon="4.76925">
        <ele>179</ele>
        <time>2018-01-10T11:06:34Z</time>
      </trkpt>
      <trkpt lat="45.90645" lon="4.76925">
        <ele>179</ele>
        <time>2018-01-10T11:06:37Z</time>
      </trkpt>
      <trkpt lat="45.90643" lon="4.76924">
        <ele>180</ele>
        <time>2018-01-10T11:06:38Z</time>
      </trkpt>
      <trkpt lat="45.90634" lon="4.76923">
        <ele>180</ele>
        <time>2018-01-10T11:06:41Z</time>
      </trkpt>
      <trkpt lat="45.90631" lon="4.76922">
        <ele>180</ele>
        <time>2018-01-10T11:06:42Z</time>
      </trkpt>
      <trkpt lat="45.90625" lon="4.76918">
        <ele>180</ele>
        <time>2018-01-10T11:06:45Z</time>
      </trkpt>
      <trkpt lat="45.90623" lon="4.76918">
        <ele>180</ele>
        <time>2018-01-10T11:06:46Z</time>
      </trkpt>
      <trkpt lat="45.90616" lon="4.76916">
        <ele>179</ele>
        <time>2018-01-10T11:06:49Z</time>
      </trkpt>
      <trkpt lat="45.90613" lon="4.76915">
        <ele>179</ele>
        <time>2018-01-10T11:06:50Z</time>
      </trkpt>
      <trkpt lat="45.90607" lon="4.76913">
        <ele>179</ele>
        <time>2018-01-10T11:06:52Z</time>
      </trkpt>
      <trkpt lat="45.90603" lon="4.76912">
        <ele>179</ele>
        <time>2018-01-10T11:06:53Z</time>
      </trkpt>
      <trkpt lat="45.90597" lon="4.7691">
        <ele>180</ele>
        <time>2018-01-10T11:06:55Z</time>
      </trkpt>
      <trkpt lat="45.90593" lon="4.76909">
        <ele>180</ele>
        <time>2018-01-10T11:06:56Z</time>
      </trkpt>
      <trkpt lat="45.90585" lon="4.76906">
        <ele>180</ele>
        <time>2018-01-10T11:06:58Z</time>
      </trkpt>
      <trkpt lat="45.90581" lon="4.76905">
        <ele>180</ele>
        <time>2018-01-10T11:06:59Z</time>
      </trkpt>
      <trkpt lat="45.90573" lon="4.76903">
        <ele>180</ele>
        <time>2018-01-10T11:07:01Z</time>
      </trkpt>
      <trkpt lat="45.9057" lon="4.76901">
        <ele>180</ele>
        <time>2018-01-10T11:07:02Z</time>
      </trkpt>
      <trkpt lat="45.90562" lon="4.76899">
        <ele>180</ele>
        <time>2018-01-10T11:07:04Z</time>
      </trkpt>
      <trkpt lat="45.90559" lon="4.76897">
        <ele>180</ele>
        <time>2018-01-10T11:07:05Z</time>
      </trkpt>
      <trkpt lat="45.90551" lon="4.76894">
        <ele>180</ele>
        <time>2018-01-10T11:07:07Z</time>
      </trkpt>
      <trkpt lat="45.90547" lon="4.76893">
        <ele>180</ele>
        <time>2018-01-10T11:07:08Z</time>
      </trkpt>
      <trkpt lat="45.9054" lon="4.76891">
        <ele>180</ele>
        <time>2018-01-10T11:07:10Z</time>
      </trkpt>
      <trkpt lat="45.90536" lon="4.7689">
        <ele>180</ele>
        <time>2018-01-10T11:07:11Z</time>
      </trkpt>
      <trkpt lat="45.90527" lon="4.76888">
        <ele>180</ele>
        <time>2018-01-10T11:07:13Z</time>
      </trkpt>
      <trkpt lat="45.90523" lon="4.76887">
        <ele>180</ele>
        <time>2018-01-10T11:07:14Z</time>
      </trkpt>
      <trkpt lat="45.90515" lon="4.76885">
        <ele>180</ele>
        <time>2018-01-10T11:07:16Z</time>
      </trkpt>
      <trkpt lat="45.90512" lon="4.76884">
        <ele>180</ele>
        <time>2018-01-10T11:07:17Z</time>
      </trkpt>
      <trkpt lat="45.90504" lon="4.76883">
        <ele>180</ele>
        <time>2018-01-10T11:07:19Z</time>
      </trkpt>
      <trkpt lat="45.90501" lon="4.76881">
        <ele>180</ele>
        <time>2018-01-10T11:07:20Z</time>
      </trkpt>
      <trkpt lat="45.90493" lon="4.7688">
        <ele>181</ele>
        <time>2018-01-10T11:07:22Z</time>
      </trkpt>
      <trkpt lat="45.90488" lon="4.76879">
        <ele>181</ele>
        <time>2018-01-10T11:07:23Z</time>
      </trkpt>
      <trkpt lat="45.90481" lon="4.76878">
        <ele>181</ele>
        <time>2018-01-10T11:07:25Z</time>
      </trkpt>
      <trkpt lat="45.90477" lon="4.76878">
        <ele>181</ele>
        <time>2018-01-10T11:07:26Z</time>
      </trkpt>
      <trkpt lat="45.9047" lon="4.76876">
        <ele>181</ele>
        <time>2018-01-10T11:07:28Z</time>
      </trkpt>
      <trkpt lat="45.90466" lon="4.76874">
        <ele>181</ele>
        <time>2018-01-10T11:07:29Z</time>
      </trkpt>
      <trkpt lat="45.90458" lon="4.76871">
        <ele>181</ele>
        <time>2018-01-10T11:07:31Z</time>
      </trkpt>
      <trkpt lat="45.90454" lon="4.7687">
        <ele>181</ele>
        <time>2018-01-10T11:07:32Z</time>
      </trkpt>
      <trkpt lat="45.90448" lon="4.76869">
        <ele>181</ele>
        <time>2018-01-10T11:07:34Z</time>
      </trkpt>
      <trkpt lat="45.90445" lon="4.76868">
        <ele>181</ele>
        <time>2018-01-10T11:07:35Z</time>
      </trkpt>
      <trkpt lat="45.90437" lon="4.76866">
        <ele>181</ele>
        <time>2018-01-10T11:07:37Z</time>
      </trkpt>
      <trkpt lat="45.90433" lon="4.76865">
        <ele>181</ele>
        <time>2018-01-10T11:07:38Z</time>
      </trkpt>
      <trkpt lat="45.90426" lon="4.76864">
        <ele>181</ele>
        <time>2018-01-10T11:07:40Z</time>
      </trkpt>
      <trkpt lat="45.90422" lon="4.76864">
        <ele>181</ele>
        <time>2018-01-10T11:07:41Z</time>
      </trkpt>
      <trkpt lat="45.90415" lon="4.76863">
        <ele>182</ele>
        <time>2018-01-10T11:07:43Z</time>
      </trkpt>
      <trkpt lat="45.90411" lon="4.76863">
        <ele>182</ele>
        <time>2018-01-10T11:07:44Z</time>
      </trkpt>
      <trkpt lat="45.90404" lon="4.76862">
        <ele>182</ele>
        <time>2018-01-10T11:07:46Z</time>
      </trkpt>
      <trkpt lat="45.904" lon="4.76862">
        <ele>182</ele>
        <time>2018-01-10T11:07:47Z</time>
      </trkpt>
      <trkpt lat="45.90392" lon="4.76862">
        <ele>182</ele>
        <time>2018-01-10T11:07:49Z</time>
      </trkpt>
      <trkpt lat="45.90387" lon="4.76862">
        <ele>182</ele>
        <time>2018-01-10T11:07:50Z</time>
      </trkpt>
      <trkpt lat="45.90378" lon="4.76863">
        <ele>182</ele>
        <time>2018-01-10T11:07:52Z</time>
      </trkpt>
      <trkpt lat="45.90374" lon="4.76863">
        <ele>182</ele>
        <time>2018-01-10T11:07:53Z</time>
      </trkpt>
      <trkpt lat="45.90367" lon="4.76862">
        <ele>182</ele>
        <time>2018-01-10T11:07:55Z</time>
      </trkpt>
      <trkpt lat="45.90363" lon="4.76862">
        <ele>182</ele>
        <time>2018-01-10T11:07:56Z</time>
      </trkpt>
      <trkpt lat="45.90356" lon="4.76862">
        <ele>182</ele>
        <time>2018-01-10T11:07:58Z</time>
      </trkpt>
      <trkpt lat="45.90352" lon="4.76862">
        <ele>182</ele>
        <time>2018-01-10T11:07:59Z</time>
      </trkpt>
      <trkpt lat="45.90344" lon="4.76861">
        <ele>182</ele>
        <time>2018-01-10T11:08:01Z</time>
      </trkpt>
      <trkpt lat="45.90341" lon="4.76859">
        <ele>182</ele>
        <time>2018-01-10T11:08:02Z</time>
      </trkpt>
      <trkpt lat="45.90335" lon="4.76853">
        <ele>182</ele>
        <time>2018-01-10T11:08:04Z</time>
      </trkpt>
      <trkpt lat="45.90333" lon="4.76848">
        <ele>182</ele>
        <time>2018-01-10T11:08:05Z</time>
      </trkpt>
      <trkpt lat="45.90331" lon="4.76837">
        <ele>182</ele>
        <time>2018-01-10T11:08:07Z</time>
      </trkpt>
      <trkpt lat="45.90331" lon="4.7683">
        <ele>182</ele>
        <time>2018-01-10T11:08:08Z</time>
      </trkpt>
      <trkpt lat="45.90331" lon="4.76824">
        <ele>182</ele>
        <time>2018-01-10T11:08:09Z</time>
      </trkpt>
      <trkpt lat="45.90332" lon="4.76817">
        <ele>182</ele>
        <time>2018-01-10T11:08:10Z</time>
      </trkpt>
      <trkpt lat="45.90334" lon="4.76805">
        <ele>182</ele>
        <time>2018-01-10T11:08:12Z</time>
      </trkpt>
      <trkpt lat="45.90334" lon="4.768">
        <ele>182</ele>
        <time>2018-01-10T11:08:13Z</time>
      </trkpt>
      <trkpt lat="45.90336" lon="4.76789">
        <ele>182</ele>
        <time>2018-01-10T11:08:15Z</time>
      </trkpt>
      <trkpt lat="45.90336" lon="4.76783">
        <ele>182</ele>
        <time>2018-01-10T11:08:16Z</time>
      </trkpt>
      <trkpt lat="45.90337" lon="4.76771">
        <ele>182</ele>
        <time>2018-01-10T11:08:18Z</time>
      </trkpt>
      <trkpt lat="45.90337" lon="4.76766">
        <ele>182</ele>
        <time>2018-01-10T11:08:19Z</time>
      </trkpt>
      <trkpt lat="45.90337" lon="4.76755">
        <ele>183</ele>
        <time>2018-01-10T11:08:21Z</time>
      </trkpt>
      <trkpt lat="45.90338" lon="4.76748">
        <ele>183</ele>
        <time>2018-01-10T11:08:22Z</time>
      </trkpt>
      <trkpt lat="45.90339" lon="4.76736">
        <ele>183</ele>
        <time>2018-01-10T11:08:24Z</time>
      </trkpt>
      <trkpt lat="45.90339" lon="4.76729">
        <ele>183</ele>
        <time>2018-01-10T11:08:25Z</time>
      </trkpt>
      <trkpt lat="45.90338" lon="4.76717">
        <ele>183</ele>
        <time>2018-01-10T11:08:27Z</time>
      </trkpt>
      <trkpt lat="45.90338" lon="4.76712">
        <ele>183</ele>
        <time>2018-01-10T11:08:28Z</time>
      </trkpt>
      <trkpt lat="45.90338" lon="4.76702">
        <ele>183</ele>
        <time>2018-01-10T11:08:30Z</time>
      </trkpt>
      <trkpt lat="45.90338" lon="4.76697">
        <ele>183</ele>
        <time>2018-01-10T11:08:31Z</time>
      </trkpt>
      <trkpt lat="45.90338" lon="4.76686">
        <ele>183</ele>
        <time>2018-01-10T11:08:33Z</time>
      </trkpt>
      <trkpt lat="45.90337" lon="4.7668">
        <ele>183</ele>
        <time>2018-01-10T11:08:34Z</time>
      </trkpt>
      <trkpt lat="45.90337" lon="4.76669">
        <ele>184</ele>
        <time>2018-01-10T11:08:36Z</time>
      </trkpt>
      <trkpt lat="45.90337" lon="4.76663">
        <ele>184</ele>
        <time>2018-01-10T11:08:37Z</time>
      </trkpt>
      <trkpt lat="45.90337" lon="4.76653">
        <ele>184</ele>
        <time>2018-01-10T11:08:39Z</time>
      </trkpt>
      <trkpt lat="45.90336" lon="4.76646">
        <ele>184</ele>
        <time>2018-01-10T11:08:40Z</time>
      </trkpt>
      <trkpt lat="45.90337" lon="4.76639">
        <ele>184</ele>
        <time>2018-01-10T11:08:41Z</time>
      </trkpt>
      <trkpt lat="45.90337" lon="4.76632">
        <ele>184</ele>
        <time>2018-01-10T11:08:42Z</time>
      </trkpt>
      <trkpt lat="45.90337" lon="4.7662">
        <ele>184</ele>
        <time>2018-01-10T11:08:44Z</time>
      </trkpt>
      <trkpt lat="45.90338" lon="4.76614">
        <ele>184</ele>
        <time>2018-01-10T11:08:45Z</time>
      </trkpt>
      <trkpt lat="45.90338" lon="4.76606">
        <ele>184</ele>
        <time>2018-01-10T11:08:46Z</time>
      </trkpt>
      <trkpt lat="45.90338" lon="4.766">
        <ele>184</ele>
        <time>2018-01-10T11:08:47Z</time>
      </trkpt>
      <trkpt lat="45.90338" lon="4.76589">
        <ele>185</ele>
        <time>2018-01-10T11:08:49Z</time>
      </trkpt>
      <trkpt lat="45.90338" lon="4.76584">
        <ele>185</ele>
        <time>2018-01-10T11:08:50Z</time>
      </trkpt>
      <trkpt lat="45.90338" lon="4.76573">
        <ele>185</ele>
        <time>2018-01-10T11:08:52Z</time>
      </trkpt>
      <trkpt lat="45.90337" lon="4.76568">
        <ele>185</ele>
        <time>2018-01-10T11:08:53Z</time>
      </trkpt>
      <trkpt lat="45.90338" lon="4.76559">
        <ele>185</ele>
        <time>2018-01-10T11:08:55Z</time>
      </trkpt>
      <trkpt lat="45.90338" lon="4.76555">
        <ele>185</ele>
        <time>2018-01-10T11:08:56Z</time>
      </trkpt>
      <trkpt lat="45.90338" lon="4.76546">
        <ele>186</ele>
        <time>2018-01-10T11:08:58Z</time>
      </trkpt>
      <trkpt lat="45.90338" lon="4.76542">
        <ele>186</ele>
        <time>2018-01-10T11:08:59Z</time>
      </trkpt>
      <trkpt lat="45.90339" lon="4.76533">
        <ele>186</ele>
        <time>2018-01-10T11:09:01Z</time>
      </trkpt>
      <trkpt lat="45.90339" lon="4.76528">
        <ele>186</ele>
        <time>2018-01-10T11:09:02Z</time>
      </trkpt>
      <trkpt lat="45.90341" lon="4.76519">
        <ele>186</ele>
        <time>2018-01-10T11:09:04Z</time>
      </trkpt>
      <trkpt lat="45.90342" lon="4.76515">
        <ele>187</ele>
        <time>2018-01-10T11:09:05Z</time>
      </trkpt>
      <trkpt lat="45.90347" lon="4.76504">
        <ele>187</ele>
        <time>2018-01-10T11:09:08Z</time>
      </trkpt>
      <trkpt lat="45.90349" lon="4.76501">
        <ele>187</ele>
        <time>2018-01-10T11:09:09Z</time>
      </trkpt>
      <trkpt lat="45.90355" lon="4.76493">
        <ele>188</ele>
        <time>2018-01-10T11:09:12Z</time>
      </trkpt>
      <trkpt lat="45.90357" lon="4.7649">
        <ele>188</ele>
        <time>2018-01-10T11:09:13Z</time>
      </trkpt>
      <trkpt lat="45.90361" lon="4.76485">
        <ele>188</ele>
        <time>2018-01-10T11:09:15Z</time>
      </trkpt>
      <trkpt lat="45.90364" lon="4.76482">
        <ele>188</ele>
        <time>2018-01-10T11:09:16Z</time>
      </trkpt>
      <trkpt lat="45.9037" lon="4.76476">
        <ele>188</ele>
        <time>2018-01-10T11:09:18Z</time>
      </trkpt>
      <trkpt lat="45.90373" lon="4.76474">
        <ele>188</ele>
        <time>2018-01-10T11:09:19Z</time>
      </trkpt>
      <trkpt lat="45.90381" lon="4.76472">
        <ele>188</ele>
        <time>2018-01-10T11:09:22Z</time>
      </trkpt>
      <trkpt lat="45.90384" lon="4.76473">
        <ele>188</ele>
        <time>2018-01-10T11:09:23Z</time>
      </trkpt>
      <trkpt lat="45.90392" lon="4.76474">
        <ele>188</ele>
        <time>2018-01-10T11:09:25Z</time>
      </trkpt>
      <trkpt lat="45.90395" lon="4.76474">
        <ele>188</ele>
        <time>2018-01-10T11:09:26Z</time>
      </trkpt>
      <trkpt lat="45.90404" lon="4.76475">
        <ele>188</ele>
        <time>2018-01-10T11:09:28Z</time>
      </trkpt>
      <trkpt lat="45.90408" lon="4.76475">
        <ele>188</ele>
        <time>2018-01-10T11:09:29Z</time>
      </trkpt>
      <trkpt lat="45.90415" lon="4.76471">
        <ele>188</ele>
        <time>2018-01-10T11:09:31Z</time>
      </trkpt>
      <trkpt lat="45.90418" lon="4.76467">
        <ele>186</ele>
        <time>2018-01-10T11:09:32Z</time>
      </trkpt>
      <trkpt lat="45.90423" lon="4.76459">
        <ele>186</ele>
        <time>2018-01-10T11:09:34Z</time>
      </trkpt>
      <trkpt lat="45.90425" lon="4.76454">
        <ele>186</ele>
        <time>2018-01-10T11:09:35Z</time>
      </trkpt>
      <trkpt lat="45.90428" lon="4.76444">
        <ele>186</ele>
        <time>2018-01-10T11:09:37Z</time>
      </trkpt>
      <trkpt lat="45.9043" lon="4.76439">
        <ele>187</ele>
        <time>2018-01-10T11:09:38Z</time>
      </trkpt>
      <trkpt lat="45.90434" lon="4.76428">
        <ele>187</ele>
        <time>2018-01-10T11:09:40Z</time>
      </trkpt>
      <trkpt lat="45.90436" lon="4.76423">
        <ele>187</ele>
        <time>2018-01-10T11:09:41Z</time>
      </trkpt>
      <trkpt lat="45.9044" lon="4.76413">
        <ele>187</ele>
        <time>2018-01-10T11:09:43Z</time>
      </trkpt>
      <trkpt lat="45.90441" lon="4.76408">
        <ele>187</ele>
        <time>2018-01-10T11:09:44Z</time>
      </trkpt>
      <trkpt lat="45.90445" lon="4.76399">
        <ele>187</ele>
        <time>2018-01-10T11:09:46Z</time>
      </trkpt>
      <trkpt lat="45.90446" lon="4.76395">
        <ele>187</ele>
        <time>2018-01-10T11:09:47Z</time>
      </trkpt>
      <trkpt lat="45.9045" lon="4.76386">
        <ele>186</ele>
        <time>2018-01-10T11:09:49Z</time>
      </trkpt>
      <trkpt lat="45.90452" lon="4.76381">
        <ele>186</ele>
        <time>2018-01-10T11:09:50Z</time>
      </trkpt>
      <trkpt lat="45.90455" lon="4.76369">
        <ele>186</ele>
        <time>2018-01-10T11:09:52Z</time>
      </trkpt>
      <trkpt lat="45.90457" lon="4.76365">
        <ele>186</ele>
        <time>2018-01-10T11:09:53Z</time>
      </trkpt>
      <trkpt lat="45.90461" lon="4.76355">
        <ele>186</ele>
        <time>2018-01-10T11:09:55Z</time>
      </trkpt>
      <trkpt lat="45.90462" lon="4.7635">
        <ele>186</ele>
        <time>2018-01-10T11:09:56Z</time>
      </trkpt>
      <trkpt lat="45.90465" lon="4.7634">
        <ele>186</ele>
        <time>2018-01-10T11:09:58Z</time>
      </trkpt>
      <trkpt lat="45.90466" lon="4.76334">
        <ele>186</ele>
        <time>2018-01-10T11:09:59Z</time>
      </trkpt>
      <trkpt lat="45.90468" lon="4.76326">
        <ele>186</ele>
        <time>2018-01-10T11:10:00Z</time>
      </trkpt>
      <trkpt lat="45.9047" lon="4.7632">
        <ele>186</ele>
        <time>2018-01-10T11:10:01Z</time>
      </trkpt>
      <trkpt lat="45.90472" lon="4.76314">
        <ele>186</ele>
        <time>2018-01-10T11:10:02Z</time>
      </trkpt>
      <trkpt lat="45.90473" lon="4.76307">
        <ele>186</ele>
        <time>2018-01-10T11:10:03Z</time>
      </trkpt>
      <trkpt lat="45.90475" lon="4.763">
        <ele>186</ele>
        <time>2018-01-10T11:10:04Z</time>
      </trkpt>
      <trkpt lat="45.90477" lon="4.76293">
        <ele>186</ele>
        <time>2018-01-10T11:10:05Z</time>
      </trkpt>
      <trkpt lat="45.90478" lon="4.76287">
        <ele>186</ele>
        <time>2018-01-10T11:10:06Z</time>
      </trkpt>
      <trkpt lat="45.9048" lon="4.7628">
        <ele>186</ele>
        <time>2018-01-10T11:10:07Z</time>
      </trkpt>
      <trkpt lat="45.90483" lon="4.76275">
        <ele>186</ele>
        <time>2018-01-10T11:10:08Z</time>
      </trkpt>
      <trkpt lat="45.90485" lon="4.76269">
        <ele>186</ele>
        <time>2018-01-10T11:10:09Z</time>
      </trkpt>
      <trkpt lat="45.90488" lon="4.76258">
        <ele>185</ele>
        <time>2018-01-10T11:10:11Z</time>
      </trkpt>
      <trkpt lat="45.90488" lon="4.76253">
        <ele>185</ele>
        <time>2018-01-10T11:10:12Z</time>
      </trkpt>
      <trkpt lat="45.90486" lon="4.76243">
        <ele>185</ele>
        <time>2018-01-10T11:10:14Z</time>
      </trkpt>
      <trkpt lat="45.90484" lon="4.76238">
        <ele>185</ele>
        <time>2018-01-10T11:10:15Z</time>
      </trkpt>
      <trkpt lat="45.90478" lon="4.76231">
        <ele>185</ele>
        <time>2018-01-10T11:10:17Z</time>
      </trkpt>
      <trkpt lat="45.90474" lon="4.76228">
        <ele>185</ele>
        <time>2018-01-10T11:10:18Z</time>
      </trkpt>
      <trkpt lat="45.90467" lon="4.76224">
        <ele>185</ele>
        <time>2018-01-10T11:10:20Z</time>
      </trkpt>
      <trkpt lat="45.90463" lon="4.76222">
        <ele>185</ele>
        <time>2018-01-10T11:10:21Z</time>
      </trkpt>
      <trkpt lat="45.90456" lon="4.76217">
        <ele>186</ele>
        <time>2018-01-10T11:10:23Z</time>
      </trkpt>
      <trkpt lat="45.90452" lon="4.76215">
        <ele>186</ele>
        <time>2018-01-10T11:10:24Z</time>
      </trkpt>
      <trkpt lat="45.90447" lon="4.76212">
        <ele>186</ele>
        <time>2018-01-10T11:10:25Z</time>
      </trkpt>
      <trkpt lat="45.90443" lon="4.7621">
        <ele>186</ele>
        <time>2018-01-10T11:10:26Z</time>
      </trkpt>
      <trkpt lat="45.90435" lon="4.76204">
        <ele>186</ele>
        <time>2018-01-10T11:10:28Z</time>
      </trkpt>
      <trkpt lat="45.90431" lon="4.76202">
        <ele>186</ele>
        <time>2018-01-10T11:10:29Z</time>
      </trkpt>
      <trkpt lat="45.90424" lon="4.76197">
        <ele>186</ele>
        <time>2018-01-10T11:10:31Z</time>
      </trkpt>
      <trkpt lat="45.90421" lon="4.76194">
        <ele>186</ele>
        <time>2018-01-10T11:10:32Z</time>
      </trkpt>
      <trkpt lat="45.90418" lon="4.76185">
        <ele>186</ele>
        <time>2018-01-10T11:10:34Z</time>
      </trkpt>
      <trkpt lat="45.90419" lon="4.7618">
        <ele>186</ele>
        <time>2018-01-10T11:10:35Z</time>
      </trkpt>
      <trkpt lat="45.90424" lon="4.76173">
        <ele>186</ele>
        <time>2018-01-10T11:10:37Z</time>
      </trkpt>
      <trkpt lat="45.90427" lon="4.7617">
        <ele>186</ele>
        <time>2018-01-10T11:10:38Z</time>
      </trkpt>
      <trkpt lat="45.90434" lon="4.76162">
        <ele>186</ele>
        <time>2018-01-10T11:10:40Z</time>
      </trkpt>
      <trkpt lat="45.90437" lon="4.76158">
        <ele>186</ele>
        <time>2018-01-10T11:10:41Z</time>
      </trkpt>
      <trkpt lat="45.90443" lon="4.76151">
        <ele>186</ele>
        <time>2018-01-10T11:10:43Z</time>
      </trkpt>
      <trkpt lat="45.90447" lon="4.76148">
        <ele>186</ele>
        <time>2018-01-10T11:10:44Z</time>
      </trkpt>
      <trkpt lat="45.90453" lon="4.76142">
        <ele>186</ele>
        <time>2018-01-10T11:10:46Z</time>
      </trkpt>
      <trkpt lat="45.90457" lon="4.76137">
        <ele>186</ele>
        <time>2018-01-10T11:10:47Z</time>
      </trkpt>
      <trkpt lat="45.90461" lon="4.76133">
        <ele>185</ele>
        <time>2018-01-10T11:10:48Z</time>
      </trkpt>
      <trkpt lat="45.90465" lon="4.76129">
        <ele>185</ele>
        <time>2018-01-10T11:10:49Z</time>
      </trkpt>
      <trkpt lat="45.90468" lon="4.76123">
        <ele>185</ele>
        <time>2018-01-10T11:10:50Z</time>
      </trkpt>
      <trkpt lat="45.90471" lon="4.76118">
        <ele>185</ele>
        <time>2018-01-10T11:10:51Z</time>
      </trkpt>
      <trkpt lat="45.90477" lon="4.7611">
        <ele>185</ele>
        <time>2018-01-10T11:10:53Z</time>
      </trkpt>
      <trkpt lat="45.90479" lon="4.76106">
        <ele>185</ele>
        <time>2018-01-10T11:10:54Z</time>
      </trkpt>
      <trkpt lat="45.90483" lon="4.76097">
        <ele>185</ele>
        <time>2018-01-10T11:10:56Z</time>
      </trkpt>
      <trkpt lat="45.90486" lon="4.76092">
        <ele>185</ele>
        <time>2018-01-10T11:10:57Z</time>
      </trkpt>
      <trkpt lat="45.90491" lon="4.76084">
        <ele>185</ele>
        <time>2018-01-10T11:10:59Z</time>
      </trkpt>
      <trkpt lat="45.90494" lon="4.76081">
        <ele>185</ele>
        <time>2018-01-10T11:11:00Z</time>
      </trkpt>
      <trkpt lat="45.90499" lon="4.76072">
        <ele>185</ele>
        <time>2018-01-10T11:11:02Z</time>
      </trkpt>
      <trkpt lat="45.90501" lon="4.76066">
        <ele>185</ele>
        <time>2018-01-10T11:11:03Z</time>
      </trkpt>
      <trkpt lat="45.90503" lon="4.76058">
        <ele>185</ele>
        <time>2018-01-10T11:11:04Z</time>
      </trkpt>
      <trkpt lat="45.90505" lon="4.76051">
        <ele>185</ele>
        <time>2018-01-10T11:11:05Z</time>
      </trkpt>
      <trkpt lat="45.90506" lon="4.76044">
        <ele>185</ele>
        <time>2018-01-10T11:11:06Z</time>
      </trkpt>
      <trkpt lat="45.90508" lon="4.76037">
        <ele>185</ele>
        <time>2018-01-10T11:11:07Z</time>
      </trkpt>
      <trkpt lat="45.90509" lon="4.76028">
        <ele>185</ele>
        <time>2018-01-10T11:11:09Z</time>
      </trkpt>
      <trkpt lat="45.9051" lon="4.76023">
        <ele>186</ele>
        <time>2018-01-10T11:11:10Z</time>
      </trkpt>
      <trkpt lat="45.90512" lon="4.76012">
        <ele>186</ele>
        <time>2018-01-10T11:11:12Z</time>
      </trkpt>
      <trkpt lat="45.90512" lon="4.76005">
        <ele>186</ele>
        <time>2018-01-10T11:11:13Z</time>
      </trkpt>
      <trkpt lat="45.90513" lon="4.75995">
        <ele>186</ele>
        <time>2018-01-10T11:11:15Z</time>
      </trkpt>
      <trkpt lat="45.90515" lon="4.75988">
        <ele>186</ele>
        <time>2018-01-10T11:11:16Z</time>
      </trkpt>
      <trkpt lat="45.9052" lon="4.75977">
        <ele>186</ele>
        <time>2018-01-10T11:11:18Z</time>
      </trkpt>
      <trkpt lat="45.90521" lon="4.75972">
        <ele>186</ele>
        <time>2018-01-10T11:11:19Z</time>
      </trkpt>
      <trkpt lat="45.90528" lon="4.75965">
        <ele>186</ele>
        <time>2018-01-10T11:11:21Z</time>
      </trkpt>
      <trkpt lat="45.90532" lon="4.75962">
        <ele>186</ele>
        <time>2018-01-10T11:11:22Z</time>
      </trkpt>
      <trkpt lat="45.90536" lon="4.7596">
        <ele>186</ele>
        <time>2018-01-10T11:11:23Z</time>
      </trkpt>
      <trkpt lat="45.9054" lon="4.75957">
        <ele>186</ele>
        <time>2018-01-10T11:11:24Z</time>
      </trkpt>
      <trkpt lat="45.90549" lon="4.75959">
        <ele>186</ele>
        <time>2018-01-10T11:11:26Z</time>
      </trkpt>
      <trkpt lat="45.90554" lon="4.7596">
        <ele>186</ele>
        <time>2018-01-10T11:11:27Z</time>
      </trkpt>
      <trkpt lat="45.90557" lon="4.75964">
        <ele>186</ele>
        <time>2018-01-10T11:11:28Z</time>
      </trkpt>
      <trkpt lat="45.90562" lon="4.75968">
        <ele>186</ele>
        <time>2018-01-10T11:11:29Z</time>
      </trkpt>
      <trkpt lat="45.90566" lon="4.75972">
        <ele>186</ele>
        <time>2018-01-10T11:11:30Z</time>
      </trkpt>
      <trkpt lat="45.90571" lon="4.75975">
        <ele>186</ele>
        <time>2018-01-10T11:11:31Z</time>
      </trkpt>
      <trkpt lat="45.90575" lon="4.75978">
        <ele>186</ele>
        <time>2018-01-10T11:11:32Z</time>
      </trkpt>
      <trkpt lat="45.90579" lon="4.75982">
        <ele>186</ele>
        <time>2018-01-10T11:11:33Z</time>
      </trkpt>
      <trkpt lat="45.90587" lon="4.75988">
        <ele>186</ele>
        <time>2018-01-10T11:11:35Z</time>
      </trkpt>
      <trkpt lat="45.90592" lon="4.75988">
        <ele>186</ele>
        <time>2018-01-10T11:11:36Z</time>
      </trkpt>
      <trkpt lat="45.90599" lon="4.75982">
        <ele>186</ele>
        <time>2018-01-10T11:11:38Z</time>
      </trkpt>
      <trkpt lat="45.90603" lon="4.75977">
        <ele>186</ele>
        <time>2018-01-10T11:11:39Z</time>
      </trkpt>
      <trkpt lat="45.90607" lon="4.75971">
        <ele>186</ele>
        <time>2018-01-10T11:11:40Z</time>
      </trkpt>
      <trkpt lat="45.9061" lon="4.75967">
        <ele>186</ele>
        <time>2018-01-10T11:11:41Z</time>
      </trkpt>
      <trkpt lat="45.90615" lon="4.7596">
        <ele>186</ele>
        <time>2018-01-10T11:11:42Z</time>
      </trkpt>
      <trkpt lat="45.90619" lon="4.75953">
        <ele>186</ele>
        <time>2018-01-10T11:11:43Z</time>
      </trkpt>
      <trkpt lat="45.90623" lon="4.75948">
        <ele>186</ele>
        <time>2018-01-10T11:11:44Z</time>
      </trkpt>
      <trkpt lat="45.90626" lon="4.75943">
        <ele>186</ele>
        <time>2018-01-10T11:11:45Z</time>
      </trkpt>
      <trkpt lat="45.90629" lon="4.75938">
        <ele>186</ele>
        <time>2018-01-10T11:11:46Z</time>
      </trkpt>
      <trkpt lat="45.90633" lon="4.75932">
        <ele>186</ele>
        <time>2018-01-10T11:11:47Z</time>
      </trkpt>
      <trkpt lat="45.90637" lon="4.75928">
        <ele>186</ele>
        <time>2018-01-10T11:11:48Z</time>
      </trkpt>
      <trkpt lat="45.90641" lon="4.75923">
        <ele>186</ele>
        <time>2018-01-10T11:11:49Z</time>
      </trkpt>
      <trkpt lat="45.90645" lon="4.75917">
        <ele>187</ele>
        <time>2018-01-10T11:11:50Z</time>
      </trkpt>
      <trkpt lat="45.90648" lon="4.75912">
        <ele>187</ele>
        <time>2018-01-10T11:11:51Z</time>
      </trkpt>
      <trkpt lat="45.90654" lon="4.75904">
        <ele>187</ele>
        <time>2018-01-10T11:11:53Z</time>
      </trkpt>
      <trkpt lat="45.90658" lon="4.75897">
        <ele>187</ele>
        <time>2018-01-10T11:11:54Z</time>
      </trkpt>
      <trkpt lat="45.90662" lon="4.75892">
        <ele>187</ele>
        <time>2018-01-10T11:11:55Z</time>
      </trkpt>
      <trkpt lat="45.90665" lon="4.75887">
        <ele>187</ele>
        <time>2018-01-10T11:11:56Z</time>
      </trkpt>
      <trkpt lat="45.9067" lon="4.75883">
        <ele>187</ele>
        <time>2018-01-10T11:11:57Z</time>
      </trkpt>
      <trkpt lat="45.90674" lon="4.75879">
        <ele>187</ele>
        <time>2018-01-10T11:11:58Z</time>
      </trkpt>
      <trkpt lat="45.90678" lon="4.75875">
        <ele>187</ele>
        <time>2018-01-10T11:11:59Z</time>
      </trkpt>
      <trkpt lat="45.90681" lon="4.75872">
        <ele>187</ele>
        <time>2018-01-10T11:12:00Z</time>
      </trkpt>
      <trkpt lat="45.90687" lon="4.75869">
        <ele>187</ele>
        <time>2018-01-10T11:12:01Z</time>
      </trkpt>
      <trkpt lat="45.90692" lon="4.75867">
        <ele>187</ele>
        <time>2018-01-10T11:12:02Z</time>
      </trkpt>
      <trkpt lat="45.90697" lon="4.75865">
        <ele>187</ele>
        <time>2018-01-10T11:12:03Z</time>
      </trkpt>
      <trkpt lat="45.90702" lon="4.75864">
        <ele>187</ele>
        <time>2018-01-10T11:12:04Z</time>
      </trkpt>
      <trkpt lat="45.90707" lon="4.75864">
        <ele>187</ele>
        <time>2018-01-10T11:12:05Z</time>
      </trkpt>
      <trkpt lat="45.90711" lon="4.75863">
        <ele>187</ele>
        <time>2018-01-10T11:12:06Z</time>
      </trkpt>
      <trkpt lat="45.90716" lon="4.75862">
        <ele>186</ele>
        <time>2018-01-10T11:12:07Z</time>
      </trkpt>
      <trkpt lat="45.90721" lon="4.75862">
        <ele>186</ele>
        <time>2018-01-10T11:12:08Z</time>
      </trkpt>
      <trkpt lat="45.90726" lon="4.75862">
        <ele>186</ele>
        <time>2018-01-10T11:12:09Z</time>
      </trkpt>
      <trkpt lat="45.90732" lon="4.75862">
        <ele>186</ele>
        <time>2018-01-10T11:12:10Z</time>
      </trkpt>
      <trkpt lat="45.90737" lon="4.75862">
        <ele>186</ele>
        <time>2018-01-10T11:12:11Z</time>
      </trkpt>
      <trkpt lat="45.90743" lon="4.75864">
        <ele>186</ele>
        <time>2018-01-10T11:12:12Z</time>
      </trkpt>
      <trkpt lat="45.9075" lon="4.75864">
        <ele>186</ele>
        <time>2018-01-10T11:12:13Z</time>
      </trkpt>
      <trkpt lat="45.90755" lon="4.75863">
        <ele>185</ele>
        <time>2018-01-10T11:12:14Z</time>
      </trkpt>
      <trkpt lat="45.90761" lon="4.75863">
        <ele>185</ele>
        <time>2018-01-10T11:12:15Z</time>
      </trkpt>
      <trkpt lat="45.90767" lon="4.75864">
        <ele>185</ele>
        <time>2018-01-10T11:12:16Z</time>
      </trkpt>
      <trkpt lat="45.90774" lon="4.75865">
        <ele>185</ele>
        <time>2018-01-10T11:12:17Z</time>
      </trkpt>
      <trkpt lat="45.9078" lon="4.75865">
        <ele>185</ele>
        <time>2018-01-10T11:12:18Z</time>
      </trkpt>
      <trkpt lat="45.90786" lon="4.75866">
        <ele>185</ele>
        <time>2018-01-10T11:12:19Z</time>
      </trkpt>
      <trkpt lat="45.90791" lon="4.75867">
        <ele>185</ele>
        <time>2018-01-10T11:12:20Z</time>
      </trkpt>
      <trkpt lat="45.90796" lon="4.75867">
        <ele>185</ele>
        <time>2018-01-10T11:12:21Z</time>
      </trkpt>
      <trkpt lat="45.90802" lon="4.75867">
        <ele>185</ele>
        <time>2018-01-10T11:12:22Z</time>
      </trkpt>
      <trkpt lat="45.90808" lon="4.75868">
        <ele>185</ele>
        <time>2018-01-10T11:12:23Z</time>
      </trkpt>
      <trkpt lat="45.90813" lon="4.75868">
        <ele>185</ele>
        <time>2018-01-10T11:12:24Z</time>
      </trkpt>
      <trkpt lat="45.90819" lon="4.7587">
        <ele>185</ele>
        <time>2018-01-10T11:12:25Z</time>
      </trkpt>
      <trkpt lat="45.90825" lon="4.7587">
        <ele>185</ele>
        <time>2018-01-10T11:12:26Z</time>
      </trkpt>
      <trkpt lat="45.9083" lon="4.75872">
        <ele>185</ele>
        <time>2018-01-10T11:12:27Z</time>
      </trkpt>
      <trkpt lat="45.90835" lon="4.75873">
        <ele>184</ele>
        <time>2018-01-10T11:12:28Z</time>
      </trkpt>
      <trkpt lat="45.90841" lon="4.75873">
        <ele>184</ele>
        <time>2018-01-10T11:12:29Z</time>
      </trkpt>
      <trkpt lat="45.90846" lon="4.75874">
        <ele>184</ele>
        <time>2018-01-10T11:12:30Z</time>
      </trkpt>
      <trkpt lat="45.90852" lon="4.75874">
        <ele>184</ele>
        <time>2018-01-10T11:12:31Z</time>
      </trkpt>
      <trkpt lat="45.90857" lon="4.75874">
        <ele>184</ele>
        <time>2018-01-10T11:12:32Z</time>
      </trkpt>
      <trkpt lat="45.90862" lon="4.75875">
        <ele>184</ele>
        <time>2018-01-10T11:12:33Z</time>
      </trkpt>
      <trkpt lat="45.90867" lon="4.75875">
        <ele>184</ele>
        <time>2018-01-10T11:12:34Z</time>
      </trkpt>
      <trkpt lat="45.90872" lon="4.75875">
        <ele>184</ele>
        <time>2018-01-10T11:12:35Z</time>
      </trkpt>
      <trkpt lat="45.90876" lon="4.75875">
        <ele>184</ele>
        <time>2018-01-10T11:12:36Z</time>
      </trkpt>
      <trkpt lat="45.90884" lon="4.75871">
        <ele>184</ele>
        <time>2018-01-10T11:12:38Z</time>
      </trkpt>
      <trkpt lat="45.90886" lon="4.75866">
        <ele>184</ele>
        <time>2018-01-10T11:12:39Z</time>
      </trkpt>
      <trkpt lat="45.90887" lon="4.75856">
        <ele>184</ele>
        <time>2018-01-10T11:12:41Z</time>
      </trkpt>
      <trkpt lat="45.90887" lon="4.7585">
        <ele>184</ele>
        <time>2018-01-10T11:12:42Z</time>
      </trkpt>
      <trkpt lat="45.90887" lon="4.75841">
        <ele>184</ele>
        <time>2018-01-10T11:12:44Z</time>
      </trkpt>
      <trkpt lat="45.90887" lon="4.75836">
        <ele>184</ele>
        <time>2018-01-10T11:12:45Z</time>
      </trkpt>
      <trkpt lat="45.90889" lon="4.75823">
        <ele>184</ele>
        <time>2018-01-10T11:12:48Z</time>
      </trkpt>
      <trkpt lat="45.90889" lon="4.75818">
        <ele>184</ele>
        <time>2018-01-10T11:12:49Z</time>
      </trkpt>
      <trkpt lat="45.90888" lon="4.75808">
        <ele>184</ele>
        <time>2018-01-10T11:12:51Z</time>
      </trkpt>
      <trkpt lat="45.90888" lon="4.75803">
        <ele>184</ele>
        <time>2018-01-10T11:12:52Z</time>
      </trkpt>
      <trkpt lat="45.90888" lon="4.75792">
        <ele>185</ele>
        <time>2018-01-10T11:12:54Z</time>
      </trkpt>
      <trkpt lat="45.90888" lon="4.75787">
        <ele>185</ele>
        <time>2018-01-10T11:12:55Z</time>
      </trkpt>
      <trkpt lat="45.90888" lon="4.75776">
        <ele>185</ele>
        <time>2018-01-10T11:12:57Z</time>
      </trkpt>
      <trkpt lat="45.90889" lon="4.75771">
        <ele>185</ele>
        <time>2018-01-10T11:12:58Z</time>
      </trkpt>
      <trkpt lat="45.9089" lon="4.7576">
        <ele>185</ele>
        <time>2018-01-10T11:13:00Z</time>
      </trkpt>
      <trkpt lat="45.90891" lon="4.75755">
        <ele>185</ele>
        <time>2018-01-10T11:13:01Z</time>
      </trkpt>
      <trkpt lat="45.90892" lon="4.75744">
        <ele>185</ele>
        <time>2018-01-10T11:13:03Z</time>
      </trkpt>
      <trkpt lat="45.90893" lon="4.75739">
        <ele>185</ele>
        <time>2018-01-10T11:13:04Z</time>
      </trkpt>
      <trkpt lat="45.90894" lon="4.75729">
        <ele>185</ele>
        <time>2018-01-10T11:13:06Z</time>
      </trkpt>
      <trkpt lat="45.90895" lon="4.75725">
        <ele>185</ele>
        <time>2018-01-10T11:13:07Z</time>
      </trkpt>
      <trkpt lat="45.90896" lon="4.75716">
        <ele>184</ele>
        <time>2018-01-10T11:13:09Z</time>
      </trkpt>
      <trkpt lat="45.90897" lon="4.75711">
        <ele>184</ele>
        <time>2018-01-10T11:13:10Z</time>
      </trkpt>
      <trkpt lat="45.90898" lon="4.75701">
        <ele>184</ele>
        <time>2018-01-10T11:13:12Z</time>
      </trkpt>
      <trkpt lat="45.90898" lon="4.75696">
        <ele>184</ele>
        <time>2018-01-10T11:13:13Z</time>
      </trkpt>
      <trkpt lat="45.90899" lon="4.75684">
        <ele>184</ele>
        <time>2018-01-10T11:13:16Z</time>
      </trkpt>
      <trkpt lat="45.909" lon="4.75681">
        <ele>184</ele>
        <time>2018-01-10T11:13:17Z</time>
      </trkpt>
      <trkpt lat="45.909" lon="4.75669">
        <ele>184</ele>
        <time>2018-01-10T11:13:21Z</time>
      </trkpt>
      <trkpt lat="45.909" lon="4.75666">
        <ele>184</ele>
        <time>2018-01-10T11:13:22Z</time>
      </trkpt>
      <trkpt lat="45.90901" lon="4.75655">
        <ele>184</ele>
        <time>2018-01-10T11:13:25Z</time>
      </trkpt>
      <trkpt lat="45.909" lon="4.75651">
        <ele>184</ele>
        <time>2018-01-10T11:13:26Z</time>
      </trkpt>
      <trkpt lat="45.909" lon="4.75641">
        <ele>185</ele>
        <time>2018-01-10T11:13:28Z</time>
      </trkpt>
      <trkpt lat="45.909" lon="4.75636">
        <ele>185</ele>
        <time>2018-01-10T11:13:29Z</time>
      </trkpt>
      <trkpt lat="45.909" lon="4.75627">
        <ele>185</ele>
        <time>2018-01-10T11:13:31Z</time>
      </trkpt>
      <trkpt lat="45.909" lon="4.75623">
        <ele>185</ele>
        <time>2018-01-10T11:13:32Z</time>
      </trkpt>
      <trkpt lat="45.909" lon="4.75613">
        <ele>185</ele>
        <time>2018-01-10T11:13:34Z</time>
      </trkpt>
      <trkpt lat="45.909" lon="4.75608">
        <ele>185</ele>
        <time>2018-01-10T11:13:35Z</time>
      </trkpt>
      <trkpt lat="45.90901" lon="4.75599">
        <ele>185</ele>
        <time>2018-01-10T11:13:37Z</time>
      </trkpt>
      <trkpt lat="45.90901" lon="4.75594">
        <ele>185</ele>
        <time>2018-01-10T11:13:38Z</time>
      </trkpt>
      <trkpt lat="45.90902" lon="4.75584">
        <ele>185</ele>
        <time>2018-01-10T11:13:40Z</time>
      </trkpt>
      <trkpt lat="45.90902" lon="4.75579">
        <ele>186</ele>
        <time>2018-01-10T11:13:41Z</time>
      </trkpt>
      <trkpt lat="45.90903" lon="4.75567">
        <ele>186</ele>
        <time>2018-01-10T11:13:43Z</time>
      </trkpt>
      <trkpt lat="45.90904" lon="4.75561">
        <ele>186</ele>
        <time>2018-01-10T11:13:44Z</time>
      </trkpt>
      <trkpt lat="45.90905" lon="4.75549">
        <ele>186</ele>
        <time>2018-01-10T11:13:46Z</time>
      </trkpt>
      <trkpt lat="45.90906" lon="4.75544">
        <ele>186</ele>
        <time>2018-01-10T11:13:47Z</time>
      </trkpt>
      <trkpt lat="45.90907" lon="4.75534">
        <ele>186</ele>
        <time>2018-01-10T11:13:49Z</time>
      </trkpt>
      <trkpt lat="45.90907" lon="4.7553">
        <ele>186</ele>
        <time>2018-01-10T11:13:50Z</time>
      </trkpt>
      <trkpt lat="45.90909" lon="4.7552">
        <ele>186</ele>
        <time>2018-01-10T11:13:52Z</time>
      </trkpt>
      <trkpt lat="45.90909" lon="4.75515">
        <ele>186</ele>
        <time>2018-01-10T11:13:53Z</time>
      </trkpt>
      <trkpt lat="45.90911" lon="4.75503">
        <ele>186</ele>
        <time>2018-01-10T11:13:55Z</time>
      </trkpt>
      <trkpt lat="45.90911" lon="4.75497">
        <ele>186</ele>
        <time>2018-01-10T11:13:56Z</time>
      </trkpt>
      <trkpt lat="45.90913" lon="4.75486">
        <ele>186</ele>
        <time>2018-01-10T11:13:58Z</time>
      </trkpt>
      <trkpt lat="45.90913" lon="4.75481">
        <ele>186</ele>
        <time>2018-01-10T11:13:59Z</time>
      </trkpt>
      <trkpt lat="45.90914" lon="4.7547">
        <ele>186</ele>
        <time>2018-01-10T11:14:01Z</time>
      </trkpt>
      <trkpt lat="45.90915" lon="4.75464">
        <ele>186</ele>
        <time>2018-01-10T11:14:02Z</time>
      </trkpt>
      <trkpt lat="45.90916" lon="4.75453">
        <ele>186</ele>
        <time>2018-01-10T11:14:04Z</time>
      </trkpt>
      <trkpt lat="45.90916" lon="4.75448">
        <ele>186</ele>
        <time>2018-01-10T11:14:05Z</time>
      </trkpt>
      <trkpt lat="45.90916" lon="4.75438">
        <ele>185</ele>
        <time>2018-01-10T11:14:07Z</time>
      </trkpt>
      <trkpt lat="45.90916" lon="4.75433">
        <ele>185</ele>
        <time>2018-01-10T11:14:08Z</time>
      </trkpt>
      <trkpt lat="45.90917" lon="4.75424">
        <ele>185</ele>
        <time>2018-01-10T11:14:10Z</time>
      </trkpt>
      <trkpt lat="45.90917" lon="4.75418">
        <ele>185</ele>
        <time>2018-01-10T11:14:11Z</time>
      </trkpt>
      <trkpt lat="45.90918" lon="4.75407">
        <ele>185</ele>
        <time>2018-01-10T11:14:13Z</time>
      </trkpt>
      <trkpt lat="45.90919" lon="4.75401">
        <ele>185</ele>
        <time>2018-01-10T11:14:14Z</time>
      </trkpt>
      <trkpt lat="45.9092" lon="4.75391">
        <ele>185</ele>
        <time>2018-01-10T11:14:16Z</time>
      </trkpt>
      <trkpt lat="45.90921" lon="4.75387">
        <ele>185</ele>
        <time>2018-01-10T11:14:17Z</time>
      </trkpt>
      <trkpt lat="45.90922" lon="4.75376">
        <ele>185</ele>
        <time>2018-01-10T11:14:19Z</time>
      </trkpt>
      <trkpt lat="45.90923" lon="4.75371">
        <ele>185</ele>
        <time>2018-01-10T11:14:20Z</time>
      </trkpt>
      <trkpt lat="45.90924" lon="4.75359">
        <ele>185</ele>
        <time>2018-01-10T11:14:22Z</time>
      </trkpt>
      <trkpt lat="45.90924" lon="4.75353">
        <ele>185</ele>
        <time>2018-01-10T11:14:23Z</time>
      </trkpt>
      <trkpt lat="45.90926" lon="4.75341">
        <ele>186</ele>
        <time>2018-01-10T11:14:25Z</time>
      </trkpt>
      <trkpt lat="45.90926" lon="4.75335">
        <ele>186</ele>
        <time>2018-01-10T11:14:26Z</time>
      </trkpt>
      <trkpt lat="45.90928" lon="4.75329">
        <ele>186</ele>
        <time>2018-01-10T11:14:27Z</time>
      </trkpt>
      <trkpt lat="45.90928" lon="4.75323">
        <ele>185</ele>
        <time>2018-01-10T11:14:28Z</time>
      </trkpt>
      <trkpt lat="45.9093" lon="4.75311">
        <ele>185</ele>
        <time>2018-01-10T11:14:30Z</time>
      </trkpt>
      <trkpt lat="45.9093" lon="4.75305">
        <ele>185</ele>
        <time>2018-01-10T11:14:31Z</time>
      </trkpt>
      <trkpt lat="45.90931" lon="4.75298">
        <ele>185</ele>
        <time>2018-01-10T11:14:32Z</time>
      </trkpt>
      <trkpt lat="45.90931" lon="4.75292">
        <ele>185</ele>
        <time>2018-01-10T11:14:33Z</time>
      </trkpt>
      <trkpt lat="45.90932" lon="4.75285">
        <ele>185</ele>
        <time>2018-01-10T11:14:34Z</time>
      </trkpt>
      <trkpt lat="45.90933" lon="4.75278">
        <ele>185</ele>
        <time>2018-01-10T11:14:35Z</time>
      </trkpt>
      <trkpt lat="45.90933" lon="4.75265">
        <ele>185</ele>
        <time>2018-01-10T11:14:37Z</time>
      </trkpt>
      <trkpt lat="45.90935" lon="4.75258">
        <ele>185</ele>
        <time>2018-01-10T11:14:38Z</time>
      </trkpt>
      <trkpt lat="45.90936" lon="4.75246">
        <ele>184</ele>
        <time>2018-01-10T11:14:40Z</time>
      </trkpt>
      <trkpt lat="45.90937" lon="4.75241">
        <ele>184</ele>
        <time>2018-01-10T11:14:41Z</time>
      </trkpt>
      <trkpt lat="45.90937" lon="4.75235">
        <ele>184</ele>
        <time>2018-01-10T11:14:42Z</time>
      </trkpt>
      <trkpt lat="45.9094" lon="4.75228">
        <ele>184</ele>
        <time>2018-01-10T11:14:43Z</time>
      </trkpt>
      <trkpt lat="45.90941" lon="4.75217">
        <ele>184</ele>
        <time>2018-01-10T11:14:45Z</time>
      </trkpt>
      <trkpt lat="45.90942" lon="4.75211">
        <ele>184</ele>
        <time>2018-01-10T11:14:46Z</time>
      </trkpt>
      <trkpt lat="45.90943" lon="4.75198">
        <ele>183</ele>
        <time>2018-01-10T11:14:48Z</time>
      </trkpt>
      <trkpt lat="45.90943" lon="4.75192">
        <ele>183</ele>
        <time>2018-01-10T11:14:49Z</time>
      </trkpt>
      <trkpt lat="45.90944" lon="4.7518">
        <ele>183</ele>
        <time>2018-01-10T11:14:51Z</time>
      </trkpt>
      <trkpt lat="45.90944" lon="4.75174">
        <ele>183</ele>
        <time>2018-01-10T11:14:52Z</time>
      </trkpt>
      <trkpt lat="45.90944" lon="4.75163">
        <ele>182</ele>
        <time>2018-01-10T11:14:54Z</time>
      </trkpt>
      <trkpt lat="45.90944" lon="4.75157">
        <ele>182</ele>
        <time>2018-01-10T11:14:55Z</time>
      </trkpt>
      <trkpt lat="45.90945" lon="4.75146">
        <ele>182</ele>
        <time>2018-01-10T11:14:57Z</time>
      </trkpt>
      <trkpt lat="45.90946" lon="4.7514">
        <ele>182</ele>
        <time>2018-01-10T11:14:58Z</time>
      </trkpt>
      <trkpt lat="45.90947" lon="4.75128">
        <ele>181</ele>
        <time>2018-01-10T11:15:00Z</time>
      </trkpt>
      <trkpt lat="45.90948" lon="4.75122">
        <ele>181</ele>
        <time>2018-01-10T11:15:01Z</time>
      </trkpt>
      <trkpt lat="45.90948" lon="4.7511">
        <ele>181</ele>
        <time>2018-01-10T11:15:03Z</time>
      </trkpt>
      <trkpt lat="45.90949" lon="4.75104">
        <ele>181</ele>
        <time>2018-01-10T11:15:04Z</time>
      </trkpt>
      <trkpt lat="45.9095" lon="4.75091">
        <ele>181</ele>
        <time>2018-01-10T11:15:06Z</time>
      </trkpt>
      <trkpt lat="45.90951" lon="4.75085">
        <ele>181</ele>
        <time>2018-01-10T11:15:07Z</time>
      </trkpt>
      <trkpt lat="45.90952" lon="4.75073">
        <ele>179</ele>
        <time>2018-01-10T11:15:09Z</time>
      </trkpt>
      <trkpt lat="45.90952" lon="4.75068">
        <ele>179</ele>
        <time>2018-01-10T11:15:10Z</time>
      </trkpt>
      <trkpt lat="45.90953" lon="4.75056">
        <ele>179</ele>
        <time>2018-01-10T11:15:13Z</time>
      </trkpt>
      <trkpt lat="45.90954" lon="4.75053">
        <ele>179</ele>
        <time>2018-01-10T11:15:14Z</time>
      </trkpt>
      <trkpt lat="45.90955" lon="4.75043">
        <ele>179</ele>
        <time>2018-01-10T11:15:19Z</time>
      </trkpt>
      <trkpt lat="45.90956" lon="4.7504">
        <ele>179</ele>
        <time>2018-01-10T11:15:20Z</time>
      </trkpt>
      <trkpt lat="45.90961" lon="4.7503">
        <ele>179</ele>
        <time>2018-01-10T11:15:23Z</time>
      </trkpt>
      <trkpt lat="45.90965" lon="4.75028">
        <ele>178</ele>
        <time>2018-01-10T11:15:24Z</time>
      </trkpt>
      <trkpt lat="45.90973" lon="4.75031">
        <ele>178</ele>
        <time>2018-01-10T11:15:26Z</time>
      </trkpt>
      <trkpt lat="45.90977" lon="4.75042">
        <ele>179</ele>
        <time>2018-01-10T11:15:27Z</time>
      </trkpt>
      <trkpt lat="45.90982" lon="4.75044">
        <ele>179</ele>
        <time>2018-01-10T11:15:28Z</time>
      </trkpt>
      <trkpt lat="45.90987" lon="4.75044">
        <ele>179</ele>
        <time>2018-01-10T11:15:29Z</time>
      </trkpt>
      <trkpt lat="45.90992" lon="4.75046">
        <ele>179</ele>
        <time>2018-01-10T11:15:30Z</time>
      </trkpt>
      <trkpt lat="45.90997" lon="4.75049">
        <ele>179</ele>
        <time>2018-01-10T11:15:31Z</time>
      </trkpt>
      <trkpt lat="45.91002" lon="4.75051">
        <ele>178</ele>
        <time>2018-01-10T11:15:32Z</time>
      </trkpt>
      <trkpt lat="45.91007" lon="4.75053">
        <ele>179</ele>
        <time>2018-01-10T11:15:33Z</time>
      </trkpt>
      <trkpt lat="45.91012" lon="4.75055">
        <ele>179</ele>
        <time>2018-01-10T11:15:34Z</time>
      </trkpt>
      <trkpt lat="45.91017" lon="4.75057">
        <ele>179</ele>
        <time>2018-01-10T11:15:35Z</time>
      </trkpt>
      <trkpt lat="45.91022" lon="4.75057">
        <ele>179</ele>
        <time>2018-01-10T11:15:36Z</time>
      </trkpt>
      <trkpt lat="45.91026" lon="4.75059">
        <ele>179</ele>
        <time>2018-01-10T11:15:37Z</time>
      </trkpt>
      <trkpt lat="45.9103" lon="4.7506">
        <ele>179</ele>
        <time>2018-01-10T11:15:38Z</time>
      </trkpt>
      <trkpt lat="45.91035" lon="4.75063">
        <ele>179</ele>
        <time>2018-01-10T11:15:39Z</time>
      </trkpt>
      <trkpt lat="45.91041" lon="4.75065">
        <ele>179</ele>
        <time>2018-01-10T11:15:40Z</time>
      </trkpt>
      <trkpt lat="45.91046" lon="4.75067">
        <ele>179</ele>
        <time>2018-01-10T11:15:41Z</time>
      </trkpt>
      <trkpt lat="45.91052" lon="4.75069">
        <ele>179</ele>
        <time>2018-01-10T11:15:42Z</time>
      </trkpt>
      <trkpt lat="45.91058" lon="4.75071">
        <ele>179</ele>
        <time>2018-01-10T11:15:43Z</time>
      </trkpt>
      <trkpt lat="45.91063" lon="4.75074">
        <ele>179</ele>
        <time>2018-01-10T11:15:44Z</time>
      </trkpt>
      <trkpt lat="45.91069" lon="4.75076">
        <ele>179</ele>
        <time>2018-01-10T11:15:45Z</time>
      </trkpt>
      <trkpt lat="45.91076" lon="4.75079">
        <ele>180</ele>
        <time>2018-01-10T11:15:46Z</time>
      </trkpt>
      <trkpt lat="45.91082" lon="4.75081">
        <ele>180</ele>
        <time>2018-01-10T11:15:47Z</time>
      </trkpt>
      <trkpt lat="45.91087" lon="4.75083">
        <ele>180</ele>
        <time>2018-01-10T11:15:48Z</time>
      </trkpt>
      <trkpt lat="45.91093" lon="4.75085">
        <ele>180</ele>
        <time>2018-01-10T11:15:49Z</time>
      </trkpt>
      <trkpt lat="45.91098" lon="4.75087">
        <ele>180</ele>
        <time>2018-01-10T11:15:50Z</time>
      </trkpt>
      <trkpt lat="45.91104" lon="4.75089">
        <ele>180</ele>
        <time>2018-01-10T11:15:51Z</time>
      </trkpt>
      <trkpt lat="45.9111" lon="4.7509">
        <ele>180</ele>
        <time>2018-01-10T11:15:52Z</time>
      </trkpt>
      <trkpt lat="45.91115" lon="4.75092">
        <ele>179</ele>
        <time>2018-01-10T11:15:53Z</time>
      </trkpt>
      <trkpt lat="45.9112" lon="4.75094">
        <ele>179</ele>
        <time>2018-01-10T11:15:54Z</time>
      </trkpt>
      <trkpt lat="45.91125" lon="4.75096">
        <ele>179</ele>
        <time>2018-01-10T11:15:55Z</time>
      </trkpt>
      <trkpt lat="45.9113" lon="4.75098">
        <ele>179</ele>
        <time>2018-01-10T11:15:56Z</time>
      </trkpt>
      <trkpt lat="45.91135" lon="4.751">
        <ele>179</ele>
        <time>2018-01-10T11:15:57Z</time>
      </trkpt>
      <trkpt lat="45.91141" lon="4.75103">
        <ele>179</ele>
        <time>2018-01-10T11:15:58Z</time>
      </trkpt>
      <trkpt lat="45.91147" lon="4.75105">
        <ele>179</ele>
        <time>2018-01-10T11:15:59Z</time>
      </trkpt>
      <trkpt lat="45.91153" lon="4.75106">
        <ele>179</ele>
        <time>2018-01-10T11:16:00Z</time>
      </trkpt>
      <trkpt lat="45.91159" lon="4.75108">
        <ele>179</ele>
        <time>2018-01-10T11:16:01Z</time>
      </trkpt>
      <trkpt lat="45.91165" lon="4.75109">
        <ele>179</ele>
        <time>2018-01-10T11:16:02Z</time>
      </trkpt>
      <trkpt lat="45.9117" lon="4.7511">
        <ele>178</ele>
        <time>2018-01-10T11:16:03Z</time>
      </trkpt>
      <trkpt lat="45.91176" lon="4.75112">
        <ele>178</ele>
        <time>2018-01-10T11:16:04Z</time>
      </trkpt>
      <trkpt lat="45.91181" lon="4.75113">
        <ele>178</ele>
        <time>2018-01-10T11:16:05Z</time>
      </trkpt>
      <trkpt lat="45.91187" lon="4.75114">
        <ele>178</ele>
        <time>2018-01-10T11:16:06Z</time>
      </trkpt>
      <trkpt lat="45.91192" lon="4.75115">
        <ele>178</ele>
        <time>2018-01-10T11:16:07Z</time>
      </trkpt>
      <trkpt lat="45.91197" lon="4.75116">
        <ele>178</ele>
        <time>2018-01-10T11:16:08Z</time>
      </trkpt>
      <trkpt lat="45.91202" lon="4.75117">
        <ele>178</ele>
        <time>2018-01-10T11:16:09Z</time>
      </trkpt>
      <trkpt lat="45.91207" lon="4.75119">
        <ele>178</ele>
        <time>2018-01-10T11:16:10Z</time>
      </trkpt>
      <trkpt lat="45.91212" lon="4.7512">
        <ele>177</ele>
        <time>2018-01-10T11:16:11Z</time>
      </trkpt>
      <trkpt lat="45.91217" lon="4.75122">
        <ele>177</ele>
        <time>2018-01-10T11:16:12Z</time>
      </trkpt>
      <trkpt lat="45.91222" lon="4.75123">
        <ele>177</ele>
        <time>2018-01-10T11:16:13Z</time>
      </trkpt>
      <trkpt lat="45.91227" lon="4.75126">
        <ele>177</ele>
        <time>2018-01-10T11:16:14Z</time>
      </trkpt>
      <trkpt lat="45.91233" lon="4.75129">
        <ele>177</ele>
        <time>2018-01-10T11:16:15Z</time>
      </trkpt>
      <trkpt lat="45.91239" lon="4.75131">
        <ele>177</ele>
        <time>2018-01-10T11:16:16Z</time>
      </trkpt>
      <trkpt lat="45.91244" lon="4.75134">
        <ele>177</ele>
        <time>2018-01-10T11:16:17Z</time>
      </trkpt>
      <trkpt lat="45.9125" lon="4.75136">
        <ele>177</ele>
        <time>2018-01-10T11:16:18Z</time>
      </trkpt>
      <trkpt lat="45.91255" lon="4.75139">
        <ele>177</ele>
        <time>2018-01-10T11:16:19Z</time>
      </trkpt>
      <trkpt lat="45.91261" lon="4.75142">
        <ele>177</ele>
        <time>2018-01-10T11:16:20Z</time>
      </trkpt>
      <trkpt lat="45.91265" lon="4.75145">
        <ele>177</ele>
        <time>2018-01-10T11:16:21Z</time>
      </trkpt>
      <trkpt lat="45.91271" lon="4.75147">
        <ele>177</ele>
        <time>2018-01-10T11:16:22Z</time>
      </trkpt>
      <trkpt lat="45.91275" lon="4.7515">
        <ele>177</ele>
        <time>2018-01-10T11:16:23Z</time>
      </trkpt>
      <trkpt lat="45.9128" lon="4.75153">
        <ele>177</ele>
        <time>2018-01-10T11:16:24Z</time>
      </trkpt>
      <trkpt lat="45.91285" lon="4.75155">
        <ele>177</ele>
        <time>2018-01-10T11:16:25Z</time>
      </trkpt>
      <trkpt lat="45.91294" lon="4.75158">
        <ele>177</ele>
        <time>2018-01-10T11:16:27Z</time>
      </trkpt>
      <trkpt lat="45.91297" lon="4.75159">
        <ele>177</ele>
        <time>2018-01-10T11:16:28Z</time>
      </trkpt>
      <trkpt lat="45.91305" lon="4.75163">
        <ele>177</ele>
        <time>2018-01-10T11:16:34Z</time>
      </trkpt>
      <trkpt lat="45.91306" lon="4.75164">
        <ele>177</ele>
        <time>2018-01-10T11:16:35Z</time>
      </trkpt>
      <trkpt lat="45.91308" lon="4.75156">
        <ele>177</ele>
        <time>2018-01-10T11:16:37Z</time>
      </trkpt>
      <trkpt lat="45.91307" lon="4.75151">
        <ele>177</ele>
        <time>2018-01-10T11:16:38Z</time>
      </trkpt>
      <trkpt lat="45.91304" lon="4.75139">
        <ele>177</ele>
        <time>2018-01-10T11:16:40Z</time>
      </trkpt>
      <trkpt lat="45.91304" lon="4.75131">
        <ele>177</ele>
        <time>2018-01-10T11:16:41Z</time>
      </trkpt>
      <trkpt lat="45.91303" lon="4.75125">
        <ele>177</ele>
        <time>2018-01-10T11:16:42Z</time>
      </trkpt>
      <trkpt lat="45.91302" lon="4.75118">
        <ele>177</ele>
        <time>2018-01-10T11:16:43Z</time>
      </trkpt>
      <trkpt lat="45.91301" lon="4.75106">
        <ele>177</ele>
        <time>2018-01-10T11:16:45Z</time>
      </trkpt>
      <trkpt lat="45.91302" lon="4.75098">
        <ele>177</ele>
        <time>2018-01-10T11:16:46Z</time>
      </trkpt>
      <trkpt lat="45.91302" lon="4.75091">
        <ele>177</ele>
        <time>2018-01-10T11:16:47Z</time>
      </trkpt>
      <trkpt lat="45.91302" lon="4.75084">
        <ele>177</ele>
        <time>2018-01-10T11:16:48Z</time>
      </trkpt>
      <trkpt lat="45.91302" lon="4.75077">
        <ele>177</ele>
        <time>2018-01-10T11:16:49Z</time>
      </trkpt>
      <trkpt lat="45.91301" lon="4.75071">
        <ele>177</ele>
        <time>2018-01-10T11:16:50Z</time>
      </trkpt>
      <trkpt lat="45.91301" lon="4.75059">
        <ele>177</ele>
        <time>2018-01-10T11:16:52Z</time>
      </trkpt>
      <trkpt lat="45.91301" lon="4.75052">
        <ele>177</ele>
        <time>2018-01-10T11:16:53Z</time>
      </trkpt>
      <trkpt lat="45.91301" lon="4.7504">
        <ele>177</ele>
        <time>2018-01-10T11:16:55Z</time>
      </trkpt>
      <trkpt lat="45.91301" lon="4.75033">
        <ele>177</ele>
        <time>2018-01-10T11:16:56Z</time>
      </trkpt>
      <trkpt lat="45.91301" lon="4.75026">
        <ele>177</ele>
        <time>2018-01-10T11:16:57Z</time>
      </trkpt>
      <trkpt lat="45.91301" lon="4.75019">
        <ele>177</ele>
        <time>2018-01-10T11:16:58Z</time>
      </trkpt>
      <trkpt lat="45.913" lon="4.75011">
        <ele>177</ele>
        <time>2018-01-10T11:16:59Z</time>
      </trkpt>
      <trkpt lat="45.913" lon="4.75004">
        <ele>177</ele>
        <time>2018-01-10T11:17:00Z</time>
      </trkpt>
      <trkpt lat="45.91301" lon="4.74995">
        <ele>177</ele>
        <time>2018-01-10T11:17:01Z</time>
      </trkpt>
      <trkpt lat="45.91302" lon="4.74987">
        <ele>177</ele>
        <time>2018-01-10T11:17:02Z</time>
      </trkpt>
      <trkpt lat="45.91302" lon="4.7498">
        <ele>177</ele>
        <time>2018-01-10T11:17:03Z</time>
      </trkpt>
      <trkpt lat="45.91303" lon="4.74972">
        <ele>177</ele>
        <time>2018-01-10T11:17:04Z</time>
      </trkpt>
      <trkpt lat="45.91305" lon="4.74959">
        <ele>177</ele>
        <time>2018-01-10T11:17:05Z</time>
      </trkpt>
      <trkpt lat="45.91308" lon="4.74948">
        <ele>177</ele>
        <time>2018-01-10T11:17:06Z</time>
      </trkpt>
      <trkpt lat="45.9131" lon="4.74939">
        <ele>177</ele>
        <time>2018-01-10T11:17:07Z</time>
      </trkpt>
      <trkpt lat="45.9131" lon="4.74932">
        <ele>177</ele>
        <time>2018-01-10T11:17:08Z</time>
      </trkpt>
      <trkpt lat="45.91309" lon="4.74924">
        <ele>177</ele>
        <time>2018-01-10T11:17:10Z</time>
      </trkpt>
      <trkpt lat="45.91309" lon="4.74918">
        <ele>177</ele>
        <time>2018-01-10T11:17:11Z</time>
      </trkpt>
      <trkpt lat="45.91309" lon="4.74908">
        <ele>176</ele>
        <time>2018-01-10T11:17:13Z</time>
      </trkpt>
      <trkpt lat="45.9131" lon="4.74902">
        <ele>176</ele>
        <time>2018-01-10T11:17:14Z</time>
      </trkpt>
      <trkpt lat="45.91311" lon="4.74892">
        <ele>176</ele>
        <time>2018-01-10T11:17:16Z</time>
      </trkpt>
      <trkpt lat="45.91313" lon="4.74886">
        <ele>176</ele>
        <time>2018-01-10T11:17:17Z</time>
      </trkpt>
      <trkpt lat="45.91319" lon="4.74883">
        <ele>176</ele>
        <time>2018-01-10T11:17:19Z</time>
      </trkpt>
      <trkpt lat="45.91324" lon="4.74883">
        <ele>176</ele>
        <time>2018-01-10T11:17:20Z</time>
      </trkpt>
      <trkpt lat="45.9133" lon="4.74884">
        <ele>176</ele>
        <time>2018-01-10T11:17:22Z</time>
      </trkpt>
      <trkpt lat="45.91334" lon="4.74886">
        <ele>176</ele>
        <time>2018-01-10T11:17:23Z</time>
      </trkpt>
      <trkpt lat="45.91338" lon="4.74888">
        <ele>176</ele>
        <time>2018-01-10T11:17:24Z</time>
      </trkpt>
      <trkpt lat="45.91343" lon="4.74889">
        <ele>176</ele>
        <time>2018-01-10T11:17:25Z</time>
      </trkpt>
      <trkpt lat="45.91351" lon="4.74892">
        <ele>176</ele>
        <time>2018-01-10T11:17:27Z</time>
      </trkpt>
      <trkpt lat="45.91356" lon="4.74895">
        <ele>176</ele>
        <time>2018-01-10T11:17:28Z</time>
      </trkpt>
      <trkpt lat="45.91361" lon="4.74896">
        <ele>176</ele>
        <time>2018-01-10T11:17:29Z</time>
      </trkpt>
      <trkpt lat="45.91366" lon="4.74898">
        <ele>177</ele>
        <time>2018-01-10T11:17:30Z</time>
      </trkpt>
      <trkpt lat="45.91371" lon="4.749">
        <ele>177</ele>
        <time>2018-01-10T11:17:31Z</time>
      </trkpt>
      <trkpt lat="45.91376" lon="4.74901">
        <ele>177</ele>
        <time>2018-01-10T11:17:32Z</time>
      </trkpt>
      <trkpt lat="45.9138" lon="4.74902">
        <ele>177</ele>
        <time>2018-01-10T11:17:33Z</time>
      </trkpt>
      <trkpt lat="45.91385" lon="4.74905">
        <ele>177</ele>
        <time>2018-01-10T11:17:34Z</time>
      </trkpt>
      <trkpt lat="45.91389" lon="4.74906">
        <ele>177</ele>
        <time>2018-01-10T11:17:35Z</time>
      </trkpt>
      <trkpt lat="45.91394" lon="4.74907">
        <ele>177</ele>
        <time>2018-01-10T11:17:36Z</time>
      </trkpt>
      <trkpt lat="45.91399" lon="4.74909">
        <ele>177</ele>
        <time>2018-01-10T11:17:37Z</time>
      </trkpt>
      <trkpt lat="45.91404" lon="4.7491">
        <ele>177</ele>
        <time>2018-01-10T11:17:38Z</time>
      </trkpt>
      <trkpt lat="45.91408" lon="4.74911">
        <ele>177</ele>
        <time>2018-01-10T11:17:39Z</time>
      </trkpt>
      <trkpt lat="45.91414" lon="4.74911">
        <ele>178</ele>
        <time>2018-01-10T11:17:40Z</time>
      </trkpt>
      <trkpt lat="45.91422" lon="4.74913">
        <ele>178</ele>
        <time>2018-01-10T11:17:42Z</time>
      </trkpt>
      <trkpt lat="45.91427" lon="4.74914">
        <ele>177</ele>
        <time>2018-01-10T11:17:43Z</time>
      </trkpt>
      <trkpt lat="45.91435" lon="4.74916">
        <ele>177</ele>
        <time>2018-01-10T11:17:45Z</time>
      </trkpt>
      <trkpt lat="45.91439" lon="4.74917">
        <ele>178</ele>
        <time>2018-01-10T11:17:46Z</time>
      </trkpt>
      <trkpt lat="45.91444" lon="4.74918">
        <ele>178</ele>
        <time>2018-01-10T11:17:47Z</time>
      </trkpt>
      <trkpt lat="45.91449" lon="4.7492">
        <ele>178</ele>
        <time>2018-01-10T11:17:48Z</time>
      </trkpt>
      <trkpt lat="45.91454" lon="4.74921">
        <ele>178</ele>
        <time>2018-01-10T11:17:49Z</time>
      </trkpt>
      <trkpt lat="45.91459" lon="4.74922">
        <ele>178</ele>
        <time>2018-01-10T11:17:50Z</time>
      </trkpt>
      <trkpt lat="45.91464" lon="4.74923">
        <ele>178</ele>
        <time>2018-01-10T11:17:51Z</time>
      </trkpt>
      <trkpt lat="45.91468" lon="4.74923">
        <ele>178</ele>
        <time>2018-01-10T11:17:52Z</time>
      </trkpt>
      <trkpt lat="45.91473" lon="4.74925">
        <ele>178</ele>
        <time>2018-01-10T11:17:53Z</time>
      </trkpt>
      <trkpt lat="45.91477" lon="4.74926">
        <ele>178</ele>
        <time>2018-01-10T11:17:54Z</time>
      </trkpt>
      <trkpt lat="45.91483" lon="4.74927">
        <ele>178</ele>
        <time>2018-01-10T11:17:55Z</time>
      </trkpt>
      <trkpt lat="45.91489" lon="4.74929">
        <ele>178</ele>
        <time>2018-01-10T11:17:56Z</time>
      </trkpt>
      <trkpt lat="45.91495" lon="4.7493">
        <ele>178</ele>
        <time>2018-01-10T11:17:57Z</time>
      </trkpt>
      <trkpt lat="45.91501" lon="4.74931">
        <ele>177</ele>
        <time>2018-01-10T11:17:58Z</time>
      </trkpt>
      <trkpt lat="45.91505" lon="4.74933">
        <ele>177</ele>
        <time>2018-01-10T11:17:59Z</time>
      </trkpt>
      <trkpt lat="45.91509" lon="4.74935">
        <ele>177</ele>
        <time>2018-01-10T11:18:00Z</time>
      </trkpt>
      <trkpt lat="45.91516" lon="4.74935">
        <ele>177</ele>
        <time>2018-01-10T11:18:01Z</time>
      </trkpt>
      <trkpt lat="45.9152" lon="4.74936">
        <ele>177</ele>
        <time>2018-01-10T11:18:02Z</time>
      </trkpt>
      <trkpt lat="45.91526" lon="4.74938">
        <ele>178</ele>
        <time>2018-01-10T11:18:03Z</time>
      </trkpt>
      <trkpt lat="45.91531" lon="4.74938">
        <ele>178</ele>
        <time>2018-01-10T11:18:04Z</time>
      </trkpt>
      <trkpt lat="45.91537" lon="4.74938">
        <ele>178</ele>
        <time>2018-01-10T11:18:05Z</time>
      </trkpt>
      <trkpt lat="45.91543" lon="4.74939">
        <ele>178</ele>
        <time>2018-01-10T11:18:06Z</time>
      </trkpt>
      <trkpt lat="45.91548" lon="4.74939">
        <ele>178</ele>
        <time>2018-01-10T11:18:07Z</time>
      </trkpt>
      <trkpt lat="45.91553" lon="4.7494">
        <ele>178</ele>
        <time>2018-01-10T11:18:08Z</time>
      </trkpt>
      <trkpt lat="45.91558" lon="4.74938">
        <ele>178</ele>
        <time>2018-01-10T11:18:09Z</time>
      </trkpt>
      <trkpt lat="45.91563" lon="4.74938">
        <ele>178</ele>
        <time>2018-01-10T11:18:10Z</time>
      </trkpt>
      <trkpt lat="45.91568" lon="4.7494">
        <ele>178</ele>
        <time>2018-01-10T11:18:11Z</time>
      </trkpt>
      <trkpt lat="45.91573" lon="4.74941">
        <ele>178</ele>
        <time>2018-01-10T11:18:12Z</time>
      </trkpt>
      <trkpt lat="45.91578" lon="4.74942">
        <ele>178</ele>
        <time>2018-01-10T11:18:13Z</time>
      </trkpt>
      <trkpt lat="45.91582" lon="4.74945">
        <ele>178</ele>
        <time>2018-01-10T11:18:14Z</time>
      </trkpt>
      <trkpt lat="45.91588" lon="4.74945">
        <ele>177</ele>
        <time>2018-01-10T11:18:15Z</time>
      </trkpt>
      <trkpt lat="45.91593" lon="4.74947">
        <ele>177</ele>
        <time>2018-01-10T11:18:16Z</time>
      </trkpt>
      <trkpt lat="45.91598" lon="4.74949">
        <ele>177</ele>
        <time>2018-01-10T11:18:17Z</time>
      </trkpt>
      <trkpt lat="45.91603" lon="4.74953">
        <ele>177</ele>
        <time>2018-01-10T11:18:18Z</time>
      </trkpt>
      <trkpt lat="45.91607" lon="4.74955">
        <ele>177</ele>
        <time>2018-01-10T11:18:19Z</time>
      </trkpt>
      <trkpt lat="45.91612" lon="4.74958">
        <ele>177</ele>
        <time>2018-01-10T11:18:20Z</time>
      </trkpt>
      <trkpt lat="45.91621" lon="4.74961">
        <ele>177</ele>
        <time>2018-01-10T11:18:22Z</time>
      </trkpt>
      <trkpt lat="45.91625" lon="4.74963">
        <ele>177</ele>
        <time>2018-01-10T11:18:23Z</time>
      </trkpt>
      <trkpt lat="45.91633" lon="4.74965">
        <ele>176</ele>
        <time>2018-01-10T11:18:25Z</time>
      </trkpt>
      <trkpt lat="45.91638" lon="4.74966">
        <ele>176</ele>
        <time>2018-01-10T11:18:26Z</time>
      </trkpt>
      <trkpt lat="45.91645" lon="4.74969">
        <ele>176</ele>
        <time>2018-01-10T11:18:28Z</time>
      </trkpt>
      <trkpt lat="45.91649" lon="4.74971">
        <ele>176</ele>
        <time>2018-01-10T11:18:29Z</time>
      </trkpt>
      <trkpt lat="45.91654" lon="4.74973">
        <ele>176</ele>
        <time>2018-01-10T11:18:30Z</time>
      </trkpt>
      <trkpt lat="45.91659" lon="4.74975">
        <ele>176</ele>
        <time>2018-01-10T11:18:31Z</time>
      </trkpt>
      <trkpt lat="45.91667" lon="4.74978">
        <ele>176</ele>
        <time>2018-01-10T11:18:33Z</time>
      </trkpt>
      <trkpt lat="45.91671" lon="4.7498">
        <ele>175</ele>
        <time>2018-01-10T11:18:34Z</time>
      </trkpt>
      <trkpt lat="45.91676" lon="4.74982">
        <ele>175</ele>
        <time>2018-01-10T11:18:35Z</time>
      </trkpt>
      <trkpt lat="45.9168" lon="4.74983">
        <ele>175</ele>
        <time>2018-01-10T11:18:36Z</time>
      </trkpt>
      <trkpt lat="45.91685" lon="4.74984">
        <ele>175</ele>
        <time>2018-01-10T11:18:37Z</time>
      </trkpt>
      <trkpt lat="45.91689" lon="4.74985">
        <ele>175</ele>
        <time>2018-01-10T11:18:38Z</time>
      </trkpt>
      <trkpt lat="45.91694" lon="4.74986">
        <ele>175</ele>
        <time>2018-01-10T11:18:39Z</time>
      </trkpt>
      <trkpt lat="45.91699" lon="4.74985">
        <ele>175</ele>
        <time>2018-01-10T11:18:40Z</time>
      </trkpt>
      <trkpt lat="45.91706" lon="4.74979">
        <ele>175</ele>
        <time>2018-01-10T11:18:42Z</time>
      </trkpt>
      <trkpt lat="45.91711" lon="4.74975">
        <ele>175</ele>
        <time>2018-01-10T11:18:43Z</time>
      </trkpt>
      <trkpt lat="45.91717" lon="4.74968">
        <ele>175</ele>
        <time>2018-01-10T11:18:45Z</time>
      </trkpt>
      <trkpt lat="45.91722" lon="4.74966">
        <ele>175</ele>
        <time>2018-01-10T11:18:46Z</time>
      </trkpt>
      <trkpt lat="45.91726" lon="4.74963">
        <ele>175</ele>
        <time>2018-01-10T11:18:47Z</time>
      </trkpt>
      <trkpt lat="45.9173" lon="4.7496">
        <ele>175</ele>
        <time>2018-01-10T11:18:48Z</time>
      </trkpt>
      <trkpt lat="45.91736" lon="4.74955">
        <ele>175</ele>
        <time>2018-01-10T11:18:50Z</time>
      </trkpt>
      <trkpt lat="45.9174" lon="4.74951">
        <ele>174</ele>
        <time>2018-01-10T11:18:51Z</time>
      </trkpt>
      <trkpt lat="45.91745" lon="4.74946">
        <ele>174</ele>
        <time>2018-01-10T11:18:52Z</time>
      </trkpt>
      <trkpt lat="45.91749" lon="4.74942">
        <ele>174</ele>
        <time>2018-01-10T11:18:53Z</time>
      </trkpt>
      <trkpt lat="45.91753" lon="4.74938">
        <ele>174</ele>
        <time>2018-01-10T11:18:54Z</time>
      </trkpt>
      <trkpt lat="45.91757" lon="4.74932">
        <ele>174</ele>
        <time>2018-01-10T11:18:55Z</time>
      </trkpt>
      <trkpt lat="45.9176" lon="4.74927">
        <ele>174</ele>
        <time>2018-01-10T11:18:56Z</time>
      </trkpt>
      <trkpt lat="45.91765" lon="4.7492">
        <ele>174</ele>
        <time>2018-01-10T11:18:57Z</time>
      </trkpt>
      <trkpt lat="45.91769" lon="4.7491">
        <ele>173</ele>
        <time>2018-01-10T11:18:58Z</time>
      </trkpt>
      <trkpt lat="45.91775" lon="4.74901">
        <ele>173</ele>
        <time>2018-01-10T11:18:59Z</time>
      </trkpt>
      <trkpt lat="45.91778" lon="4.74895">
        <ele>173</ele>
        <time>2018-01-10T11:19:00Z</time>
      </trkpt>
      <trkpt lat="45.91781" lon="4.74888">
        <ele>173</ele>
        <time>2018-01-10T11:19:01Z</time>
      </trkpt>
      <trkpt lat="45.91785" lon="4.7488">
        <ele>173</ele>
        <time>2018-01-10T11:19:02Z</time>
      </trkpt>
      <trkpt lat="45.91788" lon="4.74872">
        <ele>173</ele>
        <time>2018-01-10T11:19:03Z</time>
      </trkpt>
      <trkpt lat="45.91792" lon="4.74865">
        <ele>173</ele>
        <time>2018-01-10T11:19:04Z</time>
      </trkpt>
      <trkpt lat="45.91795" lon="4.74857">
        <ele>173</ele>
        <time>2018-01-10T11:19:05Z</time>
      </trkpt>
      <trkpt lat="45.91799" lon="4.7485">
        <ele>173</ele>
        <time>2018-01-10T11:19:06Z</time>
      </trkpt>
      <trkpt lat="45.91803" lon="4.74843">
        <ele>172</ele>
        <time>2018-01-10T11:19:07Z</time>
      </trkpt>
      <trkpt lat="45.91807" lon="4.74836">
        <ele>172</ele>
        <time>2018-01-10T11:19:08Z</time>
      </trkpt>
      <trkpt lat="45.91811" lon="4.7483">
        <ele>172</ele>
        <time>2018-01-10T11:19:09Z</time>
      </trkpt>
      <trkpt lat="45.91814" lon="4.74824">
        <ele>172</ele>
        <time>2018-01-10T11:19:10Z</time>
      </trkpt>
      <trkpt lat="45.91818" lon="4.74819">
        <ele>172</ele>
        <time>2018-01-10T11:19:11Z</time>
      </trkpt>
      <trkpt lat="45.91823" lon="4.74814">
        <ele>172</ele>
        <time>2018-01-10T11:19:12Z</time>
      </trkpt>
      <trkpt lat="45.91826" lon="4.74809">
        <ele>172</ele>
        <time>2018-01-10T11:19:13Z</time>
      </trkpt>
      <trkpt lat="45.91831" lon="4.74802">
        <ele>172</ele>
        <time>2018-01-10T11:19:14Z</time>
      </trkpt>
      <trkpt lat="45.91836" lon="4.74796">
        <ele>172</ele>
        <time>2018-01-10T11:19:15Z</time>
      </trkpt>
      <trkpt lat="45.9184" lon="4.74789">
        <ele>171</ele>
        <time>2018-01-10T11:19:16Z</time>
      </trkpt>
      <trkpt lat="45.91846" lon="4.74782">
        <ele>171</ele>
        <time>2018-01-10T11:19:17Z</time>
      </trkpt>
      <trkpt lat="45.91853" lon="4.74773">
        <ele>171</ele>
        <time>2018-01-10T11:19:18Z</time>
      </trkpt>
      <trkpt lat="45.91858" lon="4.74768">
        <ele>171</ele>
        <time>2018-01-10T11:19:19Z</time>
      </trkpt>
      <trkpt lat="45.91861" lon="4.74765">
        <ele>171</ele>
        <time>2018-01-10T11:19:20Z</time>
      </trkpt>
      <trkpt lat="45.91867" lon="4.74764">
        <ele>171</ele>
        <time>2018-01-10T11:19:21Z</time>
      </trkpt>
      <trkpt lat="45.91872" lon="4.74762">
        <ele>171</ele>
        <time>2018-01-10T11:19:22Z</time>
      </trkpt>
      <trkpt lat="45.91877" lon="4.74764">
        <ele>172</ele>
        <time>2018-01-10T11:19:23Z</time>
      </trkpt>
      <trkpt lat="45.91881" lon="4.74769">
        <ele>172</ele>
        <time>2018-01-10T11:19:24Z</time>
      </trkpt>
      <trkpt lat="45.91887" lon="4.74772">
        <ele>172</ele>
        <time>2018-01-10T11:19:25Z</time>
      </trkpt>
      <trkpt lat="45.91891" lon="4.74775">
        <ele>172</ele>
        <time>2018-01-10T11:19:26Z</time>
      </trkpt>
      <trkpt lat="45.91897" lon="4.74778">
        <ele>172</ele>
        <time>2018-01-10T11:19:27Z</time>
      </trkpt>
      <trkpt lat="45.91903" lon="4.74782">
        <ele>172</ele>
        <time>2018-01-10T11:19:28Z</time>
      </trkpt>
      <trkpt lat="45.91909" lon="4.74785">
        <ele>172</ele>
        <time>2018-01-10T11:19:29Z</time>
      </trkpt>
      <trkpt lat="45.91914" lon="4.74788">
        <ele>172</ele>
        <time>2018-01-10T11:19:30Z</time>
      </trkpt>
      <trkpt lat="45.91921" lon="4.74791">
        <ele>171</ele>
        <time>2018-01-10T11:19:31Z</time>
      </trkpt>
      <trkpt lat="45.91927" lon="4.74794">
        <ele>170</ele>
        <time>2018-01-10T11:19:32Z</time>
      </trkpt>
      <trkpt lat="45.91934" lon="4.74798">
        <ele>170</ele>
        <time>2018-01-10T11:19:33Z</time>
      </trkpt>
      <trkpt lat="45.91941" lon="4.74801">
        <ele>170</ele>
        <time>2018-01-10T11:19:34Z</time>
      </trkpt>
      <trkpt lat="45.91947" lon="4.74805">
        <ele>170</ele>
        <time>2018-01-10T11:19:35Z</time>
      </trkpt>
      <trkpt lat="45.91954" lon="4.74808">
        <ele>170</ele>
        <time>2018-01-10T11:19:36Z</time>
      </trkpt>
      <trkpt lat="45.9196" lon="4.74812">
        <ele>170</ele>
        <time>2018-01-10T11:19:37Z</time>
      </trkpt>
      <trkpt lat="45.91965" lon="4.74817">
        <ele>170</ele>
        <time>2018-01-10T11:19:38Z</time>
      </trkpt>
      <trkpt lat="45.9197" lon="4.7482">
        <ele>170</ele>
        <time>2018-01-10T11:19:39Z</time>
      </trkpt>
      <trkpt lat="45.91976" lon="4.74823">
        <ele>169</ele>
        <time>2018-01-10T11:19:40Z</time>
      </trkpt>
      <trkpt lat="45.91982" lon="4.74827">
        <ele>169</ele>
        <time>2018-01-10T11:19:41Z</time>
      </trkpt>
      <trkpt lat="45.91987" lon="4.74831">
        <ele>169</ele>
        <time>2018-01-10T11:19:42Z</time>
      </trkpt>
      <trkpt lat="45.91992" lon="4.74834">
        <ele>168</ele>
        <time>2018-01-10T11:19:43Z</time>
      </trkpt>
      <trkpt lat="45.91997" lon="4.74837">
        <ele>168</ele>
        <time>2018-01-10T11:19:44Z</time>
      </trkpt>
      <trkpt lat="45.92002" lon="4.74839">
        <ele>168</ele>
        <time>2018-01-10T11:19:45Z</time>
      </trkpt>
      <trkpt lat="45.92007" lon="4.74843">
        <ele>168</ele>
        <time>2018-01-10T11:19:46Z</time>
      </trkpt>
      <trkpt lat="45.92012" lon="4.74844">
        <ele>168</ele>
        <time>2018-01-10T11:19:47Z</time>
      </trkpt>
      <trkpt lat="45.92017" lon="4.74846">
        <ele>169</ele>
        <time>2018-01-10T11:19:48Z</time>
      </trkpt>
      <trkpt lat="45.92023" lon="4.74849">
        <ele>169</ele>
        <time>2018-01-10T11:19:49Z</time>
      </trkpt>
      <trkpt lat="45.92028" lon="4.74853">
        <ele>169</ele>
        <time>2018-01-10T11:19:50Z</time>
      </trkpt>
      <trkpt lat="45.92034" lon="4.74856">
        <ele>169</ele>
        <time>2018-01-10T11:19:51Z</time>
      </trkpt>
      <trkpt lat="45.92039" lon="4.74859">
        <ele>169</ele>
        <time>2018-01-10T11:19:52Z</time>
      </trkpt>
      <trkpt lat="45.92045" lon="4.74862">
        <ele>169</ele>
        <time>2018-01-10T11:19:53Z</time>
      </trkpt>
      <trkpt lat="45.9205" lon="4.74865">
        <ele>169</ele>
        <time>2018-01-10T11:19:54Z</time>
      </trkpt>
      <trkpt lat="45.92055" lon="4.74867">
        <ele>169</ele>
        <time>2018-01-10T11:19:55Z</time>
      </trkpt>
      <trkpt lat="45.9206" lon="4.7487">
        <ele>169</ele>
        <time>2018-01-10T11:19:56Z</time>
      </trkpt>
      <trkpt lat="45.92065" lon="4.74873">
        <ele>169</ele>
        <time>2018-01-10T11:19:57Z</time>
      </trkpt>
      <trkpt lat="45.9207" lon="4.74875">
        <ele>169</ele>
        <time>2018-01-10T11:19:58Z</time>
      </trkpt>
      <trkpt lat="45.92075" lon="4.74878">
        <ele>169</ele>
        <time>2018-01-10T11:19:59Z</time>
      </trkpt>
      <trkpt lat="45.92079" lon="4.74881">
        <ele>169</ele>
        <time>2018-01-10T11:20:00Z</time>
      </trkpt>
      <trkpt lat="45.92083" lon="4.74883">
        <ele>169</ele>
        <time>2018-01-10T11:20:01Z</time>
      </trkpt>
      <trkpt lat="45.92088" lon="4.74886">
        <ele>170</ele>
        <time>2018-01-10T11:20:02Z</time>
      </trkpt>
      <trkpt lat="45.92093" lon="4.74889">
        <ele>170</ele>
        <time>2018-01-10T11:20:03Z</time>
      </trkpt>
      <trkpt lat="45.92098" lon="4.74892">
        <ele>170</ele>
        <time>2018-01-10T11:20:04Z</time>
      </trkpt>
      <trkpt lat="45.92104" lon="4.74895">
        <ele>170</ele>
        <time>2018-01-10T11:20:05Z</time>
      </trkpt>
      <trkpt lat="45.9211" lon="4.74897">
        <ele>170</ele>
        <time>2018-01-10T11:20:06Z</time>
      </trkpt>
      <trkpt lat="45.92115" lon="4.749">
        <ele>170</ele>
        <time>2018-01-10T11:20:07Z</time>
      </trkpt>
      <trkpt lat="45.9212" lon="4.74903">
        <ele>170</ele>
        <time>2018-01-10T11:20:08Z</time>
      </trkpt>
      <trkpt lat="45.92125" lon="4.74905">
        <ele>170</ele>
        <time>2018-01-10T11:20:09Z</time>
      </trkpt>
      <trkpt lat="45.9213" lon="4.74908">
        <ele>170</ele>
        <time>2018-01-10T11:20:10Z</time>
      </trkpt>
      <trkpt lat="45.92134" lon="4.7491">
        <ele>170</ele>
        <time>2018-01-10T11:20:11Z</time>
      </trkpt>
      <trkpt lat="45.92137" lon="4.74913">
        <ele>170</ele>
        <time>2018-01-10T11:20:12Z</time>
      </trkpt>
      <trkpt lat="45.92142" lon="4.74915">
        <ele>170</ele>
        <time>2018-01-10T11:20:13Z</time>
      </trkpt>
      <trkpt lat="45.9215" lon="4.7492">
        <ele>170</ele>
        <time>2018-01-10T11:20:15Z</time>
      </trkpt>
      <trkpt lat="45.92155" lon="4.74922">
        <ele>170</ele>
        <time>2018-01-10T11:20:16Z</time>
      </trkpt>
      <trkpt lat="45.9216" lon="4.74925">
        <ele>170</ele>
        <time>2018-01-10T11:20:17Z</time>
      </trkpt>
      <trkpt lat="45.92165" lon="4.74929">
        <ele>170</ele>
        <time>2018-01-10T11:20:18Z</time>
      </trkpt>
      <trkpt lat="45.9217" lon="4.74932">
        <ele>171</ele>
        <time>2018-01-10T11:20:19Z</time>
      </trkpt>
      <trkpt lat="45.92175" lon="4.74934">
        <ele>171</ele>
        <time>2018-01-10T11:20:20Z</time>
      </trkpt>
      <trkpt lat="45.9218" lon="4.74937">
        <ele>171</ele>
        <time>2018-01-10T11:20:21Z</time>
      </trkpt>
      <trkpt lat="45.92185" lon="4.74938">
        <ele>171</ele>
        <time>2018-01-10T11:20:22Z</time>
      </trkpt>
      <trkpt lat="45.9219" lon="4.74941">
        <ele>171</ele>
        <time>2018-01-10T11:20:23Z</time>
      </trkpt>
      <trkpt lat="45.92194" lon="4.74943">
        <ele>171</ele>
        <time>2018-01-10T11:20:24Z</time>
      </trkpt>
      <trkpt lat="45.92199" lon="4.74946">
        <ele>171</ele>
        <time>2018-01-10T11:20:25Z</time>
      </trkpt>
      <trkpt lat="45.92203" lon="4.74948">
        <ele>171</ele>
        <time>2018-01-10T11:20:26Z</time>
      </trkpt>
      <trkpt lat="45.92207" lon="4.74951">
        <ele>171</ele>
        <time>2018-01-10T11:20:27Z</time>
      </trkpt>
      <trkpt lat="45.92212" lon="4.74953">
        <ele>171</ele>
        <time>2018-01-10T11:20:28Z</time>
      </trkpt>
      <trkpt lat="45.9222" lon="4.74957">
        <ele>171</ele>
        <time>2018-01-10T11:20:30Z</time>
      </trkpt>
      <trkpt lat="45.92224" lon="4.7496">
        <ele>171</ele>
        <time>2018-01-10T11:20:31Z</time>
      </trkpt>
      <trkpt lat="45.92232" lon="4.74962">
        <ele>171</ele>
        <time>2018-01-10T11:20:33Z</time>
      </trkpt>
      <trkpt lat="45.92235" lon="4.74962">
        <ele>171</ele>
        <time>2018-01-10T11:20:34Z</time>
      </trkpt>
      <trkpt lat="45.92242" lon="4.74955">
        <ele>172</ele>
        <time>2018-01-10T11:20:37Z</time>
      </trkpt>
      <trkpt lat="45.92243" lon="4.74952">
        <ele>172</ele>
        <time>2018-01-10T11:20:38Z</time>
      </trkpt>
      <trkpt lat="45.92246" lon="4.74941">
        <ele>172</ele>
        <time>2018-01-10T11:20:41Z</time>
      </trkpt>
      <trkpt lat="45.92247" lon="4.74936">
        <ele>172</ele>
        <time>2018-01-10T11:20:42Z</time>
      </trkpt>
      <trkpt lat="45.92252" lon="4.74925">
        <ele>172</ele>
        <time>2018-01-10T11:20:45Z</time>
      </trkpt>
      <trkpt lat="45.92253" lon="4.74923">
        <ele>172</ele>
        <time>2018-01-10T11:20:46Z</time>
      </trkpt>
      <trkpt lat="45.92256" lon="4.74912">
        <ele>172</ele>
        <time>2018-01-10T11:21:14Z</time>
      </trkpt>
      <trkpt lat="45.92258" lon="4.7491">
        <ele>172</ele>
        <time>2018-01-10T11:21:15Z</time>
      </trkpt>
      <trkpt lat="45.92266" lon="4.74905">
        <ele>172</ele>
        <time>2018-01-10T11:21:18Z</time>
      </trkpt>
      <trkpt lat="45.92268" lon="4.74904">
        <ele>172</ele>
        <time>2018-01-10T11:21:19Z</time>
      </trkpt>
      <trkpt lat="45.92273" lon="4.74898">
        <ele>172</ele>
        <time>2018-01-10T11:21:21Z</time>
      </trkpt>
      <trkpt lat="45.92275" lon="4.74894">
        <ele>172</ele>
        <time>2018-01-10T11:21:22Z</time>
      </trkpt>
      <trkpt lat="45.92279" lon="4.74886">
        <ele>172</ele>
        <time>2018-01-10T11:21:24Z</time>
      </trkpt>
      <trkpt lat="45.92281" lon="4.74883">
        <ele>172</ele>
        <time>2018-01-10T11:21:25Z</time>
      </trkpt>
      <trkpt lat="45.92287" lon="4.74874">
        <ele>171</ele>
        <time>2018-01-10T11:21:28Z</time>
      </trkpt>
      <trkpt lat="45.92289" lon="4.7487">
        <ele>171</ele>
        <time>2018-01-10T11:21:29Z</time>
      </trkpt>
      <trkpt lat="45.92293" lon="4.74862">
        <ele>172</ele>
        <time>2018-01-10T11:21:31Z</time>
      </trkpt>
      <trkpt lat="45.92295" lon="4.74859">
        <ele>172</ele>
        <time>2018-01-10T11:21:32Z</time>
      </trkpt>
      <trkpt lat="45.923" lon="4.74849">
        <ele>172</ele>
        <time>2018-01-10T11:21:36Z</time>
      </trkpt>
      <trkpt lat="45.92301" lon="4.74847">
        <ele>172</ele>
        <time>2018-01-10T11:21:37Z</time>
      </trkpt>
      <trkpt lat="45.92307" lon="4.74837">
        <ele>172</ele>
        <time>2018-01-10T11:21:40Z</time>
      </trkpt>
      <trkpt lat="45.92308" lon="4.74834">
        <ele>172</ele>
        <time>2018-01-10T11:21:41Z</time>
      </trkpt>
      <trkpt lat="45.92313" lon="4.74826">
        <ele>171</ele>
        <time>2018-01-10T11:21:44Z</time>
      </trkpt>
      <trkpt lat="45.92315" lon="4.74822">
        <ele>171</ele>
        <time>2018-01-10T11:21:45Z</time>
      </trkpt>
      <trkpt lat="45.9232" lon="4.74813">
        <ele>171</ele>
        <time>2018-01-10T11:21:47Z</time>
      </trkpt>
      <trkpt lat="45.92322" lon="4.74809">
        <ele>171</ele>
        <time>2018-01-10T11:21:48Z</time>
      </trkpt>
      <trkpt lat="45.92327" lon="4.748">
        <ele>171</ele>
        <time>2018-01-10T11:21:50Z</time>
      </trkpt>
      <trkpt lat="45.9233" lon="4.74795">
        <ele>171</ele>
        <time>2018-01-10T11:21:51Z</time>
      </trkpt>
      <trkpt lat="45.92335" lon="4.74785">
        <ele>171</ele>
        <time>2018-01-10T11:21:53Z</time>
      </trkpt>
      <trkpt lat="45.92337" lon="4.74781">
        <ele>171</ele>
        <time>2018-01-10T11:21:54Z</time>
      </trkpt>
      <trkpt lat="45.92341" lon="4.74775">
        <ele>171</ele>
        <time>2018-01-10T11:21:56Z</time>
      </trkpt>
      <trkpt lat="45.92343" lon="4.74771">
        <ele>171</ele>
        <time>2018-01-10T11:21:57Z</time>
      </trkpt>
      <trkpt lat="45.92348" lon="4.74763">
        <ele>171</ele>
        <time>2018-01-10T11:21:59Z</time>
      </trkpt>
      <trkpt lat="45.92351" lon="4.74759">
        <ele>171</ele>
        <time>2018-01-10T11:22:00Z</time>
      </trkpt>
      <trkpt lat="45.92356" lon="4.7475">
        <ele>170</ele>
        <time>2018-01-10T11:22:02Z</time>
      </trkpt>
      <trkpt lat="45.92358" lon="4.74746">
        <ele>171</ele>
        <time>2018-01-10T11:22:03Z</time>
      </trkpt>
      <trkpt lat="45.92363" lon="4.74737">
        <ele>171</ele>
        <time>2018-01-10T11:22:06Z</time>
      </trkpt>
      <trkpt lat="45.92365" lon="4.74735">
        <ele>171</ele>
        <time>2018-01-10T11:22:07Z</time>
      </trkpt>
      <trkpt lat="45.9237" lon="4.74725">
        <ele>171</ele>
        <time>2018-01-10T11:23:38Z</time>
      </trkpt>
      <trkpt lat="45.92371" lon="4.74723">
        <ele>171</ele>
        <time>2018-01-10T11:23:39Z</time>
      </trkpt>
      <trkpt lat="45.92376" lon="4.74715">
        <ele>171</ele>
        <time>2018-01-10T11:23:42Z</time>
      </trkpt>
      <trkpt lat="45.92377" lon="4.74712">
        <ele>171</ele>
        <time>2018-01-10T11:23:43Z</time>
      </trkpt>
      <trkpt lat="45.92383" lon="4.74703">
        <ele>171</ele>
        <time>2018-01-10T11:23:46Z</time>
      </trkpt>
      <trkpt lat="45.92384" lon="4.747">
        <ele>171</ele>
        <time>2018-01-10T11:23:47Z</time>
      </trkpt>
      <trkpt lat="45.92389" lon="4.74692">
        <ele>171</ele>
        <time>2018-01-10T11:23:50Z</time>
      </trkpt>
      <trkpt lat="45.92391" lon="4.7469">
        <ele>171</ele>
        <time>2018-01-10T11:23:51Z</time>
      </trkpt>
      <trkpt lat="45.92396" lon="4.7468">
        <ele>171</ele>
        <time>2018-01-10T11:23:55Z</time>
      </trkpt>
      <trkpt lat="45.92397" lon="4.74677">
        <ele>171</ele>
        <time>2018-01-10T11:23:56Z</time>
      </trkpt>
      <trkpt lat="45.92403" lon="4.74667">
        <ele>171</ele>
        <time>2018-01-10T11:24:00Z</time>
      </trkpt>
      <trkpt lat="45.92404" lon="4.74664">
        <ele>171</ele>
        <time>2018-01-10T11:24:01Z</time>
      </trkpt>
      <trkpt lat="45.92409" lon="4.74656">
        <ele>171</ele>
        <time>2018-01-10T11:24:04Z</time>
      </trkpt>
      <trkpt lat="45.92411" lon="4.74653">
        <ele>171</ele>
        <time>2018-01-10T11:24:05Z</time>
      </trkpt>
      <trkpt lat="45.92416" lon="4.74643">
        <ele>171</ele>
        <time>2018-01-10T11:24:08Z</time>
      </trkpt>
      <trkpt lat="45.92418" lon="4.74639">
        <ele>171</ele>
        <time>2018-01-10T11:24:09Z</time>
      </trkpt>
      <trkpt lat="45.92422" lon="4.74632">
        <ele>171</ele>
        <time>2018-01-10T11:24:11Z</time>
      </trkpt>
      <trkpt lat="45.92423" lon="4.74627">
        <ele>171</ele>
        <time>2018-01-10T11:24:12Z</time>
      </trkpt>
      <trkpt lat="45.92423" lon="4.74618">
        <ele>171</ele>
        <time>2018-01-10T11:24:14Z</time>
      </trkpt>
      <trkpt lat="45.92424" lon="4.74614">
        <ele>171</ele>
        <time>2018-01-10T11:24:15Z</time>
      </trkpt>
      <trkpt lat="45.92423" lon="4.74603">
        <ele>171</ele>
        <time>2018-01-10T11:24:18Z</time>
      </trkpt>
      <trkpt lat="45.92421" lon="4.74599">
        <ele>171</ele>
        <time>2018-01-10T11:24:19Z</time>
      </trkpt>
      <trkpt lat="45.92416" lon="4.74594">
        <ele>171</ele>
        <time>2018-01-10T11:24:21Z</time>
      </trkpt>
      <trkpt lat="45.92414" lon="4.7459">
        <ele>171</ele>
        <time>2018-01-10T11:24:22Z</time>
      </trkpt>
      <trkpt lat="45.92408" lon="4.74584">
        <ele>171</ele>
        <time>2018-01-10T11:24:24Z</time>
      </trkpt>
      <trkpt lat="45.92405" lon="4.74582">
        <ele>171</ele>
        <time>2018-01-10T11:24:25Z</time>
      </trkpt>
      <trkpt lat="45.92397" lon="4.74576">
        <ele>171</ele>
        <time>2018-01-10T11:24:28Z</time>
      </trkpt>
      <trkpt lat="45.92394" lon="4.74574">
        <ele>171</ele>
        <time>2018-01-10T11:24:29Z</time>
      </trkpt>
      <trkpt lat="45.92388" lon="4.7457">
        <ele>171</ele>
        <time>2018-01-10T11:24:31Z</time>
      </trkpt>
      <trkpt lat="45.92385" lon="4.74568">
        <ele>171</ele>
        <time>2018-01-10T11:24:32Z</time>
      </trkpt>
      <trkpt lat="45.92379" lon="4.74563">
        <ele>171</ele>
        <time>2018-01-10T11:24:34Z</time>
      </trkpt>
      <trkpt lat="45.92376" lon="4.7456">
        <ele>171</ele>
        <time>2018-01-10T11:24:35Z</time>
      </trkpt>
      <trkpt lat="45.9237" lon="4.74555">
        <ele>170</ele>
        <time>2018-01-10T11:24:37Z</time>
      </trkpt>
      <trkpt lat="45.92367" lon="4.74554">
        <ele>170</ele>
        <time>2018-01-10T11:24:38Z</time>
      </trkpt>
      <trkpt lat="45.92362" lon="4.7455">
        <ele>170</ele>
        <time>2018-01-10T11:24:40Z</time>
      </trkpt>
      <trkpt lat="45.92359" lon="4.74547">
        <ele>170</ele>
        <time>2018-01-10T11:24:41Z</time>
      </trkpt>
      <trkpt lat="45.92352" lon="4.74542">
        <ele>171</ele>
        <time>2018-01-10T11:24:43Z</time>
      </trkpt>
      <trkpt lat="45.92349" lon="4.74539">
        <ele>171</ele>
        <time>2018-01-10T11:24:44Z</time>
      </trkpt>
      <trkpt lat="45.92343" lon="4.74535">
        <ele>171</ele>
        <time>2018-01-10T11:24:46Z</time>
      </trkpt>
      <trkpt lat="45.9234" lon="4.74533">
        <ele>171</ele>
        <time>2018-01-10T11:24:47Z</time>
      </trkpt>
      <trkpt lat="45.92335" lon="4.74529">
        <ele>171</ele>
        <time>2018-01-10T11:24:49Z</time>
      </trkpt>
      <trkpt lat="45.92332" lon="4.74526">
        <ele>171</ele>
        <time>2018-01-10T11:24:50Z</time>
      </trkpt>
      <trkpt lat="45.92326" lon="4.74522">
        <ele>171</ele>
        <time>2018-01-10T11:24:52Z</time>
      </trkpt>
      <trkpt lat="45.92324" lon="4.7452">
        <ele>171</ele>
        <time>2018-01-10T11:24:53Z</time>
      </trkpt>
      <trkpt lat="45.92317" lon="4.74516">
        <ele>171</ele>
        <time>2018-01-10T11:24:55Z</time>
      </trkpt>
      <trkpt lat="45.92314" lon="4.74514">
        <ele>171</ele>
        <time>2018-01-10T11:24:56Z</time>
      </trkpt>
      <trkpt lat="45.92308" lon="4.7451">
        <ele>171</ele>
        <time>2018-01-10T11:24:58Z</time>
      </trkpt>
      <trkpt lat="45.92305" lon="4.74509">
        <ele>171</ele>
        <time>2018-01-10T11:24:59Z</time>
      </trkpt>
      <trkpt lat="45.92299" lon="4.74504">
        <ele>171</ele>
        <time>2018-01-10T11:25:01Z</time>
      </trkpt>
      <trkpt lat="45.92296" lon="4.74502">
        <ele>171</ele>
        <time>2018-01-10T11:25:02Z</time>
      </trkpt>
      <trkpt lat="45.9229" lon="4.74498">
        <ele>171</ele>
        <time>2018-01-10T11:25:04Z</time>
      </trkpt>
      <trkpt lat="45.92287" lon="4.74496">
        <ele>171</ele>
        <time>2018-01-10T11:25:05Z</time>
      </trkpt>
      <trkpt lat="45.9228" lon="4.74492">
        <ele>171</ele>
        <time>2018-01-10T11:25:07Z</time>
      </trkpt>
      <trkpt lat="45.92276" lon="4.7449">
        <ele>171</ele>
        <time>2018-01-10T11:25:08Z</time>
      </trkpt>
      <trkpt lat="45.92269" lon="4.74487">
        <ele>171</ele>
        <time>2018-01-10T11:25:10Z</time>
      </trkpt>
      <trkpt lat="45.92266" lon="4.74485">
        <ele>171</ele>
        <time>2018-01-10T11:25:11Z</time>
      </trkpt>
      <trkpt lat="45.92261" lon="4.7448">
        <ele>171</ele>
        <time>2018-01-10T11:25:13Z</time>
      </trkpt>
      <trkpt lat="45.92257" lon="4.74478">
        <ele>171</ele>
        <time>2018-01-10T11:25:14Z</time>
      </trkpt>
      <trkpt lat="45.92251" lon="4.74475">
        <ele>171</ele>
        <time>2018-01-10T11:25:16Z</time>
      </trkpt>
      <trkpt lat="45.92248" lon="4.74472">
        <ele>171</ele>
        <time>2018-01-10T11:25:17Z</time>
      </trkpt>
      <trkpt lat="45.92242" lon="4.74466">
        <ele>171</ele>
        <time>2018-01-10T11:25:20Z</time>
      </trkpt>
      <trkpt lat="45.9224" lon="4.74463">
        <ele>171</ele>
        <time>2018-01-10T11:25:21Z</time>
      </trkpt>
      <trkpt lat="45.92238" lon="4.74452">
        <ele>171</ele>
        <time>2018-01-10T11:25:24Z</time>
      </trkpt>
      <trkpt lat="45.92238" lon="4.74447">
        <ele>171</ele>
        <time>2018-01-10T11:25:25Z</time>
      </trkpt>
      <trkpt lat="45.9224" lon="4.74438">
        <ele>171</ele>
        <time>2018-01-10T11:25:27Z</time>
      </trkpt>
      <trkpt lat="45.92241" lon="4.74434">
        <ele>171</ele>
        <time>2018-01-10T11:25:28Z</time>
      </trkpt>
      <trkpt lat="45.92244" lon="4.74424">
        <ele>171</ele>
        <time>2018-01-10T11:25:31Z</time>
      </trkpt>
      <trkpt lat="45.92245" lon="4.74419">
        <ele>171</ele>
        <time>2018-01-10T11:25:32Z</time>
      </trkpt>
      <trkpt lat="45.92248" lon="4.74409">
        <ele>171</ele>
        <time>2018-01-10T11:25:34Z</time>
      </trkpt>
      <trkpt lat="45.92249" lon="4.74404">
        <ele>171</ele>
        <time>2018-01-10T11:25:35Z</time>
      </trkpt>
      <trkpt lat="45.92252" lon="4.74396">
        <ele>171</ele>
        <time>2018-01-10T11:25:37Z</time>
      </trkpt>
      <trkpt lat="45.92253" lon="4.74391">
        <ele>171</ele>
        <time>2018-01-10T11:25:38Z</time>
      </trkpt>
      <trkpt lat="45.92258" lon="4.74381">
        <ele>171</ele>
        <time>2018-01-10T11:25:40Z</time>
      </trkpt>
      <trkpt lat="45.9226" lon="4.74376">
        <ele>171</ele>
        <time>2018-01-10T11:25:41Z</time>
      </trkpt>
      <trkpt lat="45.92264" lon="4.74369">
        <ele>171</ele>
        <time>2018-01-10T11:25:43Z</time>
      </trkpt>
      <trkpt lat="45.92266" lon="4.74365">
        <ele>171</ele>
        <time>2018-01-10T11:25:44Z</time>
      </trkpt>
      <trkpt lat="45.92271" lon="4.74359">
        <ele>171</ele>
        <time>2018-01-10T11:25:47Z</time>
      </trkpt>
      <trkpt lat="45.92273" lon="4.74356">
        <ele>171</ele>
        <time>2018-01-10T11:25:48Z</time>
      </trkpt>
      <trkpt lat="45.92278" lon="4.74349">
        <ele>171</ele>
        <time>2018-01-10T11:25:50Z</time>
      </trkpt>
      <trkpt lat="45.9228" lon="4.74346">
        <ele>171</ele>
        <time>2018-01-10T11:25:51Z</time>
      </trkpt>
      <trkpt lat="45.92287" lon="4.7434">
        <ele>171</ele>
        <time>2018-01-10T11:25:53Z</time>
      </trkpt>
      <trkpt lat="45.92289" lon="4.74337">
        <ele>171</ele>
        <time>2018-01-10T11:25:54Z</time>
      </trkpt>
      <trkpt lat="45.92294" lon="4.74332">
        <ele>170</ele>
        <time>2018-01-10T11:25:56Z</time>
      </trkpt>
      <trkpt lat="45.92297" lon="4.74329">
        <ele>170</ele>
        <time>2018-01-10T11:25:57Z</time>
      </trkpt>
      <trkpt lat="45.92301" lon="4.74324">
        <ele>170</ele>
        <time>2018-01-10T11:25:58Z</time>
      </trkpt>
      <trkpt lat="45.92305" lon="4.74321">
        <ele>170</ele>
        <time>2018-01-10T11:25:59Z</time>
      </trkpt>
      <trkpt lat="45.92312" lon="4.74314">
        <ele>170</ele>
        <time>2018-01-10T11:26:01Z</time>
      </trkpt>
      <trkpt lat="45.92315" lon="4.74311">
        <ele>170</ele>
        <time>2018-01-10T11:26:02Z</time>
      </trkpt>
      <trkpt lat="45.92322" lon="4.74305">
        <ele>170</ele>
        <time>2018-01-10T11:26:04Z</time>
      </trkpt>
      <trkpt lat="45.92325" lon="4.74303">
        <ele>170</ele>
        <time>2018-01-10T11:26:05Z</time>
      </trkpt>
      <trkpt lat="45.92333" lon="4.743">
        <ele>170</ele>
        <time>2018-01-10T11:26:07Z</time>
      </trkpt>
      <trkpt lat="45.92337" lon="4.743">
        <ele>170</ele>
        <time>2018-01-10T11:26:08Z</time>
      </trkpt>
      <trkpt lat="45.92344" lon="4.74302">
        <ele>170</ele>
        <time>2018-01-10T11:26:10Z</time>
      </trkpt>
      <trkpt lat="45.92348" lon="4.74303">
        <ele>170</ele>
        <time>2018-01-10T11:26:11Z</time>
      </trkpt>
      <trkpt lat="45.92354" lon="4.74306">
        <ele>170</ele>
        <time>2018-01-10T11:26:13Z</time>
      </trkpt>
      <trkpt lat="45.92358" lon="4.74307">
        <ele>170</ele>
        <time>2018-01-10T11:26:14Z</time>
      </trkpt>
      <trkpt lat="45.92365" lon="4.74312">
        <ele>170</ele>
        <time>2018-01-10T11:26:16Z</time>
      </trkpt>
      <trkpt lat="45.92368" lon="4.74314">
        <ele>170</ele>
        <time>2018-01-10T11:26:17Z</time>
      </trkpt>
      <trkpt lat="45.92375" lon="4.74318">
        <ele>170</ele>
        <time>2018-01-10T11:26:19Z</time>
      </trkpt>
      <trkpt lat="45.92378" lon="4.74319">
        <ele>170</ele>
        <time>2018-01-10T11:26:20Z</time>
      </trkpt>
      <trkpt lat="45.92384" lon="4.7432">
        <ele>170</ele>
        <time>2018-01-10T11:26:22Z</time>
      </trkpt>
      <trkpt lat="45.92387" lon="4.74321">
        <ele>170</ele>
        <time>2018-01-10T11:26:23Z</time>
      </trkpt>
      <trkpt lat="45.92394" lon="4.7432">
        <ele>170</ele>
        <time>2018-01-10T11:26:25Z</time>
      </trkpt>
      <trkpt lat="45.92397" lon="4.74318">
        <ele>170</ele>
        <time>2018-01-10T11:26:26Z</time>
      </trkpt>
      <trkpt lat="45.92402" lon="4.74311">
        <ele>170</ele>
        <time>2018-01-10T11:26:29Z</time>
      </trkpt>
      <trkpt lat="45.92404" lon="4.74308">
        <ele>170</ele>
        <time>2018-01-10T11:26:30Z</time>
      </trkpt>
      <trkpt lat="45.92407" lon="4.74301">
        <ele>170</ele>
        <time>2018-01-10T11:26:33Z</time>
      </trkpt>
      <trkpt lat="45.92409" lon="4.74296">
        <ele>170</ele>
        <time>2018-01-10T11:26:34Z</time>
      </trkpt>
      <trkpt lat="45.92413" lon="4.74288">
        <ele>170</ele>
        <time>2018-01-10T11:26:36Z</time>
      </trkpt>
      <trkpt lat="45.92415" lon="4.74284">
        <ele>170</ele>
        <time>2018-01-10T11:26:37Z</time>
      </trkpt>
      <trkpt lat="45.92419" lon="4.74277">
        <ele>170</ele>
        <time>2018-01-10T11:26:39Z</time>
      </trkpt>
      <trkpt lat="45.92421" lon="4.74274">
        <ele>170</ele>
        <time>2018-01-10T11:26:40Z</time>
      </trkpt>
      <trkpt lat="45.92425" lon="4.74267">
        <ele>170</ele>
        <time>2018-01-10T11:26:42Z</time>
      </trkpt>
      <trkpt lat="45.92427" lon="4.74263">
        <ele>171</ele>
        <time>2018-01-10T11:26:43Z</time>
      </trkpt>
      <trkpt lat="45.92431" lon="4.74255">
        <ele>171</ele>
        <time>2018-01-10T11:26:45Z</time>
      </trkpt>
      <trkpt lat="45.92434" lon="4.74252">
        <ele>171</ele>
        <time>2018-01-10T11:26:46Z</time>
      </trkpt>
      <trkpt lat="45.92439" lon="4.74243">
        <ele>171</ele>
        <time>2018-01-10T11:26:48Z</time>
      </trkpt>
      <trkpt lat="45.92441" lon="4.74238">
        <ele>171</ele>
        <time>2018-01-10T11:26:49Z</time>
      </trkpt>
      <trkpt lat="45.92445" lon="4.7423">
        <ele>171</ele>
        <time>2018-01-10T11:26:51Z</time>
      </trkpt>
      <trkpt lat="45.92447" lon="4.74225">
        <ele>171</ele>
        <time>2018-01-10T11:26:52Z</time>
      </trkpt>
      <trkpt lat="45.92451" lon="4.74216">
        <ele>171</ele>
        <time>2018-01-10T11:26:54Z</time>
      </trkpt>
      <trkpt lat="45.92453" lon="4.74211">
        <ele>171</ele>
        <time>2018-01-10T11:26:55Z</time>
      </trkpt>
      <trkpt lat="45.92456" lon="4.74201">
        <ele>171</ele>
        <time>2018-01-10T11:26:57Z</time>
      </trkpt>
      <trkpt lat="45.92459" lon="4.74196">
        <ele>171</ele>
        <time>2018-01-10T11:26:58Z</time>
      </trkpt>
      <trkpt lat="45.92462" lon="4.74187">
        <ele>171</ele>
        <time>2018-01-10T11:27:00Z</time>
      </trkpt>
      <trkpt lat="45.92464" lon="4.74183">
        <ele>171</ele>
        <time>2018-01-10T11:27:01Z</time>
      </trkpt>
      <trkpt lat="45.92468" lon="4.74174">
        <ele>171</ele>
        <time>2018-01-10T11:27:03Z</time>
      </trkpt>
      <trkpt lat="45.92469" lon="4.7417">
        <ele>171</ele>
        <time>2018-01-10T11:27:04Z</time>
      </trkpt>
      <trkpt lat="45.92471" lon="4.74161">
        <ele>171</ele>
        <time>2018-01-10T11:27:06Z</time>
      </trkpt>
      <trkpt lat="45.92473" lon="4.74157">
        <ele>171</ele>
        <time>2018-01-10T11:27:07Z</time>
      </trkpt>
      <trkpt lat="45.92475" lon="4.7415">
        <ele>171</ele>
        <time>2018-01-10T11:27:09Z</time>
      </trkpt>
      <trkpt lat="45.92477" lon="4.74146">
        <ele>171</ele>
        <time>2018-01-10T11:27:10Z</time>
      </trkpt>
      <trkpt lat="45.92481" lon="4.74136">
        <ele>171</ele>
        <time>2018-01-10T11:27:12Z</time>
      </trkpt>
      <trkpt lat="45.92483" lon="4.74131">
        <ele>171</ele>
        <time>2018-01-10T11:27:13Z</time>
      </trkpt>
      <trkpt lat="45.92486" lon="4.74123">
        <ele>172</ele>
        <time>2018-01-10T11:27:15Z</time>
      </trkpt>
      <trkpt lat="45.92487" lon="4.74119">
        <ele>172</ele>
        <time>2018-01-10T11:27:16Z</time>
      </trkpt>
      <trkpt lat="45.92492" lon="4.74111">
        <ele>172</ele>
        <time>2018-01-10T11:27:18Z</time>
      </trkpt>
      <trkpt lat="45.92495" lon="4.74107">
        <ele>172</ele>
        <time>2018-01-10T11:27:19Z</time>
      </trkpt>
      <trkpt lat="45.92501" lon="4.741">
        <ele>172</ele>
        <time>2018-01-10T11:27:21Z</time>
      </trkpt>
      <trkpt lat="45.92504" lon="4.74096">
        <ele>172</ele>
        <time>2018-01-10T11:27:22Z</time>
      </trkpt>
      <trkpt lat="45.92511" lon="4.74088">
        <ele>172</ele>
        <time>2018-01-10T11:27:24Z</time>
      </trkpt>
      <trkpt lat="45.92512" lon="4.74086">
        <ele>172</ele>
        <time>2018-01-10T11:27:25Z</time>
      </trkpt>
      <trkpt lat="45.92517" lon="4.7408">
        <ele>172</ele>
        <time>2018-01-10T11:27:27Z</time>
      </trkpt>
      <trkpt lat="45.92519" lon="4.74075">
        <ele>172</ele>
        <time>2018-01-10T11:27:28Z</time>
      </trkpt>
      <trkpt lat="45.92523" lon="4.74068">
        <ele>172</ele>
        <time>2018-01-10T11:27:30Z</time>
      </trkpt>
      <trkpt lat="45.92525" lon="4.74065">
        <ele>172</ele>
        <time>2018-01-10T11:27:31Z</time>
      </trkpt>
      <trkpt lat="45.9253" lon="4.74058">
        <ele>172</ele>
        <time>2018-01-10T11:27:33Z</time>
      </trkpt>
      <trkpt lat="45.92533" lon="4.74053">
        <ele>172</ele>
        <time>2018-01-10T11:27:34Z</time>
      </trkpt>
      <trkpt lat="45.92538" lon="4.74046">
        <ele>172</ele>
        <time>2018-01-10T11:27:36Z</time>
      </trkpt>
      <trkpt lat="45.92541" lon="4.74041">
        <ele>172</ele>
        <time>2018-01-10T11:27:37Z</time>
      </trkpt>
      <trkpt lat="45.92546" lon="4.74032">
        <ele>172</ele>
        <time>2018-01-10T11:27:39Z</time>
      </trkpt>
      <trkpt lat="45.92548" lon="4.74028">
        <ele>172</ele>
        <time>2018-01-10T11:27:40Z</time>
      </trkpt>
      <trkpt lat="45.92552" lon="4.74019">
        <ele>172</ele>
        <time>2018-01-10T11:27:42Z</time>
      </trkpt>
      <trkpt lat="45.92554" lon="4.74015">
        <ele>172</ele>
        <time>2018-01-10T11:27:43Z</time>
      </trkpt>
      <trkpt lat="45.92556" lon="4.74005">
        <ele>172</ele>
        <time>2018-01-10T11:27:46Z</time>
      </trkpt>
      <trkpt lat="45.92554" lon="4.74001">
        <ele>172</ele>
        <time>2018-01-10T11:27:47Z</time>
      </trkpt>
      <trkpt lat="45.92548" lon="4.73998">
        <ele>172</ele>
        <time>2018-01-10T11:27:49Z</time>
      </trkpt>
      <trkpt lat="45.92544" lon="4.73997">
        <ele>172</ele>
        <time>2018-01-10T11:27:50Z</time>
      </trkpt>
      <trkpt lat="45.92536" lon="4.73994">
        <ele>172</ele>
        <time>2018-01-10T11:27:52Z</time>
      </trkpt>
      <trkpt lat="45.92532" lon="4.73994">
        <ele>172</ele>
        <time>2018-01-10T11:27:53Z</time>
      </trkpt>
      <trkpt lat="45.92525" lon="4.7399">
        <ele>172</ele>
        <time>2018-01-10T11:27:55Z</time>
      </trkpt>
      <trkpt lat="45.92522" lon="4.73988">
        <ele>172</ele>
        <time>2018-01-10T11:27:56Z</time>
      </trkpt>
      <trkpt lat="45.92515" lon="4.73985">
        <ele>172</ele>
        <time>2018-01-10T11:27:58Z</time>
      </trkpt>
      <trkpt lat="45.92512" lon="4.73983">
        <ele>172</ele>
        <time>2018-01-10T11:27:59Z</time>
      </trkpt>
      <trkpt lat="45.92505" lon="4.73978">
        <ele>172</ele>
        <time>2018-01-10T11:28:01Z</time>
      </trkpt>
      <trkpt lat="45.92501" lon="4.73976">
        <ele>172</ele>
        <time>2018-01-10T11:28:02Z</time>
      </trkpt>
      <trkpt lat="45.92493" lon="4.73973">
        <ele>172</ele>
        <time>2018-01-10T11:28:04Z</time>
      </trkpt>
      <trkpt lat="45.92489" lon="4.73972">
        <ele>172</ele>
        <time>2018-01-10T11:28:05Z</time>
      </trkpt>
      <trkpt lat="45.92481" lon="4.73968">
        <ele>172</ele>
        <time>2018-01-10T11:28:07Z</time>
      </trkpt>
      <trkpt lat="45.92477" lon="4.73966">
        <ele>172</ele>
        <time>2018-01-10T11:28:08Z</time>
      </trkpt>
      <trkpt lat="45.9247" lon="4.73962">
        <ele>172</ele>
        <time>2018-01-10T11:28:10Z</time>
      </trkpt>
      <trkpt lat="45.92467" lon="4.73959">
        <ele>172</ele>
        <time>2018-01-10T11:28:11Z</time>
      </trkpt>
      <trkpt lat="45.92459" lon="4.73954">
        <ele>172</ele>
        <time>2018-01-10T11:28:13Z</time>
      </trkpt>
      <trkpt lat="45.92457" lon="4.7395">
        <ele>172</ele>
        <time>2018-01-10T11:28:14Z</time>
      </trkpt>
      <trkpt lat="45.92454" lon="4.73939">
        <ele>172</ele>
        <time>2018-01-10T11:28:16Z</time>
      </trkpt>
      <trkpt lat="45.92454" lon="4.73933">
        <ele>172</ele>
        <time>2018-01-10T11:28:17Z</time>
      </trkpt>
      <trkpt lat="45.92455" lon="4.73926">
        <ele>172</ele>
        <time>2018-01-10T11:28:18Z</time>
      </trkpt>
      <trkpt lat="45.92456" lon="4.73919">
        <ele>172</ele>
        <time>2018-01-10T11:28:19Z</time>
      </trkpt>
      <trkpt lat="45.92458" lon="4.73907">
        <ele>172</ele>
        <time>2018-01-10T11:28:21Z</time>
      </trkpt>
      <trkpt lat="45.92458" lon="4.73901">
        <ele>171</ele>
        <time>2018-01-10T11:28:22Z</time>
      </trkpt>
      <trkpt lat="45.92458" lon="4.73888">
        <ele>171</ele>
        <time>2018-01-10T11:28:24Z</time>
      </trkpt>
      <trkpt lat="45.92459" lon="4.73882">
        <ele>171</ele>
        <time>2018-01-10T11:28:25Z</time>
      </trkpt>
      <trkpt lat="45.92459" lon="4.73872">
        <ele>171</ele>
        <time>2018-01-10T11:28:27Z</time>
      </trkpt>
      <trkpt lat="45.92459" lon="4.73867">
        <ele>171</ele>
        <time>2018-01-10T11:28:28Z</time>
      </trkpt>
      <trkpt lat="45.9246" lon="4.73857">
        <ele>171</ele>
        <time>2018-01-10T11:28:30Z</time>
      </trkpt>
      <trkpt lat="45.9246" lon="4.73852">
        <ele>171</ele>
        <time>2018-01-10T11:28:31Z</time>
      </trkpt>
      <trkpt lat="45.9246" lon="4.73842">
        <ele>171</ele>
        <time>2018-01-10T11:28:33Z</time>
      </trkpt>
      <trkpt lat="45.92461" lon="4.73837">
        <ele>171</ele>
        <time>2018-01-10T11:28:34Z</time>
      </trkpt>
      <trkpt lat="45.92461" lon="4.73828">
        <ele>172</ele>
        <time>2018-01-10T11:28:36Z</time>
      </trkpt>
      <trkpt lat="45.92462" lon="4.73823">
        <ele>172</ele>
        <time>2018-01-10T11:28:37Z</time>
      </trkpt>
      <trkpt lat="45.92463" lon="4.73812">
        <ele>172</ele>
        <time>2018-01-10T11:28:39Z</time>
      </trkpt>
      <trkpt lat="45.92464" lon="4.73807">
        <ele>172</ele>
        <time>2018-01-10T11:28:40Z</time>
      </trkpt>
      <trkpt lat="45.92464" lon="4.73797">
        <ele>172</ele>
        <time>2018-01-10T11:28:42Z</time>
      </trkpt>
      <trkpt lat="45.92464" lon="4.73792">
        <ele>172</ele>
        <time>2018-01-10T11:28:43Z</time>
      </trkpt>
      <trkpt lat="45.92465" lon="4.73782">
        <ele>172</ele>
        <time>2018-01-10T11:28:45Z</time>
      </trkpt>
      <trkpt lat="45.92465" lon="4.73777">
        <ele>173</ele>
        <time>2018-01-10T11:28:46Z</time>
      </trkpt>
      <trkpt lat="45.92466" lon="4.73768">
        <ele>173</ele>
        <time>2018-01-10T11:28:48Z</time>
      </trkpt>
      <trkpt lat="45.92466" lon="4.73764">
        <ele>173</ele>
        <time>2018-01-10T11:28:49Z</time>
      </trkpt>
      <trkpt lat="45.92466" lon="4.73752">
        <ele>173</ele>
        <time>2018-01-10T11:28:51Z</time>
      </trkpt>
      <trkpt lat="45.92466" lon="4.73748">
        <ele>174</ele>
        <time>2018-01-10T11:28:52Z</time>
      </trkpt>
      <trkpt lat="45.92466" lon="4.73738">
        <ele>174</ele>
        <time>2018-01-10T11:28:54Z</time>
      </trkpt>
      <trkpt lat="45.92466" lon="4.73734">
        <ele>174</ele>
        <time>2018-01-10T11:28:55Z</time>
      </trkpt>
      <trkpt lat="45.92465" lon="4.73722">
        <ele>174</ele>
        <time>2018-01-10T11:28:59Z</time>
      </trkpt>
      <trkpt lat="45.92464" lon="4.7372">
        <ele>174</ele>
        <time>2018-01-10T11:29:00Z</time>
      </trkpt>
      <trkpt lat="45.92459" lon="4.7371">
        <ele>174</ele>
        <time>2018-01-10T11:29:52Z</time>
      </trkpt>
      <trkpt lat="45.92459" lon="4.73709">
        <ele>174</ele>
        <time>2018-01-10T11:29:53Z</time>
      </trkpt>
      <trkpt lat="45.92465" lon="4.73704">
        <ele>174</ele>
        <time>2018-01-10T11:31:06Z</time>
      </trkpt>
      <trkpt lat="45.92464" lon="4.73704">
        <ele>174</ele>
        <time>2018-01-10T11:31:07Z</time>
      </trkpt>
      <trkpt lat="45.92464" lon="4.73705">
        <ele>174</ele>
        <time>2018-01-10T11:31:08Z</time>
      </trkpt>
      <trkpt lat="45.92463" lon="4.73708">
        <ele>174</ele>
        <time>2018-01-10T11:33:37Z</time>
      </trkpt>
      <trkpt lat="45.92462" lon="4.73709">
        <ele>174</ele>
        <time>2018-01-10T11:33:38Z</time>
      </trkpt>
      <trkpt lat="45.92461" lon="4.73703">
        <ele>174</ele>
        <time>2018-01-10T11:34:14Z</time>
      </trkpt>
      <trkpt lat="45.92461" lon="4.73703">
        <ele>174</ele>
        <time>2018-01-10T11:34:15Z</time>
      </trkpt>
      <trkpt lat="45.92461" lon="4.73702">
        <ele>174</ele>
        <time>2018-01-10T11:34:19Z</time>
      </trkpt>
      <trkpt lat="45.92461" lon="4.73702">
        <ele>174</ele>
        <time>2018-01-10T11:34:20Z</time>
      </trkpt>
      <trkpt lat="45.9246" lon="4.73702">
        <ele>174</ele>
        <time>2018-01-10T11:35:10Z</time>
      </trkpt>
      <trkpt lat="45.9246" lon="4.73702">
        <ele>174</ele>
        <time>2018-01-10T11:35:11Z</time>
      </trkpt>
      <trkpt lat="45.9246" lon="4.73704">
        <ele>174</ele>
        <time>2018-01-10T11:36:17Z</time>
      </trkpt>
      <trkpt lat="45.9246" lon="4.73704">
        <ele>174</ele>
        <time>2018-01-10T11:36:18Z</time>
      </trkpt>
      <trkpt lat="45.9246" lon="4.73705">
        <ele>174</ele>
        <time>2018-01-10T11:36:19Z</time>
      </trkpt>
      <trkpt lat="45.9246" lon="4.73705">
        <ele>174</ele>
        <time>2018-01-10T11:36:20Z</time>
      </trkpt>
      <trkpt lat="45.9246" lon="4.7371">
        <ele>174</ele>
        <time>2018-01-10T11:43:52.124Z</time>
      </trkpt>
    </trkseg>
  </trk>
</gpx>